<?xml version="1.0" encoding="UTF-8" standalone="no" ?>
<gpx xmlns="http://www.topografix.com/GPX/1/1" xmlns:xsi="http://www.w3.org/2001/XMLSchema-instance" xsi:schemaLocation="http://www.topografix.com/GPX/1/1 http://www.topografix.com/GPX/1/1/gpx.xsd" version="1.1" creator="VisuGPX - https://www.visugpx.com">
  <metadata>
    <name>Pornichet Déconfiné</name>
    <desc><![CDATA[Sortie de reprise dimanche 29 novembre 2020]]></desc>
  </metadata>
  <trk>
    <name><![CDATA[Pornichet Cyclisme]]></name>
    <trkseg>
      <trkpt lat="47.26408" lon="-2.3163">
        <ele>-48.799999237061</ele>
        <time>2020-11-29T08:05:28.000Z</time>
      </trkpt>
      <trkpt lat="47.26407" lon="-2.3163">
        <ele>-48.799999237061</ele>
        <time>2020-11-29T08:05:29.000Z</time>
      </trkpt>
      <trkpt lat="47.26408" lon="-2.31634">
        <ele>-48.799999237061</ele>
        <time>2020-11-29T08:05:33.000Z</time>
      </trkpt>
      <trkpt lat="47.26411" lon="-2.31647">
        <ele>-48.799999237061</ele>
        <time>2020-11-29T08:05:36.000Z</time>
      </trkpt>
      <trkpt lat="47.26412" lon="-2.31655">
        <ele>-48.799999237061</ele>
        <time>2020-11-29T08:05:40.000Z</time>
      </trkpt>
      <trkpt lat="47.26408" lon="-2.31662">
        <ele>-48.799999237061</ele>
        <time>2020-11-29T08:05:42.000Z</time>
      </trkpt>
      <trkpt lat="47.26398" lon="-2.31668">
        <ele>-48.799999237061</ele>
        <time>2020-11-29T08:05:45.000Z</time>
      </trkpt>
      <trkpt lat="47.26393" lon="-2.3167">
        <ele>-48.799999237061</ele>
        <time>2020-11-29T08:05:46.000Z</time>
      </trkpt>
      <trkpt lat="47.26378" lon="-2.3168">
        <ele>-48.799999237061</ele>
        <time>2020-11-29T08:05:49.000Z</time>
      </trkpt>
      <trkpt lat="47.26358" lon="-2.3169">
        <ele>-48.799999237061</ele>
        <time>2020-11-29T08:05:53.000Z</time>
      </trkpt>
      <trkpt lat="47.26333" lon="-2.31703">
        <ele>-48.799999237061</ele>
        <time>2020-11-29T08:05:58.000Z</time>
      </trkpt>
      <trkpt lat="47.26328" lon="-2.31706">
        <ele>-48.799999237061</ele>
        <time>2020-11-29T08:05:59.000Z</time>
      </trkpt>
      <trkpt lat="47.26319" lon="-2.31712">
        <ele>-48.799999237061</ele>
        <time>2020-11-29T08:06:01.000Z</time>
      </trkpt>
      <trkpt lat="47.26307" lon="-2.31717">
        <ele>-49.200000762939</ele>
        <time>2020-11-29T08:06:04.000Z</time>
      </trkpt>
      <trkpt lat="47.26304" lon="-2.3172">
        <ele>-49.599998474121</ele>
        <time>2020-11-29T08:06:05.000Z</time>
      </trkpt>
      <trkpt lat="47.26302" lon="-2.31724">
        <ele>-50</ele>
        <time>2020-11-29T08:06:06.000Z</time>
      </trkpt>
      <trkpt lat="47.26301" lon="-2.31728">
        <ele>-50.400001525879</ele>
        <time>2020-11-29T08:06:07.000Z</time>
      </trkpt>
      <trkpt lat="47.26302" lon="-2.31733">
        <ele>-51</ele>
        <time>2020-11-29T08:06:08.000Z</time>
      </trkpt>
      <trkpt lat="47.26306" lon="-2.31748">
        <ele>-51</ele>
        <time>2020-11-29T08:06:11.000Z</time>
      </trkpt>
      <trkpt lat="47.26311" lon="-2.31779">
        <ele>-51</ele>
        <time>2020-11-29T08:06:17.000Z</time>
      </trkpt>
      <trkpt lat="47.26313" lon="-2.31817">
        <ele>-51</ele>
        <time>2020-11-29T08:06:24.000Z</time>
      </trkpt>
      <trkpt lat="47.26309" lon="-2.31852">
        <ele>-51</ele>
        <time>2020-11-29T08:06:30.000Z</time>
      </trkpt>
      <trkpt lat="47.26305" lon="-2.31878">
        <ele>-51</ele>
        <time>2020-11-29T08:06:35.000Z</time>
      </trkpt>
      <trkpt lat="47.26297" lon="-2.31889">
        <ele>-51</ele>
        <time>2020-11-29T08:06:38.000Z</time>
      </trkpt>
      <trkpt lat="47.26294" lon="-2.31892">
        <ele>-51</ele>
        <time>2020-11-29T08:06:39.000Z</time>
      </trkpt>
      <trkpt lat="47.26274" lon="-2.31917">
        <ele>-51</ele>
        <time>2020-11-29T08:06:45.000Z</time>
      </trkpt>
      <trkpt lat="47.26254" lon="-2.31952">
        <ele>-51</ele>
        <time>2020-11-29T08:06:52.000Z</time>
      </trkpt>
      <trkpt lat="47.26243" lon="-2.31973">
        <ele>-51</ele>
        <time>2020-11-29T08:06:57.000Z</time>
      </trkpt>
      <trkpt lat="47.26231" lon="-2.31977">
        <ele>-51</ele>
        <time>2020-11-29T08:07:01.000Z</time>
      </trkpt>
      <trkpt lat="47.26214" lon="-2.31995">
        <ele>-51</ele>
        <time>2020-11-29T08:07:07.000Z</time>
      </trkpt>
      <trkpt lat="47.26206" lon="-2.32">
        <ele>-51</ele>
        <time>2020-11-29T08:07:10.000Z</time>
      </trkpt>
      <trkpt lat="47.26204" lon="-2.32002">
        <ele>-51</ele>
        <time>2020-11-29T08:07:11.000Z</time>
      </trkpt>
      <trkpt lat="47.26202" lon="-2.32005">
        <ele>-51</ele>
        <time>2020-11-29T08:07:12.000Z</time>
      </trkpt>
      <trkpt lat="47.262" lon="-2.32014">
        <ele>-51</ele>
        <time>2020-11-29T08:07:15.000Z</time>
      </trkpt>
      <trkpt lat="47.26199" lon="-2.3202">
        <ele>-51</ele>
        <time>2020-11-29T08:07:17.000Z</time>
      </trkpt>
      <trkpt lat="47.2619" lon="-2.32024">
        <ele>-51</ele>
        <time>2020-11-29T08:07:22.000Z</time>
      </trkpt>
      <trkpt lat="47.26175" lon="-2.32027">
        <ele>-51</ele>
        <time>2020-11-29T08:07:27.000Z</time>
      </trkpt>
      <trkpt lat="47.26159" lon="-2.3204">
        <ele>-51</ele>
        <time>2020-11-29T08:07:32.000Z</time>
      </trkpt>
      <trkpt lat="47.26151" lon="-2.32061">
        <ele>-51</ele>
        <time>2020-11-29T08:07:36.000Z</time>
      </trkpt>
      <trkpt lat="47.26148" lon="-2.32074">
        <ele>-51</ele>
        <time>2020-11-29T08:07:38.000Z</time>
      </trkpt>
      <trkpt lat="47.26137" lon="-2.32109">
        <ele>-51</ele>
        <time>2020-11-29T08:07:44.000Z</time>
      </trkpt>
      <trkpt lat="47.26136" lon="-2.32115">
        <ele>-51</ele>
        <time>2020-11-29T08:07:45.000Z</time>
      </trkpt>
      <trkpt lat="47.26134" lon="-2.32121">
        <ele>-51</ele>
        <time>2020-11-29T08:07:46.000Z</time>
      </trkpt>
      <trkpt lat="47.26122" lon="-2.32156">
        <ele>-51</ele>
        <time>2020-11-29T08:07:52.000Z</time>
      </trkpt>
      <trkpt lat="47.2612" lon="-2.32162">
        <ele>-51</ele>
        <time>2020-11-29T08:07:53.000Z</time>
      </trkpt>
      <trkpt lat="47.26112" lon="-2.32183">
        <ele>-51</ele>
        <time>2020-11-29T08:07:57.000Z</time>
      </trkpt>
      <trkpt lat="47.26109" lon="-2.32188">
        <ele>-51</ele>
        <time>2020-11-29T08:07:58.000Z</time>
      </trkpt>
      <trkpt lat="47.26099" lon="-2.3221">
        <ele>-51</ele>
        <time>2020-11-29T08:08:02.000Z</time>
      </trkpt>
      <trkpt lat="47.26096" lon="-2.32215">
        <ele>-50.599998474121</ele>
        <time>2020-11-29T08:08:03.000Z</time>
      </trkpt>
      <trkpt lat="47.26093" lon="-2.32219">
        <ele>-50.200000762939</ele>
        <time>2020-11-29T08:08:04.000Z</time>
      </trkpt>
      <trkpt lat="47.2609" lon="-2.32224">
        <ele>-49.200000762939</ele>
        <time>2020-11-29T08:08:05.000Z</time>
      </trkpt>
      <trkpt lat="47.26087" lon="-2.32228">
        <ele>-48.799999237061</ele>
        <time>2020-11-29T08:08:06.000Z</time>
      </trkpt>
      <trkpt lat="47.26077" lon="-2.32241">
        <ele>-48.799999237061</ele>
        <time>2020-11-29T08:08:09.000Z</time>
      </trkpt>
      <trkpt lat="47.26054" lon="-2.32267">
        <ele>-48.799999237061</ele>
        <time>2020-11-29T08:08:16.000Z</time>
      </trkpt>
      <trkpt lat="47.26025" lon="-2.32299">
        <ele>-48.799999237061</ele>
        <time>2020-11-29T08:08:25.000Z</time>
      </trkpt>
      <trkpt lat="47.26022" lon="-2.32303">
        <ele>-48.799999237061</ele>
        <time>2020-11-29T08:08:26.000Z</time>
      </trkpt>
      <trkpt lat="47.26003" lon="-2.32326">
        <ele>-48.799999237061</ele>
        <time>2020-11-29T08:08:32.000Z</time>
      </trkpt>
      <trkpt lat="47.25976" lon="-2.32362">
        <ele>-48.799999237061</ele>
        <time>2020-11-29T08:08:40.000Z</time>
      </trkpt>
      <trkpt lat="47.25948" lon="-2.32399">
        <ele>-48.799999237061</ele>
        <time>2020-11-29T08:08:48.000Z</time>
      </trkpt>
      <trkpt lat="47.25917" lon="-2.32439">
        <ele>-48.799999237061</ele>
        <time>2020-11-29T08:08:57.000Z</time>
      </trkpt>
      <trkpt lat="47.25891" lon="-2.3247">
        <ele>-48.799999237061</ele>
        <time>2020-11-29T08:09:05.000Z</time>
      </trkpt>
      <trkpt lat="47.25885" lon="-2.32476">
        <ele>-48.400001525879</ele>
        <time>2020-11-29T08:09:07.000Z</time>
      </trkpt>
      <trkpt lat="47.25881" lon="-2.32479">
        <ele>-48</ele>
        <time>2020-11-29T08:09:08.000Z</time>
      </trkpt>
      <trkpt lat="47.25878" lon="-2.32481">
        <ele>-47.599998474121</ele>
        <time>2020-11-29T08:09:09.000Z</time>
      </trkpt>
      <trkpt lat="47.25875" lon="-2.32484">
        <ele>-47.200000762939</ele>
        <time>2020-11-29T08:09:10.000Z</time>
      </trkpt>
      <trkpt lat="47.25872" lon="-2.32486">
        <ele>-46.799999237061</ele>
        <time>2020-11-29T08:09:11.000Z</time>
      </trkpt>
      <trkpt lat="47.25857" lon="-2.32487">
        <ele>-46.799999237061</ele>
        <time>2020-11-29T08:09:15.000Z</time>
      </trkpt>
      <trkpt lat="47.25828" lon="-2.32486">
        <ele>-46.799999237061</ele>
        <time>2020-11-29T08:09:22.000Z</time>
      </trkpt>
      <trkpt lat="47.25827" lon="-2.32489">
        <ele>-46.799999237061</ele>
        <time>2020-11-29T08:09:23.000Z</time>
      </trkpt>
      <trkpt lat="47.25828" lon="-2.32498">
        <ele>-46.799999237061</ele>
        <time>2020-11-29T08:09:25.000Z</time>
      </trkpt>
      <trkpt lat="47.25838" lon="-2.32514">
        <ele>-46.799999237061</ele>
        <time>2020-11-29T08:09:29.000Z</time>
      </trkpt>
      <trkpt lat="47.2584" lon="-2.32518">
        <ele>-46.799999237061</ele>
        <time>2020-11-29T08:09:30.000Z</time>
      </trkpt>
      <trkpt lat="47.25862" lon="-2.32549">
        <ele>-46.799999237061</ele>
        <time>2020-11-29T08:09:37.000Z</time>
      </trkpt>
      <trkpt lat="47.25871" lon="-2.32561">
        <ele>-46.400001525879</ele>
        <time>2020-11-29T08:09:40.000Z</time>
      </trkpt>
      <trkpt lat="47.25875" lon="-2.32565">
        <ele>-46</ele>
        <time>2020-11-29T08:09:41.000Z</time>
      </trkpt>
      <trkpt lat="47.25878" lon="-2.32569">
        <ele>-45.400001525879</ele>
        <time>2020-11-29T08:09:42.000Z</time>
      </trkpt>
      <trkpt lat="47.25881" lon="-2.32574">
        <ele>-45</ele>
        <time>2020-11-29T08:09:43.000Z</time>
      </trkpt>
      <trkpt lat="47.25884" lon="-2.32578">
        <ele>-44.599998474121</ele>
        <time>2020-11-29T08:09:44.000Z</time>
      </trkpt>
      <trkpt lat="47.2589" lon="-2.32586">
        <ele>-44.599998474121</ele>
        <time>2020-11-29T08:09:46.000Z</time>
      </trkpt>
      <trkpt lat="47.25902" lon="-2.32594">
        <ele>-44.599998474121</ele>
        <time>2020-11-29T08:09:49.000Z</time>
      </trkpt>
      <trkpt lat="47.25906" lon="-2.32598">
        <ele>-44.599998474121</ele>
        <time>2020-11-29T08:09:50.000Z</time>
      </trkpt>
      <trkpt lat="47.25926" lon="-2.32624">
        <ele>-44.599998474121</ele>
        <time>2020-11-29T08:09:56.000Z</time>
      </trkpt>
      <trkpt lat="47.25932" lon="-2.32632">
        <ele>-44.599998474121</ele>
        <time>2020-11-29T08:09:58.000Z</time>
      </trkpt>
      <trkpt lat="47.25951" lon="-2.32654">
        <ele>-44.599998474121</ele>
        <time>2020-11-29T08:10:04.000Z</time>
      </trkpt>
      <trkpt lat="47.25967" lon="-2.32659">
        <ele>-44.599998474121</ele>
        <time>2020-11-29T08:10:08.000Z</time>
      </trkpt>
      <trkpt lat="47.25985" lon="-2.32658">
        <ele>-44.599998474121</ele>
        <time>2020-11-29T08:10:12.000Z</time>
      </trkpt>
      <trkpt lat="47.25989" lon="-2.32659">
        <ele>-44.599998474121</ele>
        <time>2020-11-29T08:10:13.000Z</time>
      </trkpt>
      <trkpt lat="47.26018" lon="-2.32654">
        <ele>-44.599998474121</ele>
        <time>2020-11-29T08:10:20.000Z</time>
      </trkpt>
      <trkpt lat="47.26026" lon="-2.32653">
        <ele>-44.599998474121</ele>
        <time>2020-11-29T08:10:22.000Z</time>
      </trkpt>
      <trkpt lat="47.26039" lon="-2.32652">
        <ele>-44.599998474121</ele>
        <time>2020-11-29T08:10:25.000Z</time>
      </trkpt>
      <trkpt lat="47.26047" lon="-2.3265">
        <ele>-44.599998474121</ele>
        <time>2020-11-29T08:10:27.000Z</time>
      </trkpt>
      <trkpt lat="47.26059" lon="-2.32648">
        <ele>-44.599998474121</ele>
        <time>2020-11-29T08:10:30.000Z</time>
      </trkpt>
      <trkpt lat="47.26072" lon="-2.32645">
        <ele>-44.599998474121</ele>
        <time>2020-11-29T08:10:33.000Z</time>
      </trkpt>
      <trkpt lat="47.26106" lon="-2.3264">
        <ele>-44.599998474121</ele>
        <time>2020-11-29T08:10:41.000Z</time>
      </trkpt>
      <trkpt lat="47.2611" lon="-2.32639">
        <ele>-44.599998474121</ele>
        <time>2020-11-29T08:10:42.000Z</time>
      </trkpt>
      <trkpt lat="47.26115" lon="-2.32639">
        <ele>-44.200000762939</ele>
        <time>2020-11-29T08:10:43.000Z</time>
      </trkpt>
      <trkpt lat="47.26119" lon="-2.32639">
        <ele>-43.799999237061</ele>
        <time>2020-11-29T08:10:44.000Z</time>
      </trkpt>
      <trkpt lat="47.26123" lon="-2.32639">
        <ele>-43.400001525879</ele>
        <time>2020-11-29T08:10:45.000Z</time>
      </trkpt>
      <trkpt lat="47.26128" lon="-2.32639">
        <ele>-43</ele>
        <time>2020-11-29T08:10:46.000Z</time>
      </trkpt>
      <trkpt lat="47.26132" lon="-2.3264">
        <ele>-42.599998474121</ele>
        <time>2020-11-29T08:10:47.000Z</time>
      </trkpt>
      <trkpt lat="47.26145" lon="-2.32643">
        <ele>-42.599998474121</ele>
        <time>2020-11-29T08:10:50.000Z</time>
      </trkpt>
      <trkpt lat="47.26171" lon="-2.32655">
        <ele>-42.599998474121</ele>
        <time>2020-11-29T08:10:56.000Z</time>
      </trkpt>
      <trkpt lat="47.26175" lon="-2.32659">
        <ele>-42.599998474121</ele>
        <time>2020-11-29T08:10:57.000Z</time>
      </trkpt>
      <trkpt lat="47.26205" lon="-2.32689">
        <ele>-42.599998474121</ele>
        <time>2020-11-29T08:11:05.000Z</time>
      </trkpt>
      <trkpt lat="47.26229" lon="-2.32723">
        <ele>-42.599998474121</ele>
        <time>2020-11-29T08:11:12.000Z</time>
      </trkpt>
      <trkpt lat="47.2626" lon="-2.3277">
        <ele>-42.599998474121</ele>
        <time>2020-11-29T08:11:20.000Z</time>
      </trkpt>
      <trkpt lat="47.26279" lon="-2.32817">
        <ele>-43</ele>
        <time>2020-11-29T08:11:27.000Z</time>
      </trkpt>
      <trkpt lat="47.26281" lon="-2.32825">
        <ele>-43.400001525879</ele>
        <time>2020-11-29T08:11:28.000Z</time>
      </trkpt>
      <trkpt lat="47.26283" lon="-2.32832">
        <ele>-43.799999237061</ele>
        <time>2020-11-29T08:11:29.000Z</time>
      </trkpt>
      <trkpt lat="47.26285" lon="-2.32839">
        <ele>-44.200000762939</ele>
        <time>2020-11-29T08:11:30.000Z</time>
      </trkpt>
      <trkpt lat="47.26287" lon="-2.32845">
        <ele>-44.599998474121</ele>
        <time>2020-11-29T08:11:31.000Z</time>
      </trkpt>
      <trkpt lat="47.26294" lon="-2.32856">
        <ele>-44.599998474121</ele>
        <time>2020-11-29T08:11:33.000Z</time>
      </trkpt>
      <trkpt lat="47.26313" lon="-2.32867">
        <ele>-44.599998474121</ele>
        <time>2020-11-29T08:11:37.000Z</time>
      </trkpt>
      <trkpt lat="47.26322" lon="-2.32882">
        <ele>-44.599998474121</ele>
        <time>2020-11-29T08:11:40.000Z</time>
      </trkpt>
      <trkpt lat="47.26326" lon="-2.32895">
        <ele>-44.599998474121</ele>
        <time>2020-11-29T08:11:42.000Z</time>
      </trkpt>
      <trkpt lat="47.26338" lon="-2.32934">
        <ele>-44.599998474121</ele>
        <time>2020-11-29T08:11:48.000Z</time>
      </trkpt>
      <trkpt lat="47.26352" lon="-2.32972">
        <ele>-44.599998474121</ele>
        <time>2020-11-29T08:11:54.000Z</time>
      </trkpt>
      <trkpt lat="47.26359" lon="-2.32982">
        <ele>-44.599998474121</ele>
        <time>2020-11-29T08:11:56.000Z</time>
      </trkpt>
      <trkpt lat="47.26362" lon="-2.32986">
        <ele>-44.599998474121</ele>
        <time>2020-11-29T08:11:57.000Z</time>
      </trkpt>
      <trkpt lat="47.26367" lon="-2.33004">
        <ele>-44.599998474121</ele>
        <time>2020-11-29T08:12:00.000Z</time>
      </trkpt>
      <trkpt lat="47.26367" lon="-2.33011">
        <ele>-44.599998474121</ele>
        <time>2020-11-29T08:12:01.000Z</time>
      </trkpt>
      <trkpt lat="47.26369" lon="-2.33053">
        <ele>-44.599998474121</ele>
        <time>2020-11-29T08:12:07.000Z</time>
      </trkpt>
      <trkpt lat="47.26373" lon="-2.33109">
        <ele>-44.599998474121</ele>
        <time>2020-11-29T08:12:15.000Z</time>
      </trkpt>
      <trkpt lat="47.26375" lon="-2.33164">
        <ele>-44.599998474121</ele>
        <time>2020-11-29T08:12:23.000Z</time>
      </trkpt>
      <trkpt lat="47.26378" lon="-2.33199">
        <ele>-44.599998474121</ele>
        <time>2020-11-29T08:12:28.000Z</time>
      </trkpt>
      <trkpt lat="47.26379" lon="-2.33233">
        <ele>-44.599998474121</ele>
        <time>2020-11-29T08:12:33.000Z</time>
      </trkpt>
      <trkpt lat="47.2638" lon="-2.33241">
        <ele>-44.599998474121</ele>
        <time>2020-11-29T08:12:34.000Z</time>
      </trkpt>
      <trkpt lat="47.26389" lon="-2.33263">
        <ele>-44.599998474121</ele>
        <time>2020-11-29T08:12:38.000Z</time>
      </trkpt>
      <trkpt lat="47.26408" lon="-2.33268">
        <ele>-44.599998474121</ele>
        <time>2020-11-29T08:12:42.000Z</time>
      </trkpt>
      <trkpt lat="47.26413" lon="-2.33268">
        <ele>-44.599998474121</ele>
        <time>2020-11-29T08:12:43.000Z</time>
      </trkpt>
      <trkpt lat="47.2644" lon="-2.33271">
        <ele>-44.200000762939</ele>
        <time>2020-11-29T08:12:49.000Z</time>
      </trkpt>
      <trkpt lat="47.26445" lon="-2.33272">
        <ele>-43.799999237061</ele>
        <time>2020-11-29T08:12:50.000Z</time>
      </trkpt>
      <trkpt lat="47.26449" lon="-2.33272">
        <ele>-43.200000762939</ele>
        <time>2020-11-29T08:12:51.000Z</time>
      </trkpt>
      <trkpt lat="47.26453" lon="-2.33273">
        <ele>-42.799999237061</ele>
        <time>2020-11-29T08:12:52.000Z</time>
      </trkpt>
      <trkpt lat="47.26458" lon="-2.33274">
        <ele>-42.400001525879</ele>
        <time>2020-11-29T08:12:53.000Z</time>
      </trkpt>
      <trkpt lat="47.26475" lon="-2.33279">
        <ele>-42.400001525879</ele>
        <time>2020-11-29T08:12:55.000Z</time>
      </trkpt>
      <trkpt lat="47.26479" lon="-2.3328">
        <ele>-42.400001525879</ele>
        <time>2020-11-29T08:12:58.000Z</time>
      </trkpt>
      <trkpt lat="47.26504" lon="-2.33283">
        <ele>-42.400001525879</ele>
        <time>2020-11-29T08:13:04.000Z</time>
      </trkpt>
      <trkpt lat="47.26508" lon="-2.33286">
        <ele>-42.400001525879</ele>
        <time>2020-11-29T08:13:05.000Z</time>
      </trkpt>
      <trkpt lat="47.26524" lon="-2.33289">
        <ele>-42.400001525879</ele>
        <time>2020-11-29T08:13:09.000Z</time>
      </trkpt>
      <trkpt lat="47.26535" lon="-2.33294">
        <ele>-42.400001525879</ele>
        <time>2020-11-29T08:13:12.000Z</time>
      </trkpt>
      <trkpt lat="47.26545" lon="-2.33297">
        <ele>-42.400001525879</ele>
        <time>2020-11-29T08:13:16.000Z</time>
      </trkpt>
      <trkpt lat="47.26548" lon="-2.33293">
        <ele>-42.400001525879</ele>
        <time>2020-11-29T08:13:17.000Z</time>
      </trkpt>
      <trkpt lat="47.26556" lon="-2.33282">
        <ele>-42</ele>
        <time>2020-11-29T08:13:20.000Z</time>
      </trkpt>
      <trkpt lat="47.26559" lon="-2.33279">
        <ele>-41.599998474121</ele>
        <time>2020-11-29T08:13:21.000Z</time>
      </trkpt>
      <trkpt lat="47.26562" lon="-2.33275">
        <ele>-41.200000762939</ele>
        <time>2020-11-29T08:13:22.000Z</time>
      </trkpt>
      <trkpt lat="47.26566" lon="-2.33272">
        <ele>-40.799999237061</ele>
        <time>2020-11-29T08:13:23.000Z</time>
      </trkpt>
      <trkpt lat="47.26569" lon="-2.33268">
        <ele>-40.400001525879</ele>
        <time>2020-11-29T08:13:24.000Z</time>
      </trkpt>
      <trkpt lat="47.26587" lon="-2.33251">
        <ele>-40.400001525879</ele>
        <time>2020-11-29T08:13:29.000Z</time>
      </trkpt>
      <trkpt lat="47.26616" lon="-2.3322">
        <ele>-40.400001525879</ele>
        <time>2020-11-29T08:13:37.000Z</time>
      </trkpt>
      <trkpt lat="47.26649" lon="-2.33188">
        <ele>-40.400001525879</ele>
        <time>2020-11-29T08:13:46.000Z</time>
      </trkpt>
      <trkpt lat="47.26674" lon="-2.33163">
        <ele>-40.400001525879</ele>
        <time>2020-11-29T08:13:53.000Z</time>
      </trkpt>
      <trkpt lat="47.26681" lon="-2.33155">
        <ele>-40.400001525879</ele>
        <time>2020-11-29T08:13:55.000Z</time>
      </trkpt>
      <trkpt lat="47.267" lon="-2.33135">
        <ele>-40.400001525879</ele>
        <time>2020-11-29T08:14:00.000Z</time>
      </trkpt>
      <trkpt lat="47.26726" lon="-2.33108">
        <ele>-40.400001525879</ele>
        <time>2020-11-29T08:14:07.000Z</time>
      </trkpt>
      <trkpt lat="47.26742" lon="-2.3309">
        <ele>-40</ele>
        <time>2020-11-29T08:14:12.000Z</time>
      </trkpt>
      <trkpt lat="47.26746" lon="-2.33087">
        <ele>-39.599998474121</ele>
        <time>2020-11-29T08:14:13.000Z</time>
      </trkpt>
      <trkpt lat="47.2675" lon="-2.33085">
        <ele>-39</ele>
        <time>2020-11-29T08:14:14.000Z</time>
      </trkpt>
      <trkpt lat="47.26754" lon="-2.33087">
        <ele>-38.599998474121</ele>
        <time>2020-11-29T08:14:15.000Z</time>
      </trkpt>
      <trkpt lat="47.26758" lon="-2.33089">
        <ele>-38.200000762939</ele>
        <time>2020-11-29T08:14:16.000Z</time>
      </trkpt>
      <trkpt lat="47.26766" lon="-2.33109">
        <ele>-38.200000762939</ele>
        <time>2020-11-29T08:14:19.000Z</time>
      </trkpt>
      <trkpt lat="47.26765" lon="-2.33138">
        <ele>-38.200000762939</ele>
        <time>2020-11-29T08:14:23.000Z</time>
      </trkpt>
      <trkpt lat="47.26764" lon="-2.33145">
        <ele>-38.200000762939</ele>
        <time>2020-11-29T08:14:24.000Z</time>
      </trkpt>
      <trkpt lat="47.26753" lon="-2.33182">
        <ele>-38.200000762939</ele>
        <time>2020-11-29T08:14:30.000Z</time>
      </trkpt>
      <trkpt lat="47.26739" lon="-2.33227">
        <ele>-38.200000762939</ele>
        <time>2020-11-29T08:14:37.000Z</time>
      </trkpt>
      <trkpt lat="47.26732" lon="-2.33253">
        <ele>-38.200000762939</ele>
        <time>2020-11-29T08:14:41.000Z</time>
      </trkpt>
      <trkpt lat="47.26731" lon="-2.33267">
        <ele>-38.200000762939</ele>
        <time>2020-11-29T08:14:43.000Z</time>
      </trkpt>
      <trkpt lat="47.26731" lon="-2.33274">
        <ele>-38.200000762939</ele>
        <time>2020-11-29T08:14:44.000Z</time>
      </trkpt>
      <trkpt lat="47.26738" lon="-2.33309">
        <ele>-38.200000762939</ele>
        <time>2020-11-29T08:14:49.000Z</time>
      </trkpt>
      <trkpt lat="47.2674" lon="-2.33316">
        <ele>-38.200000762939</ele>
        <time>2020-11-29T08:14:50.000Z</time>
      </trkpt>
      <trkpt lat="47.26745" lon="-2.33337">
        <ele>-38.200000762939</ele>
        <time>2020-11-29T08:14:53.000Z</time>
      </trkpt>
      <trkpt lat="47.26746" lon="-2.33352">
        <ele>-38.200000762939</ele>
        <time>2020-11-29T08:14:55.000Z</time>
      </trkpt>
      <trkpt lat="47.26754" lon="-2.33409">
        <ele>-38.200000762939</ele>
        <time>2020-11-29T08:15:03.000Z</time>
      </trkpt>
      <trkpt lat="47.26765" lon="-2.33485">
        <ele>-38.200000762939</ele>
        <time>2020-11-29T08:15:14.000Z</time>
      </trkpt>
      <trkpt lat="47.26767" lon="-2.33499">
        <ele>-38.200000762939</ele>
        <time>2020-11-29T08:15:16.000Z</time>
      </trkpt>
      <trkpt lat="47.26775" lon="-2.33547">
        <ele>-38.200000762939</ele>
        <time>2020-11-29T08:15:23.000Z</time>
      </trkpt>
      <trkpt lat="47.26778" lon="-2.33588">
        <ele>-38.200000762939</ele>
        <time>2020-11-29T08:15:29.000Z</time>
      </trkpt>
      <trkpt lat="47.26777" lon="-2.3364">
        <ele>-38.200000762939</ele>
        <time>2020-11-29T08:15:37.000Z</time>
      </trkpt>
      <trkpt lat="47.26777" lon="-2.33669">
        <ele>-37.799999237061</ele>
        <time>2020-11-29T08:15:42.000Z</time>
      </trkpt>
      <trkpt lat="47.26777" lon="-2.33675">
        <ele>-37.400001525879</ele>
        <time>2020-11-29T08:15:43.000Z</time>
      </trkpt>
      <trkpt lat="47.26778" lon="-2.33681">
        <ele>-37</ele>
        <time>2020-11-29T08:15:44.000Z</time>
      </trkpt>
      <trkpt lat="47.26778" lon="-2.33687">
        <ele>-36.400001525879</ele>
        <time>2020-11-29T08:15:45.000Z</time>
      </trkpt>
      <trkpt lat="47.26779" lon="-2.33692">
        <ele>-36</ele>
        <time>2020-11-29T08:15:46.000Z</time>
      </trkpt>
      <trkpt lat="47.26785" lon="-2.33712">
        <ele>-36</ele>
        <time>2020-11-29T08:15:50.000Z</time>
      </trkpt>
      <trkpt lat="47.26789" lon="-2.33716">
        <ele>-36</ele>
        <time>2020-11-29T08:15:51.000Z</time>
      </trkpt>
      <trkpt lat="47.26804" lon="-2.33729">
        <ele>-36</ele>
        <time>2020-11-29T08:15:55.000Z</time>
      </trkpt>
      <trkpt lat="47.26815" lon="-2.33741">
        <ele>-35.599998474121</ele>
        <time>2020-11-29T08:15:58.000Z</time>
      </trkpt>
      <trkpt lat="47.26818" lon="-2.33745">
        <ele>-35.200000762939</ele>
        <time>2020-11-29T08:15:59.000Z</time>
      </trkpt>
      <trkpt lat="47.26822" lon="-2.33749">
        <ele>-34.799999237061</ele>
        <time>2020-11-29T08:16:00.000Z</time>
      </trkpt>
      <trkpt lat="47.26825" lon="-2.33753">
        <ele>-34.200000762939</ele>
        <time>2020-11-29T08:16:01.000Z</time>
      </trkpt>
      <trkpt lat="47.26829" lon="-2.33758">
        <ele>-33.799999237061</ele>
        <time>2020-11-29T08:16:02.000Z</time>
      </trkpt>
      <trkpt lat="47.26832" lon="-2.33762">
        <ele>-33.799999237061</ele>
        <time>2020-11-29T08:16:03.000Z</time>
      </trkpt>
      <trkpt lat="47.26841" lon="-2.33775">
        <ele>-33.799999237061</ele>
        <time>2020-11-29T08:16:06.000Z</time>
      </trkpt>
      <trkpt lat="47.26845" lon="-2.33786">
        <ele>-33.799999237061</ele>
        <time>2020-11-29T08:16:08.000Z</time>
      </trkpt>
      <trkpt lat="47.26847" lon="-2.338">
        <ele>-33.799999237061</ele>
        <time>2020-11-29T08:16:11.000Z</time>
      </trkpt>
      <trkpt lat="47.26847" lon="-2.33802">
        <ele>-33.799999237061</ele>
        <time>2020-11-29T08:16:12.000Z</time>
      </trkpt>
      <trkpt lat="47.26845" lon="-2.33795">
        <ele>-33.799999237061</ele>
        <time>2020-11-29T08:16:15.000Z</time>
      </trkpt>
      <trkpt lat="47.26846" lon="-2.3378">
        <ele>-33.799999237061</ele>
        <time>2020-11-29T08:16:19.000Z</time>
      </trkpt>
      <trkpt lat="47.26855" lon="-2.3378">
        <ele>-33.799999237061</ele>
        <time>2020-11-29T08:16:22.000Z</time>
      </trkpt>
      <trkpt lat="47.26859" lon="-2.33782">
        <ele>-33.799999237061</ele>
        <time>2020-11-29T08:16:23.000Z</time>
      </trkpt>
      <trkpt lat="47.26883" lon="-2.33792">
        <ele>-33.799999237061</ele>
        <time>2020-11-29T08:16:29.000Z</time>
      </trkpt>
      <trkpt lat="47.26891" lon="-2.33797">
        <ele>-33.799999237061</ele>
        <time>2020-11-29T08:16:31.000Z</time>
      </trkpt>
      <trkpt lat="47.26898" lon="-2.3381">
        <ele>-33.799999237061</ele>
        <time>2020-11-29T08:16:34.000Z</time>
      </trkpt>
      <trkpt lat="47.26901" lon="-2.33823">
        <ele>-33.799999237061</ele>
        <time>2020-11-29T08:16:36.000Z</time>
      </trkpt>
      <trkpt lat="47.26907" lon="-2.33849">
        <ele>-33.799999237061</ele>
        <time>2020-11-29T08:16:40.000Z</time>
      </trkpt>
      <trkpt lat="47.2692" lon="-2.33907">
        <ele>-33.799999237061</ele>
        <time>2020-11-29T08:16:49.000Z</time>
      </trkpt>
      <trkpt lat="47.26927" lon="-2.33938">
        <ele>-33.400001525879</ele>
        <time>2020-11-29T08:16:54.000Z</time>
      </trkpt>
      <trkpt lat="47.26928" lon="-2.33944">
        <ele>-33</ele>
        <time>2020-11-29T08:16:55.000Z</time>
      </trkpt>
      <trkpt lat="47.26929" lon="-2.3395">
        <ele>-32.599998474121</ele>
        <time>2020-11-29T08:16:56.000Z</time>
      </trkpt>
      <trkpt lat="47.26931" lon="-2.33956">
        <ele>-32.200000762939</ele>
        <time>2020-11-29T08:16:57.000Z</time>
      </trkpt>
      <trkpt lat="47.26932" lon="-2.33962">
        <ele>-31.799999237061</ele>
        <time>2020-11-29T08:16:58.000Z</time>
      </trkpt>
      <trkpt lat="47.26942" lon="-2.33999">
        <ele>-31.799999237061</ele>
        <time>2020-11-29T08:17:04.000Z</time>
      </trkpt>
      <trkpt lat="47.26945" lon="-2.34011">
        <ele>-31.799999237061</ele>
        <time>2020-11-29T08:17:06.000Z</time>
      </trkpt>
      <trkpt lat="47.26955" lon="-2.34054">
        <ele>-31.799999237061</ele>
        <time>2020-11-29T08:17:13.000Z</time>
      </trkpt>
      <trkpt lat="47.26967" lon="-2.34104">
        <ele>-31.799999237061</ele>
        <time>2020-11-29T08:17:21.000Z</time>
      </trkpt>
      <trkpt lat="47.2698" lon="-2.34163">
        <ele>-31.200000762939</ele>
        <time>2020-11-29T08:17:30.000Z</time>
      </trkpt>
      <trkpt lat="47.26981" lon="-2.34169">
        <ele>-30.799999237061</ele>
        <time>2020-11-29T08:17:31.000Z</time>
      </trkpt>
      <trkpt lat="47.26983" lon="-2.34176">
        <ele>-30.39999961853</ele>
        <time>2020-11-29T08:17:32.000Z</time>
      </trkpt>
      <trkpt lat="47.26985" lon="-2.34182">
        <ele>-29.60000038147</ele>
        <time>2020-11-29T08:17:33.000Z</time>
      </trkpt>
      <trkpt lat="47.26994" lon="-2.34227">
        <ele>-29.60000038147</ele>
        <time>2020-11-29T08:17:40.000Z</time>
      </trkpt>
      <trkpt lat="47.27005" lon="-2.34279">
        <ele>-29.60000038147</ele>
        <time>2020-11-29T08:17:48.000Z</time>
      </trkpt>
      <trkpt lat="47.27007" lon="-2.34292">
        <ele>-29.60000038147</ele>
        <time>2020-11-29T08:17:50.000Z</time>
      </trkpt>
      <trkpt lat="47.27007" lon="-2.3431">
        <ele>-29.60000038147</ele>
        <time>2020-11-29T08:17:53.000Z</time>
      </trkpt>
      <trkpt lat="47.27013" lon="-2.34322">
        <ele>-29.60000038147</ele>
        <time>2020-11-29T08:17:56.000Z</time>
      </trkpt>
      <trkpt lat="47.27026" lon="-2.34322">
        <ele>-29.60000038147</ele>
        <time>2020-11-29T08:17:59.000Z</time>
      </trkpt>
      <trkpt lat="47.2703" lon="-2.34322">
        <ele>-29.60000038147</ele>
        <time>2020-11-29T08:18:00.000Z</time>
      </trkpt>
      <trkpt lat="47.27034" lon="-2.34323">
        <ele>-29.60000038147</ele>
        <time>2020-11-29T08:18:01.000Z</time>
      </trkpt>
      <trkpt lat="47.2704" lon="-2.34331">
        <ele>-29.60000038147</ele>
        <time>2020-11-29T08:18:03.000Z</time>
      </trkpt>
      <trkpt lat="47.27043" lon="-2.34344">
        <ele>-29.200000762939</ele>
        <time>2020-11-29T08:18:05.000Z</time>
      </trkpt>
      <trkpt lat="47.27044" lon="-2.3435">
        <ele>-28.799999237061</ele>
        <time>2020-11-29T08:18:06.000Z</time>
      </trkpt>
      <trkpt lat="47.27046" lon="-2.34357">
        <ele>-28.39999961853</ele>
        <time>2020-11-29T08:18:07.000Z</time>
      </trkpt>
      <trkpt lat="47.27047" lon="-2.34364">
        <ele>-28</ele>
        <time>2020-11-29T08:18:08.000Z</time>
      </trkpt>
      <trkpt lat="47.27049" lon="-2.34371">
        <ele>-27.60000038147</ele>
        <time>2020-11-29T08:18:09.000Z</time>
      </trkpt>
      <trkpt lat="47.27057" lon="-2.34404">
        <ele>-27.60000038147</ele>
        <time>2020-11-29T08:18:14.000Z</time>
      </trkpt>
      <trkpt lat="47.27069" lon="-2.34457">
        <ele>-27.60000038147</ele>
        <time>2020-11-29T08:18:21.000Z</time>
      </trkpt>
      <trkpt lat="47.27079" lon="-2.34501">
        <ele>-27.60000038147</ele>
        <time>2020-11-29T08:18:27.000Z</time>
      </trkpt>
      <trkpt lat="47.2709" lon="-2.34553">
        <ele>-27.60000038147</ele>
        <time>2020-11-29T08:18:34.000Z</time>
      </trkpt>
      <trkpt lat="47.27105" lon="-2.34616">
        <ele>-27.60000038147</ele>
        <time>2020-11-29T08:18:42.000Z</time>
      </trkpt>
      <trkpt lat="47.27119" lon="-2.34677">
        <ele>-27.60000038147</ele>
        <time>2020-11-29T08:18:49.000Z</time>
      </trkpt>
      <trkpt lat="47.27134" lon="-2.34744">
        <ele>-27.60000038147</ele>
        <time>2020-11-29T08:18:57.000Z</time>
      </trkpt>
      <trkpt lat="47.27143" lon="-2.34792">
        <ele>-27.60000038147</ele>
        <time>2020-11-29T08:19:03.000Z</time>
      </trkpt>
      <trkpt lat="47.27157" lon="-2.34855">
        <ele>-27.60000038147</ele>
        <time>2020-11-29T08:19:11.000Z</time>
      </trkpt>
      <trkpt lat="47.27164" lon="-2.34886">
        <ele>-27.200000762939</ele>
        <time>2020-11-29T08:19:15.000Z</time>
      </trkpt>
      <trkpt lat="47.27166" lon="-2.34893">
        <ele>-26.799999237061</ele>
        <time>2020-11-29T08:19:16.000Z</time>
      </trkpt>
      <trkpt lat="47.27169" lon="-2.349">
        <ele>-26.39999961853</ele>
        <time>2020-11-29T08:19:17.000Z</time>
      </trkpt>
      <trkpt lat="47.27171" lon="-2.34907">
        <ele>-26</ele>
        <time>2020-11-29T08:19:18.000Z</time>
      </trkpt>
      <trkpt lat="47.27173" lon="-2.34914">
        <ele>-25.60000038147</ele>
        <time>2020-11-29T08:19:19.000Z</time>
      </trkpt>
      <trkpt lat="47.27178" lon="-2.34929">
        <ele>-25.60000038147</ele>
        <time>2020-11-29T08:19:21.000Z</time>
      </trkpt>
      <trkpt lat="47.27196" lon="-2.3498">
        <ele>-25.60000038147</ele>
        <time>2020-11-29T08:19:28.000Z</time>
      </trkpt>
      <trkpt lat="47.27213" lon="-2.35028">
        <ele>-25</ele>
        <time>2020-11-29T08:19:35.000Z</time>
      </trkpt>
      <trkpt lat="47.27216" lon="-2.35034">
        <ele>-24.200000762939</ele>
        <time>2020-11-29T08:19:36.000Z</time>
      </trkpt>
      <trkpt lat="47.27218" lon="-2.35042">
        <ele>-23.799999237061</ele>
        <time>2020-11-29T08:19:37.000Z</time>
      </trkpt>
      <trkpt lat="47.27221" lon="-2.35049">
        <ele>-23.39999961853</ele>
        <time>2020-11-29T08:19:38.000Z</time>
      </trkpt>
      <trkpt lat="47.27234" lon="-2.35085">
        <ele>-23.39999961853</ele>
        <time>2020-11-29T08:19:43.000Z</time>
      </trkpt>
      <trkpt lat="47.27257" lon="-2.35124">
        <ele>-23.39999961853</ele>
        <time>2020-11-29T08:19:50.000Z</time>
      </trkpt>
      <trkpt lat="47.27268" lon="-2.35119">
        <ele>-23.39999961853</ele>
        <time>2020-11-29T08:19:53.000Z</time>
      </trkpt>
      <trkpt lat="47.27272" lon="-2.35117">
        <ele>-23.39999961853</ele>
        <time>2020-11-29T08:19:54.000Z</time>
      </trkpt>
      <trkpt lat="47.27297" lon="-2.35106">
        <ele>-23.39999961853</ele>
        <time>2020-11-29T08:20:01.000Z</time>
      </trkpt>
      <trkpt lat="47.27299" lon="-2.35107">
        <ele>-23.39999961853</ele>
        <time>2020-11-29T08:20:02.000Z</time>
      </trkpt>
      <trkpt lat="47.27303" lon="-2.35113">
        <ele>-23.39999961853</ele>
        <time>2020-11-29T08:20:04.000Z</time>
      </trkpt>
      <trkpt lat="47.27307" lon="-2.35124">
        <ele>-23.39999961853</ele>
        <time>2020-11-29T08:20:06.000Z</time>
      </trkpt>
      <trkpt lat="47.27311" lon="-2.35137">
        <ele>-23</ele>
        <time>2020-11-29T08:20:08.000Z</time>
      </trkpt>
      <trkpt lat="47.27313" lon="-2.35144">
        <ele>-22.60000038147</ele>
        <time>2020-11-29T08:20:09.000Z</time>
      </trkpt>
      <trkpt lat="47.27314" lon="-2.35151">
        <ele>-22</ele>
        <time>2020-11-29T08:20:10.000Z</time>
      </trkpt>
      <trkpt lat="47.27316" lon="-2.35158">
        <ele>-21.60000038147</ele>
        <time>2020-11-29T08:20:11.000Z</time>
      </trkpt>
      <trkpt lat="47.27318" lon="-2.35165">
        <ele>-21.200000762939</ele>
        <time>2020-11-29T08:20:12.000Z</time>
      </trkpt>
      <trkpt lat="47.27324" lon="-2.35194">
        <ele>-21.200000762939</ele>
        <time>2020-11-29T08:20:16.000Z</time>
      </trkpt>
      <trkpt lat="47.27339" lon="-2.35258">
        <ele>-21.200000762939</ele>
        <time>2020-11-29T08:20:24.000Z</time>
      </trkpt>
      <trkpt lat="47.2735" lon="-2.353">
        <ele>-21.200000762939</ele>
        <time>2020-11-29T08:20:30.000Z</time>
      </trkpt>
      <trkpt lat="47.27363" lon="-2.3536">
        <ele>-21.60000038147</ele>
        <time>2020-11-29T08:20:37.000Z</time>
      </trkpt>
      <trkpt lat="47.27365" lon="-2.35369">
        <ele>-22.200000762939</ele>
        <time>2020-11-29T08:20:38.000Z</time>
      </trkpt>
      <trkpt lat="47.27367" lon="-2.35379">
        <ele>-22.60000038147</ele>
        <time>2020-11-29T08:20:39.000Z</time>
      </trkpt>
      <trkpt lat="47.27368" lon="-2.35388">
        <ele>-23</ele>
        <time>2020-11-29T08:20:40.000Z</time>
      </trkpt>
      <trkpt lat="47.2737" lon="-2.35398">
        <ele>-23.39999961853</ele>
        <time>2020-11-29T08:20:41.000Z</time>
      </trkpt>
      <trkpt lat="47.27377" lon="-2.35434">
        <ele>-23.39999961853</ele>
        <time>2020-11-29T08:20:45.000Z</time>
      </trkpt>
      <trkpt lat="47.27388" lon="-2.35479">
        <ele>-23.799999237061</ele>
        <time>2020-11-29T08:20:50.000Z</time>
      </trkpt>
      <trkpt lat="47.2739" lon="-2.35488">
        <ele>-24.200000762939</ele>
        <time>2020-11-29T08:20:51.000Z</time>
      </trkpt>
      <trkpt lat="47.27392" lon="-2.35496">
        <ele>-24.60000038147</ele>
        <time>2020-11-29T08:20:52.000Z</time>
      </trkpt>
      <trkpt lat="47.27393" lon="-2.35505">
        <ele>-25</ele>
        <time>2020-11-29T08:20:53.000Z</time>
      </trkpt>
      <trkpt lat="47.27395" lon="-2.35514">
        <ele>-25.39999961853</ele>
        <time>2020-11-29T08:20:54.000Z</time>
      </trkpt>
      <trkpt lat="47.27406" lon="-2.35578">
        <ele>-25.39999961853</ele>
        <time>2020-11-29T08:21:01.000Z</time>
      </trkpt>
      <trkpt lat="47.27413" lon="-2.35624">
        <ele>-26</ele>
        <time>2020-11-29T08:21:06.000Z</time>
      </trkpt>
      <trkpt lat="47.27414" lon="-2.35633">
        <ele>-26.39999961853</ele>
        <time>2020-11-29T08:21:07.000Z</time>
      </trkpt>
      <trkpt lat="47.27415" lon="-2.35643">
        <ele>-26.799999237061</ele>
        <time>2020-11-29T08:21:08.000Z</time>
      </trkpt>
      <trkpt lat="47.27418" lon="-2.35652">
        <ele>-27.200000762939</ele>
        <time>2020-11-29T08:21:09.000Z</time>
      </trkpt>
      <trkpt lat="47.2742" lon="-2.3566">
        <ele>-27.60000038147</ele>
        <time>2020-11-29T08:21:10.000Z</time>
      </trkpt>
      <trkpt lat="47.27427" lon="-2.35674">
        <ele>-27.60000038147</ele>
        <time>2020-11-29T08:21:12.000Z</time>
      </trkpt>
      <trkpt lat="47.27433" lon="-2.35676">
        <ele>-27.60000038147</ele>
        <time>2020-11-29T08:21:13.000Z</time>
      </trkpt>
      <trkpt lat="47.27464" lon="-2.35678">
        <ele>-27.60000038147</ele>
        <time>2020-11-29T08:21:18.000Z</time>
      </trkpt>
      <trkpt lat="47.27504" lon="-2.35684">
        <ele>-27.60000038147</ele>
        <time>2020-11-29T08:21:25.000Z</time>
      </trkpt>
      <trkpt lat="47.27539" lon="-2.3569">
        <ele>-27.60000038147</ele>
        <time>2020-11-29T08:21:32.000Z</time>
      </trkpt>
      <trkpt lat="47.27578" lon="-2.35698">
        <ele>-27.200000762939</ele>
        <time>2020-11-29T08:21:40.000Z</time>
      </trkpt>
      <trkpt lat="47.27583" lon="-2.35699">
        <ele>-26.799999237061</ele>
        <time>2020-11-29T08:21:41.000Z</time>
      </trkpt>
      <trkpt lat="47.27588" lon="-2.35701">
        <ele>-26.39999961853</ele>
        <time>2020-11-29T08:21:42.000Z</time>
      </trkpt>
      <trkpt lat="47.27593" lon="-2.35702">
        <ele>-26</ele>
        <time>2020-11-29T08:21:43.000Z</time>
      </trkpt>
      <trkpt lat="47.27597" lon="-2.35703">
        <ele>-25.60000038147</ele>
        <time>2020-11-29T08:21:44.000Z</time>
      </trkpt>
      <trkpt lat="47.27623" lon="-2.3571">
        <ele>-25.60000038147</ele>
        <time>2020-11-29T08:21:49.000Z</time>
      </trkpt>
      <trkpt lat="47.27655" lon="-2.35719">
        <ele>-25.60000038147</ele>
        <time>2020-11-29T08:21:56.000Z</time>
      </trkpt>
      <trkpt lat="47.27671" lon="-2.35724">
        <ele>-25.60000038147</ele>
        <time>2020-11-29T08:22:00.000Z</time>
      </trkpt>
      <trkpt lat="47.27675" lon="-2.35725">
        <ele>-25.60000038147</ele>
        <time>2020-11-29T08:22:01.000Z</time>
      </trkpt>
      <trkpt lat="47.27684" lon="-2.35725">
        <ele>-25.200000762939</ele>
        <time>2020-11-29T08:22:03.000Z</time>
      </trkpt>
      <trkpt lat="47.27689" lon="-2.35726">
        <ele>-24.799999237061</ele>
        <time>2020-11-29T08:22:04.000Z</time>
      </trkpt>
      <trkpt lat="47.27693" lon="-2.35725">
        <ele>-24</ele>
        <time>2020-11-29T08:22:05.000Z</time>
      </trkpt>
      <trkpt lat="47.27697" lon="-2.35723">
        <ele>-23.60000038147</ele>
        <time>2020-11-29T08:22:06.000Z</time>
      </trkpt>
      <trkpt lat="47.27709" lon="-2.35714">
        <ele>-23.60000038147</ele>
        <time>2020-11-29T08:22:09.000Z</time>
      </trkpt>
      <trkpt lat="47.2772" lon="-2.35703">
        <ele>-23.60000038147</ele>
        <time>2020-11-29T08:22:12.000Z</time>
      </trkpt>
      <trkpt lat="47.27723" lon="-2.35699">
        <ele>-23.200000762939</ele>
        <time>2020-11-29T08:22:13.000Z</time>
      </trkpt>
      <trkpt lat="47.27726" lon="-2.35694">
        <ele>-22.799999237061</ele>
        <time>2020-11-29T08:22:14.000Z</time>
      </trkpt>
      <trkpt lat="47.2773" lon="-2.3569">
        <ele>-22.200000762939</ele>
        <time>2020-11-29T08:22:15.000Z</time>
      </trkpt>
      <trkpt lat="47.27733" lon="-2.35685">
        <ele>-21.799999237061</ele>
        <time>2020-11-29T08:22:16.000Z</time>
      </trkpt>
      <trkpt lat="47.27736" lon="-2.3568">
        <ele>-21.39999961853</ele>
        <time>2020-11-29T08:22:17.000Z</time>
      </trkpt>
      <trkpt lat="47.27742" lon="-2.3567">
        <ele>-21.39999961853</ele>
        <time>2020-11-29T08:22:19.000Z</time>
      </trkpt>
      <trkpt lat="47.27757" lon="-2.35647">
        <ele>-21</ele>
        <time>2020-11-29T08:22:24.000Z</time>
      </trkpt>
      <trkpt lat="47.27761" lon="-2.35643">
        <ele>-20.60000038147</ele>
        <time>2020-11-29T08:22:25.000Z</time>
      </trkpt>
      <trkpt lat="47.27764" lon="-2.35638">
        <ele>-20.200000762939</ele>
        <time>2020-11-29T08:22:26.000Z</time>
      </trkpt>
      <trkpt lat="47.27767" lon="-2.35634">
        <ele>-19.799999237061</ele>
        <time>2020-11-29T08:22:27.000Z</time>
      </trkpt>
      <trkpt lat="47.27771" lon="-2.3563">
        <ele>-19.200000762939</ele>
        <time>2020-11-29T08:22:28.000Z</time>
      </trkpt>
      <trkpt lat="47.27783" lon="-2.35621">
        <ele>-19.200000762939</ele>
        <time>2020-11-29T08:22:31.000Z</time>
      </trkpt>
      <trkpt lat="47.27788" lon="-2.35619">
        <ele>-19.200000762939</ele>
        <time>2020-11-29T08:22:32.000Z</time>
      </trkpt>
      <trkpt lat="47.27797" lon="-2.35615">
        <ele>-19.200000762939</ele>
        <time>2020-11-29T08:22:34.000Z</time>
      </trkpt>
      <trkpt lat="47.27815" lon="-2.35609">
        <ele>-19.200000762939</ele>
        <time>2020-11-29T08:22:38.000Z</time>
      </trkpt>
      <trkpt lat="47.27832" lon="-2.35605">
        <ele>-18.799999237061</ele>
        <time>2020-11-29T08:22:42.000Z</time>
      </trkpt>
      <trkpt lat="47.27836" lon="-2.35603">
        <ele>-18.39999961853</ele>
        <time>2020-11-29T08:22:43.000Z</time>
      </trkpt>
      <trkpt lat="47.27841" lon="-2.35602">
        <ele>-18</ele>
        <time>2020-11-29T08:22:44.000Z</time>
      </trkpt>
      <trkpt lat="47.27845" lon="-2.35601">
        <ele>-17.60000038147</ele>
        <time>2020-11-29T08:22:45.000Z</time>
      </trkpt>
      <trkpt lat="47.27849" lon="-2.356">
        <ele>-17.200000762939</ele>
        <time>2020-11-29T08:22:46.000Z</time>
      </trkpt>
      <trkpt lat="47.27869" lon="-2.35593">
        <ele>-17.200000762939</ele>
        <time>2020-11-29T08:22:51.000Z</time>
      </trkpt>
      <trkpt lat="47.27895" lon="-2.3559">
        <ele>-16.799999237061</ele>
        <time>2020-11-29T08:22:58.000Z</time>
      </trkpt>
      <trkpt lat="47.27899" lon="-2.35589">
        <ele>-16.39999961853</ele>
        <time>2020-11-29T08:22:59.000Z</time>
      </trkpt>
      <trkpt lat="47.27903" lon="-2.35588">
        <ele>-16</ele>
        <time>2020-11-29T08:23:00.000Z</time>
      </trkpt>
      <trkpt lat="47.27906" lon="-2.35587">
        <ele>-15.60000038147</ele>
        <time>2020-11-29T08:23:01.000Z</time>
      </trkpt>
      <trkpt lat="47.2791" lon="-2.35585">
        <ele>-15.199999809265</ele>
        <time>2020-11-29T08:23:02.000Z</time>
      </trkpt>
      <trkpt lat="47.27925" lon="-2.35581">
        <ele>-15.199999809265</ele>
        <time>2020-11-29T08:23:06.000Z</time>
      </trkpt>
      <trkpt lat="47.27953" lon="-2.35576">
        <ele>-15.199999809265</ele>
        <time>2020-11-29T08:23:13.000Z</time>
      </trkpt>
      <trkpt lat="47.2798" lon="-2.35581">
        <ele>-14.800000190735</ele>
        <time>2020-11-29T08:23:20.000Z</time>
      </trkpt>
      <trkpt lat="47.27983" lon="-2.35582">
        <ele>-14.199999809265</ele>
        <time>2020-11-29T08:23:21.000Z</time>
      </trkpt>
      <trkpt lat="47.27987" lon="-2.35583">
        <ele>-13.800000190735</ele>
        <time>2020-11-29T08:23:22.000Z</time>
      </trkpt>
      <trkpt lat="47.2799" lon="-2.35584">
        <ele>-13.199999809265</ele>
        <time>2020-11-29T08:23:23.000Z</time>
      </trkpt>
      <trkpt lat="47.27994" lon="-2.35584">
        <ele>-12.800000190735</ele>
        <time>2020-11-29T08:23:24.000Z</time>
      </trkpt>
      <trkpt lat="47.28005" lon="-2.35581">
        <ele>-12.800000190735</ele>
        <time>2020-11-29T08:23:27.000Z</time>
      </trkpt>
      <trkpt lat="47.2803" lon="-2.35574">
        <ele>-12.800000190735</ele>
        <time>2020-11-29T08:23:35.000Z</time>
      </trkpt>
      <trkpt lat="47.28036" lon="-2.35576">
        <ele>-12.800000190735</ele>
        <time>2020-11-29T08:23:37.000Z</time>
      </trkpt>
      <trkpt lat="47.28038" lon="-2.35583">
        <ele>-12.800000190735</ele>
        <time>2020-11-29T08:23:39.000Z</time>
      </trkpt>
      <trkpt lat="47.28043" lon="-2.35602">
        <ele>-12.800000190735</ele>
        <time>2020-11-29T08:23:45.000Z</time>
      </trkpt>
      <trkpt lat="47.28051" lon="-2.35605">
        <ele>-12.800000190735</ele>
        <time>2020-11-29T08:23:50.000Z</time>
      </trkpt>
      <trkpt lat="47.28051" lon="-2.35605">
        <ele>-12.800000190735</ele>
        <time>2020-11-29T08:23:51.000Z</time>
      </trkpt>
      <trkpt lat="47.28054" lon="-2.35604">
        <ele>-6.8000001907349</ele>
        <time>2020-11-29T08:28:36.000Z</time>
      </trkpt>
      <trkpt lat="47.28056" lon="-2.35604">
        <ele>-6.8000001907349</ele>
        <time>2020-11-29T08:28:38.000Z</time>
      </trkpt>
      <trkpt lat="47.28058" lon="-2.35604">
        <ele>-6.8000001907349</ele>
        <time>2020-11-29T08:28:42.000Z</time>
      </trkpt>
      <trkpt lat="47.28066" lon="-2.35601">
        <ele>-4.8000001907349</ele>
        <time>2020-11-29T08:30:13.000Z</time>
      </trkpt>
      <trkpt lat="47.28068" lon="-2.35602">
        <ele>-4.8000001907349</ele>
        <time>2020-11-29T08:30:14.000Z</time>
      </trkpt>
      <trkpt lat="47.28076" lon="-2.35606">
        <ele>-4.8000001907349</ele>
        <time>2020-11-29T08:30:21.000Z</time>
      </trkpt>
      <trkpt lat="47.28081" lon="-2.3561">
        <ele>-4.8000001907349</ele>
        <time>2020-11-29T08:30:28.000Z</time>
      </trkpt>
      <trkpt lat="47.28096" lon="-2.35618">
        <ele>1.3999999761581</ele>
        <time>2020-11-29T08:36:59.000Z</time>
      </trkpt>
      <trkpt lat="47.28101" lon="-2.35621">
        <ele>1.3999999761581</ele>
        <time>2020-11-29T08:37:01.000Z</time>
      </trkpt>
      <trkpt lat="47.28103" lon="-2.35626">
        <ele>1.3999999761581</ele>
        <time>2020-11-29T08:37:03.000Z</time>
      </trkpt>
      <trkpt lat="47.28102" lon="-2.35631">
        <ele>1.3999999761581</ele>
        <time>2020-11-29T08:37:05.000Z</time>
      </trkpt>
      <trkpt lat="47.28095" lon="-2.35632">
        <ele>1.3999999761581</ele>
        <time>2020-11-29T08:37:10.000Z</time>
      </trkpt>
      <trkpt lat="47.28092" lon="-2.35621">
        <ele>1.3999999761581</ele>
        <time>2020-11-29T08:37:14.000Z</time>
      </trkpt>
      <trkpt lat="47.2809" lon="-2.35617">
        <ele>1.3999999761581</ele>
        <time>2020-11-29T08:37:15.000Z</time>
      </trkpt>
      <trkpt lat="47.28082" lon="-2.35608">
        <ele>1.3999999761581</ele>
        <time>2020-11-29T08:37:19.000Z</time>
      </trkpt>
      <trkpt lat="47.28079" lon="-2.3561">
        <ele>1.3999999761581</ele>
        <time>2020-11-29T08:37:20.000Z</time>
      </trkpt>
      <trkpt lat="47.28076" lon="-2.3562">
        <ele>1.3999999761581</ele>
        <time>2020-11-29T08:37:23.000Z</time>
      </trkpt>
      <trkpt lat="47.28078" lon="-2.35632">
        <ele>1.3999999761581</ele>
        <time>2020-11-29T08:37:26.000Z</time>
      </trkpt>
      <trkpt lat="47.28081" lon="-2.3564">
        <ele>1.7999999523163</ele>
        <time>2020-11-29T08:37:28.000Z</time>
      </trkpt>
      <trkpt lat="47.28082" lon="-2.35643">
        <ele>2.2000000476837</ele>
        <time>2020-11-29T08:37:29.000Z</time>
      </trkpt>
      <trkpt lat="47.28083" lon="-2.35646">
        <ele>2.5999999046326</ele>
        <time>2020-11-29T08:37:30.000Z</time>
      </trkpt>
      <trkpt lat="47.28084" lon="-2.3565">
        <ele>3</ele>
        <time>2020-11-29T08:37:31.000Z</time>
      </trkpt>
      <trkpt lat="47.28085" lon="-2.35654">
        <ele>3.5999999046326</ele>
        <time>2020-11-29T08:37:32.000Z</time>
      </trkpt>
      <trkpt lat="47.28087" lon="-2.35662">
        <ele>4</ele>
        <time>2020-11-29T08:37:34.000Z</time>
      </trkpt>
      <trkpt lat="47.28088" lon="-2.35665">
        <ele>4.4000000953674</ele>
        <time>2020-11-29T08:37:35.000Z</time>
      </trkpt>
      <trkpt lat="47.28089" lon="-2.35669">
        <ele>5</ele>
        <time>2020-11-29T08:37:36.000Z</time>
      </trkpt>
      <trkpt lat="47.2809" lon="-2.35673">
        <ele>5.4000000953674</ele>
        <time>2020-11-29T08:37:37.000Z</time>
      </trkpt>
      <trkpt lat="47.2809" lon="-2.35677">
        <ele>5.8000001907349</ele>
        <time>2020-11-29T08:37:38.000Z</time>
      </trkpt>
      <trkpt lat="47.28091" lon="-2.35686">
        <ele>5.8000001907349</ele>
        <time>2020-11-29T08:37:41.000Z</time>
      </trkpt>
      <trkpt lat="47.28093" lon="-2.35694">
        <ele>6.1999998092651</ele>
        <time>2020-11-29T08:37:45.000Z</time>
      </trkpt>
      <trkpt lat="47.28094" lon="-2.35697">
        <ele>6.5999999046326</ele>
        <time>2020-11-29T08:37:46.000Z</time>
      </trkpt>
      <trkpt lat="47.28096" lon="-2.357">
        <ele>7.1999998092651</ele>
        <time>2020-11-29T08:37:47.000Z</time>
      </trkpt>
      <trkpt lat="47.28096" lon="-2.35703">
        <ele>7.5999999046326</ele>
        <time>2020-11-29T08:37:48.000Z</time>
      </trkpt>
      <trkpt lat="47.28097" lon="-2.35706">
        <ele>8</ele>
        <time>2020-11-29T08:37:49.000Z</time>
      </trkpt>
      <trkpt lat="47.28093" lon="-2.35724">
        <ele>8</ele>
        <time>2020-11-29T08:37:54.000Z</time>
      </trkpt>
      <trkpt lat="47.28089" lon="-2.35757">
        <ele>8</ele>
        <time>2020-11-29T08:37:59.000Z</time>
      </trkpt>
      <trkpt lat="47.28084" lon="-2.35776">
        <ele>8</ele>
        <time>2020-11-29T08:38:03.000Z</time>
      </trkpt>
      <trkpt lat="47.28079" lon="-2.35786">
        <ele>7.5999999046326</ele>
        <time>2020-11-29T08:38:06.000Z</time>
      </trkpt>
      <trkpt lat="47.28078" lon="-2.35789">
        <ele>6.8000001907349</ele>
        <time>2020-11-29T08:38:07.000Z</time>
      </trkpt>
      <trkpt lat="47.28078" lon="-2.35794">
        <ele>6.4000000953674</ele>
        <time>2020-11-29T08:38:08.000Z</time>
      </trkpt>
      <trkpt lat="47.28078" lon="-2.35797">
        <ele>6</ele>
        <time>2020-11-29T08:38:09.000Z</time>
      </trkpt>
      <trkpt lat="47.28079" lon="-2.358">
        <ele>6</ele>
        <time>2020-11-29T08:38:11.000Z</time>
      </trkpt>
      <trkpt lat="47.28081" lon="-2.35801">
        <ele>5.4000000953674</ele>
        <time>2020-11-29T08:38:12.000Z</time>
      </trkpt>
      <trkpt lat="47.28083" lon="-2.358">
        <ele>5</ele>
        <time>2020-11-29T08:38:13.000Z</time>
      </trkpt>
      <trkpt lat="47.28085" lon="-2.358">
        <ele>4.5999999046326</ele>
        <time>2020-11-29T08:38:14.000Z</time>
      </trkpt>
      <trkpt lat="47.28087" lon="-2.35797">
        <ele>4.1999998092651</ele>
        <time>2020-11-29T08:38:15.000Z</time>
      </trkpt>
      <trkpt lat="47.28089" lon="-2.35794">
        <ele>3.7999999523163</ele>
        <time>2020-11-29T08:38:16.000Z</time>
      </trkpt>
      <trkpt lat="47.28092" lon="-2.35788">
        <ele>3.7999999523163</ele>
        <time>2020-11-29T08:38:18.000Z</time>
      </trkpt>
      <trkpt lat="47.28099" lon="-2.35768">
        <ele>3.7999999523163</ele>
        <time>2020-11-29T08:38:23.000Z</time>
      </trkpt>
      <trkpt lat="47.28112" lon="-2.35752">
        <ele>3.7999999523163</ele>
        <time>2020-11-29T08:38:28.000Z</time>
      </trkpt>
      <trkpt lat="47.28129" lon="-2.35746">
        <ele>3.7999999523163</ele>
        <time>2020-11-29T08:38:34.000Z</time>
      </trkpt>
      <trkpt lat="47.28142" lon="-2.35749">
        <ele>3.7999999523163</ele>
        <time>2020-11-29T08:38:40.000Z</time>
      </trkpt>
      <trkpt lat="47.28144" lon="-2.35752">
        <ele>3.7999999523163</ele>
        <time>2020-11-29T08:38:42.000Z</time>
      </trkpt>
      <trkpt lat="47.28141" lon="-2.35763">
        <ele>3.7999999523163</ele>
        <time>2020-11-29T08:38:46.000Z</time>
      </trkpt>
      <trkpt lat="47.2814" lon="-2.35766">
        <ele>3.7999999523163</ele>
        <time>2020-11-29T08:38:47.000Z</time>
      </trkpt>
      <trkpt lat="47.28138" lon="-2.35772">
        <ele>3.7999999523163</ele>
        <time>2020-11-29T08:38:50.000Z</time>
      </trkpt>
      <trkpt lat="47.28137" lon="-2.35776">
        <ele>3.7999999523163</ele>
        <time>2020-11-29T08:38:52.000Z</time>
      </trkpt>
      <trkpt lat="47.28137" lon="-2.35781">
        <ele>3.7999999523163</ele>
        <time>2020-11-29T08:38:53.000Z</time>
      </trkpt>
      <trkpt lat="47.2814" lon="-2.35793">
        <ele>3.7999999523163</ele>
        <time>2020-11-29T08:38:56.000Z</time>
      </trkpt>
      <trkpt lat="47.28146" lon="-2.3581">
        <ele>3.7999999523163</ele>
        <time>2020-11-29T08:39:02.000Z</time>
      </trkpt>
      <trkpt lat="47.28159" lon="-2.35819">
        <ele>4.1999998092651</ele>
        <time>2020-11-29T08:39:07.000Z</time>
      </trkpt>
      <trkpt lat="47.28162" lon="-2.35819">
        <ele>4.5999999046326</ele>
        <time>2020-11-29T08:39:08.000Z</time>
      </trkpt>
      <trkpt lat="47.28164" lon="-2.35819">
        <ele>5</ele>
        <time>2020-11-29T08:39:09.000Z</time>
      </trkpt>
      <trkpt lat="47.28167" lon="-2.35819">
        <ele>5.4000000953674</ele>
        <time>2020-11-29T08:39:10.000Z</time>
      </trkpt>
      <trkpt lat="47.2817" lon="-2.35819">
        <ele>5.8000001907349</ele>
        <time>2020-11-29T08:39:11.000Z</time>
      </trkpt>
      <trkpt lat="47.28172" lon="-2.3582">
        <ele>5.8000001907349</ele>
        <time>2020-11-29T08:39:12.000Z</time>
      </trkpt>
      <trkpt lat="47.28174" lon="-2.35821">
        <ele>5.8000001907349</ele>
        <time>2020-11-29T08:39:13.000Z</time>
      </trkpt>
      <trkpt lat="47.28183" lon="-2.35839">
        <ele>5.8000001907349</ele>
        <time>2020-11-29T08:39:18.000Z</time>
      </trkpt>
      <trkpt lat="47.28191" lon="-2.35873">
        <ele>5.8000001907349</ele>
        <time>2020-11-29T08:39:24.000Z</time>
      </trkpt>
      <trkpt lat="47.28196" lon="-2.359">
        <ele>5.8000001907349</ele>
        <time>2020-11-29T08:39:29.000Z</time>
      </trkpt>
      <trkpt lat="47.28193" lon="-2.35927">
        <ele>5.8000001907349</ele>
        <time>2020-11-29T08:39:33.000Z</time>
      </trkpt>
      <trkpt lat="47.28181" lon="-2.35946">
        <ele>5.8000001907349</ele>
        <time>2020-11-29T08:39:37.000Z</time>
      </trkpt>
      <trkpt lat="47.28175" lon="-2.35956">
        <ele>5.4000000953674</ele>
        <time>2020-11-29T08:39:40.000Z</time>
      </trkpt>
      <trkpt lat="47.28174" lon="-2.3596">
        <ele>5</ele>
        <time>2020-11-29T08:39:41.000Z</time>
      </trkpt>
      <trkpt lat="47.28174" lon="-2.35963">
        <ele>4.5999999046326</ele>
        <time>2020-11-29T08:39:42.000Z</time>
      </trkpt>
      <trkpt lat="47.28174" lon="-2.35967">
        <ele>4.1999998092651</ele>
        <time>2020-11-29T08:39:43.000Z</time>
      </trkpt>
      <trkpt lat="47.28174" lon="-2.35971">
        <ele>3.7999999523163</ele>
        <time>2020-11-29T08:39:44.000Z</time>
      </trkpt>
      <trkpt lat="47.28177" lon="-2.35982">
        <ele>3.7999999523163</ele>
        <time>2020-11-29T08:39:46.000Z</time>
      </trkpt>
      <trkpt lat="47.2819" lon="-2.36019">
        <ele>3.7999999523163</ele>
        <time>2020-11-29T08:39:52.000Z</time>
      </trkpt>
      <trkpt lat="47.28202" lon="-2.36038">
        <ele>3.7999999523163</ele>
        <time>2020-11-29T08:39:57.000Z</time>
      </trkpt>
      <trkpt lat="47.2821" lon="-2.36039">
        <ele>3.7999999523163</ele>
        <time>2020-11-29T08:40:00.000Z</time>
      </trkpt>
      <trkpt lat="47.28213" lon="-2.36037">
        <ele>3.7999999523163</ele>
        <time>2020-11-29T08:40:01.000Z</time>
      </trkpt>
      <trkpt lat="47.28239" lon="-2.36021">
        <ele>3.7999999523163</ele>
        <time>2020-11-29T08:40:08.000Z</time>
      </trkpt>
      <trkpt lat="47.28255" lon="-2.3602">
        <ele>3.7999999523163</ele>
        <time>2020-11-29T08:40:13.000Z</time>
      </trkpt>
      <trkpt lat="47.28254" lon="-2.36029">
        <ele>3.7999999523163</ele>
        <time>2020-11-29T08:40:16.000Z</time>
      </trkpt>
      <trkpt lat="47.28251" lon="-2.36044">
        <ele>4.1999998092651</ele>
        <time>2020-11-29T08:40:20.000Z</time>
      </trkpt>
      <trkpt lat="47.2825" lon="-2.36048">
        <ele>4.5999999046326</ele>
        <time>2020-11-29T08:40:21.000Z</time>
      </trkpt>
      <trkpt lat="47.2825" lon="-2.36053">
        <ele>5.1999998092651</ele>
        <time>2020-11-29T08:40:22.000Z</time>
      </trkpt>
      <trkpt lat="47.28249" lon="-2.36056">
        <ele>5.5999999046326</ele>
        <time>2020-11-29T08:40:23.000Z</time>
      </trkpt>
      <trkpt lat="47.28249" lon="-2.3606">
        <ele>6</ele>
        <time>2020-11-29T08:40:24.000Z</time>
      </trkpt>
      <trkpt lat="47.28248" lon="-2.36067">
        <ele>6</ele>
        <time>2020-11-29T08:40:26.000Z</time>
      </trkpt>
      <trkpt lat="47.28247" lon="-2.3607">
        <ele>6</ele>
        <time>2020-11-29T08:40:27.000Z</time>
      </trkpt>
      <trkpt lat="47.28246" lon="-2.36073">
        <ele>6</ele>
        <time>2020-11-29T08:40:28.000Z</time>
      </trkpt>
      <trkpt lat="47.2824" lon="-2.36098">
        <ele>6</ele>
        <time>2020-11-29T08:40:34.000Z</time>
      </trkpt>
      <trkpt lat="47.2825" lon="-2.36123">
        <ele>6</ele>
        <time>2020-11-29T08:40:39.000Z</time>
      </trkpt>
      <trkpt lat="47.28263" lon="-2.36149">
        <ele>6</ele>
        <time>2020-11-29T08:40:44.000Z</time>
      </trkpt>
      <trkpt lat="47.2827" lon="-2.36181">
        <ele>6</ele>
        <time>2020-11-29T08:40:50.000Z</time>
      </trkpt>
      <trkpt lat="47.28273" lon="-2.36209">
        <ele>6</ele>
        <time>2020-11-29T08:40:56.000Z</time>
      </trkpt>
      <trkpt lat="47.2828" lon="-2.36221">
        <ele>6</ele>
        <time>2020-11-29T08:41:00.000Z</time>
      </trkpt>
      <trkpt lat="47.28286" lon="-2.36225">
        <ele>6</ele>
        <time>2020-11-29T08:41:03.000Z</time>
      </trkpt>
      <trkpt lat="47.2829" lon="-2.36224">
        <ele>6</ele>
        <time>2020-11-29T08:41:05.000Z</time>
      </trkpt>
      <trkpt lat="47.28295" lon="-2.3622">
        <ele>6</ele>
        <time>2020-11-29T08:41:07.000Z</time>
      </trkpt>
      <trkpt lat="47.28303" lon="-2.36215">
        <ele>6</ele>
        <time>2020-11-29T08:41:10.000Z</time>
      </trkpt>
      <trkpt lat="47.28315" lon="-2.3621">
        <ele>6</ele>
        <time>2020-11-29T08:41:15.000Z</time>
      </trkpt>
      <trkpt lat="47.28318" lon="-2.36208">
        <ele>6.4000000953674</ele>
        <time>2020-11-29T08:41:16.000Z</time>
      </trkpt>
      <trkpt lat="47.2832" lon="-2.36206">
        <ele>6.8000001907349</ele>
        <time>2020-11-29T08:41:17.000Z</time>
      </trkpt>
      <trkpt lat="47.28323" lon="-2.36204">
        <ele>7.1999998092651</ele>
        <time>2020-11-29T08:41:18.000Z</time>
      </trkpt>
      <trkpt lat="47.28325" lon="-2.36202">
        <ele>7.5999999046326</ele>
        <time>2020-11-29T08:41:19.000Z</time>
      </trkpt>
      <trkpt lat="47.28327" lon="-2.36199">
        <ele>8</ele>
        <time>2020-11-29T08:41:20.000Z</time>
      </trkpt>
      <trkpt lat="47.28329" lon="-2.36196">
        <ele>8</ele>
        <time>2020-11-29T08:41:21.000Z</time>
      </trkpt>
      <trkpt lat="47.28338" lon="-2.36185">
        <ele>8</ele>
        <time>2020-11-29T08:41:27.000Z</time>
      </trkpt>
      <trkpt lat="47.28339" lon="-2.36184">
        <ele>8.3999996185303</ele>
        <time>2020-11-29T08:41:28.000Z</time>
      </trkpt>
      <trkpt lat="47.28339" lon="-2.36183">
        <ele>9</ele>
        <time>2020-11-29T08:41:29.000Z</time>
      </trkpt>
      <trkpt lat="47.2834" lon="-2.36182">
        <ele>9.3999996185303</ele>
        <time>2020-11-29T08:41:30.000Z</time>
      </trkpt>
      <trkpt lat="47.28341" lon="-2.36181">
        <ele>9.8000001907349</ele>
        <time>2020-11-29T08:41:31.000Z</time>
      </trkpt>
      <trkpt lat="47.28342" lon="-2.3618">
        <ele>10.199999809265</ele>
        <time>2020-11-29T08:41:32.000Z</time>
      </trkpt>
      <trkpt lat="47.28344" lon="-2.36177">
        <ele>10.199999809265</ele>
        <time>2020-11-29T08:41:34.000Z</time>
      </trkpt>
      <trkpt lat="47.28348" lon="-2.36171">
        <ele>10.60000038147</ele>
        <time>2020-11-29T08:41:38.000Z</time>
      </trkpt>
      <trkpt lat="47.28349" lon="-2.3617">
        <ele>11.199999809265</ele>
        <time>2020-11-29T08:41:39.000Z</time>
      </trkpt>
      <trkpt lat="47.2835" lon="-2.36169">
        <ele>11.60000038147</ele>
        <time>2020-11-29T08:41:40.000Z</time>
      </trkpt>
      <trkpt lat="47.2835" lon="-2.36168">
        <ele>12</ele>
        <time>2020-11-29T08:41:41.000Z</time>
      </trkpt>
      <trkpt lat="47.28352" lon="-2.36167">
        <ele>12.39999961853</ele>
        <time>2020-11-29T08:41:42.000Z</time>
      </trkpt>
      <trkpt lat="47.28356" lon="-2.36164">
        <ele>12.800000190735</ele>
        <time>2020-11-29T08:41:45.000Z</time>
      </trkpt>
      <trkpt lat="47.28356" lon="-2.36164">
        <ele>13.199999809265</ele>
        <time>2020-11-29T08:41:46.000Z</time>
      </trkpt>
      <trkpt lat="47.28357" lon="-2.36163">
        <ele>13.60000038147</ele>
        <time>2020-11-29T08:41:47.000Z</time>
      </trkpt>
      <trkpt lat="47.28358" lon="-2.36162">
        <ele>14</ele>
        <time>2020-11-29T08:41:48.000Z</time>
      </trkpt>
      <trkpt lat="47.28358" lon="-2.36161">
        <ele>14.60000038147</ele>
        <time>2020-11-29T08:41:49.000Z</time>
      </trkpt>
      <trkpt lat="47.28361" lon="-2.36158">
        <ele>15</ele>
        <time>2020-11-29T08:41:52.000Z</time>
      </trkpt>
      <trkpt lat="47.28361" lon="-2.36157">
        <ele>15.39999961853</ele>
        <time>2020-11-29T08:41:53.000Z</time>
      </trkpt>
      <trkpt lat="47.28362" lon="-2.36156">
        <ele>15.800000190735</ele>
        <time>2020-11-29T08:41:54.000Z</time>
      </trkpt>
      <trkpt lat="47.28363" lon="-2.36155">
        <ele>16.200000762939</ele>
        <time>2020-11-29T08:41:55.000Z</time>
      </trkpt>
      <trkpt lat="47.28364" lon="-2.36155">
        <ele>16.799999237061</ele>
        <time>2020-11-29T08:41:56.000Z</time>
      </trkpt>
      <trkpt lat="47.28367" lon="-2.36151">
        <ele>17.200000762939</ele>
        <time>2020-11-29T08:42:00.000Z</time>
      </trkpt>
      <trkpt lat="47.28368" lon="-2.36151">
        <ele>17.60000038147</ele>
        <time>2020-11-29T08:42:01.000Z</time>
      </trkpt>
      <trkpt lat="47.28369" lon="-2.3615">
        <ele>18</ele>
        <time>2020-11-29T08:42:02.000Z</time>
      </trkpt>
      <trkpt lat="47.2837" lon="-2.36148">
        <ele>18.39999961853</ele>
        <time>2020-11-29T08:42:03.000Z</time>
      </trkpt>
      <trkpt lat="47.28371" lon="-2.36147">
        <ele>18.799999237061</ele>
        <time>2020-11-29T08:42:04.000Z</time>
      </trkpt>
      <trkpt lat="47.28373" lon="-2.36142">
        <ele>18.799999237061</ele>
        <time>2020-11-29T08:42:06.000Z</time>
      </trkpt>
      <trkpt lat="47.28374" lon="-2.3614">
        <ele>18.799999237061</ele>
        <time>2020-11-29T08:42:07.000Z</time>
      </trkpt>
      <trkpt lat="47.28379" lon="-2.36133">
        <ele>19.200000762939</ele>
        <time>2020-11-29T08:42:12.000Z</time>
      </trkpt>
      <trkpt lat="47.2838" lon="-2.36131">
        <ele>19.60000038147</ele>
        <time>2020-11-29T08:42:13.000Z</time>
      </trkpt>
      <trkpt lat="47.28381" lon="-2.36129">
        <ele>20.39999961853</ele>
        <time>2020-11-29T08:42:14.000Z</time>
      </trkpt>
      <trkpt lat="47.28382" lon="-2.36128">
        <ele>20.799999237061</ele>
        <time>2020-11-29T08:42:15.000Z</time>
      </trkpt>
      <trkpt lat="47.28385" lon="-2.36123">
        <ele>20.799999237061</ele>
        <time>2020-11-29T08:42:18.000Z</time>
      </trkpt>
      <trkpt lat="47.28387" lon="-2.3612">
        <ele>20.799999237061</ele>
        <time>2020-11-29T08:42:21.000Z</time>
      </trkpt>
      <trkpt lat="47.28393" lon="-2.36121">
        <ele>20.799999237061</ele>
        <time>2020-11-29T08:42:24.000Z</time>
      </trkpt>
      <trkpt lat="47.28404" lon="-2.36122">
        <ele>20.799999237061</ele>
        <time>2020-11-29T08:42:29.000Z</time>
      </trkpt>
      <trkpt lat="47.28406" lon="-2.36122">
        <ele>20.799999237061</ele>
        <time>2020-11-29T08:42:30.000Z</time>
      </trkpt>
      <trkpt lat="47.28408" lon="-2.36122">
        <ele>20.799999237061</ele>
        <time>2020-11-29T08:42:31.000Z</time>
      </trkpt>
      <trkpt lat="47.28414" lon="-2.36116">
        <ele>20.799999237061</ele>
        <time>2020-11-29T08:42:35.000Z</time>
      </trkpt>
      <trkpt lat="47.28415" lon="-2.36113">
        <ele>20.799999237061</ele>
        <time>2020-11-29T08:42:37.000Z</time>
      </trkpt>
      <trkpt lat="47.28415" lon="-2.36106">
        <ele>20.799999237061</ele>
        <time>2020-11-29T08:42:41.000Z</time>
      </trkpt>
      <trkpt lat="47.28415" lon="-2.36105">
        <ele>20.799999237061</ele>
        <time>2020-11-29T08:42:42.000Z</time>
      </trkpt>
      <trkpt lat="47.28418" lon="-2.36098">
        <ele>22.799999237061</ele>
        <time>2020-11-29T08:43:02.000Z</time>
      </trkpt>
      <trkpt lat="47.28422" lon="-2.36095">
        <ele>22.799999237061</ele>
        <time>2020-11-29T08:43:04.000Z</time>
      </trkpt>
      <trkpt lat="47.28434" lon="-2.36086">
        <ele>22.799999237061</ele>
        <time>2020-11-29T08:43:10.000Z</time>
      </trkpt>
      <trkpt lat="47.28435" lon="-2.36074">
        <ele>22.799999237061</ele>
        <time>2020-11-29T08:43:14.000Z</time>
      </trkpt>
      <trkpt lat="47.28436" lon="-2.36053">
        <ele>23.200000762939</ele>
        <time>2020-11-29T08:43:19.000Z</time>
      </trkpt>
      <trkpt lat="47.28436" lon="-2.36049">
        <ele>23.799999237061</ele>
        <time>2020-11-29T08:43:20.000Z</time>
      </trkpt>
      <trkpt lat="47.28437" lon="-2.36045">
        <ele>24.200000762939</ele>
        <time>2020-11-29T08:43:21.000Z</time>
      </trkpt>
      <trkpt lat="47.28437" lon="-2.36041">
        <ele>24.60000038147</ele>
        <time>2020-11-29T08:43:22.000Z</time>
      </trkpt>
      <trkpt lat="47.28437" lon="-2.36038">
        <ele>25</ele>
        <time>2020-11-29T08:43:23.000Z</time>
      </trkpt>
      <trkpt lat="47.28438" lon="-2.36026">
        <ele>25</ele>
        <time>2020-11-29T08:43:27.000Z</time>
      </trkpt>
      <trkpt lat="47.28439" lon="-2.36018">
        <ele>25</ele>
        <time>2020-11-29T08:43:32.000Z</time>
      </trkpt>
      <trkpt lat="47.28442" lon="-2.36015">
        <ele>25</ele>
        <time>2020-11-29T08:43:36.000Z</time>
      </trkpt>
      <trkpt lat="47.28449" lon="-2.35998">
        <ele>25</ele>
        <time>2020-11-29T08:43:40.000Z</time>
      </trkpt>
      <trkpt lat="47.28457" lon="-2.3596">
        <ele>25</ele>
        <time>2020-11-29T08:43:46.000Z</time>
      </trkpt>
      <trkpt lat="47.28459" lon="-2.35953">
        <ele>25</ele>
        <time>2020-11-29T08:43:47.000Z</time>
      </trkpt>
      <trkpt lat="47.28468" lon="-2.35927">
        <ele>24.39999961853</ele>
        <time>2020-11-29T08:43:51.000Z</time>
      </trkpt>
      <trkpt lat="47.2847" lon="-2.3592">
        <ele>23.799999237061</ele>
        <time>2020-11-29T08:43:52.000Z</time>
      </trkpt>
      <trkpt lat="47.28471" lon="-2.35914">
        <ele>22.60000038147</ele>
        <time>2020-11-29T08:43:53.000Z</time>
      </trkpt>
      <trkpt lat="47.28471" lon="-2.35908">
        <ele>22</ele>
        <time>2020-11-29T08:43:54.000Z</time>
      </trkpt>
      <trkpt lat="47.2847" lon="-2.35901">
        <ele>21.200000762939</ele>
        <time>2020-11-29T08:43:55.000Z</time>
      </trkpt>
      <trkpt lat="47.28469" lon="-2.35895">
        <ele>20.39999961853</ele>
        <time>2020-11-29T08:43:56.000Z</time>
      </trkpt>
      <trkpt lat="47.28467" lon="-2.35891">
        <ele>19.799999237061</ele>
        <time>2020-11-29T08:43:57.000Z</time>
      </trkpt>
      <trkpt lat="47.28466" lon="-2.35886">
        <ele>19.200000762939</ele>
        <time>2020-11-29T08:43:58.000Z</time>
      </trkpt>
      <trkpt lat="47.28464" lon="-2.35881">
        <ele>18.60000038147</ele>
        <time>2020-11-29T08:43:59.000Z</time>
      </trkpt>
      <trkpt lat="47.28463" lon="-2.35875">
        <ele>18</ele>
        <time>2020-11-29T08:44:00.000Z</time>
      </trkpt>
      <trkpt lat="47.28463" lon="-2.3587">
        <ele>17.200000762939</ele>
        <time>2020-11-29T08:44:01.000Z</time>
      </trkpt>
      <trkpt lat="47.28463" lon="-2.3586">
        <ele>17.200000762939</ele>
        <time>2020-11-29T08:44:03.000Z</time>
      </trkpt>
      <trkpt lat="47.28467" lon="-2.35845">
        <ele>16.799999237061</ele>
        <time>2020-11-29T08:44:06.000Z</time>
      </trkpt>
      <trkpt lat="47.28467" lon="-2.35841">
        <ele>16.39999961853</ele>
        <time>2020-11-29T08:44:07.000Z</time>
      </trkpt>
      <trkpt lat="47.28468" lon="-2.35837">
        <ele>16</ele>
        <time>2020-11-29T08:44:08.000Z</time>
      </trkpt>
      <trkpt lat="47.28469" lon="-2.35833">
        <ele>15.60000038147</ele>
        <time>2020-11-29T08:44:09.000Z</time>
      </trkpt>
      <trkpt lat="47.28469" lon="-2.3583">
        <ele>15.199999809265</ele>
        <time>2020-11-29T08:44:10.000Z</time>
      </trkpt>
      <trkpt lat="47.28477" lon="-2.35812">
        <ele>15.199999809265</ele>
        <time>2020-11-29T08:44:15.000Z</time>
      </trkpt>
      <trkpt lat="47.28478" lon="-2.35805">
        <ele>15.199999809265</ele>
        <time>2020-11-29T08:44:18.000Z</time>
      </trkpt>
      <trkpt lat="47.28477" lon="-2.35799">
        <ele>15.199999809265</ele>
        <time>2020-11-29T08:44:20.000Z</time>
      </trkpt>
      <trkpt lat="47.28469" lon="-2.35771">
        <ele>15.199999809265</ele>
        <time>2020-11-29T08:44:27.000Z</time>
      </trkpt>
      <trkpt lat="47.28479" lon="-2.35745">
        <ele>15.199999809265</ele>
        <time>2020-11-29T08:44:33.000Z</time>
      </trkpt>
      <trkpt lat="47.28496" lon="-2.35719">
        <ele>15.199999809265</ele>
        <time>2020-11-29T08:44:39.000Z</time>
      </trkpt>
      <trkpt lat="47.285" lon="-2.35701">
        <ele>15.199999809265</ele>
        <time>2020-11-29T08:44:44.000Z</time>
      </trkpt>
      <trkpt lat="47.28498" lon="-2.35697">
        <ele>15.199999809265</ele>
        <time>2020-11-29T08:44:45.000Z</time>
      </trkpt>
      <trkpt lat="47.2849" lon="-2.35683">
        <ele>15.199999809265</ele>
        <time>2020-11-29T08:44:49.000Z</time>
      </trkpt>
      <trkpt lat="47.28473" lon="-2.35664">
        <ele>15.199999809265</ele>
        <time>2020-11-29T08:44:55.000Z</time>
      </trkpt>
      <trkpt lat="47.28459" lon="-2.3565">
        <ele>15.199999809265</ele>
        <time>2020-11-29T08:45:01.000Z</time>
      </trkpt>
      <trkpt lat="47.28456" lon="-2.3565">
        <ele>15.199999809265</ele>
        <time>2020-11-29T08:45:02.000Z</time>
      </trkpt>
      <trkpt lat="47.28448" lon="-2.35655">
        <ele>15.199999809265</ele>
        <time>2020-11-29T08:45:05.000Z</time>
      </trkpt>
      <trkpt lat="47.28441" lon="-2.35661">
        <ele>15.199999809265</ele>
        <time>2020-11-29T08:45:07.000Z</time>
      </trkpt>
      <trkpt lat="47.28429" lon="-2.35669">
        <ele>15.199999809265</ele>
        <time>2020-11-29T08:45:10.000Z</time>
      </trkpt>
      <trkpt lat="47.28417" lon="-2.35686">
        <ele>15.199999809265</ele>
        <time>2020-11-29T08:45:15.000Z</time>
      </trkpt>
      <trkpt lat="47.28415" lon="-2.35687">
        <ele>15.199999809265</ele>
        <time>2020-11-29T08:45:16.000Z</time>
      </trkpt>
      <trkpt lat="47.28412" lon="-2.35686">
        <ele>15.199999809265</ele>
        <time>2020-11-29T08:45:18.000Z</time>
      </trkpt>
      <trkpt lat="47.28411" lon="-2.35683">
        <ele>15.199999809265</ele>
        <time>2020-11-29T08:45:19.000Z</time>
      </trkpt>
      <trkpt lat="47.28411" lon="-2.35671">
        <ele>15.199999809265</ele>
        <time>2020-11-29T08:45:22.000Z</time>
      </trkpt>
      <trkpt lat="47.28411" lon="-2.35666">
        <ele>15.199999809265</ele>
        <time>2020-11-29T08:45:23.000Z</time>
      </trkpt>
      <trkpt lat="47.28411" lon="-2.35642">
        <ele>15.199999809265</ele>
        <time>2020-11-29T08:45:28.000Z</time>
      </trkpt>
      <trkpt lat="47.2841" lon="-2.35638">
        <ele>15.199999809265</ele>
        <time>2020-11-29T08:45:29.000Z</time>
      </trkpt>
      <trkpt lat="47.28404" lon="-2.35632">
        <ele>15.199999809265</ele>
        <time>2020-11-29T08:45:31.000Z</time>
      </trkpt>
      <trkpt lat="47.28396" lon="-2.35619">
        <ele>15.199999809265</ele>
        <time>2020-11-29T08:45:35.000Z</time>
      </trkpt>
      <trkpt lat="47.28394" lon="-2.35599">
        <ele>15.199999809265</ele>
        <time>2020-11-29T08:45:39.000Z</time>
      </trkpt>
      <trkpt lat="47.28393" lon="-2.35592">
        <ele>15.199999809265</ele>
        <time>2020-11-29T08:45:40.000Z</time>
      </trkpt>
      <trkpt lat="47.28392" lon="-2.35556">
        <ele>15.199999809265</ele>
        <time>2020-11-29T08:45:45.000Z</time>
      </trkpt>
      <trkpt lat="47.28401" lon="-2.35531">
        <ele>15.199999809265</ele>
        <time>2020-11-29T08:45:50.000Z</time>
      </trkpt>
      <trkpt lat="47.2841" lon="-2.35506">
        <ele>15.199999809265</ele>
        <time>2020-11-29T08:45:56.000Z</time>
      </trkpt>
      <trkpt lat="47.2841" lon="-2.35491">
        <ele>15.199999809265</ele>
        <time>2020-11-29T08:46:01.000Z</time>
      </trkpt>
      <trkpt lat="47.2841" lon="-2.35487">
        <ele>15.199999809265</ele>
        <time>2020-11-29T08:46:03.000Z</time>
      </trkpt>
      <trkpt lat="47.28409" lon="-2.35482">
        <ele>15.199999809265</ele>
        <time>2020-11-29T08:46:21.000Z</time>
      </trkpt>
      <trkpt lat="47.28408" lon="-2.35476">
        <ele>15.199999809265</ele>
        <time>2020-11-29T08:46:23.000Z</time>
      </trkpt>
      <trkpt lat="47.28404" lon="-2.35451">
        <ele>15.199999809265</ele>
        <time>2020-11-29T08:46:30.000Z</time>
      </trkpt>
      <trkpt lat="47.28403" lon="-2.35446">
        <ele>15.60000038147</ele>
        <time>2020-11-29T08:46:31.000Z</time>
      </trkpt>
      <trkpt lat="47.28403" lon="-2.35442">
        <ele>16</ele>
        <time>2020-11-29T08:46:32.000Z</time>
      </trkpt>
      <trkpt lat="47.28404" lon="-2.35439">
        <ele>16.39999961853</ele>
        <time>2020-11-29T08:46:33.000Z</time>
      </trkpt>
      <trkpt lat="47.28404" lon="-2.35437">
        <ele>17</ele>
        <time>2020-11-29T08:46:34.000Z</time>
      </trkpt>
      <trkpt lat="47.28406" lon="-2.35436">
        <ele>17.39999961853</ele>
        <time>2020-11-29T08:46:35.000Z</time>
      </trkpt>
      <trkpt lat="47.28408" lon="-2.35436">
        <ele>17.39999961853</ele>
        <time>2020-11-29T08:46:36.000Z</time>
      </trkpt>
      <trkpt lat="47.2841" lon="-2.35436">
        <ele>17.39999961853</ele>
        <time>2020-11-29T08:46:37.000Z</time>
      </trkpt>
      <trkpt lat="47.28417" lon="-2.35428">
        <ele>17.39999961853</ele>
        <time>2020-11-29T08:46:41.000Z</time>
      </trkpt>
      <trkpt lat="47.28419" lon="-2.35425">
        <ele>17.39999961853</ele>
        <time>2020-11-29T08:46:42.000Z</time>
      </trkpt>
      <trkpt lat="47.28422" lon="-2.3542">
        <ele>17.39999961853</ele>
        <time>2020-11-29T08:46:46.000Z</time>
      </trkpt>
      <trkpt lat="47.28428" lon="-2.35414">
        <ele>17.39999961853</ele>
        <time>2020-11-29T08:47:03.000Z</time>
      </trkpt>
      <trkpt lat="47.2843" lon="-2.35412">
        <ele>17.799999237061</ele>
        <time>2020-11-29T08:47:04.000Z</time>
      </trkpt>
      <trkpt lat="47.28432" lon="-2.3541">
        <ele>18.200000762939</ele>
        <time>2020-11-29T08:47:05.000Z</time>
      </trkpt>
      <trkpt lat="47.28434" lon="-2.3541">
        <ele>18.60000038147</ele>
        <time>2020-11-29T08:47:06.000Z</time>
      </trkpt>
      <trkpt lat="47.28436" lon="-2.35411">
        <ele>19</ele>
        <time>2020-11-29T08:47:07.000Z</time>
      </trkpt>
      <trkpt lat="47.28439" lon="-2.35411">
        <ele>19.39999961853</ele>
        <time>2020-11-29T08:47:08.000Z</time>
      </trkpt>
      <trkpt lat="47.28445" lon="-2.35411">
        <ele>19.39999961853</ele>
        <time>2020-11-29T08:47:11.000Z</time>
      </trkpt>
      <trkpt lat="47.2845" lon="-2.35404">
        <ele>19.39999961853</ele>
        <time>2020-11-29T08:47:13.000Z</time>
      </trkpt>
      <trkpt lat="47.28452" lon="-2.35389">
        <ele>19</ele>
        <time>2020-11-29T08:47:16.000Z</time>
      </trkpt>
      <trkpt lat="47.28453" lon="-2.35383">
        <ele>18.60000038147</ele>
        <time>2020-11-29T08:47:17.000Z</time>
      </trkpt>
      <trkpt lat="47.28453" lon="-2.35378">
        <ele>18.200000762939</ele>
        <time>2020-11-29T08:47:18.000Z</time>
      </trkpt>
      <trkpt lat="47.28454" lon="-2.35373">
        <ele>17.799999237061</ele>
        <time>2020-11-29T08:47:19.000Z</time>
      </trkpt>
      <trkpt lat="47.28455" lon="-2.35369">
        <ele>17.200000762939</ele>
        <time>2020-11-29T08:47:20.000Z</time>
      </trkpt>
      <trkpt lat="47.28456" lon="-2.35364">
        <ele>16.60000038147</ele>
        <time>2020-11-29T08:47:21.000Z</time>
      </trkpt>
      <trkpt lat="47.28456" lon="-2.35361">
        <ele>16</ele>
        <time>2020-11-29T08:47:22.000Z</time>
      </trkpt>
      <trkpt lat="47.28457" lon="-2.35358">
        <ele>15.39999961853</ele>
        <time>2020-11-29T08:47:23.000Z</time>
      </trkpt>
      <trkpt lat="47.28458" lon="-2.35355">
        <ele>14.60000038147</ele>
        <time>2020-11-29T08:47:24.000Z</time>
      </trkpt>
      <trkpt lat="47.28459" lon="-2.35353">
        <ele>14</ele>
        <time>2020-11-29T08:47:25.000Z</time>
      </trkpt>
      <trkpt lat="47.28461" lon="-2.3535">
        <ele>13.39999961853</ele>
        <time>2020-11-29T08:47:26.000Z</time>
      </trkpt>
      <trkpt lat="47.28463" lon="-2.35349">
        <ele>12.800000190735</ele>
        <time>2020-11-29T08:47:27.000Z</time>
      </trkpt>
      <trkpt lat="47.28466" lon="-2.35349">
        <ele>12.199999809265</ele>
        <time>2020-11-29T08:47:28.000Z</time>
      </trkpt>
      <trkpt lat="47.28469" lon="-2.35351">
        <ele>11.800000190735</ele>
        <time>2020-11-29T08:47:29.000Z</time>
      </trkpt>
      <trkpt lat="47.28471" lon="-2.35353">
        <ele>11.39999961853</ele>
        <time>2020-11-29T08:47:30.000Z</time>
      </trkpt>
      <trkpt lat="47.28474" lon="-2.35355">
        <ele>11</ele>
        <time>2020-11-29T08:47:31.000Z</time>
      </trkpt>
      <trkpt lat="47.28477" lon="-2.35359">
        <ele>10.39999961853</ele>
        <time>2020-11-29T08:47:32.000Z</time>
      </trkpt>
      <trkpt lat="47.28479" lon="-2.35364">
        <ele>10</ele>
        <time>2020-11-29T08:47:33.000Z</time>
      </trkpt>
      <trkpt lat="47.28484" lon="-2.35389">
        <ele>10</ele>
        <time>2020-11-29T08:47:37.000Z</time>
      </trkpt>
      <trkpt lat="47.28487" lon="-2.35407">
        <ele>10</ele>
        <time>2020-11-29T08:47:41.000Z</time>
      </trkpt>
      <trkpt lat="47.28489" lon="-2.35423">
        <ele>10.39999961853</ele>
        <time>2020-11-29T08:47:46.000Z</time>
      </trkpt>
      <trkpt lat="47.28488" lon="-2.35425">
        <ele>11</ele>
        <time>2020-11-29T08:47:47.000Z</time>
      </trkpt>
      <trkpt lat="47.28488" lon="-2.35427">
        <ele>11.39999961853</ele>
        <time>2020-11-29T08:47:48.000Z</time>
      </trkpt>
      <trkpt lat="47.28486" lon="-2.35429">
        <ele>11.800000190735</ele>
        <time>2020-11-29T08:47:49.000Z</time>
      </trkpt>
      <trkpt lat="47.28485" lon="-2.3543">
        <ele>12.199999809265</ele>
        <time>2020-11-29T08:47:50.000Z</time>
      </trkpt>
      <trkpt lat="47.28483" lon="-2.35433">
        <ele>12.60000038147</ele>
        <time>2020-11-29T08:47:52.000Z</time>
      </trkpt>
      <trkpt lat="47.28482" lon="-2.35434">
        <ele>13</ele>
        <time>2020-11-29T08:47:53.000Z</time>
      </trkpt>
      <trkpt lat="47.28481" lon="-2.35435">
        <ele>13.39999961853</ele>
        <time>2020-11-29T08:47:54.000Z</time>
      </trkpt>
      <trkpt lat="47.2848" lon="-2.35436">
        <ele>13.800000190735</ele>
        <time>2020-11-29T08:47:55.000Z</time>
      </trkpt>
      <trkpt lat="47.28479" lon="-2.35437">
        <ele>14.199999809265</ele>
        <time>2020-11-29T08:47:56.000Z</time>
      </trkpt>
      <trkpt lat="47.28475" lon="-2.35437">
        <ele>14.60000038147</ele>
        <time>2020-11-29T08:48:00.000Z</time>
      </trkpt>
      <trkpt lat="47.28474" lon="-2.35438">
        <ele>15</ele>
        <time>2020-11-29T08:48:01.000Z</time>
      </trkpt>
      <trkpt lat="47.28473" lon="-2.35438">
        <ele>15.39999961853</ele>
        <time>2020-11-29T08:48:02.000Z</time>
      </trkpt>
      <trkpt lat="47.28472" lon="-2.35438">
        <ele>16</ele>
        <time>2020-11-29T08:48:03.000Z</time>
      </trkpt>
      <trkpt lat="47.2847" lon="-2.35437">
        <ele>16.39999961853</ele>
        <time>2020-11-29T08:48:04.000Z</time>
      </trkpt>
      <trkpt lat="47.28466" lon="-2.35431">
        <ele>16.799999237061</ele>
        <time>2020-11-29T08:48:07.000Z</time>
      </trkpt>
      <trkpt lat="47.28465" lon="-2.3543">
        <ele>17.200000762939</ele>
        <time>2020-11-29T08:48:08.000Z</time>
      </trkpt>
      <trkpt lat="47.28465" lon="-2.35429">
        <ele>17.60000038147</ele>
        <time>2020-11-29T08:48:09.000Z</time>
      </trkpt>
      <trkpt lat="47.28463" lon="-2.35429">
        <ele>18</ele>
        <time>2020-11-29T08:48:10.000Z</time>
      </trkpt>
      <trkpt lat="47.28461" lon="-2.3543">
        <ele>18.39999961853</ele>
        <time>2020-11-29T08:48:11.000Z</time>
      </trkpt>
      <trkpt lat="47.28458" lon="-2.3543">
        <ele>18.39999961853</ele>
        <time>2020-11-29T08:48:12.000Z</time>
      </trkpt>
      <trkpt lat="47.28451" lon="-2.35433">
        <ele>18.39999961853</ele>
        <time>2020-11-29T08:48:15.000Z</time>
      </trkpt>
      <trkpt lat="47.28449" lon="-2.35437">
        <ele>18.39999961853</ele>
        <time>2020-11-29T08:48:17.000Z</time>
      </trkpt>
      <trkpt lat="47.28451" lon="-2.35443">
        <ele>18.39999961853</ele>
        <time>2020-11-29T08:48:21.000Z</time>
      </trkpt>
      <trkpt lat="47.28451" lon="-2.35445">
        <ele>18.799999237061</ele>
        <time>2020-11-29T08:48:22.000Z</time>
      </trkpt>
      <trkpt lat="47.28451" lon="-2.35446">
        <ele>19.39999961853</ele>
        <time>2020-11-29T08:48:23.000Z</time>
      </trkpt>
      <trkpt lat="47.28452" lon="-2.35448">
        <ele>19.799999237061</ele>
        <time>2020-11-29T08:48:24.000Z</time>
      </trkpt>
      <trkpt lat="47.28452" lon="-2.35449">
        <ele>20.60000038147</ele>
        <time>2020-11-29T08:48:25.000Z</time>
      </trkpt>
      <trkpt lat="47.28453" lon="-2.35456">
        <ele>21</ele>
        <time>2020-11-29T08:48:28.000Z</time>
      </trkpt>
      <trkpt lat="47.28454" lon="-2.35459">
        <ele>21.39999961853</ele>
        <time>2020-11-29T08:48:29.000Z</time>
      </trkpt>
      <trkpt lat="47.28454" lon="-2.35461">
        <ele>21.799999237061</ele>
        <time>2020-11-29T08:48:30.000Z</time>
      </trkpt>
      <trkpt lat="47.28455" lon="-2.35464">
        <ele>22.200000762939</ele>
        <time>2020-11-29T08:48:31.000Z</time>
      </trkpt>
      <trkpt lat="47.28455" lon="-2.35466">
        <ele>22.60000038147</ele>
        <time>2020-11-29T08:48:32.000Z</time>
      </trkpt>
      <trkpt lat="47.28459" lon="-2.35477">
        <ele>22.60000038147</ele>
        <time>2020-11-29T08:48:36.000Z</time>
      </trkpt>
      <trkpt lat="47.2846" lon="-2.35478">
        <ele>22.60000038147</ele>
        <time>2020-11-29T08:48:37.000Z</time>
      </trkpt>
      <trkpt lat="47.28462" lon="-2.3548">
        <ele>23</ele>
        <time>2020-11-29T08:48:38.000Z</time>
      </trkpt>
      <trkpt lat="47.28463" lon="-2.35482">
        <ele>23.60000038147</ele>
        <time>2020-11-29T08:48:39.000Z</time>
      </trkpt>
      <trkpt lat="47.28465" lon="-2.35485">
        <ele>24</ele>
        <time>2020-11-29T08:48:40.000Z</time>
      </trkpt>
      <trkpt lat="47.28467" lon="-2.35487">
        <ele>24.39999961853</ele>
        <time>2020-11-29T08:48:41.000Z</time>
      </trkpt>
      <trkpt lat="47.2847" lon="-2.3549">
        <ele>24.799999237061</ele>
        <time>2020-11-29T08:48:42.000Z</time>
      </trkpt>
      <trkpt lat="47.28474" lon="-2.35496">
        <ele>24.799999237061</ele>
        <time>2020-11-29T08:48:44.000Z</time>
      </trkpt>
      <trkpt lat="47.28476" lon="-2.355">
        <ele>25.200000762939</ele>
        <time>2020-11-29T08:48:46.000Z</time>
      </trkpt>
      <trkpt lat="47.28476" lon="-2.35503">
        <ele>25.60000038147</ele>
        <time>2020-11-29T08:48:47.000Z</time>
      </trkpt>
      <trkpt lat="47.28476" lon="-2.35505">
        <ele>26</ele>
        <time>2020-11-29T08:48:48.000Z</time>
      </trkpt>
      <trkpt lat="47.28476" lon="-2.35508">
        <ele>26.799999237061</ele>
        <time>2020-11-29T08:48:49.000Z</time>
      </trkpt>
      <trkpt lat="47.28477" lon="-2.35518">
        <ele>26.799999237061</ele>
        <time>2020-11-29T08:48:52.000Z</time>
      </trkpt>
      <trkpt lat="47.2848" lon="-2.35527">
        <ele>26.799999237061</ele>
        <time>2020-11-29T08:48:54.000Z</time>
      </trkpt>
      <trkpt lat="47.28492" lon="-2.35558">
        <ele>26.799999237061</ele>
        <time>2020-11-29T08:49:00.000Z</time>
      </trkpt>
      <trkpt lat="47.28501" lon="-2.35584">
        <ele>26.799999237061</ele>
        <time>2020-11-29T08:49:05.000Z</time>
      </trkpt>
      <trkpt lat="47.28502" lon="-2.35591">
        <ele>26.799999237061</ele>
        <time>2020-11-29T08:49:06.000Z</time>
      </trkpt>
      <trkpt lat="47.2851" lon="-2.35604">
        <ele>26.799999237061</ele>
        <time>2020-11-29T08:49:09.000Z</time>
      </trkpt>
      <trkpt lat="47.28516" lon="-2.35607">
        <ele>26.39999961853</ele>
        <time>2020-11-29T08:49:11.000Z</time>
      </trkpt>
      <trkpt lat="47.2852" lon="-2.35608">
        <ele>25.799999237061</ele>
        <time>2020-11-29T08:49:12.000Z</time>
      </trkpt>
      <trkpt lat="47.28523" lon="-2.35609">
        <ele>25.39999961853</ele>
        <time>2020-11-29T08:49:13.000Z</time>
      </trkpt>
      <trkpt lat="47.28526" lon="-2.3561">
        <ele>24.60000038147</ele>
        <time>2020-11-29T08:49:14.000Z</time>
      </trkpt>
      <trkpt lat="47.28529" lon="-2.3561">
        <ele>24.60000038147</ele>
        <time>2020-11-29T08:49:15.000Z</time>
      </trkpt>
      <trkpt lat="47.28543" lon="-2.35609">
        <ele>24.60000038147</ele>
        <time>2020-11-29T08:49:20.000Z</time>
      </trkpt>
      <trkpt lat="47.28549" lon="-2.35614">
        <ele>24.60000038147</ele>
        <time>2020-11-29T08:49:23.000Z</time>
      </trkpt>
      <trkpt lat="47.28549" lon="-2.35617">
        <ele>24</ele>
        <time>2020-11-29T08:49:24.000Z</time>
      </trkpt>
      <trkpt lat="47.28549" lon="-2.35619">
        <ele>23.60000038147</ele>
        <time>2020-11-29T08:49:25.000Z</time>
      </trkpt>
      <trkpt lat="47.28547" lon="-2.35622">
        <ele>23.200000762939</ele>
        <time>2020-11-29T08:49:26.000Z</time>
      </trkpt>
      <trkpt lat="47.28546" lon="-2.35626">
        <ele>22.60000038147</ele>
        <time>2020-11-29T08:49:27.000Z</time>
      </trkpt>
      <trkpt lat="47.28545" lon="-2.35632">
        <ele>22.200000762939</ele>
        <time>2020-11-29T08:49:28.000Z</time>
      </trkpt>
      <trkpt lat="47.28544" lon="-2.35638">
        <ele>22.200000762939</ele>
        <time>2020-11-29T08:49:29.000Z</time>
      </trkpt>
      <trkpt lat="47.28542" lon="-2.35645">
        <ele>21.799999237061</ele>
        <time>2020-11-29T08:49:30.000Z</time>
      </trkpt>
      <trkpt lat="47.28542" lon="-2.35655">
        <ele>21.39999961853</ele>
        <time>2020-11-29T08:49:31.000Z</time>
      </trkpt>
      <trkpt lat="47.28542" lon="-2.35663">
        <ele>20.799999237061</ele>
        <time>2020-11-29T08:49:32.000Z</time>
      </trkpt>
      <trkpt lat="47.28543" lon="-2.3567">
        <ele>20.39999961853</ele>
        <time>2020-11-29T08:49:33.000Z</time>
      </trkpt>
      <trkpt lat="47.28542" lon="-2.35677">
        <ele>20</ele>
        <time>2020-11-29T08:49:34.000Z</time>
      </trkpt>
      <trkpt lat="47.28541" lon="-2.35683">
        <ele>19.39999961853</ele>
        <time>2020-11-29T08:49:35.000Z</time>
      </trkpt>
      <trkpt lat="47.2854" lon="-2.35689">
        <ele>19</ele>
        <time>2020-11-29T08:49:36.000Z</time>
      </trkpt>
      <trkpt lat="47.28538" lon="-2.35694">
        <ele>18.39999961853</ele>
        <time>2020-11-29T08:49:37.000Z</time>
      </trkpt>
      <trkpt lat="47.28537" lon="-2.35697">
        <ele>17.60000038147</ele>
        <time>2020-11-29T08:49:38.000Z</time>
      </trkpt>
      <trkpt lat="47.28537" lon="-2.357">
        <ele>17.60000038147</ele>
        <time>2020-11-29T08:49:40.000Z</time>
      </trkpt>
      <trkpt lat="47.28533" lon="-2.35728">
        <ele>17.60000038147</ele>
        <time>2020-11-29T08:50:49.000Z</time>
      </trkpt>
      <trkpt lat="47.28536" lon="-2.35734">
        <ele>17.60000038147</ele>
        <time>2020-11-29T08:50:52.000Z</time>
      </trkpt>
      <trkpt lat="47.28539" lon="-2.35739">
        <ele>17.60000038147</ele>
        <time>2020-11-29T08:50:54.000Z</time>
      </trkpt>
      <trkpt lat="47.28542" lon="-2.35746">
        <ele>17.60000038147</ele>
        <time>2020-11-29T08:50:57.000Z</time>
      </trkpt>
      <trkpt lat="47.28547" lon="-2.35764">
        <ele>17.60000038147</ele>
        <time>2020-11-29T08:51:03.000Z</time>
      </trkpt>
      <trkpt lat="47.28549" lon="-2.35789">
        <ele>17.60000038147</ele>
        <time>2020-11-29T08:51:10.000Z</time>
      </trkpt>
      <trkpt lat="47.28551" lon="-2.35802">
        <ele>17.60000038147</ele>
        <time>2020-11-29T08:51:17.000Z</time>
      </trkpt>
      <trkpt lat="47.28553" lon="-2.35813">
        <ele>17.60000038147</ele>
        <time>2020-11-29T08:51:22.000Z</time>
      </trkpt>
      <trkpt lat="47.28552" lon="-2.35816">
        <ele>17.60000038147</ele>
        <time>2020-11-29T08:51:23.000Z</time>
      </trkpt>
      <trkpt lat="47.28556" lon="-2.35828">
        <ele>17.60000038147</ele>
        <time>2020-11-29T08:51:26.000Z</time>
      </trkpt>
      <trkpt lat="47.28563" lon="-2.35851">
        <ele>17.60000038147</ele>
        <time>2020-11-29T08:51:31.000Z</time>
      </trkpt>
      <trkpt lat="47.28572" lon="-2.3587">
        <ele>17.60000038147</ele>
        <time>2020-11-29T08:51:36.000Z</time>
      </trkpt>
      <trkpt lat="47.28577" lon="-2.3589">
        <ele>17.60000038147</ele>
        <time>2020-11-29T08:51:41.000Z</time>
      </trkpt>
      <trkpt lat="47.28581" lon="-2.35903">
        <ele>18</ele>
        <time>2020-11-29T08:51:44.000Z</time>
      </trkpt>
      <trkpt lat="47.28583" lon="-2.35907">
        <ele>18.39999961853</ele>
        <time>2020-11-29T08:51:45.000Z</time>
      </trkpt>
      <trkpt lat="47.28585" lon="-2.35911">
        <ele>18.799999237061</ele>
        <time>2020-11-29T08:51:46.000Z</time>
      </trkpt>
      <trkpt lat="47.28586" lon="-2.35916">
        <ele>19.200000762939</ele>
        <time>2020-11-29T08:51:47.000Z</time>
      </trkpt>
      <trkpt lat="47.28588" lon="-2.3592">
        <ele>19.60000038147</ele>
        <time>2020-11-29T08:51:48.000Z</time>
      </trkpt>
      <trkpt lat="47.286" lon="-2.35947">
        <ele>19.60000038147</ele>
        <time>2020-11-29T08:51:55.000Z</time>
      </trkpt>
      <trkpt lat="47.28611" lon="-2.35973">
        <ele>19.60000038147</ele>
        <time>2020-11-29T08:52:02.000Z</time>
      </trkpt>
      <trkpt lat="47.28617" lon="-2.35994">
        <ele>19.60000038147</ele>
        <time>2020-11-29T08:52:07.000Z</time>
      </trkpt>
      <trkpt lat="47.28615" lon="-2.36016">
        <ele>19.60000038147</ele>
        <time>2020-11-29T08:52:12.000Z</time>
      </trkpt>
      <trkpt lat="47.28617" lon="-2.36035">
        <ele>20</ele>
        <time>2020-11-29T08:52:17.000Z</time>
      </trkpt>
      <trkpt lat="47.28617" lon="-2.36039">
        <ele>20.39999961853</ele>
        <time>2020-11-29T08:52:18.000Z</time>
      </trkpt>
      <trkpt lat="47.28618" lon="-2.36042">
        <ele>20.799999237061</ele>
        <time>2020-11-29T08:52:19.000Z</time>
      </trkpt>
      <trkpt lat="47.28619" lon="-2.36046">
        <ele>21.200000762939</ele>
        <time>2020-11-29T08:52:20.000Z</time>
      </trkpt>
      <trkpt lat="47.28621" lon="-2.36049">
        <ele>21.60000038147</ele>
        <time>2020-11-29T08:52:21.000Z</time>
      </trkpt>
      <trkpt lat="47.28623" lon="-2.36051">
        <ele>21.60000038147</ele>
        <time>2020-11-29T08:52:22.000Z</time>
      </trkpt>
      <trkpt lat="47.28642" lon="-2.36069">
        <ele>21.60000038147</ele>
        <time>2020-11-29T08:52:29.000Z</time>
      </trkpt>
      <trkpt lat="47.28652" lon="-2.36085">
        <ele>22</ele>
        <time>2020-11-29T08:52:34.000Z</time>
      </trkpt>
      <trkpt lat="47.28653" lon="-2.36088">
        <ele>22.39999961853</ele>
        <time>2020-11-29T08:52:35.000Z</time>
      </trkpt>
      <trkpt lat="47.28653" lon="-2.36091">
        <ele>23</ele>
        <time>2020-11-29T08:52:36.000Z</time>
      </trkpt>
      <trkpt lat="47.28652" lon="-2.36094">
        <ele>23.39999961853</ele>
        <time>2020-11-29T08:52:37.000Z</time>
      </trkpt>
      <trkpt lat="47.28652" lon="-2.36096">
        <ele>23.799999237061</ele>
        <time>2020-11-29T08:52:38.000Z</time>
      </trkpt>
      <trkpt lat="47.28652" lon="-2.36098">
        <ele>24.39999961853</ele>
        <time>2020-11-29T08:52:39.000Z</time>
      </trkpt>
      <trkpt lat="47.28651" lon="-2.36101">
        <ele>24.799999237061</ele>
        <time>2020-11-29T08:52:40.000Z</time>
      </trkpt>
      <trkpt lat="47.28651" lon="-2.36103">
        <ele>25.200000762939</ele>
        <time>2020-11-29T08:52:41.000Z</time>
      </trkpt>
      <trkpt lat="47.2865" lon="-2.36105">
        <ele>25.799999237061</ele>
        <time>2020-11-29T08:52:42.000Z</time>
      </trkpt>
      <trkpt lat="47.2865" lon="-2.36107">
        <ele>26.200000762939</ele>
        <time>2020-11-29T08:52:43.000Z</time>
      </trkpt>
      <trkpt lat="47.28649" lon="-2.36109">
        <ele>26.60000038147</ele>
        <time>2020-11-29T08:52:44.000Z</time>
      </trkpt>
      <trkpt lat="47.28648" lon="-2.36111">
        <ele>27.200000762939</ele>
        <time>2020-11-29T08:52:45.000Z</time>
      </trkpt>
      <trkpt lat="47.28647" lon="-2.36113">
        <ele>27.60000038147</ele>
        <time>2020-11-29T08:52:46.000Z</time>
      </trkpt>
      <trkpt lat="47.28647" lon="-2.36115">
        <ele>28</ele>
        <time>2020-11-29T08:52:47.000Z</time>
      </trkpt>
      <trkpt lat="47.28645" lon="-2.36117">
        <ele>28.39999961853</ele>
        <time>2020-11-29T08:52:48.000Z</time>
      </trkpt>
      <trkpt lat="47.28642" lon="-2.3612">
        <ele>28.799999237061</ele>
        <time>2020-11-29T08:52:50.000Z</time>
      </trkpt>
      <trkpt lat="47.28641" lon="-2.36121">
        <ele>29.200000762939</ele>
        <time>2020-11-29T08:52:51.000Z</time>
      </trkpt>
      <trkpt lat="47.2864" lon="-2.36123">
        <ele>29.60000038147</ele>
        <time>2020-11-29T08:52:52.000Z</time>
      </trkpt>
      <trkpt lat="47.2864" lon="-2.36125">
        <ele>30</ele>
        <time>2020-11-29T08:52:53.000Z</time>
      </trkpt>
      <trkpt lat="47.28638" lon="-2.36126">
        <ele>30.39999961853</ele>
        <time>2020-11-29T08:52:54.000Z</time>
      </trkpt>
      <trkpt lat="47.28633" lon="-2.3613">
        <ele>30.799999237061</ele>
        <time>2020-11-29T08:52:58.000Z</time>
      </trkpt>
      <trkpt lat="47.28631" lon="-2.36131">
        <ele>31.200000762939</ele>
        <time>2020-11-29T08:52:59.000Z</time>
      </trkpt>
      <trkpt lat="47.28629" lon="-2.36132">
        <ele>31.60000038147</ele>
        <time>2020-11-29T08:53:00.000Z</time>
      </trkpt>
      <trkpt lat="47.28628" lon="-2.36134">
        <ele>32.200000762939</ele>
        <time>2020-11-29T08:53:01.000Z</time>
      </trkpt>
      <trkpt lat="47.28626" lon="-2.36135">
        <ele>32.599998474121</ele>
        <time>2020-11-29T08:53:02.000Z</time>
      </trkpt>
      <trkpt lat="47.28624" lon="-2.36138">
        <ele>32.599998474121</ele>
        <time>2020-11-29T08:53:04.000Z</time>
      </trkpt>
      <trkpt lat="47.28617" lon="-2.36145">
        <ele>32.599998474121</ele>
        <time>2020-11-29T08:53:11.000Z</time>
      </trkpt>
      <trkpt lat="47.28608" lon="-2.36151">
        <ele>32.599998474121</ele>
        <time>2020-11-29T08:53:18.000Z</time>
      </trkpt>
      <trkpt lat="47.28607" lon="-2.36153">
        <ele>32.599998474121</ele>
        <time>2020-11-29T08:53:22.000Z</time>
      </trkpt>
      <trkpt lat="47.28606" lon="-2.36165">
        <ele>32.599998474121</ele>
        <time>2020-11-29T08:53:50.000Z</time>
      </trkpt>
      <trkpt lat="47.28603" lon="-2.36181">
        <ele>32.599998474121</ele>
        <time>2020-11-29T08:53:55.000Z</time>
      </trkpt>
      <trkpt lat="47.28603" lon="-2.36184">
        <ele>32.599998474121</ele>
        <time>2020-11-29T08:53:56.000Z</time>
      </trkpt>
      <trkpt lat="47.28597" lon="-2.36205">
        <ele>32.599998474121</ele>
        <time>2020-11-29T08:54:02.000Z</time>
      </trkpt>
      <trkpt lat="47.28592" lon="-2.36223">
        <ele>32.599998474121</ele>
        <time>2020-11-29T08:54:08.000Z</time>
      </trkpt>
      <trkpt lat="47.28583" lon="-2.36239">
        <ele>33</ele>
        <time>2020-11-29T08:54:14.000Z</time>
      </trkpt>
      <trkpt lat="47.28582" lon="-2.36241">
        <ele>33.400001525879</ele>
        <time>2020-11-29T08:54:15.000Z</time>
      </trkpt>
      <trkpt lat="47.2858" lon="-2.36244">
        <ele>33.799999237061</ele>
        <time>2020-11-29T08:54:16.000Z</time>
      </trkpt>
      <trkpt lat="47.28579" lon="-2.36246">
        <ele>34.200000762939</ele>
        <time>2020-11-29T08:54:17.000Z</time>
      </trkpt>
      <trkpt lat="47.28578" lon="-2.36249">
        <ele>34.799999237061</ele>
        <time>2020-11-29T08:54:18.000Z</time>
      </trkpt>
      <trkpt lat="47.28576" lon="-2.36256">
        <ele>34.799999237061</ele>
        <time>2020-11-29T08:54:20.000Z</time>
      </trkpt>
      <trkpt lat="47.28571" lon="-2.36275">
        <ele>34.799999237061</ele>
        <time>2020-11-29T08:54:26.000Z</time>
      </trkpt>
      <trkpt lat="47.28569" lon="-2.36293">
        <ele>34.799999237061</ele>
        <time>2020-11-29T08:54:31.000Z</time>
      </trkpt>
      <trkpt lat="47.28564" lon="-2.36312">
        <ele>34.799999237061</ele>
        <time>2020-11-29T08:54:36.000Z</time>
      </trkpt>
      <trkpt lat="47.28559" lon="-2.36326">
        <ele>34.799999237061</ele>
        <time>2020-11-29T08:54:39.000Z</time>
      </trkpt>
      <trkpt lat="47.28558" lon="-2.36332">
        <ele>34.799999237061</ele>
        <time>2020-11-29T08:54:40.000Z</time>
      </trkpt>
      <trkpt lat="47.28554" lon="-2.36345">
        <ele>34.200000762939</ele>
        <time>2020-11-29T08:54:43.000Z</time>
      </trkpt>
      <trkpt lat="47.28552" lon="-2.36347">
        <ele>33.799999237061</ele>
        <time>2020-11-29T08:54:44.000Z</time>
      </trkpt>
      <trkpt lat="47.28551" lon="-2.36349">
        <ele>33.400001525879</ele>
        <time>2020-11-29T08:54:45.000Z</time>
      </trkpt>
      <trkpt lat="47.28549" lon="-2.3635">
        <ele>33</ele>
        <time>2020-11-29T08:54:46.000Z</time>
      </trkpt>
      <trkpt lat="47.28547" lon="-2.36352">
        <ele>32.599998474121</ele>
        <time>2020-11-29T08:54:47.000Z</time>
      </trkpt>
      <trkpt lat="47.28546" lon="-2.36354">
        <ele>32</ele>
        <time>2020-11-29T08:54:48.000Z</time>
      </trkpt>
      <trkpt lat="47.28545" lon="-2.36357">
        <ele>31.60000038147</ele>
        <time>2020-11-29T08:54:49.000Z</time>
      </trkpt>
      <trkpt lat="47.28545" lon="-2.36359">
        <ele>31</ele>
        <time>2020-11-29T08:54:50.000Z</time>
      </trkpt>
      <trkpt lat="47.28545" lon="-2.36362">
        <ele>30.60000038147</ele>
        <time>2020-11-29T08:54:51.000Z</time>
      </trkpt>
      <trkpt lat="47.28545" lon="-2.36369">
        <ele>30.60000038147</ele>
        <time>2020-11-29T08:54:54.000Z</time>
      </trkpt>
      <trkpt lat="47.28545" lon="-2.36378">
        <ele>30.60000038147</ele>
        <time>2020-11-29T08:55:00.000Z</time>
      </trkpt>
      <trkpt lat="47.28544" lon="-2.36386">
        <ele>30.60000038147</ele>
        <time>2020-11-29T08:55:30.000Z</time>
      </trkpt>
      <trkpt lat="47.28546" lon="-2.36401">
        <ele>30.60000038147</ele>
        <time>2020-11-29T08:55:34.000Z</time>
      </trkpt>
      <trkpt lat="47.28547" lon="-2.36409">
        <ele>30.60000038147</ele>
        <time>2020-11-29T08:55:36.000Z</time>
      </trkpt>
      <trkpt lat="47.28549" lon="-2.36423">
        <ele>30.60000038147</ele>
        <time>2020-11-29T08:55:40.000Z</time>
      </trkpt>
      <trkpt lat="47.28555" lon="-2.36439">
        <ele>31</ele>
        <time>2020-11-29T08:55:43.000Z</time>
      </trkpt>
      <trkpt lat="47.28557" lon="-2.36443">
        <ele>31.39999961853</ele>
        <time>2020-11-29T08:55:44.000Z</time>
      </trkpt>
      <trkpt lat="47.28558" lon="-2.36446">
        <ele>31.799999237061</ele>
        <time>2020-11-29T08:55:45.000Z</time>
      </trkpt>
      <trkpt lat="47.28558" lon="-2.36449">
        <ele>32.400001525879</ele>
        <time>2020-11-29T08:55:46.000Z</time>
      </trkpt>
      <trkpt lat="47.2856" lon="-2.36454">
        <ele>32.799999237061</ele>
        <time>2020-11-29T08:55:47.000Z</time>
      </trkpt>
      <trkpt lat="47.28571" lon="-2.36469">
        <ele>32.799999237061</ele>
        <time>2020-11-29T08:55:51.000Z</time>
      </trkpt>
      <trkpt lat="47.28587" lon="-2.36494">
        <ele>32.799999237061</ele>
        <time>2020-11-29T08:55:57.000Z</time>
      </trkpt>
      <trkpt lat="47.2859" lon="-2.365">
        <ele>32.200000762939</ele>
        <time>2020-11-29T08:55:58.000Z</time>
      </trkpt>
      <trkpt lat="47.28594" lon="-2.36505">
        <ele>31.799999237061</ele>
        <time>2020-11-29T08:55:59.000Z</time>
      </trkpt>
      <trkpt lat="47.28597" lon="-2.36511">
        <ele>31.200000762939</ele>
        <time>2020-11-29T08:56:00.000Z</time>
      </trkpt>
      <trkpt lat="47.28599" lon="-2.36519">
        <ele>30.60000038147</ele>
        <time>2020-11-29T08:56:01.000Z</time>
      </trkpt>
      <trkpt lat="47.28603" lon="-2.36529">
        <ele>30</ele>
        <time>2020-11-29T08:56:02.000Z</time>
      </trkpt>
      <trkpt lat="47.28608" lon="-2.36539">
        <ele>29.39999961853</ele>
        <time>2020-11-29T08:56:03.000Z</time>
      </trkpt>
      <trkpt lat="47.28613" lon="-2.3655">
        <ele>28.799999237061</ele>
        <time>2020-11-29T08:56:04.000Z</time>
      </trkpt>
      <trkpt lat="47.28617" lon="-2.36559">
        <ele>28</ele>
        <time>2020-11-29T08:56:05.000Z</time>
      </trkpt>
      <trkpt lat="47.28622" lon="-2.36568">
        <ele>27.60000038147</ele>
        <time>2020-11-29T08:56:06.000Z</time>
      </trkpt>
      <trkpt lat="47.28625" lon="-2.36576">
        <ele>27</ele>
        <time>2020-11-29T08:56:07.000Z</time>
      </trkpt>
      <trkpt lat="47.28629" lon="-2.36583">
        <ele>26.39999961853</ele>
        <time>2020-11-29T08:56:08.000Z</time>
      </trkpt>
      <trkpt lat="47.28632" lon="-2.36588">
        <ele>26</ele>
        <time>2020-11-29T08:56:09.000Z</time>
      </trkpt>
      <trkpt lat="47.28635" lon="-2.36592">
        <ele>25.39999961853</ele>
        <time>2020-11-29T08:56:10.000Z</time>
      </trkpt>
      <trkpt lat="47.28638" lon="-2.36594">
        <ele>25.39999961853</ele>
        <time>2020-11-29T08:56:11.000Z</time>
      </trkpt>
      <trkpt lat="47.28644" lon="-2.366">
        <ele>25.39999961853</ele>
        <time>2020-11-29T08:56:14.000Z</time>
      </trkpt>
      <trkpt lat="47.28645" lon="-2.36604">
        <ele>25.39999961853</ele>
        <time>2020-11-29T08:56:16.000Z</time>
      </trkpt>
      <trkpt lat="47.28641" lon="-2.36612">
        <ele>25</ele>
        <time>2020-11-29T08:56:19.000Z</time>
      </trkpt>
      <trkpt lat="47.28639" lon="-2.36614">
        <ele>24.60000038147</ele>
        <time>2020-11-29T08:56:20.000Z</time>
      </trkpt>
      <trkpt lat="47.28636" lon="-2.36617">
        <ele>24.200000762939</ele>
        <time>2020-11-29T08:56:21.000Z</time>
      </trkpt>
      <trkpt lat="47.28633" lon="-2.36619">
        <ele>23.799999237061</ele>
        <time>2020-11-29T08:56:22.000Z</time>
      </trkpt>
      <trkpt lat="47.2863" lon="-2.36622">
        <ele>23.39999961853</ele>
        <time>2020-11-29T08:56:23.000Z</time>
      </trkpt>
      <trkpt lat="47.28616" lon="-2.36632">
        <ele>22.799999237061</ele>
        <time>2020-11-29T08:56:28.000Z</time>
      </trkpt>
      <trkpt lat="47.28613" lon="-2.36633">
        <ele>22.39999961853</ele>
        <time>2020-11-29T08:56:29.000Z</time>
      </trkpt>
      <trkpt lat="47.2861" lon="-2.36634">
        <ele>22</ele>
        <time>2020-11-29T08:56:30.000Z</time>
      </trkpt>
      <trkpt lat="47.28608" lon="-2.36635">
        <ele>21.39999961853</ele>
        <time>2020-11-29T08:56:31.000Z</time>
      </trkpt>
      <trkpt lat="47.28606" lon="-2.36637">
        <ele>20.799999237061</ele>
        <time>2020-11-29T08:56:32.000Z</time>
      </trkpt>
      <trkpt lat="47.28605" lon="-2.36638">
        <ele>20.200000762939</ele>
        <time>2020-11-29T08:56:33.000Z</time>
      </trkpt>
      <trkpt lat="47.28604" lon="-2.36639">
        <ele>19.60000038147</ele>
        <time>2020-11-29T08:56:34.000Z</time>
      </trkpt>
      <trkpt lat="47.28603" lon="-2.36639">
        <ele>19</ele>
        <time>2020-11-29T08:56:35.000Z</time>
      </trkpt>
      <trkpt lat="47.28599" lon="-2.36643">
        <ele>18.60000038147</ele>
        <time>2020-11-29T08:56:37.000Z</time>
      </trkpt>
      <trkpt lat="47.28595" lon="-2.36647">
        <ele>18</ele>
        <time>2020-11-29T08:56:38.000Z</time>
      </trkpt>
      <trkpt lat="47.28592" lon="-2.36652">
        <ele>17.200000762939</ele>
        <time>2020-11-29T08:56:39.000Z</time>
      </trkpt>
      <trkpt lat="47.28588" lon="-2.36656">
        <ele>16.799999237061</ele>
        <time>2020-11-29T08:56:40.000Z</time>
      </trkpt>
      <trkpt lat="47.28583" lon="-2.36659">
        <ele>16.799999237061</ele>
        <time>2020-11-29T08:56:41.000Z</time>
      </trkpt>
      <trkpt lat="47.28568" lon="-2.36664">
        <ele>16.799999237061</ele>
        <time>2020-11-29T08:56:44.000Z</time>
      </trkpt>
      <trkpt lat="47.28563" lon="-2.36665">
        <ele>16.39999961853</ele>
        <time>2020-11-29T08:56:45.000Z</time>
      </trkpt>
      <trkpt lat="47.28557" lon="-2.36665">
        <ele>16</ele>
        <time>2020-11-29T08:56:46.000Z</time>
      </trkpt>
      <trkpt lat="47.28552" lon="-2.36665">
        <ele>15.60000038147</ele>
        <time>2020-11-29T08:56:47.000Z</time>
      </trkpt>
      <trkpt lat="47.28548" lon="-2.36665">
        <ele>15.199999809265</ele>
        <time>2020-11-29T08:56:48.000Z</time>
      </trkpt>
      <trkpt lat="47.28543" lon="-2.36665">
        <ele>14.800000190735</ele>
        <time>2020-11-29T08:56:49.000Z</time>
      </trkpt>
      <trkpt lat="47.28535" lon="-2.36665">
        <ele>14.800000190735</ele>
        <time>2020-11-29T08:56:51.000Z</time>
      </trkpt>
      <trkpt lat="47.2853" lon="-2.36666">
        <ele>14.800000190735</ele>
        <time>2020-11-29T08:56:52.000Z</time>
      </trkpt>
      <trkpt lat="47.28523" lon="-2.36674">
        <ele>14.800000190735</ele>
        <time>2020-11-29T08:56:54.000Z</time>
      </trkpt>
      <trkpt lat="47.28522" lon="-2.36694">
        <ele>14.800000190735</ele>
        <time>2020-11-29T08:56:57.000Z</time>
      </trkpt>
      <trkpt lat="47.28531" lon="-2.36716">
        <ele>14.800000190735</ele>
        <time>2020-11-29T08:57:00.000Z</time>
      </trkpt>
      <trkpt lat="47.28535" lon="-2.36723">
        <ele>14.800000190735</ele>
        <time>2020-11-29T08:57:01.000Z</time>
      </trkpt>
      <trkpt lat="47.28543" lon="-2.36739">
        <ele>14</ele>
        <time>2020-11-29T08:57:03.000Z</time>
      </trkpt>
      <trkpt lat="47.28547" lon="-2.36747">
        <ele>13.60000038147</ele>
        <time>2020-11-29T08:57:04.000Z</time>
      </trkpt>
      <trkpt lat="47.28552" lon="-2.36755">
        <ele>13.199999809265</ele>
        <time>2020-11-29T08:57:05.000Z</time>
      </trkpt>
      <trkpt lat="47.28557" lon="-2.36764">
        <ele>12.800000190735</ele>
        <time>2020-11-29T08:57:06.000Z</time>
      </trkpt>
      <trkpt lat="47.28561" lon="-2.36773">
        <ele>12.800000190735</ele>
        <time>2020-11-29T08:57:07.000Z</time>
      </trkpt>
      <trkpt lat="47.2857" lon="-2.36791">
        <ele>12.39999961853</ele>
        <time>2020-11-29T08:57:09.000Z</time>
      </trkpt>
      <trkpt lat="47.28575" lon="-2.368">
        <ele>11.800000190735</ele>
        <time>2020-11-29T08:57:10.000Z</time>
      </trkpt>
      <trkpt lat="47.28579" lon="-2.36808">
        <ele>11.39999961853</ele>
        <time>2020-11-29T08:57:11.000Z</time>
      </trkpt>
      <trkpt lat="47.28584" lon="-2.36816">
        <ele>10.800000190735</ele>
        <time>2020-11-29T08:57:12.000Z</time>
      </trkpt>
      <trkpt lat="47.28588" lon="-2.36825">
        <ele>10.39999961853</ele>
        <time>2020-11-29T08:57:13.000Z</time>
      </trkpt>
      <trkpt lat="47.28592" lon="-2.36833">
        <ele>10.39999961853</ele>
        <time>2020-11-29T08:57:14.000Z</time>
      </trkpt>
      <trkpt lat="47.28597" lon="-2.3684">
        <ele>10.39999961853</ele>
        <time>2020-11-29T08:57:15.000Z</time>
      </trkpt>
      <trkpt lat="47.28603" lon="-2.36843">
        <ele>10</ele>
        <time>2020-11-29T08:57:16.000Z</time>
      </trkpt>
      <trkpt lat="47.28609" lon="-2.36844">
        <ele>9.3999996185303</ele>
        <time>2020-11-29T08:57:17.000Z</time>
      </trkpt>
      <trkpt lat="47.28616" lon="-2.36841">
        <ele>9</ele>
        <time>2020-11-29T08:57:18.000Z</time>
      </trkpt>
      <trkpt lat="47.28621" lon="-2.36836">
        <ele>8.3999996185303</ele>
        <time>2020-11-29T08:57:19.000Z</time>
      </trkpt>
      <trkpt lat="47.28626" lon="-2.36831">
        <ele>8</ele>
        <time>2020-11-29T08:57:20.000Z</time>
      </trkpt>
      <trkpt lat="47.28634" lon="-2.3682">
        <ele>8</ele>
        <time>2020-11-29T08:57:22.000Z</time>
      </trkpt>
      <trkpt lat="47.28642" lon="-2.36806">
        <ele>8</ele>
        <time>2020-11-29T08:57:25.000Z</time>
      </trkpt>
      <trkpt lat="47.28654" lon="-2.36796">
        <ele>8</ele>
        <time>2020-11-29T08:57:29.000Z</time>
      </trkpt>
      <trkpt lat="47.28667" lon="-2.36784">
        <ele>8.3999996185303</ele>
        <time>2020-11-29T08:57:33.000Z</time>
      </trkpt>
      <trkpt lat="47.2867" lon="-2.36783">
        <ele>8.8000001907349</ele>
        <time>2020-11-29T08:57:34.000Z</time>
      </trkpt>
      <trkpt lat="47.28672" lon="-2.36782">
        <ele>9.1999998092651</ele>
        <time>2020-11-29T08:57:35.000Z</time>
      </trkpt>
      <trkpt lat="47.28674" lon="-2.3678">
        <ele>9.6000003814697</ele>
        <time>2020-11-29T08:57:36.000Z</time>
      </trkpt>
      <trkpt lat="47.28675" lon="-2.36778">
        <ele>10</ele>
        <time>2020-11-29T08:57:37.000Z</time>
      </trkpt>
      <trkpt lat="47.28682" lon="-2.36768">
        <ele>10</ele>
        <time>2020-11-29T08:57:41.000Z</time>
      </trkpt>
      <trkpt lat="47.28686" lon="-2.36764">
        <ele>10.39999961853</ele>
        <time>2020-11-29T08:57:43.000Z</time>
      </trkpt>
      <trkpt lat="47.28688" lon="-2.36762">
        <ele>10.800000190735</ele>
        <time>2020-11-29T08:57:44.000Z</time>
      </trkpt>
      <trkpt lat="47.2869" lon="-2.3676">
        <ele>11.39999961853</ele>
        <time>2020-11-29T08:57:45.000Z</time>
      </trkpt>
      <trkpt lat="47.28693" lon="-2.36758">
        <ele>11.800000190735</ele>
        <time>2020-11-29T08:57:46.000Z</time>
      </trkpt>
      <trkpt lat="47.28694" lon="-2.36754">
        <ele>12.199999809265</ele>
        <time>2020-11-29T08:57:47.000Z</time>
      </trkpt>
      <trkpt lat="47.28707" lon="-2.36726">
        <ele>12.199999809265</ele>
        <time>2020-11-29T08:57:54.000Z</time>
      </trkpt>
      <trkpt lat="47.2871" lon="-2.36719">
        <ele>12.60000038147</ele>
        <time>2020-11-29T08:57:56.000Z</time>
      </trkpt>
      <trkpt lat="47.28711" lon="-2.36716">
        <ele>13</ele>
        <time>2020-11-29T08:57:57.000Z</time>
      </trkpt>
      <trkpt lat="47.28712" lon="-2.36711">
        <ele>13.60000038147</ele>
        <time>2020-11-29T08:57:58.000Z</time>
      </trkpt>
      <trkpt lat="47.28713" lon="-2.36708">
        <ele>14</ele>
        <time>2020-11-29T08:57:59.000Z</time>
      </trkpt>
      <trkpt lat="47.28714" lon="-2.36704">
        <ele>14.39999961853</ele>
        <time>2020-11-29T08:58:00.000Z</time>
      </trkpt>
      <trkpt lat="47.28724" lon="-2.36682">
        <ele>14.800000190735</ele>
        <time>2020-11-29T08:58:06.000Z</time>
      </trkpt>
      <trkpt lat="47.28726" lon="-2.36679">
        <ele>15.199999809265</ele>
        <time>2020-11-29T08:58:07.000Z</time>
      </trkpt>
      <trkpt lat="47.28728" lon="-2.36677">
        <ele>15.60000038147</ele>
        <time>2020-11-29T08:58:08.000Z</time>
      </trkpt>
      <trkpt lat="47.2873" lon="-2.36674">
        <ele>16.200000762939</ele>
        <time>2020-11-29T08:58:09.000Z</time>
      </trkpt>
      <trkpt lat="47.28732" lon="-2.36672">
        <ele>16.60000038147</ele>
        <time>2020-11-29T08:58:10.000Z</time>
      </trkpt>
      <trkpt lat="47.28737" lon="-2.36664">
        <ele>16.60000038147</ele>
        <time>2020-11-29T08:58:13.000Z</time>
      </trkpt>
      <trkpt lat="47.28744" lon="-2.36652">
        <ele>17.39999961853</ele>
        <time>2020-11-29T08:58:17.000Z</time>
      </trkpt>
      <trkpt lat="47.28746" lon="-2.36649">
        <ele>17.799999237061</ele>
        <time>2020-11-29T08:58:18.000Z</time>
      </trkpt>
      <trkpt lat="47.28748" lon="-2.36645">
        <ele>18.39999961853</ele>
        <time>2020-11-29T08:58:19.000Z</time>
      </trkpt>
      <trkpt lat="47.2875" lon="-2.36642">
        <ele>18.799999237061</ele>
        <time>2020-11-29T08:58:20.000Z</time>
      </trkpt>
      <trkpt lat="47.28767" lon="-2.36609">
        <ele>18.799999237061</ele>
        <time>2020-11-29T08:58:27.000Z</time>
      </trkpt>
      <trkpt lat="47.28785" lon="-2.36582">
        <ele>18.799999237061</ele>
        <time>2020-11-29T08:58:35.000Z</time>
      </trkpt>
      <trkpt lat="47.28794" lon="-2.36575">
        <ele>18.799999237061</ele>
        <time>2020-11-29T08:58:40.000Z</time>
      </trkpt>
      <trkpt lat="47.28803" lon="-2.36584">
        <ele>18.799999237061</ele>
        <time>2020-11-29T08:58:46.000Z</time>
      </trkpt>
      <trkpt lat="47.28804" lon="-2.36605">
        <ele>18.799999237061</ele>
        <time>2020-11-29T08:58:51.000Z</time>
      </trkpt>
      <trkpt lat="47.28808" lon="-2.36622">
        <ele>18.799999237061</ele>
        <time>2020-11-29T08:58:55.000Z</time>
      </trkpt>
      <trkpt lat="47.28811" lon="-2.36626">
        <ele>18.799999237061</ele>
        <time>2020-11-29T08:58:57.000Z</time>
      </trkpt>
      <trkpt lat="47.28816" lon="-2.36632">
        <ele>18.39999961853</ele>
        <time>2020-11-29T08:58:59.000Z</time>
      </trkpt>
      <trkpt lat="47.28818" lon="-2.36635">
        <ele>17.799999237061</ele>
        <time>2020-11-29T08:59:00.000Z</time>
      </trkpt>
      <trkpt lat="47.28818" lon="-2.3664">
        <ele>17.39999961853</ele>
        <time>2020-11-29T08:59:01.000Z</time>
      </trkpt>
      <trkpt lat="47.28818" lon="-2.36644">
        <ele>17</ele>
        <time>2020-11-29T08:59:02.000Z</time>
      </trkpt>
      <trkpt lat="47.28818" lon="-2.36649">
        <ele>16.60000038147</ele>
        <time>2020-11-29T08:59:03.000Z</time>
      </trkpt>
      <trkpt lat="47.28816" lon="-2.36663">
        <ele>16.200000762939</ele>
        <time>2020-11-29T08:59:05.000Z</time>
      </trkpt>
      <trkpt lat="47.28814" lon="-2.36672">
        <ele>15.60000038147</ele>
        <time>2020-11-29T08:59:06.000Z</time>
      </trkpt>
      <trkpt lat="47.28812" lon="-2.3668">
        <ele>14.800000190735</ele>
        <time>2020-11-29T08:59:07.000Z</time>
      </trkpt>
      <trkpt lat="47.2881" lon="-2.36688">
        <ele>14.199999809265</ele>
        <time>2020-11-29T08:59:08.000Z</time>
      </trkpt>
      <trkpt lat="47.28807" lon="-2.36697">
        <ele>13.800000190735</ele>
        <time>2020-11-29T08:59:09.000Z</time>
      </trkpt>
      <trkpt lat="47.28805" lon="-2.36706">
        <ele>13.199999809265</ele>
        <time>2020-11-29T08:59:10.000Z</time>
      </trkpt>
      <trkpt lat="47.28802" lon="-2.36715">
        <ele>12.800000190735</ele>
        <time>2020-11-29T08:59:11.000Z</time>
      </trkpt>
      <trkpt lat="47.28799" lon="-2.36726">
        <ele>12.199999809265</ele>
        <time>2020-11-29T08:59:12.000Z</time>
      </trkpt>
      <trkpt lat="47.28796" lon="-2.36736">
        <ele>11.60000038147</ele>
        <time>2020-11-29T08:59:13.000Z</time>
      </trkpt>
      <trkpt lat="47.28794" lon="-2.36748">
        <ele>11.199999809265</ele>
        <time>2020-11-29T08:59:14.000Z</time>
      </trkpt>
      <trkpt lat="47.28791" lon="-2.36761">
        <ele>10.60000038147</ele>
        <time>2020-11-29T08:59:15.000Z</time>
      </trkpt>
      <trkpt lat="47.28789" lon="-2.36772">
        <ele>10.199999809265</ele>
        <time>2020-11-29T08:59:16.000Z</time>
      </trkpt>
      <trkpt lat="47.28787" lon="-2.36783">
        <ele>9.8000001907349</ele>
        <time>2020-11-29T08:59:17.000Z</time>
      </trkpt>
      <trkpt lat="47.28786" lon="-2.36792">
        <ele>9.1999998092651</ele>
        <time>2020-11-29T08:59:18.000Z</time>
      </trkpt>
      <trkpt lat="47.28784" lon="-2.368">
        <ele>8.8000001907349</ele>
        <time>2020-11-29T08:59:19.000Z</time>
      </trkpt>
      <trkpt lat="47.28782" lon="-2.36808">
        <ele>8.1999998092651</ele>
        <time>2020-11-29T08:59:20.000Z</time>
      </trkpt>
      <trkpt lat="47.2878" lon="-2.36816">
        <ele>7.5999999046326</ele>
        <time>2020-11-29T08:59:21.000Z</time>
      </trkpt>
      <trkpt lat="47.28778" lon="-2.36824">
        <ele>7</ele>
        <time>2020-11-29T08:59:22.000Z</time>
      </trkpt>
      <trkpt lat="47.28776" lon="-2.36832">
        <ele>6.4000000953674</ele>
        <time>2020-11-29T08:59:23.000Z</time>
      </trkpt>
      <trkpt lat="47.28774" lon="-2.36841">
        <ele>5.8000001907349</ele>
        <time>2020-11-29T08:59:24.000Z</time>
      </trkpt>
      <trkpt lat="47.28771" lon="-2.36848">
        <ele>5.1999998092651</ele>
        <time>2020-11-29T08:59:25.000Z</time>
      </trkpt>
      <trkpt lat="47.28769" lon="-2.36855">
        <ele>4.8000001907349</ele>
        <time>2020-11-29T08:59:26.000Z</time>
      </trkpt>
      <trkpt lat="47.28767" lon="-2.36863">
        <ele>4.1999998092651</ele>
        <time>2020-11-29T08:59:27.000Z</time>
      </trkpt>
      <trkpt lat="47.28765" lon="-2.36871">
        <ele>3.5999999046326</ele>
        <time>2020-11-29T08:59:28.000Z</time>
      </trkpt>
      <trkpt lat="47.28763" lon="-2.36877">
        <ele>3.2000000476837</ele>
        <time>2020-11-29T08:59:29.000Z</time>
      </trkpt>
      <trkpt lat="47.2876" lon="-2.36883">
        <ele>2.5999999046326</ele>
        <time>2020-11-29T08:59:30.000Z</time>
      </trkpt>
      <trkpt lat="47.28757" lon="-2.36886">
        <ele>2.2000000476837</ele>
        <time>2020-11-29T08:59:31.000Z</time>
      </trkpt>
      <trkpt lat="47.28754" lon="-2.36888">
        <ele>1.2000000476837</ele>
        <time>2020-11-29T08:59:32.000Z</time>
      </trkpt>
      <trkpt lat="47.28746" lon="-2.36893">
        <ele>1.2000000476837</ele>
        <time>2020-11-29T08:59:35.000Z</time>
      </trkpt>
      <trkpt lat="47.28744" lon="-2.36908">
        <ele>1.2000000476837</ele>
        <time>2020-11-29T08:59:39.000Z</time>
      </trkpt>
      <trkpt lat="47.28745" lon="-2.36912">
        <ele>1.6000000238419</ele>
        <time>2020-11-29T08:59:40.000Z</time>
      </trkpt>
      <trkpt lat="47.28746" lon="-2.36915">
        <ele>2</ele>
        <time>2020-11-29T08:59:41.000Z</time>
      </trkpt>
      <trkpt lat="47.28748" lon="-2.36917">
        <ele>2.4000000953674</ele>
        <time>2020-11-29T08:59:42.000Z</time>
      </trkpt>
      <trkpt lat="47.28749" lon="-2.3692">
        <ele>2.7999999523163</ele>
        <time>2020-11-29T08:59:43.000Z</time>
      </trkpt>
      <trkpt lat="47.28751" lon="-2.36924">
        <ele>3.2000000476837</ele>
        <time>2020-11-29T08:59:44.000Z</time>
      </trkpt>
      <trkpt lat="47.28753" lon="-2.36934">
        <ele>3.5999999046326</ele>
        <time>2020-11-29T08:59:48.000Z</time>
      </trkpt>
      <trkpt lat="47.28753" lon="-2.36935">
        <ele>4</ele>
        <time>2020-11-29T08:59:49.000Z</time>
      </trkpt>
      <trkpt lat="47.28754" lon="-2.36937">
        <ele>4.4000000953674</ele>
        <time>2020-11-29T08:59:50.000Z</time>
      </trkpt>
      <trkpt lat="47.28754" lon="-2.36938">
        <ele>4.8000001907349</ele>
        <time>2020-11-29T08:59:51.000Z</time>
      </trkpt>
      <trkpt lat="47.28754" lon="-2.36939">
        <ele>5.4000000953674</ele>
        <time>2020-11-29T08:59:52.000Z</time>
      </trkpt>
      <trkpt lat="47.28753" lon="-2.36944">
        <ele>5.4000000953674</ele>
        <time>2020-11-29T08:59:54.000Z</time>
      </trkpt>
      <trkpt lat="47.28752" lon="-2.36946">
        <ele>5.4000000953674</ele>
        <time>2020-11-29T08:59:55.000Z</time>
      </trkpt>
      <trkpt lat="47.28752" lon="-2.36952">
        <ele>5.8000001907349</ele>
        <time>2020-11-29T08:59:57.000Z</time>
      </trkpt>
      <trkpt lat="47.28752" lon="-2.36954">
        <ele>6.1999998092651</ele>
        <time>2020-11-29T08:59:58.000Z</time>
      </trkpt>
      <trkpt lat="47.28752" lon="-2.36957">
        <ele>6.8000001907349</ele>
        <time>2020-11-29T08:59:59.000Z</time>
      </trkpt>
      <trkpt lat="47.28753" lon="-2.36959">
        <ele>7.1999998092651</ele>
        <time>2020-11-29T09:00:00.000Z</time>
      </trkpt>
      <trkpt lat="47.28753" lon="-2.36961">
        <ele>7.5999999046326</ele>
        <time>2020-11-29T09:00:01.000Z</time>
      </trkpt>
      <trkpt lat="47.28762" lon="-2.36978">
        <ele>8</ele>
        <time>2020-11-29T09:00:06.000Z</time>
      </trkpt>
      <trkpt lat="47.28763" lon="-2.3698">
        <ele>8.3999996185303</ele>
        <time>2020-11-29T09:00:07.000Z</time>
      </trkpt>
      <trkpt lat="47.28765" lon="-2.36982">
        <ele>8.8000001907349</ele>
        <time>2020-11-29T09:00:08.000Z</time>
      </trkpt>
      <trkpt lat="47.28766" lon="-2.36984">
        <ele>9.1999998092651</ele>
        <time>2020-11-29T09:00:09.000Z</time>
      </trkpt>
      <trkpt lat="47.28768" lon="-2.36986">
        <ele>9.6000003814697</ele>
        <time>2020-11-29T09:00:10.000Z</time>
      </trkpt>
      <trkpt lat="47.28769" lon="-2.36988">
        <ele>9.6000003814697</ele>
        <time>2020-11-29T09:00:11.000Z</time>
      </trkpt>
      <trkpt lat="47.28778" lon="-2.37002">
        <ele>9.6000003814697</ele>
        <time>2020-11-29T09:00:16.000Z</time>
      </trkpt>
      <trkpt lat="47.28784" lon="-2.37027">
        <ele>9.6000003814697</ele>
        <time>2020-11-29T09:00:21.000Z</time>
      </trkpt>
      <trkpt lat="47.28786" lon="-2.37032">
        <ele>9.1999998092651</ele>
        <time>2020-11-29T09:00:22.000Z</time>
      </trkpt>
      <trkpt lat="47.28787" lon="-2.37038">
        <ele>8.8000001907349</ele>
        <time>2020-11-29T09:00:23.000Z</time>
      </trkpt>
      <trkpt lat="47.28788" lon="-2.37044">
        <ele>8.3999996185303</ele>
        <time>2020-11-29T09:00:24.000Z</time>
      </trkpt>
      <trkpt lat="47.28789" lon="-2.37049">
        <ele>8</ele>
        <time>2020-11-29T09:00:25.000Z</time>
      </trkpt>
      <trkpt lat="47.2879" lon="-2.37057">
        <ele>7.5999999046326</ele>
        <time>2020-11-29T09:00:26.000Z</time>
      </trkpt>
      <trkpt lat="47.28791" lon="-2.37067">
        <ele>7.1999998092651</ele>
        <time>2020-11-29T09:00:27.000Z</time>
      </trkpt>
      <trkpt lat="47.28791" lon="-2.37077">
        <ele>6.8000001907349</ele>
        <time>2020-11-29T09:00:28.000Z</time>
      </trkpt>
      <trkpt lat="47.28792" lon="-2.37086">
        <ele>6.4000000953674</ele>
        <time>2020-11-29T09:00:29.000Z</time>
      </trkpt>
      <trkpt lat="47.28793" lon="-2.37093">
        <ele>6</ele>
        <time>2020-11-29T09:00:30.000Z</time>
      </trkpt>
      <trkpt lat="47.28794" lon="-2.37101">
        <ele>5.5999999046326</ele>
        <time>2020-11-29T09:00:31.000Z</time>
      </trkpt>
      <trkpt lat="47.28796" lon="-2.37106">
        <ele>5.1999998092651</ele>
        <time>2020-11-29T09:00:32.000Z</time>
      </trkpt>
      <trkpt lat="47.28799" lon="-2.37109">
        <ele>4.8000001907349</ele>
        <time>2020-11-29T09:00:33.000Z</time>
      </trkpt>
      <trkpt lat="47.28803" lon="-2.37111">
        <ele>4.1999998092651</ele>
        <time>2020-11-29T09:00:34.000Z</time>
      </trkpt>
      <trkpt lat="47.28806" lon="-2.37112">
        <ele>3.7999999523163</ele>
        <time>2020-11-29T09:00:35.000Z</time>
      </trkpt>
      <trkpt lat="47.28808" lon="-2.37113">
        <ele>3.4000000953674</ele>
        <time>2020-11-29T09:00:36.000Z</time>
      </trkpt>
      <trkpt lat="47.28809" lon="-2.37113">
        <ele>3</ele>
        <time>2020-11-29T09:00:37.000Z</time>
      </trkpt>
      <trkpt lat="47.2881" lon="-2.37112">
        <ele>2.5999999046326</ele>
        <time>2020-11-29T09:00:38.000Z</time>
      </trkpt>
      <trkpt lat="47.28812" lon="-2.37112">
        <ele>2.2000000476837</ele>
        <time>2020-11-29T09:00:39.000Z</time>
      </trkpt>
      <trkpt lat="47.28813" lon="-2.37111">
        <ele>1.7999999523163</ele>
        <time>2020-11-29T09:00:40.000Z</time>
      </trkpt>
      <trkpt lat="47.28813" lon="-2.37111">
        <ele>1.3999999761581</ele>
        <time>2020-11-29T09:00:41.000Z</time>
      </trkpt>
      <trkpt lat="47.28814" lon="-2.37111">
        <ele>1.3999999761581</ele>
        <time>2020-11-29T09:00:42.000Z</time>
      </trkpt>
      <trkpt lat="47.28818" lon="-2.37109">
        <ele>0.20000000298023</ele>
        <time>2020-11-29T09:00:50.000Z</time>
      </trkpt>
      <trkpt lat="47.28819" lon="-2.37108">
        <ele>-0.20000000298023</ele>
        <time>2020-11-29T09:00:51.000Z</time>
      </trkpt>
      <trkpt lat="47.2882" lon="-2.37106">
        <ele>-0.60000002384186</ele>
        <time>2020-11-29T09:00:52.000Z</time>
      </trkpt>
      <trkpt lat="47.28822" lon="-2.37094">
        <ele>-1</ele>
        <time>2020-11-29T09:00:56.000Z</time>
      </trkpt>
      <trkpt lat="47.28823" lon="-2.37092">
        <ele>-1.6000000238419</ele>
        <time>2020-11-29T09:00:57.000Z</time>
      </trkpt>
      <trkpt lat="47.28824" lon="-2.37086">
        <ele>-2.7999999523163</ele>
        <time>2020-11-29T09:00:58.000Z</time>
      </trkpt>
      <trkpt lat="47.28823" lon="-2.37068">
        <ele>-2.7999999523163</ele>
        <time>2020-11-29T09:01:06.000Z</time>
      </trkpt>
      <trkpt lat="47.28818" lon="-2.37049">
        <ele>-2.7999999523163</ele>
        <time>2020-11-29T09:01:11.000Z</time>
      </trkpt>
      <trkpt lat="47.28809" lon="-2.37013">
        <ele>-2.7999999523163</ele>
        <time>2020-11-29T09:01:19.000Z</time>
      </trkpt>
      <trkpt lat="47.28801" lon="-2.36984">
        <ele>-2.7999999523163</ele>
        <time>2020-11-29T09:01:26.000Z</time>
      </trkpt>
      <trkpt lat="47.28793" lon="-2.36958">
        <ele>-2.7999999523163</ele>
        <time>2020-11-29T09:01:32.000Z</time>
      </trkpt>
      <trkpt lat="47.28786" lon="-2.36929">
        <ele>-2.7999999523163</ele>
        <time>2020-11-29T09:01:39.000Z</time>
      </trkpt>
      <trkpt lat="47.28781" lon="-2.36916">
        <ele>-2.7999999523163</ele>
        <time>2020-11-29T09:01:43.000Z</time>
      </trkpt>
      <trkpt lat="47.28779" lon="-2.36914">
        <ele>-2.7999999523163</ele>
        <time>2020-11-29T09:01:44.000Z</time>
      </trkpt>
      <trkpt lat="47.2877" lon="-2.36906">
        <ele>-2.7999999523163</ele>
        <time>2020-11-29T09:01:49.000Z</time>
      </trkpt>
      <trkpt lat="47.28763" lon="-2.36891">
        <ele>-2.7999999523163</ele>
        <time>2020-11-29T09:01:54.000Z</time>
      </trkpt>
      <trkpt lat="47.28763" lon="-2.36887">
        <ele>-2.4000000953674</ele>
        <time>2020-11-29T09:01:55.000Z</time>
      </trkpt>
      <trkpt lat="47.28764" lon="-2.36883">
        <ele>-2</ele>
        <time>2020-11-29T09:01:56.000Z</time>
      </trkpt>
      <trkpt lat="47.28764" lon="-2.36879">
        <ele>-1.6000000238419</ele>
        <time>2020-11-29T09:01:57.000Z</time>
      </trkpt>
      <trkpt lat="47.28764" lon="-2.36876">
        <ele>-1.2000000476837</ele>
        <time>2020-11-29T09:01:58.000Z</time>
      </trkpt>
      <trkpt lat="47.28765" lon="-2.36873">
        <ele>-0.80000001192093</ele>
        <time>2020-11-29T09:01:59.000Z</time>
      </trkpt>
      <trkpt lat="47.28765" lon="-2.3687">
        <ele>-0.80000001192093</ele>
        <time>2020-11-29T09:02:00.000Z</time>
      </trkpt>
      <trkpt lat="47.28766" lon="-2.36859">
        <ele>-0.20000000298023</ele>
        <time>2020-11-29T09:02:04.000Z</time>
      </trkpt>
      <trkpt lat="47.28767" lon="-2.36857">
        <ele>0.20000000298023</ele>
        <time>2020-11-29T09:02:05.000Z</time>
      </trkpt>
      <trkpt lat="47.28767" lon="-2.36854">
        <ele>0.60000002384186</ele>
        <time>2020-11-29T09:02:06.000Z</time>
      </trkpt>
      <trkpt lat="47.28768" lon="-2.36851">
        <ele>1</ele>
        <time>2020-11-29T09:02:07.000Z</time>
      </trkpt>
      <trkpt lat="47.28769" lon="-2.36847">
        <ele>1.3999999761581</ele>
        <time>2020-11-29T09:02:08.000Z</time>
      </trkpt>
      <trkpt lat="47.28772" lon="-2.3683">
        <ele>1.7999999523163</ele>
        <time>2020-11-29T09:02:12.000Z</time>
      </trkpt>
      <trkpt lat="47.28774" lon="-2.36825">
        <ele>2.2000000476837</ele>
        <time>2020-11-29T09:02:13.000Z</time>
      </trkpt>
      <trkpt lat="47.28774" lon="-2.36822">
        <ele>2.7999999523163</ele>
        <time>2020-11-29T09:02:14.000Z</time>
      </trkpt>
      <trkpt lat="47.28775" lon="-2.36818">
        <ele>3.2000000476837</ele>
        <time>2020-11-29T09:02:15.000Z</time>
      </trkpt>
      <trkpt lat="47.28776" lon="-2.36814">
        <ele>3.5999999046326</ele>
        <time>2020-11-29T09:02:16.000Z</time>
      </trkpt>
      <trkpt lat="47.28777" lon="-2.368">
        <ele>3.5999999046326</ele>
        <time>2020-11-29T09:02:20.000Z</time>
      </trkpt>
      <trkpt lat="47.2878" lon="-2.3678">
        <ele>4</ele>
        <time>2020-11-29T09:02:26.000Z</time>
      </trkpt>
      <trkpt lat="47.28781" lon="-2.36776">
        <ele>4.5999999046326</ele>
        <time>2020-11-29T09:02:27.000Z</time>
      </trkpt>
      <trkpt lat="47.28782" lon="-2.36772">
        <ele>5</ele>
        <time>2020-11-29T09:02:28.000Z</time>
      </trkpt>
      <trkpt lat="47.28783" lon="-2.36769">
        <ele>5.4000000953674</ele>
        <time>2020-11-29T09:02:29.000Z</time>
      </trkpt>
      <trkpt lat="47.28783" lon="-2.36766">
        <ele>5.8000001907349</ele>
        <time>2020-11-29T09:02:30.000Z</time>
      </trkpt>
      <trkpt lat="47.28786" lon="-2.36761">
        <ele>5.8000001907349</ele>
        <time>2020-11-29T09:02:32.000Z</time>
      </trkpt>
      <trkpt lat="47.28792" lon="-2.36736">
        <ele>5.8000001907349</ele>
        <time>2020-11-29T09:02:40.000Z</time>
      </trkpt>
      <trkpt lat="47.28794" lon="-2.36725">
        <ele>6.1999998092651</ele>
        <time>2020-11-29T09:02:44.000Z</time>
      </trkpt>
      <trkpt lat="47.28794" lon="-2.36723">
        <ele>6.5999999046326</ele>
        <time>2020-11-29T09:02:45.000Z</time>
      </trkpt>
      <trkpt lat="47.28794" lon="-2.3672">
        <ele>7</ele>
        <time>2020-11-29T09:02:46.000Z</time>
      </trkpt>
      <trkpt lat="47.28795" lon="-2.36718">
        <ele>7.4000000953674</ele>
        <time>2020-11-29T09:02:47.000Z</time>
      </trkpt>
      <trkpt lat="47.28795" lon="-2.36716">
        <ele>7.8000001907349</ele>
        <time>2020-11-29T09:02:48.000Z</time>
      </trkpt>
      <trkpt lat="47.28796" lon="-2.36714">
        <ele>7.8000001907349</ele>
        <time>2020-11-29T09:02:49.000Z</time>
      </trkpt>
      <trkpt lat="47.28798" lon="-2.36707">
        <ele>8.6000003814697</ele>
        <time>2020-11-29T09:02:51.000Z</time>
      </trkpt>
      <trkpt lat="47.28799" lon="-2.36703">
        <ele>9</ele>
        <time>2020-11-29T09:02:52.000Z</time>
      </trkpt>
      <trkpt lat="47.288" lon="-2.36696">
        <ele>9.3999996185303</ele>
        <time>2020-11-29T09:02:53.000Z</time>
      </trkpt>
      <trkpt lat="47.28801" lon="-2.36692">
        <ele>9.8000001907349</ele>
        <time>2020-11-29T09:02:54.000Z</time>
      </trkpt>
      <trkpt lat="47.28804" lon="-2.36684">
        <ele>9.8000001907349</ele>
        <time>2020-11-29T09:02:56.000Z</time>
      </trkpt>
      <trkpt lat="47.28807" lon="-2.36677">
        <ele>10.39999961853</ele>
        <time>2020-11-29T09:02:58.000Z</time>
      </trkpt>
      <trkpt lat="47.28809" lon="-2.36674">
        <ele>10.800000190735</ele>
        <time>2020-11-29T09:02:59.000Z</time>
      </trkpt>
      <trkpt lat="47.2881" lon="-2.36671">
        <ele>11.199999809265</ele>
        <time>2020-11-29T09:03:00.000Z</time>
      </trkpt>
      <trkpt lat="47.28811" lon="-2.36668">
        <ele>11.800000190735</ele>
        <time>2020-11-29T09:03:01.000Z</time>
      </trkpt>
      <trkpt lat="47.28812" lon="-2.36666">
        <ele>12.199999809265</ele>
        <time>2020-11-29T09:03:02.000Z</time>
      </trkpt>
      <trkpt lat="47.28814" lon="-2.36663">
        <ele>12.199999809265</ele>
        <time>2020-11-29T09:03:03.000Z</time>
      </trkpt>
      <trkpt lat="47.28816" lon="-2.36658">
        <ele>12.60000038147</ele>
        <time>2020-11-29T09:03:05.000Z</time>
      </trkpt>
      <trkpt lat="47.28817" lon="-2.36656">
        <ele>13</ele>
        <time>2020-11-29T09:03:06.000Z</time>
      </trkpt>
      <trkpt lat="47.28818" lon="-2.36653">
        <ele>13.39999961853</ele>
        <time>2020-11-29T09:03:07.000Z</time>
      </trkpt>
      <trkpt lat="47.2882" lon="-2.3665">
        <ele>13.800000190735</ele>
        <time>2020-11-29T09:03:08.000Z</time>
      </trkpt>
      <trkpt lat="47.28821" lon="-2.36648">
        <ele>14.199999809265</ele>
        <time>2020-11-29T09:03:09.000Z</time>
      </trkpt>
      <trkpt lat="47.28823" lon="-2.36646">
        <ele>14.199999809265</ele>
        <time>2020-11-29T09:03:10.000Z</time>
      </trkpt>
      <trkpt lat="47.28832" lon="-2.36634">
        <ele>15.199999809265</ele>
        <time>2020-11-29T09:03:15.000Z</time>
      </trkpt>
      <trkpt lat="47.28834" lon="-2.36631">
        <ele>15.60000038147</ele>
        <time>2020-11-29T09:03:16.000Z</time>
      </trkpt>
      <trkpt lat="47.28836" lon="-2.36628">
        <ele>16</ele>
        <time>2020-11-29T09:03:17.000Z</time>
      </trkpt>
      <trkpt lat="47.28838" lon="-2.36624">
        <ele>16.39999961853</ele>
        <time>2020-11-29T09:03:18.000Z</time>
      </trkpt>
      <trkpt lat="47.28843" lon="-2.36611">
        <ele>16.39999961853</ele>
        <time>2020-11-29T09:03:22.000Z</time>
      </trkpt>
      <trkpt lat="47.28853" lon="-2.36588">
        <ele>16.39999961853</ele>
        <time>2020-11-29T09:03:28.000Z</time>
      </trkpt>
      <trkpt lat="47.28866" lon="-2.36554">
        <ele>16.39999961853</ele>
        <time>2020-11-29T09:03:34.000Z</time>
      </trkpt>
      <trkpt lat="47.28867" lon="-2.36533">
        <ele>16.39999961853</ele>
        <time>2020-11-29T09:03:39.000Z</time>
      </trkpt>
      <trkpt lat="47.28866" lon="-2.36524">
        <ele>16.799999237061</ele>
        <time>2020-11-29T09:03:41.000Z</time>
      </trkpt>
      <trkpt lat="47.28865" lon="-2.3652">
        <ele>17.200000762939</ele>
        <time>2020-11-29T09:03:42.000Z</time>
      </trkpt>
      <trkpt lat="47.28865" lon="-2.36517">
        <ele>17.60000038147</ele>
        <time>2020-11-29T09:03:43.000Z</time>
      </trkpt>
      <trkpt lat="47.28864" lon="-2.36513">
        <ele>18</ele>
        <time>2020-11-29T09:03:44.000Z</time>
      </trkpt>
      <trkpt lat="47.28863" lon="-2.3651">
        <ele>18.39999961853</ele>
        <time>2020-11-29T09:03:45.000Z</time>
      </trkpt>
      <trkpt lat="47.28859" lon="-2.365">
        <ele>18.799999237061</ele>
        <time>2020-11-29T09:03:49.000Z</time>
      </trkpt>
      <trkpt lat="47.28858" lon="-2.36497">
        <ele>19.39999961853</ele>
        <time>2020-11-29T09:03:50.000Z</time>
      </trkpt>
      <trkpt lat="47.28857" lon="-2.36494">
        <ele>19.799999237061</ele>
        <time>2020-11-29T09:03:51.000Z</time>
      </trkpt>
      <trkpt lat="47.28857" lon="-2.36489">
        <ele>20.200000762939</ele>
        <time>2020-11-29T09:03:52.000Z</time>
      </trkpt>
      <trkpt lat="47.28856" lon="-2.36485">
        <ele>20.60000038147</ele>
        <time>2020-11-29T09:03:53.000Z</time>
      </trkpt>
      <trkpt lat="47.28854" lon="-2.36475">
        <ele>20.60000038147</ele>
        <time>2020-11-29T09:03:55.000Z</time>
      </trkpt>
      <trkpt lat="47.28852" lon="-2.36458">
        <ele>20.60000038147</ele>
        <time>2020-11-29T09:04:00.000Z</time>
      </trkpt>
      <trkpt lat="47.28848" lon="-2.36443">
        <ele>21.200000762939</ele>
        <time>2020-11-29T09:04:05.000Z</time>
      </trkpt>
      <trkpt lat="47.28848" lon="-2.3644">
        <ele>21.60000038147</ele>
        <time>2020-11-29T09:04:06.000Z</time>
      </trkpt>
      <trkpt lat="47.28848" lon="-2.36437">
        <ele>22</ele>
        <time>2020-11-29T09:04:07.000Z</time>
      </trkpt>
      <trkpt lat="47.28848" lon="-2.36433">
        <ele>22.60000038147</ele>
        <time>2020-11-29T09:04:08.000Z</time>
      </trkpt>
      <trkpt lat="47.28849" lon="-2.3643">
        <ele>23</ele>
        <time>2020-11-29T09:04:09.000Z</time>
      </trkpt>
      <trkpt lat="47.28849" lon="-2.36427">
        <ele>23.39999961853</ele>
        <time>2020-11-29T09:04:10.000Z</time>
      </trkpt>
      <trkpt lat="47.28849" lon="-2.36424">
        <ele>23.799999237061</ele>
        <time>2020-11-29T09:04:11.000Z</time>
      </trkpt>
      <trkpt lat="47.2885" lon="-2.36422">
        <ele>24.200000762939</ele>
        <time>2020-11-29T09:04:12.000Z</time>
      </trkpt>
      <trkpt lat="47.2885" lon="-2.36421">
        <ele>24.60000038147</ele>
        <time>2020-11-29T09:04:13.000Z</time>
      </trkpt>
      <trkpt lat="47.2885" lon="-2.36417">
        <ele>25</ele>
        <time>2020-11-29T09:04:14.000Z</time>
      </trkpt>
      <trkpt lat="47.28851" lon="-2.36415">
        <ele>25</ele>
        <time>2020-11-29T09:04:15.000Z</time>
      </trkpt>
      <trkpt lat="47.28855" lon="-2.36409">
        <ele>24.60000038147</ele>
        <time>2020-11-29T09:04:17.000Z</time>
      </trkpt>
      <trkpt lat="47.28857" lon="-2.36407">
        <ele>24</ele>
        <time>2020-11-29T09:04:18.000Z</time>
      </trkpt>
      <trkpt lat="47.28857" lon="-2.36399">
        <ele>23.60000038147</ele>
        <time>2020-11-29T09:04:19.000Z</time>
      </trkpt>
      <trkpt lat="47.28858" lon="-2.36391">
        <ele>23</ele>
        <time>2020-11-29T09:04:20.000Z</time>
      </trkpt>
      <trkpt lat="47.28859" lon="-2.36384">
        <ele>22.60000038147</ele>
        <time>2020-11-29T09:04:21.000Z</time>
      </trkpt>
      <trkpt lat="47.2886" lon="-2.36373">
        <ele>22</ele>
        <time>2020-11-29T09:04:23.000Z</time>
      </trkpt>
      <trkpt lat="47.2886" lon="-2.36367">
        <ele>21.60000038147</ele>
        <time>2020-11-29T09:04:24.000Z</time>
      </trkpt>
      <trkpt lat="47.2886" lon="-2.36361">
        <ele>21.200000762939</ele>
        <time>2020-11-29T09:04:25.000Z</time>
      </trkpt>
      <trkpt lat="47.2886" lon="-2.36355">
        <ele>20.60000038147</ele>
        <time>2020-11-29T09:04:26.000Z</time>
      </trkpt>
      <trkpt lat="47.28861" lon="-2.3635">
        <ele>20.200000762939</ele>
        <time>2020-11-29T09:04:27.000Z</time>
      </trkpt>
      <trkpt lat="47.28862" lon="-2.36347">
        <ele>19.60000038147</ele>
        <time>2020-11-29T09:04:28.000Z</time>
      </trkpt>
      <trkpt lat="47.28864" lon="-2.36345">
        <ele>18.60000038147</ele>
        <time>2020-11-29T09:04:29.000Z</time>
      </trkpt>
      <trkpt lat="47.28866" lon="-2.36341">
        <ele>18.200000762939</ele>
        <time>2020-11-29T09:04:30.000Z</time>
      </trkpt>
      <trkpt lat="47.28869" lon="-2.36337">
        <ele>17.799999237061</ele>
        <time>2020-11-29T09:04:31.000Z</time>
      </trkpt>
      <trkpt lat="47.28871" lon="-2.36332">
        <ele>17.799999237061</ele>
        <time>2020-11-29T09:04:35.000Z</time>
      </trkpt>
      <trkpt lat="47.28866" lon="-2.36331">
        <ele>17.799999237061</ele>
        <time>2020-11-29T09:04:40.000Z</time>
      </trkpt>
      <trkpt lat="47.28865" lon="-2.3633">
        <ele>18.200000762939</ele>
        <time>2020-11-29T09:04:41.000Z</time>
      </trkpt>
      <trkpt lat="47.28863" lon="-2.36329">
        <ele>18.60000038147</ele>
        <time>2020-11-29T09:04:42.000Z</time>
      </trkpt>
      <trkpt lat="47.28862" lon="-2.36328">
        <ele>19</ele>
        <time>2020-11-29T09:04:43.000Z</time>
      </trkpt>
      <trkpt lat="47.2886" lon="-2.36328">
        <ele>19.39999961853</ele>
        <time>2020-11-29T09:04:44.000Z</time>
      </trkpt>
      <trkpt lat="47.28859" lon="-2.36328">
        <ele>19.799999237061</ele>
        <time>2020-11-29T09:04:45.000Z</time>
      </trkpt>
      <trkpt lat="47.28858" lon="-2.36325">
        <ele>19.799999237061</ele>
        <time>2020-11-29T09:04:48.000Z</time>
      </trkpt>
      <trkpt lat="47.28859" lon="-2.36321">
        <ele>19.799999237061</ele>
        <time>2020-11-29T09:04:50.000Z</time>
      </trkpt>
      <trkpt lat="47.28867" lon="-2.36317">
        <ele>19.799999237061</ele>
        <time>2020-11-29T09:04:53.000Z</time>
      </trkpt>
      <trkpt lat="47.28886" lon="-2.36308">
        <ele>19.799999237061</ele>
        <time>2020-11-29T09:04:58.000Z</time>
      </trkpt>
      <trkpt lat="47.28905" lon="-2.36292">
        <ele>19.799999237061</ele>
        <time>2020-11-29T09:05:03.000Z</time>
      </trkpt>
      <trkpt lat="47.28933" lon="-2.3628">
        <ele>19.799999237061</ele>
        <time>2020-11-29T09:05:09.000Z</time>
      </trkpt>
      <trkpt lat="47.2897" lon="-2.36265">
        <ele>19.799999237061</ele>
        <time>2020-11-29T09:05:17.000Z</time>
      </trkpt>
      <trkpt lat="47.29005" lon="-2.36248">
        <ele>19.799999237061</ele>
        <time>2020-11-29T09:05:25.000Z</time>
      </trkpt>
      <trkpt lat="47.29045" lon="-2.36231">
        <ele>19.799999237061</ele>
        <time>2020-11-29T09:05:34.000Z</time>
      </trkpt>
      <trkpt lat="47.29067" lon="-2.36222">
        <ele>19.799999237061</ele>
        <time>2020-11-29T09:05:39.000Z</time>
      </trkpt>
      <trkpt lat="47.29105" lon="-2.36205">
        <ele>19.799999237061</ele>
        <time>2020-11-29T09:05:48.000Z</time>
      </trkpt>
      <trkpt lat="47.29117" lon="-2.36199">
        <ele>20.200000762939</ele>
        <time>2020-11-29T09:05:51.000Z</time>
      </trkpt>
      <trkpt lat="47.29122" lon="-2.36198">
        <ele>20.60000038147</ele>
        <time>2020-11-29T09:05:52.000Z</time>
      </trkpt>
      <trkpt lat="47.29126" lon="-2.36196">
        <ele>21</ele>
        <time>2020-11-29T09:05:53.000Z</time>
      </trkpt>
      <trkpt lat="47.2913" lon="-2.36194">
        <ele>21.60000038147</ele>
        <time>2020-11-29T09:05:54.000Z</time>
      </trkpt>
      <trkpt lat="47.29134" lon="-2.36192">
        <ele>22</ele>
        <time>2020-11-29T09:05:55.000Z</time>
      </trkpt>
      <trkpt lat="47.29138" lon="-2.3619">
        <ele>22</ele>
        <time>2020-11-29T09:05:56.000Z</time>
      </trkpt>
      <trkpt lat="47.29164" lon="-2.3618">
        <ele>22</ele>
        <time>2020-11-29T09:06:02.000Z</time>
      </trkpt>
      <trkpt lat="47.29173" lon="-2.36177">
        <ele>22</ele>
        <time>2020-11-29T09:06:04.000Z</time>
      </trkpt>
      <trkpt lat="47.29199" lon="-2.36164">
        <ele>22</ele>
        <time>2020-11-29T09:06:09.000Z</time>
      </trkpt>
      <trkpt lat="47.29232" lon="-2.36151">
        <ele>22.39999961853</ele>
        <time>2020-11-29T09:06:15.000Z</time>
      </trkpt>
      <trkpt lat="47.29238" lon="-2.36149">
        <ele>22.799999237061</ele>
        <time>2020-11-29T09:06:16.000Z</time>
      </trkpt>
      <trkpt lat="47.29243" lon="-2.36146">
        <ele>23.200000762939</ele>
        <time>2020-11-29T09:06:17.000Z</time>
      </trkpt>
      <trkpt lat="47.29249" lon="-2.36144">
        <ele>23.60000038147</ele>
        <time>2020-11-29T09:06:18.000Z</time>
      </trkpt>
      <trkpt lat="47.29254" lon="-2.36141">
        <ele>24</ele>
        <time>2020-11-29T09:06:19.000Z</time>
      </trkpt>
      <trkpt lat="47.2928" lon="-2.3613">
        <ele>24</ele>
        <time>2020-11-29T09:06:24.000Z</time>
      </trkpt>
      <trkpt lat="47.29327" lon="-2.36107">
        <ele>24</ele>
        <time>2020-11-29T09:06:33.000Z</time>
      </trkpt>
      <trkpt lat="47.29366" lon="-2.36079">
        <ele>24</ele>
        <time>2020-11-29T09:06:41.000Z</time>
      </trkpt>
      <trkpt lat="47.29397" lon="-2.36053">
        <ele>24</ele>
        <time>2020-11-29T09:06:48.000Z</time>
      </trkpt>
      <trkpt lat="47.29409" lon="-2.36042">
        <ele>24</ele>
        <time>2020-11-29T09:06:51.000Z</time>
      </trkpt>
      <trkpt lat="47.29422" lon="-2.3603">
        <ele>24</ele>
        <time>2020-11-29T09:06:54.000Z</time>
      </trkpt>
      <trkpt lat="47.29448" lon="-2.36009">
        <ele>24</ele>
        <time>2020-11-29T09:07:00.000Z</time>
      </trkpt>
      <trkpt lat="47.29462" lon="-2.35993">
        <ele>24</ele>
        <time>2020-11-29T09:07:04.000Z</time>
      </trkpt>
      <trkpt lat="47.29465" lon="-2.35983">
        <ele>24</ele>
        <time>2020-11-29T09:07:06.000Z</time>
      </trkpt>
      <trkpt lat="47.29479" lon="-2.35973">
        <ele>24</ele>
        <time>2020-11-29T09:07:10.000Z</time>
      </trkpt>
      <trkpt lat="47.29495" lon="-2.35963">
        <ele>24</ele>
        <time>2020-11-29T09:07:14.000Z</time>
      </trkpt>
      <trkpt lat="47.295" lon="-2.3596">
        <ele>24</ele>
        <time>2020-11-29T09:07:15.000Z</time>
      </trkpt>
      <trkpt lat="47.29521" lon="-2.35943">
        <ele>24</ele>
        <time>2020-11-29T09:07:20.000Z</time>
      </trkpt>
      <trkpt lat="47.2953" lon="-2.35938">
        <ele>24</ele>
        <time>2020-11-29T09:07:22.000Z</time>
      </trkpt>
      <trkpt lat="47.29556" lon="-2.35923">
        <ele>24</ele>
        <time>2020-11-29T09:07:28.000Z</time>
      </trkpt>
      <trkpt lat="47.29604" lon="-2.35892">
        <ele>24</ele>
        <time>2020-11-29T09:07:39.000Z</time>
      </trkpt>
      <trkpt lat="47.29635" lon="-2.35873">
        <ele>24</ele>
        <time>2020-11-29T09:07:46.000Z</time>
      </trkpt>
      <trkpt lat="47.29649" lon="-2.35862">
        <ele>24</ele>
        <time>2020-11-29T09:07:49.000Z</time>
      </trkpt>
      <trkpt lat="47.29655" lon="-2.35851">
        <ele>24</ele>
        <time>2020-11-29T09:07:51.000Z</time>
      </trkpt>
      <trkpt lat="47.29669" lon="-2.35838">
        <ele>24</ele>
        <time>2020-11-29T09:07:55.000Z</time>
      </trkpt>
      <trkpt lat="47.29679" lon="-2.3584">
        <ele>24</ele>
        <time>2020-11-29T09:07:57.000Z</time>
      </trkpt>
      <trkpt lat="47.29691" lon="-2.35839">
        <ele>24</ele>
        <time>2020-11-29T09:07:59.000Z</time>
      </trkpt>
      <trkpt lat="47.29708" lon="-2.35834">
        <ele>24</ele>
        <time>2020-11-29T09:08:02.000Z</time>
      </trkpt>
      <trkpt lat="47.29713" lon="-2.3583">
        <ele>24.39999961853</ele>
        <time>2020-11-29T09:08:03.000Z</time>
      </trkpt>
      <trkpt lat="47.29718" lon="-2.35828">
        <ele>24.799999237061</ele>
        <time>2020-11-29T09:08:04.000Z</time>
      </trkpt>
      <trkpt lat="47.29722" lon="-2.35825">
        <ele>25.200000762939</ele>
        <time>2020-11-29T09:08:05.000Z</time>
      </trkpt>
      <trkpt lat="47.29727" lon="-2.35821">
        <ele>25.60000038147</ele>
        <time>2020-11-29T09:08:06.000Z</time>
      </trkpt>
      <trkpt lat="47.29731" lon="-2.35819">
        <ele>26</ele>
        <time>2020-11-29T09:08:07.000Z</time>
      </trkpt>
      <trkpt lat="47.2975" lon="-2.3581">
        <ele>26</ele>
        <time>2020-11-29T09:08:11.000Z</time>
      </trkpt>
      <trkpt lat="47.29774" lon="-2.358">
        <ele>26</ele>
        <time>2020-11-29T09:08:17.000Z</time>
      </trkpt>
      <trkpt lat="47.29795" lon="-2.35792">
        <ele>26.39999961853</ele>
        <time>2020-11-29T09:08:22.000Z</time>
      </trkpt>
      <trkpt lat="47.29799" lon="-2.35791">
        <ele>26.799999237061</ele>
        <time>2020-11-29T09:08:23.000Z</time>
      </trkpt>
      <trkpt lat="47.29803" lon="-2.35789">
        <ele>27.200000762939</ele>
        <time>2020-11-29T09:08:24.000Z</time>
      </trkpt>
      <trkpt lat="47.29807" lon="-2.35787">
        <ele>27.60000038147</ele>
        <time>2020-11-29T09:08:25.000Z</time>
      </trkpt>
      <trkpt lat="47.29811" lon="-2.35786">
        <ele>28</ele>
        <time>2020-11-29T09:08:26.000Z</time>
      </trkpt>
      <trkpt lat="47.2984" lon="-2.35776">
        <ele>28</ele>
        <time>2020-11-29T09:08:32.000Z</time>
      </trkpt>
      <trkpt lat="47.29864" lon="-2.35769">
        <ele>28</ele>
        <time>2020-11-29T09:08:36.000Z</time>
      </trkpt>
      <trkpt lat="47.2987" lon="-2.35767">
        <ele>28</ele>
        <time>2020-11-29T09:08:37.000Z</time>
      </trkpt>
      <trkpt lat="47.29887" lon="-2.35761">
        <ele>28</ele>
        <time>2020-11-29T09:08:40.000Z</time>
      </trkpt>
      <trkpt lat="47.29895" lon="-2.35755">
        <ele>28</ele>
        <time>2020-11-29T09:08:42.000Z</time>
      </trkpt>
      <trkpt lat="47.29898" lon="-2.35745">
        <ele>27.60000038147</ele>
        <time>2020-11-29T09:08:44.000Z</time>
      </trkpt>
      <trkpt lat="47.29899" lon="-2.3574">
        <ele>27.200000762939</ele>
        <time>2020-11-29T09:08:45.000Z</time>
      </trkpt>
      <trkpt lat="47.299" lon="-2.35735">
        <ele>26.60000038147</ele>
        <time>2020-11-29T09:08:46.000Z</time>
      </trkpt>
      <trkpt lat="47.29899" lon="-2.35731">
        <ele>26.200000762939</ele>
        <time>2020-11-29T09:08:47.000Z</time>
      </trkpt>
      <trkpt lat="47.29898" lon="-2.35725">
        <ele>25.60000038147</ele>
        <time>2020-11-29T09:08:48.000Z</time>
      </trkpt>
      <trkpt lat="47.29896" lon="-2.3572">
        <ele>25.60000038147</ele>
        <time>2020-11-29T09:08:49.000Z</time>
      </trkpt>
      <trkpt lat="47.29895" lon="-2.35714">
        <ele>25.60000038147</ele>
        <time>2020-11-29T09:08:50.000Z</time>
      </trkpt>
      <trkpt lat="47.29886" lon="-2.35675">
        <ele>25.60000038147</ele>
        <time>2020-11-29T09:08:56.000Z</time>
      </trkpt>
      <trkpt lat="47.29876" lon="-2.35625">
        <ele>25.60000038147</ele>
        <time>2020-11-29T09:09:03.000Z</time>
      </trkpt>
      <trkpt lat="47.29874" lon="-2.35617">
        <ele>25.60000038147</ele>
        <time>2020-11-29T09:09:04.000Z</time>
      </trkpt>
      <trkpt lat="47.29857" lon="-2.35561">
        <ele>25.60000038147</ele>
        <time>2020-11-29T09:09:12.000Z</time>
      </trkpt>
      <trkpt lat="47.29842" lon="-2.35508">
        <ele>25.60000038147</ele>
        <time>2020-11-29T09:09:19.000Z</time>
      </trkpt>
      <trkpt lat="47.29836" lon="-2.35491">
        <ele>25.200000762939</ele>
        <time>2020-11-29T09:09:21.000Z</time>
      </trkpt>
      <trkpt lat="47.29834" lon="-2.35484">
        <ele>24.799999237061</ele>
        <time>2020-11-29T09:09:22.000Z</time>
      </trkpt>
      <trkpt lat="47.29832" lon="-2.35477">
        <ele>24.39999961853</ele>
        <time>2020-11-29T09:09:23.000Z</time>
      </trkpt>
      <trkpt lat="47.2983" lon="-2.35469">
        <ele>24</ele>
        <time>2020-11-29T09:09:24.000Z</time>
      </trkpt>
      <trkpt lat="47.2983" lon="-2.35462">
        <ele>23.60000038147</ele>
        <time>2020-11-29T09:09:25.000Z</time>
      </trkpt>
      <trkpt lat="47.29836" lon="-2.35444">
        <ele>23.60000038147</ele>
        <time>2020-11-29T09:09:28.000Z</time>
      </trkpt>
      <trkpt lat="47.2985" lon="-2.35432">
        <ele>23.60000038147</ele>
        <time>2020-11-29T09:09:31.000Z</time>
      </trkpt>
      <trkpt lat="47.29859" lon="-2.35422">
        <ele>23.60000038147</ele>
        <time>2020-11-29T09:09:33.000Z</time>
      </trkpt>
      <trkpt lat="47.29869" lon="-2.35414">
        <ele>23.60000038147</ele>
        <time>2020-11-29T09:09:35.000Z</time>
      </trkpt>
      <trkpt lat="47.29878" lon="-2.35404">
        <ele>23.60000038147</ele>
        <time>2020-11-29T09:09:37.000Z</time>
      </trkpt>
      <trkpt lat="47.2989" lon="-2.35391">
        <ele>23.200000762939</ele>
        <time>2020-11-29T09:09:40.000Z</time>
      </trkpt>
      <trkpt lat="47.29894" lon="-2.35387">
        <ele>22.799999237061</ele>
        <time>2020-11-29T09:09:41.000Z</time>
      </trkpt>
      <trkpt lat="47.29899" lon="-2.35384">
        <ele>22.39999961853</ele>
        <time>2020-11-29T09:09:42.000Z</time>
      </trkpt>
      <trkpt lat="47.29903" lon="-2.3538">
        <ele>22</ele>
        <time>2020-11-29T09:09:43.000Z</time>
      </trkpt>
      <trkpt lat="47.29906" lon="-2.35375">
        <ele>21.60000038147</ele>
        <time>2020-11-29T09:09:44.000Z</time>
      </trkpt>
      <trkpt lat="47.29925" lon="-2.35351">
        <ele>21.60000038147</ele>
        <time>2020-11-29T09:09:50.000Z</time>
      </trkpt>
      <trkpt lat="47.29946" lon="-2.35325">
        <ele>21.60000038147</ele>
        <time>2020-11-29T09:09:56.000Z</time>
      </trkpt>
      <trkpt lat="47.29969" lon="-2.35298">
        <ele>21.60000038147</ele>
        <time>2020-11-29T09:10:02.000Z</time>
      </trkpt>
      <trkpt lat="47.29972" lon="-2.35294">
        <ele>21.60000038147</ele>
        <time>2020-11-29T09:10:03.000Z</time>
      </trkpt>
      <trkpt lat="47.29976" lon="-2.3529">
        <ele>21.60000038147</ele>
        <time>2020-11-29T09:10:04.000Z</time>
      </trkpt>
      <trkpt lat="47.29996" lon="-2.35266">
        <ele>21.60000038147</ele>
        <time>2020-11-29T09:10:10.000Z</time>
      </trkpt>
      <trkpt lat="47.30014" lon="-2.35252">
        <ele>21.60000038147</ele>
        <time>2020-11-29T09:10:16.000Z</time>
      </trkpt>
      <trkpt lat="47.30025" lon="-2.35245">
        <ele>21.200000762939</ele>
        <time>2020-11-29T09:10:21.000Z</time>
      </trkpt>
      <trkpt lat="47.30026" lon="-2.35246">
        <ele>20.799999237061</ele>
        <time>2020-11-29T09:10:22.000Z</time>
      </trkpt>
      <trkpt lat="47.30028" lon="-2.35245">
        <ele>20.39999961853</ele>
        <time>2020-11-29T09:10:23.000Z</time>
      </trkpt>
      <trkpt lat="47.30029" lon="-2.35245">
        <ele>20</ele>
        <time>2020-11-29T09:10:24.000Z</time>
      </trkpt>
      <trkpt lat="47.3003" lon="-2.35243">
        <ele>19.60000038147</ele>
        <time>2020-11-29T09:10:25.000Z</time>
      </trkpt>
      <trkpt lat="47.30033" lon="-2.35241">
        <ele>19.60000038147</ele>
        <time>2020-11-29T09:10:26.000Z</time>
      </trkpt>
      <trkpt lat="47.30052" lon="-2.35229">
        <ele>19.60000038147</ele>
        <time>2020-11-29T09:10:31.000Z</time>
      </trkpt>
      <trkpt lat="47.30068" lon="-2.35219">
        <ele>19.60000038147</ele>
        <time>2020-11-29T09:10:35.000Z</time>
      </trkpt>
      <trkpt lat="47.30073" lon="-2.35215">
        <ele>19.60000038147</ele>
        <time>2020-11-29T09:10:36.000Z</time>
      </trkpt>
      <trkpt lat="47.30077" lon="-2.35213">
        <ele>19.60000038147</ele>
        <time>2020-11-29T09:10:37.000Z</time>
      </trkpt>
      <trkpt lat="47.30092" lon="-2.35208">
        <ele>19.60000038147</ele>
        <time>2020-11-29T09:10:40.000Z</time>
      </trkpt>
      <trkpt lat="47.30097" lon="-2.35206">
        <ele>19.60000038147</ele>
        <time>2020-11-29T09:10:41.000Z</time>
      </trkpt>
      <trkpt lat="47.30121" lon="-2.35199">
        <ele>19.60000038147</ele>
        <time>2020-11-29T09:10:46.000Z</time>
      </trkpt>
      <trkpt lat="47.30135" lon="-2.35195">
        <ele>19.60000038147</ele>
        <time>2020-11-29T09:10:51.000Z</time>
      </trkpt>
      <trkpt lat="47.30143" lon="-2.35196">
        <ele>19.60000038147</ele>
        <time>2020-11-29T09:10:59.000Z</time>
      </trkpt>
      <trkpt lat="47.30146" lon="-2.35195">
        <ele>19.60000038147</ele>
        <time>2020-11-29T09:11:03.000Z</time>
      </trkpt>
      <trkpt lat="47.30158" lon="-2.35191">
        <ele>19.60000038147</ele>
        <time>2020-11-29T09:11:20.000Z</time>
      </trkpt>
      <trkpt lat="47.30159" lon="-2.35186">
        <ele>19.60000038147</ele>
        <time>2020-11-29T09:11:22.000Z</time>
      </trkpt>
      <trkpt lat="47.30168" lon="-2.35178">
        <ele>19.60000038147</ele>
        <time>2020-11-29T09:11:28.000Z</time>
      </trkpt>
      <trkpt lat="47.30173" lon="-2.35176">
        <ele>19.60000038147</ele>
        <time>2020-11-29T09:11:31.000Z</time>
      </trkpt>
      <trkpt lat="47.30179" lon="-2.35174">
        <ele>19.60000038147</ele>
        <time>2020-11-29T09:11:33.000Z</time>
      </trkpt>
      <trkpt lat="47.30206" lon="-2.35164">
        <ele>19.60000038147</ele>
        <time>2020-11-29T09:11:40.000Z</time>
      </trkpt>
      <trkpt lat="47.30209" lon="-2.35159">
        <ele>19.60000038147</ele>
        <time>2020-11-29T09:11:41.000Z</time>
      </trkpt>
      <trkpt lat="47.3021" lon="-2.35154">
        <ele>20</ele>
        <time>2020-11-29T09:11:42.000Z</time>
      </trkpt>
      <trkpt lat="47.30212" lon="-2.35149">
        <ele>20.39999961853</ele>
        <time>2020-11-29T09:11:43.000Z</time>
      </trkpt>
      <trkpt lat="47.30212" lon="-2.35144">
        <ele>20.799999237061</ele>
        <time>2020-11-29T09:11:44.000Z</time>
      </trkpt>
      <trkpt lat="47.30213" lon="-2.35138">
        <ele>21.200000762939</ele>
        <time>2020-11-29T09:11:45.000Z</time>
      </trkpt>
      <trkpt lat="47.30214" lon="-2.35131">
        <ele>21.60000038147</ele>
        <time>2020-11-29T09:11:46.000Z</time>
      </trkpt>
      <trkpt lat="47.30214" lon="-2.35118">
        <ele>21.60000038147</ele>
        <time>2020-11-29T09:11:48.000Z</time>
      </trkpt>
      <trkpt lat="47.30211" lon="-2.35066">
        <ele>21.60000038147</ele>
        <time>2020-11-29T09:11:55.000Z</time>
      </trkpt>
      <trkpt lat="47.30211" lon="-2.35054">
        <ele>22</ele>
        <time>2020-11-29T09:11:57.000Z</time>
      </trkpt>
      <trkpt lat="47.3021" lon="-2.35047">
        <ele>22.39999961853</ele>
        <time>2020-11-29T09:11:58.000Z</time>
      </trkpt>
      <trkpt lat="47.3021" lon="-2.3504">
        <ele>22.799999237061</ele>
        <time>2020-11-29T09:11:59.000Z</time>
      </trkpt>
      <trkpt lat="47.3021" lon="-2.35033">
        <ele>23.200000762939</ele>
        <time>2020-11-29T09:12:00.000Z</time>
      </trkpt>
      <trkpt lat="47.30209" lon="-2.35028">
        <ele>23.60000038147</ele>
        <time>2020-11-29T09:12:01.000Z</time>
      </trkpt>
      <trkpt lat="47.30207" lon="-2.3499">
        <ele>23.60000038147</ele>
        <time>2020-11-29T09:12:07.000Z</time>
      </trkpt>
      <trkpt lat="47.30207" lon="-2.34959">
        <ele>24</ele>
        <time>2020-11-29T09:12:12.000Z</time>
      </trkpt>
      <trkpt lat="47.30207" lon="-2.34953">
        <ele>24.39999961853</ele>
        <time>2020-11-29T09:12:13.000Z</time>
      </trkpt>
      <trkpt lat="47.30207" lon="-2.34947">
        <ele>24.799999237061</ele>
        <time>2020-11-29T09:12:14.000Z</time>
      </trkpt>
      <trkpt lat="47.30207" lon="-2.34942">
        <ele>25.200000762939</ele>
        <time>2020-11-29T09:12:15.000Z</time>
      </trkpt>
      <trkpt lat="47.30207" lon="-2.34936">
        <ele>25.60000038147</ele>
        <time>2020-11-29T09:12:16.000Z</time>
      </trkpt>
      <trkpt lat="47.30206" lon="-2.34914">
        <ele>25.60000038147</ele>
        <time>2020-11-29T09:12:20.000Z</time>
      </trkpt>
      <trkpt lat="47.30214" lon="-2.34896">
        <ele>25.60000038147</ele>
        <time>2020-11-29T09:12:24.000Z</time>
      </trkpt>
      <trkpt lat="47.30235" lon="-2.34879">
        <ele>25.60000038147</ele>
        <time>2020-11-29T09:12:29.000Z</time>
      </trkpt>
      <trkpt lat="47.30261" lon="-2.34865">
        <ele>25.60000038147</ele>
        <time>2020-11-29T09:12:35.000Z</time>
      </trkpt>
      <trkpt lat="47.30291" lon="-2.34849">
        <ele>25.60000038147</ele>
        <time>2020-11-29T09:12:42.000Z</time>
      </trkpt>
      <trkpt lat="47.30299" lon="-2.34842">
        <ele>25.60000038147</ele>
        <time>2020-11-29T09:12:44.000Z</time>
      </trkpt>
      <trkpt lat="47.30309" lon="-2.34829">
        <ele>25.60000038147</ele>
        <time>2020-11-29T09:12:47.000Z</time>
      </trkpt>
      <trkpt lat="47.30321" lon="-2.34811">
        <ele>25.60000038147</ele>
        <time>2020-11-29T09:12:51.000Z</time>
      </trkpt>
      <trkpt lat="47.30326" lon="-2.348">
        <ele>25.60000038147</ele>
        <time>2020-11-29T09:12:53.000Z</time>
      </trkpt>
      <trkpt lat="47.30331" lon="-2.34789">
        <ele>26</ele>
        <time>2020-11-29T09:12:55.000Z</time>
      </trkpt>
      <trkpt lat="47.30333" lon="-2.34784">
        <ele>26.39999961853</ele>
        <time>2020-11-29T09:12:56.000Z</time>
      </trkpt>
      <trkpt lat="47.30336" lon="-2.3478">
        <ele>27</ele>
        <time>2020-11-29T09:12:57.000Z</time>
      </trkpt>
      <trkpt lat="47.30338" lon="-2.34776">
        <ele>27.39999961853</ele>
        <time>2020-11-29T09:12:58.000Z</time>
      </trkpt>
      <trkpt lat="47.30341" lon="-2.34773">
        <ele>27.799999237061</ele>
        <time>2020-11-29T09:12:59.000Z</time>
      </trkpt>
      <trkpt lat="47.30345" lon="-2.3477">
        <ele>27.799999237061</ele>
        <time>2020-11-29T09:13:00.000Z</time>
      </trkpt>
      <trkpt lat="47.30372" lon="-2.34752">
        <ele>27.799999237061</ele>
        <time>2020-11-29T09:13:06.000Z</time>
      </trkpt>
      <trkpt lat="47.30406" lon="-2.34735">
        <ele>27.799999237061</ele>
        <time>2020-11-29T09:13:13.000Z</time>
      </trkpt>
      <trkpt lat="47.30437" lon="-2.34709">
        <ele>27.799999237061</ele>
        <time>2020-11-29T09:13:20.000Z</time>
      </trkpt>
      <trkpt lat="47.30457" lon="-2.34689">
        <ele>27.799999237061</ele>
        <time>2020-11-29T09:13:25.000Z</time>
      </trkpt>
      <trkpt lat="47.30466" lon="-2.3468">
        <ele>27.799999237061</ele>
        <time>2020-11-29T09:13:27.000Z</time>
      </trkpt>
      <trkpt lat="47.30484" lon="-2.34659">
        <ele>27.799999237061</ele>
        <time>2020-11-29T09:13:33.000Z</time>
      </trkpt>
      <trkpt lat="47.30498" lon="-2.34636">
        <ele>27.799999237061</ele>
        <time>2020-11-29T09:13:39.000Z</time>
      </trkpt>
      <trkpt lat="47.3051" lon="-2.34616">
        <ele>27.799999237061</ele>
        <time>2020-11-29T09:13:43.000Z</time>
      </trkpt>
      <trkpt lat="47.30517" lon="-2.34605">
        <ele>27.799999237061</ele>
        <time>2020-11-29T09:13:45.000Z</time>
      </trkpt>
      <trkpt lat="47.30542" lon="-2.34573">
        <ele>27.799999237061</ele>
        <time>2020-11-29T09:13:51.000Z</time>
      </trkpt>
      <trkpt lat="47.30559" lon="-2.34539">
        <ele>27.799999237061</ele>
        <time>2020-11-29T09:13:57.000Z</time>
      </trkpt>
      <trkpt lat="47.30575" lon="-2.34507">
        <ele>27.799999237061</ele>
        <time>2020-11-29T09:14:03.000Z</time>
      </trkpt>
      <trkpt lat="47.30582" lon="-2.34495">
        <ele>28.200000762939</ele>
        <time>2020-11-29T09:14:06.000Z</time>
      </trkpt>
      <trkpt lat="47.30585" lon="-2.3449">
        <ele>28.60000038147</ele>
        <time>2020-11-29T09:14:07.000Z</time>
      </trkpt>
      <trkpt lat="47.30587" lon="-2.34486">
        <ele>29</ele>
        <time>2020-11-29T09:14:08.000Z</time>
      </trkpt>
      <trkpt lat="47.30591" lon="-2.34479">
        <ele>29.39999961853</ele>
        <time>2020-11-29T09:14:09.000Z</time>
      </trkpt>
      <trkpt lat="47.30593" lon="-2.34475">
        <ele>29.799999237061</ele>
        <time>2020-11-29T09:14:10.000Z</time>
      </trkpt>
      <trkpt lat="47.30605" lon="-2.34454">
        <ele>29.799999237061</ele>
        <time>2020-11-29T09:14:15.000Z</time>
      </trkpt>
      <trkpt lat="47.30628" lon="-2.34429">
        <ele>29.799999237061</ele>
        <time>2020-11-29T09:14:22.000Z</time>
      </trkpt>
      <trkpt lat="47.30637" lon="-2.3442">
        <ele>29.799999237061</ele>
        <time>2020-11-29T09:14:24.000Z</time>
      </trkpt>
      <trkpt lat="47.30643" lon="-2.34411">
        <ele>29.799999237061</ele>
        <time>2020-11-29T09:14:26.000Z</time>
      </trkpt>
      <trkpt lat="47.30646" lon="-2.34405">
        <ele>29.799999237061</ele>
        <time>2020-11-29T09:14:27.000Z</time>
      </trkpt>
      <trkpt lat="47.3066" lon="-2.34385">
        <ele>29.799999237061</ele>
        <time>2020-11-29T09:14:32.000Z</time>
      </trkpt>
      <trkpt lat="47.30683" lon="-2.34345">
        <ele>29.799999237061</ele>
        <time>2020-11-29T09:14:40.000Z</time>
      </trkpt>
      <trkpt lat="47.30707" lon="-2.34299">
        <ele>29.799999237061</ele>
        <time>2020-11-29T09:14:47.000Z</time>
      </trkpt>
      <trkpt lat="47.3072" lon="-2.34269">
        <ele>29.799999237061</ele>
        <time>2020-11-29T09:14:52.000Z</time>
      </trkpt>
      <trkpt lat="47.30721" lon="-2.34263">
        <ele>29.799999237061</ele>
        <time>2020-11-29T09:14:53.000Z</time>
      </trkpt>
      <trkpt lat="47.30722" lon="-2.34256">
        <ele>29.799999237061</ele>
        <time>2020-11-29T09:14:54.000Z</time>
      </trkpt>
      <trkpt lat="47.30725" lon="-2.34232">
        <ele>29.799999237061</ele>
        <time>2020-11-29T09:14:58.000Z</time>
      </trkpt>
      <trkpt lat="47.30733" lon="-2.34224">
        <ele>29.799999237061</ele>
        <time>2020-11-29T09:15:01.000Z</time>
      </trkpt>
      <trkpt lat="47.30756" lon="-2.34219">
        <ele>29.799999237061</ele>
        <time>2020-11-29T09:15:06.000Z</time>
      </trkpt>
      <trkpt lat="47.30766" lon="-2.342">
        <ele>29.799999237061</ele>
        <time>2020-11-29T09:15:10.000Z</time>
      </trkpt>
      <trkpt lat="47.30767" lon="-2.34193">
        <ele>29.799999237061</ele>
        <time>2020-11-29T09:15:11.000Z</time>
      </trkpt>
      <trkpt lat="47.30769" lon="-2.3415">
        <ele>29.799999237061</ele>
        <time>2020-11-29T09:15:18.000Z</time>
      </trkpt>
      <trkpt lat="47.30772" lon="-2.34105">
        <ele>29.799999237061</ele>
        <time>2020-11-29T09:15:25.000Z</time>
      </trkpt>
      <trkpt lat="47.30774" lon="-2.3406">
        <ele>29.39999961853</ele>
        <time>2020-11-29T09:15:32.000Z</time>
      </trkpt>
      <trkpt lat="47.30774" lon="-2.34054">
        <ele>29</ele>
        <time>2020-11-29T09:15:33.000Z</time>
      </trkpt>
      <trkpt lat="47.30774" lon="-2.34048">
        <ele>28.60000038147</ele>
        <time>2020-11-29T09:15:34.000Z</time>
      </trkpt>
      <trkpt lat="47.30774" lon="-2.34042">
        <ele>28.200000762939</ele>
        <time>2020-11-29T09:15:35.000Z</time>
      </trkpt>
      <trkpt lat="47.30774" lon="-2.34035">
        <ele>27.799999237061</ele>
        <time>2020-11-29T09:15:36.000Z</time>
      </trkpt>
      <trkpt lat="47.30775" lon="-2.34029">
        <ele>27.799999237061</ele>
        <time>2020-11-29T09:15:37.000Z</time>
      </trkpt>
      <trkpt lat="47.30778" lon="-2.33985">
        <ele>27.799999237061</ele>
        <time>2020-11-29T09:15:44.000Z</time>
      </trkpt>
      <trkpt lat="47.30781" lon="-2.33976">
        <ele>27.799999237061</ele>
        <time>2020-11-29T09:15:46.000Z</time>
      </trkpt>
      <trkpt lat="47.30783" lon="-2.33974">
        <ele>27.799999237061</ele>
        <time>2020-11-29T09:15:47.000Z</time>
      </trkpt>
      <trkpt lat="47.30803" lon="-2.33967">
        <ele>27.799999237061</ele>
        <time>2020-11-29T09:15:51.000Z</time>
      </trkpt>
      <trkpt lat="47.30838" lon="-2.33956">
        <ele>27.799999237061</ele>
        <time>2020-11-29T09:15:58.000Z</time>
      </trkpt>
      <trkpt lat="47.30875" lon="-2.33949">
        <ele>27.799999237061</ele>
        <time>2020-11-29T09:16:05.000Z</time>
      </trkpt>
      <trkpt lat="47.3091" lon="-2.33947">
        <ele>27.799999237061</ele>
        <time>2020-11-29T09:16:12.000Z</time>
      </trkpt>
      <trkpt lat="47.30931" lon="-2.33947">
        <ele>27.799999237061</ele>
        <time>2020-11-29T09:16:16.000Z</time>
      </trkpt>
      <trkpt lat="47.30952" lon="-2.33951">
        <ele>27.799999237061</ele>
        <time>2020-11-29T09:16:20.000Z</time>
      </trkpt>
      <trkpt lat="47.30985" lon="-2.33955">
        <ele>27.799999237061</ele>
        <time>2020-11-29T09:16:26.000Z</time>
      </trkpt>
      <trkpt lat="47.31019" lon="-2.33951">
        <ele>27.799999237061</ele>
        <time>2020-11-29T09:16:32.000Z</time>
      </trkpt>
      <trkpt lat="47.31047" lon="-2.33947">
        <ele>27.799999237061</ele>
        <time>2020-11-29T09:16:37.000Z</time>
      </trkpt>
      <trkpt lat="47.31053" lon="-2.33946">
        <ele>27.39999961853</ele>
        <time>2020-11-29T09:16:39.000Z</time>
      </trkpt>
      <trkpt lat="47.31054" lon="-2.33945">
        <ele>27</ele>
        <time>2020-11-29T09:16:40.000Z</time>
      </trkpt>
      <trkpt lat="47.31055" lon="-2.33945">
        <ele>26.39999961853</ele>
        <time>2020-11-29T09:16:41.000Z</time>
      </trkpt>
      <trkpt lat="47.31056" lon="-2.33942">
        <ele>25.60000038147</ele>
        <time>2020-11-29T09:16:59.000Z</time>
      </trkpt>
      <trkpt lat="47.31059" lon="-2.33936">
        <ele>25.60000038147</ele>
        <time>2020-11-29T09:17:02.000Z</time>
      </trkpt>
      <trkpt lat="47.3106" lon="-2.3393">
        <ele>25.60000038147</ele>
        <time>2020-11-29T09:17:04.000Z</time>
      </trkpt>
      <trkpt lat="47.3106" lon="-2.33919">
        <ele>25.60000038147</ele>
        <time>2020-11-29T09:17:07.000Z</time>
      </trkpt>
      <trkpt lat="47.31061" lon="-2.33877">
        <ele>25.60000038147</ele>
        <time>2020-11-29T09:17:16.000Z</time>
      </trkpt>
      <trkpt lat="47.31063" lon="-2.33836">
        <ele>25.60000038147</ele>
        <time>2020-11-29T09:17:23.000Z</time>
      </trkpt>
      <trkpt lat="47.31067" lon="-2.33806">
        <ele>25.60000038147</ele>
        <time>2020-11-29T09:17:28.000Z</time>
      </trkpt>
      <trkpt lat="47.31069" lon="-2.338">
        <ele>25.60000038147</ele>
        <time>2020-11-29T09:17:29.000Z</time>
      </trkpt>
      <trkpt lat="47.31086" lon="-2.33758">
        <ele>25.60000038147</ele>
        <time>2020-11-29T09:17:36.000Z</time>
      </trkpt>
      <trkpt lat="47.31091" lon="-2.33745">
        <ele>25.60000038147</ele>
        <time>2020-11-29T09:17:38.000Z</time>
      </trkpt>
      <trkpt lat="47.31095" lon="-2.33725">
        <ele>25.60000038147</ele>
        <time>2020-11-29T09:17:41.000Z</time>
      </trkpt>
      <trkpt lat="47.31103" lon="-2.33663">
        <ele>25.60000038147</ele>
        <time>2020-11-29T09:17:50.000Z</time>
      </trkpt>
      <trkpt lat="47.3111" lon="-2.3361">
        <ele>25.60000038147</ele>
        <time>2020-11-29T09:17:57.000Z</time>
      </trkpt>
      <trkpt lat="47.31109" lon="-2.33557">
        <ele>25.60000038147</ele>
        <time>2020-11-29T09:18:04.000Z</time>
      </trkpt>
      <trkpt lat="47.31101" lon="-2.33504">
        <ele>25.60000038147</ele>
        <time>2020-11-29T09:18:11.000Z</time>
      </trkpt>
      <trkpt lat="47.31096" lon="-2.3346">
        <ele>25.60000038147</ele>
        <time>2020-11-29T09:18:16.000Z</time>
      </trkpt>
      <trkpt lat="47.31095" lon="-2.33384">
        <ele>25.60000038147</ele>
        <time>2020-11-29T09:18:24.000Z</time>
      </trkpt>
      <trkpt lat="47.31098" lon="-2.33332">
        <ele>25.200000762939</ele>
        <time>2020-11-29T09:18:30.000Z</time>
      </trkpt>
      <trkpt lat="47.31098" lon="-2.33324">
        <ele>24.799999237061</ele>
        <time>2020-11-29T09:18:31.000Z</time>
      </trkpt>
      <trkpt lat="47.31099" lon="-2.33316">
        <ele>24.39999961853</ele>
        <time>2020-11-29T09:18:32.000Z</time>
      </trkpt>
      <trkpt lat="47.31099" lon="-2.33308">
        <ele>24</ele>
        <time>2020-11-29T09:18:33.000Z</time>
      </trkpt>
      <trkpt lat="47.311" lon="-2.333">
        <ele>23.60000038147</ele>
        <time>2020-11-29T09:18:34.000Z</time>
      </trkpt>
      <trkpt lat="47.31102" lon="-2.33259">
        <ele>23.60000038147</ele>
        <time>2020-11-29T09:18:39.000Z</time>
      </trkpt>
      <trkpt lat="47.31105" lon="-2.33227">
        <ele>23.60000038147</ele>
        <time>2020-11-29T09:18:43.000Z</time>
      </trkpt>
      <trkpt lat="47.31109" lon="-2.33212">
        <ele>23.60000038147</ele>
        <time>2020-11-29T09:18:45.000Z</time>
      </trkpt>
      <trkpt lat="47.31123" lon="-2.33199">
        <ele>23.60000038147</ele>
        <time>2020-11-29T09:18:48.000Z</time>
      </trkpt>
      <trkpt lat="47.31128" lon="-2.33196">
        <ele>23.60000038147</ele>
        <time>2020-11-29T09:18:49.000Z</time>
      </trkpt>
      <trkpt lat="47.31143" lon="-2.33186">
        <ele>23.60000038147</ele>
        <time>2020-11-29T09:18:52.000Z</time>
      </trkpt>
      <trkpt lat="47.31154" lon="-2.3318">
        <ele>23.60000038147</ele>
        <time>2020-11-29T09:18:54.000Z</time>
      </trkpt>
      <trkpt lat="47.31159" lon="-2.33177">
        <ele>23.200000762939</ele>
        <time>2020-11-29T09:18:55.000Z</time>
      </trkpt>
      <trkpt lat="47.31165" lon="-2.33174">
        <ele>22.799999237061</ele>
        <time>2020-11-29T09:18:56.000Z</time>
      </trkpt>
      <trkpt lat="47.3117" lon="-2.3317">
        <ele>22.39999961853</ele>
        <time>2020-11-29T09:18:57.000Z</time>
      </trkpt>
      <trkpt lat="47.31175" lon="-2.33167">
        <ele>22</ele>
        <time>2020-11-29T09:18:58.000Z</time>
      </trkpt>
      <trkpt lat="47.3118" lon="-2.33163">
        <ele>21.60000038147</ele>
        <time>2020-11-29T09:18:59.000Z</time>
      </trkpt>
      <trkpt lat="47.31186" lon="-2.3316">
        <ele>21.60000038147</ele>
        <time>2020-11-29T09:19:00.000Z</time>
      </trkpt>
      <trkpt lat="47.3122" lon="-2.33147">
        <ele>21.60000038147</ele>
        <time>2020-11-29T09:19:06.000Z</time>
      </trkpt>
      <trkpt lat="47.31226" lon="-2.33147">
        <ele>21.60000038147</ele>
        <time>2020-11-29T09:19:07.000Z</time>
      </trkpt>
      <trkpt lat="47.31258" lon="-2.33151">
        <ele>21.60000038147</ele>
        <time>2020-11-29T09:19:13.000Z</time>
      </trkpt>
      <trkpt lat="47.31283" lon="-2.3316">
        <ele>21.60000038147</ele>
        <time>2020-11-29T09:19:18.000Z</time>
      </trkpt>
      <trkpt lat="47.31308" lon="-2.33178">
        <ele>21.60000038147</ele>
        <time>2020-11-29T09:19:23.000Z</time>
      </trkpt>
      <trkpt lat="47.31338" lon="-2.33206">
        <ele>21.60000038147</ele>
        <time>2020-11-29T09:19:30.000Z</time>
      </trkpt>
      <trkpt lat="47.31365" lon="-2.33229">
        <ele>21.60000038147</ele>
        <time>2020-11-29T09:19:36.000Z</time>
      </trkpt>
      <trkpt lat="47.31398" lon="-2.33253">
        <ele>21.60000038147</ele>
        <time>2020-11-29T09:19:43.000Z</time>
      </trkpt>
      <trkpt lat="47.31432" lon="-2.3328">
        <ele>21.60000038147</ele>
        <time>2020-11-29T09:19:50.000Z</time>
      </trkpt>
      <trkpt lat="47.31437" lon="-2.33285">
        <ele>21.60000038147</ele>
        <time>2020-11-29T09:19:51.000Z</time>
      </trkpt>
      <trkpt lat="47.31454" lon="-2.3331">
        <ele>21.60000038147</ele>
        <time>2020-11-29T09:19:55.000Z</time>
      </trkpt>
      <trkpt lat="47.3147" lon="-2.3334">
        <ele>22</ele>
        <time>2020-11-29T09:19:59.000Z</time>
      </trkpt>
      <trkpt lat="47.31473" lon="-2.33347">
        <ele>22.39999961853</ele>
        <time>2020-11-29T09:20:00.000Z</time>
      </trkpt>
      <trkpt lat="47.31477" lon="-2.33354">
        <ele>22.799999237061</ele>
        <time>2020-11-29T09:20:01.000Z</time>
      </trkpt>
      <trkpt lat="47.3148" lon="-2.33361">
        <ele>23.200000762939</ele>
        <time>2020-11-29T09:20:02.000Z</time>
      </trkpt>
      <trkpt lat="47.31485" lon="-2.33366">
        <ele>23.60000038147</ele>
        <time>2020-11-29T09:20:03.000Z</time>
      </trkpt>
      <trkpt lat="47.31501" lon="-2.33363">
        <ele>23.60000038147</ele>
        <time>2020-11-29T09:20:06.000Z</time>
      </trkpt>
      <trkpt lat="47.31512" lon="-2.33356">
        <ele>23.60000038147</ele>
        <time>2020-11-29T09:20:08.000Z</time>
      </trkpt>
      <trkpt lat="47.31534" lon="-2.33344">
        <ele>23.60000038147</ele>
        <time>2020-11-29T09:20:12.000Z</time>
      </trkpt>
      <trkpt lat="47.31578" lon="-2.33323">
        <ele>23.60000038147</ele>
        <time>2020-11-29T09:20:20.000Z</time>
      </trkpt>
      <trkpt lat="47.31583" lon="-2.3332">
        <ele>23.60000038147</ele>
        <time>2020-11-29T09:20:21.000Z</time>
      </trkpt>
      <trkpt lat="47.31603" lon="-2.33309">
        <ele>23.60000038147</ele>
        <time>2020-11-29T09:20:25.000Z</time>
      </trkpt>
      <trkpt lat="47.31627" lon="-2.33295">
        <ele>23.60000038147</ele>
        <time>2020-11-29T09:20:30.000Z</time>
      </trkpt>
      <trkpt lat="47.31662" lon="-2.33277">
        <ele>23.60000038147</ele>
        <time>2020-11-29T09:20:37.000Z</time>
      </trkpt>
      <trkpt lat="47.31677" lon="-2.3327">
        <ele>23.60000038147</ele>
        <time>2020-11-29T09:20:41.000Z</time>
      </trkpt>
      <trkpt lat="47.31679" lon="-2.33269">
        <ele>23.200000762939</ele>
        <time>2020-11-29T09:20:42.000Z</time>
      </trkpt>
      <trkpt lat="47.31681" lon="-2.33268">
        <ele>22.799999237061</ele>
        <time>2020-11-29T09:20:43.000Z</time>
      </trkpt>
      <trkpt lat="47.31683" lon="-2.33268">
        <ele>22.39999961853</ele>
        <time>2020-11-29T09:20:44.000Z</time>
      </trkpt>
      <trkpt lat="47.31686" lon="-2.33267">
        <ele>22</ele>
        <time>2020-11-29T09:20:45.000Z</time>
      </trkpt>
      <trkpt lat="47.31689" lon="-2.33266">
        <ele>21.60000038147</ele>
        <time>2020-11-29T09:20:46.000Z</time>
      </trkpt>
      <trkpt lat="47.31691" lon="-2.33265">
        <ele>21.60000038147</ele>
        <time>2020-11-29T09:20:47.000Z</time>
      </trkpt>
      <trkpt lat="47.31703" lon="-2.33258">
        <ele>21.60000038147</ele>
        <time>2020-11-29T09:20:51.000Z</time>
      </trkpt>
      <trkpt lat="47.31726" lon="-2.33248">
        <ele>21.200000762939</ele>
        <time>2020-11-29T09:20:56.000Z</time>
      </trkpt>
      <trkpt lat="47.31731" lon="-2.33247">
        <ele>20.60000038147</ele>
        <time>2020-11-29T09:20:57.000Z</time>
      </trkpt>
      <trkpt lat="47.31736" lon="-2.33248">
        <ele>19.799999237061</ele>
        <time>2020-11-29T09:20:58.000Z</time>
      </trkpt>
      <trkpt lat="47.3174" lon="-2.33252">
        <ele>19.39999961853</ele>
        <time>2020-11-29T09:20:59.000Z</time>
      </trkpt>
      <trkpt lat="47.31745" lon="-2.33274">
        <ele>19.39999961853</ele>
        <time>2020-11-29T09:21:03.000Z</time>
      </trkpt>
      <trkpt lat="47.31754" lon="-2.3331">
        <ele>19.39999961853</ele>
        <time>2020-11-29T09:21:09.000Z</time>
      </trkpt>
      <trkpt lat="47.31765" lon="-2.33325">
        <ele>19</ele>
        <time>2020-11-29T09:21:12.000Z</time>
      </trkpt>
      <trkpt lat="47.31769" lon="-2.33329">
        <ele>18.60000038147</ele>
        <time>2020-11-29T09:21:13.000Z</time>
      </trkpt>
      <trkpt lat="47.31773" lon="-2.3333">
        <ele>18.200000762939</ele>
        <time>2020-11-29T09:21:14.000Z</time>
      </trkpt>
      <trkpt lat="47.31778" lon="-2.33329">
        <ele>17.799999237061</ele>
        <time>2020-11-29T09:21:15.000Z</time>
      </trkpt>
      <trkpt lat="47.31782" lon="-2.33327">
        <ele>17.39999961853</ele>
        <time>2020-11-29T09:21:16.000Z</time>
      </trkpt>
      <trkpt lat="47.31786" lon="-2.33323">
        <ele>17.39999961853</ele>
        <time>2020-11-29T09:21:17.000Z</time>
      </trkpt>
      <trkpt lat="47.31794" lon="-2.33315">
        <ele>17.39999961853</ele>
        <time>2020-11-29T09:21:19.000Z</time>
      </trkpt>
      <trkpt lat="47.31798" lon="-2.3331">
        <ele>17</ele>
        <time>2020-11-29T09:21:20.000Z</time>
      </trkpt>
      <trkpt lat="47.31803" lon="-2.33305">
        <ele>16.60000038147</ele>
        <time>2020-11-29T09:21:21.000Z</time>
      </trkpt>
      <trkpt lat="47.31808" lon="-2.33301">
        <ele>15.800000190735</ele>
        <time>2020-11-29T09:21:22.000Z</time>
      </trkpt>
      <trkpt lat="47.31814" lon="-2.33297">
        <ele>15.39999961853</ele>
        <time>2020-11-29T09:21:23.000Z</time>
      </trkpt>
      <trkpt lat="47.31819" lon="-2.33293">
        <ele>15</ele>
        <time>2020-11-29T09:21:24.000Z</time>
      </trkpt>
      <trkpt lat="47.31823" lon="-2.33288">
        <ele>14.39999961853</ele>
        <time>2020-11-29T09:21:25.000Z</time>
      </trkpt>
      <trkpt lat="47.31828" lon="-2.33283">
        <ele>14</ele>
        <time>2020-11-29T09:21:26.000Z</time>
      </trkpt>
      <trkpt lat="47.31832" lon="-2.33277">
        <ele>13.60000038147</ele>
        <time>2020-11-29T09:21:27.000Z</time>
      </trkpt>
      <trkpt lat="47.31837" lon="-2.33271">
        <ele>13.199999809265</ele>
        <time>2020-11-29T09:21:28.000Z</time>
      </trkpt>
      <trkpt lat="47.3185" lon="-2.33238">
        <ele>12.800000190735</ele>
        <time>2020-11-29T09:21:32.000Z</time>
      </trkpt>
      <trkpt lat="47.31852" lon="-2.33229">
        <ele>12.39999961853</ele>
        <time>2020-11-29T09:21:33.000Z</time>
      </trkpt>
      <trkpt lat="47.31854" lon="-2.3322">
        <ele>12</ele>
        <time>2020-11-29T09:21:34.000Z</time>
      </trkpt>
      <trkpt lat="47.31856" lon="-2.33211">
        <ele>11.60000038147</ele>
        <time>2020-11-29T09:21:35.000Z</time>
      </trkpt>
      <trkpt lat="47.31858" lon="-2.332">
        <ele>11.199999809265</ele>
        <time>2020-11-29T09:21:36.000Z</time>
      </trkpt>
      <trkpt lat="47.31865" lon="-2.33132">
        <ele>10.800000190735</ele>
        <time>2020-11-29T09:21:43.000Z</time>
      </trkpt>
      <trkpt lat="47.31867" lon="-2.33122">
        <ele>10.39999961853</ele>
        <time>2020-11-29T09:21:44.000Z</time>
      </trkpt>
      <trkpt lat="47.31868" lon="-2.33111">
        <ele>9.8000001907349</ele>
        <time>2020-11-29T09:21:45.000Z</time>
      </trkpt>
      <trkpt lat="47.31869" lon="-2.331">
        <ele>9.3999996185303</ele>
        <time>2020-11-29T09:21:46.000Z</time>
      </trkpt>
      <trkpt lat="47.31871" lon="-2.33089">
        <ele>9</ele>
        <time>2020-11-29T09:21:47.000Z</time>
      </trkpt>
      <trkpt lat="47.31872" lon="-2.33078">
        <ele>8.6000003814697</ele>
        <time>2020-11-29T09:21:48.000Z</time>
      </trkpt>
      <trkpt lat="47.31872" lon="-2.33068">
        <ele>8.1999998092651</ele>
        <time>2020-11-29T09:21:49.000Z</time>
      </trkpt>
      <trkpt lat="47.31873" lon="-2.33058">
        <ele>7.5999999046326</ele>
        <time>2020-11-29T09:21:50.000Z</time>
      </trkpt>
      <trkpt lat="47.31873" lon="-2.33047">
        <ele>7.1999998092651</ele>
        <time>2020-11-29T09:21:51.000Z</time>
      </trkpt>
      <trkpt lat="47.31874" lon="-2.33038">
        <ele>6.8000001907349</ele>
        <time>2020-11-29T09:21:52.000Z</time>
      </trkpt>
      <trkpt lat="47.31874" lon="-2.33029">
        <ele>6.8000001907349</ele>
        <time>2020-11-29T09:21:53.000Z</time>
      </trkpt>
      <trkpt lat="47.31874" lon="-2.33019">
        <ele>6.8000001907349</ele>
        <time>2020-11-29T09:21:54.000Z</time>
      </trkpt>
      <trkpt lat="47.31875" lon="-2.32983">
        <ele>6.8000001907349</ele>
        <time>2020-11-29T09:21:58.000Z</time>
      </trkpt>
      <trkpt lat="47.31876" lon="-2.32973">
        <ele>6.8000001907349</ele>
        <time>2020-11-29T09:21:59.000Z</time>
      </trkpt>
      <trkpt lat="47.3188" lon="-2.32933">
        <ele>6.8000001907349</ele>
        <time>2020-11-29T09:22:04.000Z</time>
      </trkpt>
      <trkpt lat="47.3188" lon="-2.32925">
        <ele>6.8000001907349</ele>
        <time>2020-11-29T09:22:05.000Z</time>
      </trkpt>
      <trkpt lat="47.31879" lon="-2.32861">
        <ele>6.8000001907349</ele>
        <time>2020-11-29T09:22:12.000Z</time>
      </trkpt>
      <trkpt lat="47.31877" lon="-2.32802">
        <ele>6.8000001907349</ele>
        <time>2020-11-29T09:22:18.000Z</time>
      </trkpt>
      <trkpt lat="47.31876" lon="-2.32775">
        <ele>6.8000001907349</ele>
        <time>2020-11-29T09:22:21.000Z</time>
      </trkpt>
      <trkpt lat="47.31871" lon="-2.32752">
        <ele>6.8000001907349</ele>
        <time>2020-11-29T09:22:24.000Z</time>
      </trkpt>
      <trkpt lat="47.31869" lon="-2.32745">
        <ele>6.8000001907349</ele>
        <time>2020-11-29T09:22:25.000Z</time>
      </trkpt>
      <trkpt lat="47.31867" lon="-2.32739">
        <ele>6.8000001907349</ele>
        <time>2020-11-29T09:22:26.000Z</time>
      </trkpt>
      <trkpt lat="47.31861" lon="-2.32721">
        <ele>6.8000001907349</ele>
        <time>2020-11-29T09:22:29.000Z</time>
      </trkpt>
      <trkpt lat="47.31853" lon="-2.32706">
        <ele>7.1999998092651</ele>
        <time>2020-11-29T09:22:32.000Z</time>
      </trkpt>
      <trkpt lat="47.31851" lon="-2.32701">
        <ele>7.5999999046326</ele>
        <time>2020-11-29T09:22:33.000Z</time>
      </trkpt>
      <trkpt lat="47.31849" lon="-2.32696">
        <ele>8</ele>
        <time>2020-11-29T09:22:34.000Z</time>
      </trkpt>
      <trkpt lat="47.31846" lon="-2.32691">
        <ele>8.3999996185303</ele>
        <time>2020-11-29T09:22:35.000Z</time>
      </trkpt>
      <trkpt lat="47.31844" lon="-2.32686">
        <ele>8.8000001907349</ele>
        <time>2020-11-29T09:22:36.000Z</time>
      </trkpt>
      <trkpt lat="47.31834" lon="-2.32661">
        <ele>8.8000001907349</ele>
        <time>2020-11-29T09:22:42.000Z</time>
      </trkpt>
      <trkpt lat="47.31829" lon="-2.32638">
        <ele>8.8000001907349</ele>
        <time>2020-11-29T09:22:47.000Z</time>
      </trkpt>
      <trkpt lat="47.31825" lon="-2.32615">
        <ele>9.1999998092651</ele>
        <time>2020-11-29T09:22:53.000Z</time>
      </trkpt>
      <trkpt lat="47.31824" lon="-2.32611">
        <ele>9.6000003814697</ele>
        <time>2020-11-29T09:22:54.000Z</time>
      </trkpt>
      <trkpt lat="47.31823" lon="-2.32608">
        <ele>10</ele>
        <time>2020-11-29T09:22:55.000Z</time>
      </trkpt>
      <trkpt lat="47.31822" lon="-2.32604">
        <ele>10.39999961853</ele>
        <time>2020-11-29T09:22:56.000Z</time>
      </trkpt>
      <trkpt lat="47.31822" lon="-2.326">
        <ele>10.800000190735</ele>
        <time>2020-11-29T09:22:57.000Z</time>
      </trkpt>
      <trkpt lat="47.3182" lon="-2.32589">
        <ele>10.800000190735</ele>
        <time>2020-11-29T09:23:00.000Z</time>
      </trkpt>
      <trkpt lat="47.31815" lon="-2.32564">
        <ele>10.800000190735</ele>
        <time>2020-11-29T09:23:06.000Z</time>
      </trkpt>
      <trkpt lat="47.31811" lon="-2.32548">
        <ele>10.800000190735</ele>
        <time>2020-11-29T09:23:11.000Z</time>
      </trkpt>
      <trkpt lat="47.3181" lon="-2.32544">
        <ele>11.199999809265</ele>
        <time>2020-11-29T09:23:12.000Z</time>
      </trkpt>
      <trkpt lat="47.3181" lon="-2.32541">
        <ele>11.800000190735</ele>
        <time>2020-11-29T09:23:13.000Z</time>
      </trkpt>
      <trkpt lat="47.31809" lon="-2.32538">
        <ele>12.199999809265</ele>
        <time>2020-11-29T09:23:14.000Z</time>
      </trkpt>
      <trkpt lat="47.31808" lon="-2.32534">
        <ele>12.60000038147</ele>
        <time>2020-11-29T09:23:15.000Z</time>
      </trkpt>
      <trkpt lat="47.31807" lon="-2.3253">
        <ele>13</ele>
        <time>2020-11-29T09:23:16.000Z</time>
      </trkpt>
      <trkpt lat="47.31805" lon="-2.3252">
        <ele>13</ele>
        <time>2020-11-29T09:23:19.000Z</time>
      </trkpt>
      <trkpt lat="47.31799" lon="-2.32487">
        <ele>13</ele>
        <time>2020-11-29T09:23:28.000Z</time>
      </trkpt>
      <trkpt lat="47.31798" lon="-2.32485">
        <ele>13.39999961853</ele>
        <time>2020-11-29T09:23:29.000Z</time>
      </trkpt>
      <trkpt lat="47.31798" lon="-2.32483">
        <ele>13.800000190735</ele>
        <time>2020-11-29T09:23:30.000Z</time>
      </trkpt>
      <trkpt lat="47.31798" lon="-2.32481">
        <ele>14.199999809265</ele>
        <time>2020-11-29T09:23:31.000Z</time>
      </trkpt>
      <trkpt lat="47.31797" lon="-2.32478">
        <ele>14.60000038147</ele>
        <time>2020-11-29T09:23:32.000Z</time>
      </trkpt>
      <trkpt lat="47.31797" lon="-2.32476">
        <ele>15</ele>
        <time>2020-11-29T09:23:33.000Z</time>
      </trkpt>
      <trkpt lat="47.31796" lon="-2.32468">
        <ele>15</ele>
        <time>2020-11-29T09:23:36.000Z</time>
      </trkpt>
      <trkpt lat="47.31795" lon="-2.32457">
        <ele>15.39999961853</ele>
        <time>2020-11-29T09:23:39.000Z</time>
      </trkpt>
      <trkpt lat="47.31794" lon="-2.32451">
        <ele>16</ele>
        <time>2020-11-29T09:23:40.000Z</time>
      </trkpt>
      <trkpt lat="47.31792" lon="-2.32445">
        <ele>16.39999961853</ele>
        <time>2020-11-29T09:23:41.000Z</time>
      </trkpt>
      <trkpt lat="47.31792" lon="-2.3244">
        <ele>16.799999237061</ele>
        <time>2020-11-29T09:23:42.000Z</time>
      </trkpt>
      <trkpt lat="47.31791" lon="-2.32435">
        <ele>17.200000762939</ele>
        <time>2020-11-29T09:23:43.000Z</time>
      </trkpt>
      <trkpt lat="47.31787" lon="-2.32419">
        <ele>17.200000762939</ele>
        <time>2020-11-29T09:23:47.000Z</time>
      </trkpt>
      <trkpt lat="47.31783" lon="-2.324">
        <ele>17.60000038147</ele>
        <time>2020-11-29T09:23:52.000Z</time>
      </trkpt>
      <trkpt lat="47.31782" lon="-2.32396">
        <ele>18.200000762939</ele>
        <time>2020-11-29T09:23:53.000Z</time>
      </trkpt>
      <trkpt lat="47.31782" lon="-2.32391">
        <ele>18.60000038147</ele>
        <time>2020-11-29T09:23:54.000Z</time>
      </trkpt>
      <trkpt lat="47.31781" lon="-2.32387">
        <ele>19</ele>
        <time>2020-11-29T09:23:55.000Z</time>
      </trkpt>
      <trkpt lat="47.31779" lon="-2.32382">
        <ele>19.39999961853</ele>
        <time>2020-11-29T09:23:56.000Z</time>
      </trkpt>
      <trkpt lat="47.31775" lon="-2.32363">
        <ele>19.39999961853</ele>
        <time>2020-11-29T09:24:00.000Z</time>
      </trkpt>
      <trkpt lat="47.31768" lon="-2.3233">
        <ele>19.39999961853</ele>
        <time>2020-11-29T09:24:07.000Z</time>
      </trkpt>
      <trkpt lat="47.31762" lon="-2.32298">
        <ele>19.799999237061</ele>
        <time>2020-11-29T09:24:13.000Z</time>
      </trkpt>
      <trkpt lat="47.31761" lon="-2.32293">
        <ele>20.200000762939</ele>
        <time>2020-11-29T09:24:14.000Z</time>
      </trkpt>
      <trkpt lat="47.3176" lon="-2.32288">
        <ele>21.200000762939</ele>
        <time>2020-11-29T09:24:15.000Z</time>
      </trkpt>
      <trkpt lat="47.31759" lon="-2.32283">
        <ele>21.60000038147</ele>
        <time>2020-11-29T09:24:16.000Z</time>
      </trkpt>
      <trkpt lat="47.31756" lon="-2.32264">
        <ele>21.60000038147</ele>
        <time>2020-11-29T09:24:20.000Z</time>
      </trkpt>
      <trkpt lat="47.31752" lon="-2.3224">
        <ele>21.60000038147</ele>
        <time>2020-11-29T09:24:25.000Z</time>
      </trkpt>
      <trkpt lat="47.31753" lon="-2.32236">
        <ele>21.60000038147</ele>
        <time>2020-11-29T09:24:26.000Z</time>
      </trkpt>
      <trkpt lat="47.31759" lon="-2.32232">
        <ele>21.60000038147</ele>
        <time>2020-11-29T09:24:28.000Z</time>
      </trkpt>
      <trkpt lat="47.31765" lon="-2.3223">
        <ele>21.60000038147</ele>
        <time>2020-11-29T09:24:30.000Z</time>
      </trkpt>
      <trkpt lat="47.31782" lon="-2.32228">
        <ele>21.60000038147</ele>
        <time>2020-11-29T09:24:34.000Z</time>
      </trkpt>
      <trkpt lat="47.31819" lon="-2.32223">
        <ele>21.60000038147</ele>
        <time>2020-11-29T09:24:42.000Z</time>
      </trkpt>
      <trkpt lat="47.31847" lon="-2.32217">
        <ele>21.60000038147</ele>
        <time>2020-11-29T09:24:47.000Z</time>
      </trkpt>
      <trkpt lat="47.31853" lon="-2.32215">
        <ele>21.200000762939</ele>
        <time>2020-11-29T09:24:48.000Z</time>
      </trkpt>
      <trkpt lat="47.3186" lon="-2.32213">
        <ele>20.60000038147</ele>
        <time>2020-11-29T09:24:49.000Z</time>
      </trkpt>
      <trkpt lat="47.31866" lon="-2.32211">
        <ele>20.200000762939</ele>
        <time>2020-11-29T09:24:50.000Z</time>
      </trkpt>
      <trkpt lat="47.31873" lon="-2.32209">
        <ele>19.799999237061</ele>
        <time>2020-11-29T09:24:51.000Z</time>
      </trkpt>
      <trkpt lat="47.3188" lon="-2.32207">
        <ele>19.39999961853</ele>
        <time>2020-11-29T09:24:52.000Z</time>
      </trkpt>
      <trkpt lat="47.31886" lon="-2.32206">
        <ele>18.799999237061</ele>
        <time>2020-11-29T09:24:53.000Z</time>
      </trkpt>
      <trkpt lat="47.31893" lon="-2.32204">
        <ele>18.39999961853</ele>
        <time>2020-11-29T09:24:54.000Z</time>
      </trkpt>
      <trkpt lat="47.31898" lon="-2.32203">
        <ele>18</ele>
        <time>2020-11-29T09:24:55.000Z</time>
      </trkpt>
      <trkpt lat="47.31904" lon="-2.32202">
        <ele>17.60000038147</ele>
        <time>2020-11-29T09:24:56.000Z</time>
      </trkpt>
      <trkpt lat="47.3191" lon="-2.32203">
        <ele>17.200000762939</ele>
        <time>2020-11-29T09:24:57.000Z</time>
      </trkpt>
      <trkpt lat="47.31916" lon="-2.32203">
        <ele>17.200000762939</ele>
        <time>2020-11-29T09:24:58.000Z</time>
      </trkpt>
      <trkpt lat="47.31922" lon="-2.32204">
        <ele>16.60000038147</ele>
        <time>2020-11-29T09:24:59.000Z</time>
      </trkpt>
      <trkpt lat="47.31929" lon="-2.32206">
        <ele>16.200000762939</ele>
        <time>2020-11-29T09:25:00.000Z</time>
      </trkpt>
      <trkpt lat="47.31935" lon="-2.32208">
        <ele>15.800000190735</ele>
        <time>2020-11-29T09:25:01.000Z</time>
      </trkpt>
      <trkpt lat="47.3194" lon="-2.32209">
        <ele>15.199999809265</ele>
        <time>2020-11-29T09:25:02.000Z</time>
      </trkpt>
      <trkpt lat="47.31945" lon="-2.32211">
        <ele>14.60000038147</ele>
        <time>2020-11-29T09:25:03.000Z</time>
      </trkpt>
      <trkpt lat="47.3195" lon="-2.32212">
        <ele>13.60000038147</ele>
        <time>2020-11-29T09:25:04.000Z</time>
      </trkpt>
      <trkpt lat="47.31954" lon="-2.32214">
        <ele>13</ele>
        <time>2020-11-29T09:25:05.000Z</time>
      </trkpt>
      <trkpt lat="47.31957" lon="-2.32217">
        <ele>12.39999961853</ele>
        <time>2020-11-29T09:25:06.000Z</time>
      </trkpt>
      <trkpt lat="47.31959" lon="-2.32221">
        <ele>11.800000190735</ele>
        <time>2020-11-29T09:25:07.000Z</time>
      </trkpt>
      <trkpt lat="47.31959" lon="-2.32225">
        <ele>11.39999961853</ele>
        <time>2020-11-29T09:25:08.000Z</time>
      </trkpt>
      <trkpt lat="47.31958" lon="-2.3223">
        <ele>10.800000190735</ele>
        <time>2020-11-29T09:25:09.000Z</time>
      </trkpt>
      <trkpt lat="47.31957" lon="-2.32234">
        <ele>10.199999809265</ele>
        <time>2020-11-29T09:25:10.000Z</time>
      </trkpt>
      <trkpt lat="47.31954" lon="-2.32243">
        <ele>10.199999809265</ele>
        <time>2020-11-29T09:25:12.000Z</time>
      </trkpt>
      <trkpt lat="47.31953" lon="-2.32261">
        <ele>10.199999809265</ele>
        <time>2020-11-29T09:25:16.000Z</time>
      </trkpt>
      <trkpt lat="47.31959" lon="-2.32262">
        <ele>10.199999809265</ele>
        <time>2020-11-29T09:25:18.000Z</time>
      </trkpt>
      <trkpt lat="47.31962" lon="-2.32259">
        <ele>9.8000001907349</ele>
        <time>2020-11-29T09:25:19.000Z</time>
      </trkpt>
      <trkpt lat="47.31965" lon="-2.32253">
        <ele>9.3999996185303</ele>
        <time>2020-11-29T09:25:20.000Z</time>
      </trkpt>
      <trkpt lat="47.31969" lon="-2.32246">
        <ele>8.8000001907349</ele>
        <time>2020-11-29T09:25:21.000Z</time>
      </trkpt>
      <trkpt lat="47.31973" lon="-2.3224">
        <ele>8.3999996185303</ele>
        <time>2020-11-29T09:25:22.000Z</time>
      </trkpt>
      <trkpt lat="47.31978" lon="-2.32233">
        <ele>8</ele>
        <time>2020-11-29T09:25:23.000Z</time>
      </trkpt>
      <trkpt lat="47.31983" lon="-2.32226">
        <ele>8</ele>
        <time>2020-11-29T09:25:24.000Z</time>
      </trkpt>
      <trkpt lat="47.31988" lon="-2.32219">
        <ele>8</ele>
        <time>2020-11-29T09:25:25.000Z</time>
      </trkpt>
      <trkpt lat="47.31993" lon="-2.32211">
        <ele>7.5999999046326</ele>
        <time>2020-11-29T09:25:26.000Z</time>
      </trkpt>
      <trkpt lat="47.31997" lon="-2.32203">
        <ele>7</ele>
        <time>2020-11-29T09:25:27.000Z</time>
      </trkpt>
      <trkpt lat="47.32001" lon="-2.32195">
        <ele>6.1999998092651</ele>
        <time>2020-11-29T09:25:28.000Z</time>
      </trkpt>
      <trkpt lat="47.32005" lon="-2.32188">
        <ele>5.8000001907349</ele>
        <time>2020-11-29T09:25:29.000Z</time>
      </trkpt>
      <trkpt lat="47.32022" lon="-2.32176">
        <ele>5.8000001907349</ele>
        <time>2020-11-29T09:25:32.000Z</time>
      </trkpt>
      <trkpt lat="47.32029" lon="-2.32176">
        <ele>5.8000001907349</ele>
        <time>2020-11-29T09:25:33.000Z</time>
      </trkpt>
      <trkpt lat="47.32049" lon="-2.32179">
        <ele>5.4000000953674</ele>
        <time>2020-11-29T09:25:36.000Z</time>
      </trkpt>
      <trkpt lat="47.32056" lon="-2.32179">
        <ele>4.8000001907349</ele>
        <time>2020-11-29T09:25:37.000Z</time>
      </trkpt>
      <trkpt lat="47.32063" lon="-2.32179">
        <ele>4.4000000953674</ele>
        <time>2020-11-29T09:25:38.000Z</time>
      </trkpt>
      <trkpt lat="47.3207" lon="-2.32179">
        <ele>4</ele>
        <time>2020-11-29T09:25:39.000Z</time>
      </trkpt>
      <trkpt lat="47.32078" lon="-2.32179">
        <ele>3.5999999046326</ele>
        <time>2020-11-29T09:25:40.000Z</time>
      </trkpt>
      <trkpt lat="47.32119" lon="-2.32174">
        <ele>3.5999999046326</ele>
        <time>2020-11-29T09:25:46.000Z</time>
      </trkpt>
      <trkpt lat="47.32125" lon="-2.32171">
        <ele>3.5999999046326</ele>
        <time>2020-11-29T09:25:47.000Z</time>
      </trkpt>
      <trkpt lat="47.32143" lon="-2.32161">
        <ele>3.2000000476837</ele>
        <time>2020-11-29T09:25:50.000Z</time>
      </trkpt>
      <trkpt lat="47.32149" lon="-2.32156">
        <ele>2.7999999523163</ele>
        <time>2020-11-29T09:25:51.000Z</time>
      </trkpt>
      <trkpt lat="47.32154" lon="-2.32152">
        <ele>2.4000000953674</ele>
        <time>2020-11-29T09:25:52.000Z</time>
      </trkpt>
      <trkpt lat="47.32158" lon="-2.32147">
        <ele>1.6000000238419</ele>
        <time>2020-11-29T09:25:53.000Z</time>
      </trkpt>
      <trkpt lat="47.32176" lon="-2.32131">
        <ele>1.6000000238419</ele>
        <time>2020-11-29T09:25:57.000Z</time>
      </trkpt>
      <trkpt lat="47.32198" lon="-2.32113">
        <ele>1.6000000238419</ele>
        <time>2020-11-29T09:26:03.000Z</time>
      </trkpt>
      <trkpt lat="47.32213" lon="-2.32111">
        <ele>1.6000000238419</ele>
        <time>2020-11-29T09:26:07.000Z</time>
      </trkpt>
      <trkpt lat="47.32248" lon="-2.32104">
        <ele>1.6000000238419</ele>
        <time>2020-11-29T09:26:14.000Z</time>
      </trkpt>
      <trkpt lat="47.32282" lon="-2.32099">
        <ele>1.6000000238419</ele>
        <time>2020-11-29T09:26:21.000Z</time>
      </trkpt>
      <trkpt lat="47.32307" lon="-2.32098">
        <ele>2</ele>
        <time>2020-11-29T09:26:26.000Z</time>
      </trkpt>
      <trkpt lat="47.32312" lon="-2.32098">
        <ele>2.4000000953674</ele>
        <time>2020-11-29T09:26:27.000Z</time>
      </trkpt>
      <trkpt lat="47.32317" lon="-2.32099">
        <ele>2.7999999523163</ele>
        <time>2020-11-29T09:26:28.000Z</time>
      </trkpt>
      <trkpt lat="47.32322" lon="-2.321">
        <ele>3.2000000476837</ele>
        <time>2020-11-29T09:26:29.000Z</time>
      </trkpt>
      <trkpt lat="47.32327" lon="-2.32101">
        <ele>3.5999999046326</ele>
        <time>2020-11-29T09:26:30.000Z</time>
      </trkpt>
      <trkpt lat="47.32343" lon="-2.32104">
        <ele>3.5999999046326</ele>
        <time>2020-11-29T09:26:34.000Z</time>
      </trkpt>
      <trkpt lat="47.32347" lon="-2.32103">
        <ele>3.2000000476837</ele>
        <time>2020-11-29T09:26:36.000Z</time>
      </trkpt>
      <trkpt lat="47.3235" lon="-2.32104">
        <ele>2.7999999523163</ele>
        <time>2020-11-29T09:26:37.000Z</time>
      </trkpt>
      <trkpt lat="47.32354" lon="-2.32105">
        <ele>2.4000000953674</ele>
        <time>2020-11-29T09:26:38.000Z</time>
      </trkpt>
      <trkpt lat="47.32358" lon="-2.32106">
        <ele>2</ele>
        <time>2020-11-29T09:26:39.000Z</time>
      </trkpt>
      <trkpt lat="47.32363" lon="-2.32106">
        <ele>1.6000000238419</ele>
        <time>2020-11-29T09:26:40.000Z</time>
      </trkpt>
      <trkpt lat="47.32378" lon="-2.32107">
        <ele>1.6000000238419</ele>
        <time>2020-11-29T09:26:43.000Z</time>
      </trkpt>
      <trkpt lat="47.32417" lon="-2.32104">
        <ele>1.6000000238419</ele>
        <time>2020-11-29T09:26:50.000Z</time>
      </trkpt>
      <trkpt lat="47.32459" lon="-2.32099">
        <ele>1.6000000238419</ele>
        <time>2020-11-29T09:26:57.000Z</time>
      </trkpt>
      <trkpt lat="47.32506" lon="-2.32096">
        <ele>1.6000000238419</ele>
        <time>2020-11-29T09:27:05.000Z</time>
      </trkpt>
      <trkpt lat="47.32524" lon="-2.32095">
        <ele>2</ele>
        <time>2020-11-29T09:27:08.000Z</time>
      </trkpt>
      <trkpt lat="47.32529" lon="-2.32095">
        <ele>2.4000000953674</ele>
        <time>2020-11-29T09:27:09.000Z</time>
      </trkpt>
      <trkpt lat="47.32535" lon="-2.32094">
        <ele>2.7999999523163</ele>
        <time>2020-11-29T09:27:10.000Z</time>
      </trkpt>
      <trkpt lat="47.32541" lon="-2.32094">
        <ele>3.2000000476837</ele>
        <time>2020-11-29T09:27:11.000Z</time>
      </trkpt>
      <trkpt lat="47.32546" lon="-2.32094">
        <ele>3.5999999046326</ele>
        <time>2020-11-29T09:27:12.000Z</time>
      </trkpt>
      <trkpt lat="47.3258" lon="-2.32093">
        <ele>3.5999999046326</ele>
        <time>2020-11-29T09:27:18.000Z</time>
      </trkpt>
      <trkpt lat="47.32593" lon="-2.32106">
        <ele>3.5999999046326</ele>
        <time>2020-11-29T09:27:21.000Z</time>
      </trkpt>
      <trkpt lat="47.32595" lon="-2.32113">
        <ele>3.2000000476837</ele>
        <time>2020-11-29T09:27:22.000Z</time>
      </trkpt>
      <trkpt lat="47.32595" lon="-2.32121">
        <ele>2.7999999523163</ele>
        <time>2020-11-29T09:27:23.000Z</time>
      </trkpt>
      <trkpt lat="47.32593" lon="-2.32131">
        <ele>2.4000000953674</ele>
        <time>2020-11-29T09:27:24.000Z</time>
      </trkpt>
      <trkpt lat="47.3259" lon="-2.32142">
        <ele>2</ele>
        <time>2020-11-29T09:27:25.000Z</time>
      </trkpt>
      <trkpt lat="47.32587" lon="-2.32152">
        <ele>1.6000000238419</ele>
        <time>2020-11-29T09:27:26.000Z</time>
      </trkpt>
      <trkpt lat="47.3258" lon="-2.32173">
        <ele>1.6000000238419</ele>
        <time>2020-11-29T09:27:28.000Z</time>
      </trkpt>
      <trkpt lat="47.32562" lon="-2.32227">
        <ele>1.6000000238419</ele>
        <time>2020-11-29T09:27:33.000Z</time>
      </trkpt>
      <trkpt lat="47.32559" lon="-2.32236">
        <ele>1.2000000476837</ele>
        <time>2020-11-29T09:27:34.000Z</time>
      </trkpt>
      <trkpt lat="47.32556" lon="-2.32245">
        <ele>0.60000002384186</ele>
        <time>2020-11-29T09:27:35.000Z</time>
      </trkpt>
      <trkpt lat="47.32552" lon="-2.32254">
        <ele>0.20000000298023</ele>
        <time>2020-11-29T09:27:36.000Z</time>
      </trkpt>
      <trkpt lat="47.32549" lon="-2.32262">
        <ele>-0.20000000298023</ele>
        <time>2020-11-29T09:27:37.000Z</time>
      </trkpt>
      <trkpt lat="47.32546" lon="-2.3227">
        <ele>-0.60000002384186</ele>
        <time>2020-11-29T09:27:38.000Z</time>
      </trkpt>
      <trkpt lat="47.32539" lon="-2.32296">
        <ele>-0.60000002384186</ele>
        <time>2020-11-29T09:27:42.000Z</time>
      </trkpt>
      <trkpt lat="47.32538" lon="-2.32302">
        <ele>-0.60000002384186</ele>
        <time>2020-11-29T09:27:43.000Z</time>
      </trkpt>
      <trkpt lat="47.32541" lon="-2.32313">
        <ele>-0.20000000298023</ele>
        <time>2020-11-29T09:27:45.000Z</time>
      </trkpt>
      <trkpt lat="47.32544" lon="-2.32315">
        <ele>0.40000000596046</ele>
        <time>2020-11-29T09:27:46.000Z</time>
      </trkpt>
      <trkpt lat="47.32548" lon="-2.32315">
        <ele>0.80000001192093</ele>
        <time>2020-11-29T09:27:47.000Z</time>
      </trkpt>
      <trkpt lat="47.32553" lon="-2.32315">
        <ele>1.3999999761581</ele>
        <time>2020-11-29T09:27:48.000Z</time>
      </trkpt>
      <trkpt lat="47.32558" lon="-2.32314">
        <ele>1.7999999523163</ele>
        <time>2020-11-29T09:27:49.000Z</time>
      </trkpt>
      <trkpt lat="47.32591" lon="-2.3231">
        <ele>1.7999999523163</ele>
        <time>2020-11-29T09:27:55.000Z</time>
      </trkpt>
      <trkpt lat="47.32626" lon="-2.32309">
        <ele>1.7999999523163</ele>
        <time>2020-11-29T09:28:01.000Z</time>
      </trkpt>
      <trkpt lat="47.32675" lon="-2.32317">
        <ele>1.7999999523163</ele>
        <time>2020-11-29T09:28:09.000Z</time>
      </trkpt>
      <trkpt lat="47.32726" lon="-2.32336">
        <ele>1.7999999523163</ele>
        <time>2020-11-29T09:28:17.000Z</time>
      </trkpt>
      <trkpt lat="47.32771" lon="-2.32363">
        <ele>1.7999999523163</ele>
        <time>2020-11-29T09:28:24.000Z</time>
      </trkpt>
      <trkpt lat="47.32794" lon="-2.32378">
        <ele>1.3999999761581</ele>
        <time>2020-11-29T09:28:28.000Z</time>
      </trkpt>
      <trkpt lat="47.32801" lon="-2.32384">
        <ele>1</ele>
        <time>2020-11-29T09:28:29.000Z</time>
      </trkpt>
      <trkpt lat="47.32807" lon="-2.3239">
        <ele>0.60000002384186</ele>
        <time>2020-11-29T09:28:30.000Z</time>
      </trkpt>
      <trkpt lat="47.32812" lon="-2.32396">
        <ele>0.20000000298023</ele>
        <time>2020-11-29T09:28:31.000Z</time>
      </trkpt>
      <trkpt lat="47.32818" lon="-2.32403">
        <ele>-0.20000000298023</ele>
        <time>2020-11-29T09:28:32.000Z</time>
      </trkpt>
      <trkpt lat="47.32835" lon="-2.3242">
        <ele>-0.20000000298023</ele>
        <time>2020-11-29T09:28:35.000Z</time>
      </trkpt>
      <trkpt lat="47.32854" lon="-2.32433">
        <ele>-0.20000000298023</ele>
        <time>2020-11-29T09:28:38.000Z</time>
      </trkpt>
      <trkpt lat="47.32897" lon="-2.32463">
        <ele>-0.20000000298023</ele>
        <time>2020-11-29T09:28:45.000Z</time>
      </trkpt>
      <trkpt lat="47.32909" lon="-2.32488">
        <ele>-0.20000000298023</ele>
        <time>2020-11-29T09:28:48.000Z</time>
      </trkpt>
      <trkpt lat="47.32915" lon="-2.32515">
        <ele>-0.20000000298023</ele>
        <time>2020-11-29T09:28:51.000Z</time>
      </trkpt>
      <trkpt lat="47.3292" lon="-2.32533">
        <ele>-0.20000000298023</ele>
        <time>2020-11-29T09:28:53.000Z</time>
      </trkpt>
      <trkpt lat="47.32921" lon="-2.32542">
        <ele>-0.20000000298023</ele>
        <time>2020-11-29T09:28:54.000Z</time>
      </trkpt>
      <trkpt lat="47.32921" lon="-2.32571">
        <ele>-0.20000000298023</ele>
        <time>2020-11-29T09:28:57.000Z</time>
      </trkpt>
      <trkpt lat="47.32921" lon="-2.32581">
        <ele>-0.20000000298023</ele>
        <time>2020-11-29T09:28:58.000Z</time>
      </trkpt>
      <trkpt lat="47.32919" lon="-2.32628">
        <ele>-0.20000000298023</ele>
        <time>2020-11-29T09:29:03.000Z</time>
      </trkpt>
      <trkpt lat="47.3292" lon="-2.32635">
        <ele>-0.20000000298023</ele>
        <time>2020-11-29T09:29:04.000Z</time>
      </trkpt>
      <trkpt lat="47.32926" lon="-2.32647">
        <ele>-0.20000000298023</ele>
        <time>2020-11-29T09:29:06.000Z</time>
      </trkpt>
      <trkpt lat="47.32942" lon="-2.32652">
        <ele>-0.20000000298023</ele>
        <time>2020-11-29T09:29:09.000Z</time>
      </trkpt>
      <trkpt lat="47.32957" lon="-2.32646">
        <ele>-0.20000000298023</ele>
        <time>2020-11-29T09:29:12.000Z</time>
      </trkpt>
      <trkpt lat="47.32962" lon="-2.32644">
        <ele>-0.60000002384186</ele>
        <time>2020-11-29T09:29:13.000Z</time>
      </trkpt>
      <trkpt lat="47.32967" lon="-2.32642">
        <ele>-1</ele>
        <time>2020-11-29T09:29:14.000Z</time>
      </trkpt>
      <trkpt lat="47.32972" lon="-2.32639">
        <ele>-1.3999999761581</ele>
        <time>2020-11-29T09:29:15.000Z</time>
      </trkpt>
      <trkpt lat="47.32977" lon="-2.32635">
        <ele>-1.7999999523163</ele>
        <time>2020-11-29T09:29:16.000Z</time>
      </trkpt>
      <trkpt lat="47.32983" lon="-2.32631">
        <ele>-2.2000000476837</ele>
        <time>2020-11-29T09:29:17.000Z</time>
      </trkpt>
      <trkpt lat="47.32987" lon="-2.32627">
        <ele>-2.2000000476837</ele>
        <time>2020-11-29T09:29:18.000Z</time>
      </trkpt>
      <trkpt lat="47.32991" lon="-2.32624">
        <ele>-2.2000000476837</ele>
        <time>2020-11-29T09:29:19.000Z</time>
      </trkpt>
      <trkpt lat="47.33007" lon="-2.3263">
        <ele>-2.2000000476837</ele>
        <time>2020-11-29T09:29:22.000Z</time>
      </trkpt>
      <trkpt lat="47.33013" lon="-2.32633">
        <ele>-3</ele>
        <time>2020-11-29T09:29:23.000Z</time>
      </trkpt>
      <trkpt lat="47.33019" lon="-2.32635">
        <ele>-3.4000000953674</ele>
        <time>2020-11-29T09:29:24.000Z</time>
      </trkpt>
      <trkpt lat="47.33026" lon="-2.32636">
        <ele>-3.7999999523163</ele>
        <time>2020-11-29T09:29:25.000Z</time>
      </trkpt>
      <trkpt lat="47.33032" lon="-2.32634">
        <ele>-4.1999998092651</ele>
        <time>2020-11-29T09:29:26.000Z</time>
      </trkpt>
      <trkpt lat="47.33038" lon="-2.3263">
        <ele>-4.1999998092651</ele>
        <time>2020-11-29T09:29:27.000Z</time>
      </trkpt>
      <trkpt lat="47.33048" lon="-2.32622">
        <ele>-4.1999998092651</ele>
        <time>2020-11-29T09:29:29.000Z</time>
      </trkpt>
      <trkpt lat="47.33069" lon="-2.32606">
        <ele>-4.1999998092651</ele>
        <time>2020-11-29T09:29:33.000Z</time>
      </trkpt>
      <trkpt lat="47.33074" lon="-2.32602">
        <ele>-4.1999998092651</ele>
        <time>2020-11-29T09:29:34.000Z</time>
      </trkpt>
      <trkpt lat="47.33078" lon="-2.32597">
        <ele>-3.7999999523163</ele>
        <time>2020-11-29T09:29:35.000Z</time>
      </trkpt>
      <trkpt lat="47.33083" lon="-2.32592">
        <ele>-3.4000000953674</ele>
        <time>2020-11-29T09:29:36.000Z</time>
      </trkpt>
      <trkpt lat="47.33088" lon="-2.32588">
        <ele>-3</ele>
        <time>2020-11-29T09:29:37.000Z</time>
      </trkpt>
      <trkpt lat="47.33093" lon="-2.32583">
        <ele>-2.4000000953674</ele>
        <time>2020-11-29T09:29:38.000Z</time>
      </trkpt>
      <trkpt lat="47.33099" lon="-2.32578">
        <ele>-2</ele>
        <time>2020-11-29T09:29:39.000Z</time>
      </trkpt>
      <trkpt lat="47.33121" lon="-2.32559">
        <ele>-2</ele>
        <time>2020-11-29T09:29:43.000Z</time>
      </trkpt>
      <trkpt lat="47.33149" lon="-2.32538">
        <ele>-2</ele>
        <time>2020-11-29T09:29:48.000Z</time>
      </trkpt>
      <trkpt lat="47.33161" lon="-2.3253">
        <ele>-1.6000000238419</ele>
        <time>2020-11-29T09:29:50.000Z</time>
      </trkpt>
      <trkpt lat="47.33166" lon="-2.32526">
        <ele>-1.2000000476837</ele>
        <time>2020-11-29T09:29:51.000Z</time>
      </trkpt>
      <trkpt lat="47.33172" lon="-2.32523">
        <ele>-0.80000001192093</ele>
        <time>2020-11-29T09:29:52.000Z</time>
      </trkpt>
      <trkpt lat="47.33177" lon="-2.32521">
        <ele>-0.40000000596046</ele>
        <time>2020-11-29T09:29:53.000Z</time>
      </trkpt>
      <trkpt lat="47.33183" lon="-2.32519">
        <ele>7.9</ele>
        <time>2020-11-29T09:29:54.000Z</time>
      </trkpt>
      <trkpt lat="47.33221" lon="-2.32504">
        <ele>8.1</ele>
        <time>2020-11-29T09:30:00.000Z</time>
      </trkpt>
      <trkpt lat="47.33258" lon="-2.32487">
        <ele>8.5</ele>
        <time>2020-11-29T09:30:06.000Z</time>
      </trkpt>
      <trkpt lat="47.33294" lon="-2.32469">
        <ele>8</ele>
        <time>2020-11-29T09:30:12.000Z</time>
      </trkpt>
      <trkpt lat="47.33314" lon="-2.32458">
        <ele>7.8</ele>
        <time>2020-11-29T09:30:16.000Z</time>
      </trkpt>
      <trkpt lat="47.33319" lon="-2.32457">
        <ele>7.7</ele>
        <time>2020-11-29T09:30:17.000Z</time>
      </trkpt>
      <trkpt lat="47.33338" lon="-2.32447">
        <ele>7.1</ele>
        <time>2020-11-29T09:30:21.000Z</time>
      </trkpt>
      <trkpt lat="47.33342" lon="-2.32442">
        <ele>7</ele>
        <time>2020-11-29T09:30:22.000Z</time>
      </trkpt>
      <trkpt lat="47.33359" lon="-2.32416">
        <ele>7</ele>
        <time>2020-11-29T09:30:26.000Z</time>
      </trkpt>
      <trkpt lat="47.33374" lon="-2.32399">
        <ele>6.4</ele>
        <time>2020-11-29T09:30:29.000Z</time>
      </trkpt>
      <trkpt lat="47.33386" lon="-2.32389">
        <ele>6</ele>
        <time>2020-11-29T09:30:31.000Z</time>
      </trkpt>
      <trkpt lat="47.33437" lon="-2.32348">
        <ele>5.5</ele>
        <time>2020-11-29T09:30:39.000Z</time>
      </trkpt>
      <trkpt lat="47.33444" lon="-2.32343">
        <ele>5.4</ele>
        <time>2020-11-29T09:30:40.000Z</time>
      </trkpt>
      <trkpt lat="47.33451" lon="-2.3234">
        <ele>-0.40000000596046</ele>
        <time>2020-11-29T09:30:41.000Z</time>
      </trkpt>
      <trkpt lat="47.33457" lon="-2.32336">
        <ele>-1</ele>
        <time>2020-11-29T09:30:42.000Z</time>
      </trkpt>
      <trkpt lat="47.33464" lon="-2.32332">
        <ele>-1.3999999761581</ele>
        <time>2020-11-29T09:30:43.000Z</time>
      </trkpt>
      <trkpt lat="47.33471" lon="-2.32328">
        <ele>-1.7999999523163</ele>
        <time>2020-11-29T09:30:44.000Z</time>
      </trkpt>
      <trkpt lat="47.33478" lon="-2.32325">
        <ele>-2.2000000476837</ele>
        <time>2020-11-29T09:30:45.000Z</time>
      </trkpt>
      <trkpt lat="47.33485" lon="-2.32321">
        <ele>-2.2000000476837</ele>
        <time>2020-11-29T09:30:46.000Z</time>
      </trkpt>
      <trkpt lat="47.33517" lon="-2.32307">
        <ele>-2.2000000476837</ele>
        <time>2020-11-29T09:30:51.000Z</time>
      </trkpt>
      <trkpt lat="47.3354" lon="-2.32302">
        <ele>-2.2000000476837</ele>
        <time>2020-11-29T09:30:55.000Z</time>
      </trkpt>
      <trkpt lat="47.33545" lon="-2.32302">
        <ele>-2.2000000476837</ele>
        <time>2020-11-29T09:30:56.000Z</time>
      </trkpt>
      <trkpt lat="47.33551" lon="-2.32301">
        <ele>-2.2000000476837</ele>
        <time>2020-11-29T09:30:57.000Z</time>
      </trkpt>
      <trkpt lat="47.33563" lon="-2.32297">
        <ele>-1.7999999523163</ele>
        <time>2020-11-29T09:30:59.000Z</time>
      </trkpt>
      <trkpt lat="47.33569" lon="-2.32295">
        <ele>-1.2000000476837</ele>
        <time>2020-11-29T09:31:00.000Z</time>
      </trkpt>
      <trkpt lat="47.33575" lon="-2.32293">
        <ele>-0.80000001192093</ele>
        <time>2020-11-29T09:31:01.000Z</time>
      </trkpt>
      <trkpt lat="47.33582" lon="-2.32291">
        <ele>8</ele>
        <time>2020-11-29T09:31:02.000Z</time>
      </trkpt>
      <trkpt lat="47.33614" lon="-2.32286">
        <ele>8.3</ele>
        <time>2020-11-29T09:31:07.000Z</time>
      </trkpt>
      <trkpt lat="47.33652" lon="-2.32276">
        <ele>8</ele>
        <time>2020-11-29T09:31:13.000Z</time>
      </trkpt>
      <trkpt lat="47.33691" lon="-2.32257">
        <ele>7.2</ele>
        <time>2020-11-29T09:31:19.000Z</time>
      </trkpt>
      <trkpt lat="47.33723" lon="-2.32238">
        <ele>7.6</ele>
        <time>2020-11-29T09:31:24.000Z</time>
      </trkpt>
      <trkpt lat="47.33767" lon="-2.32213">
        <ele>7.4</ele>
        <time>2020-11-29T09:31:31.000Z</time>
      </trkpt>
      <trkpt lat="47.33812" lon="-2.32201">
        <ele>6.8</ele>
        <time>2020-11-29T09:31:38.000Z</time>
      </trkpt>
      <trkpt lat="47.33849" lon="-2.32196">
        <ele>6</ele>
        <time>2020-11-29T09:31:44.000Z</time>
      </trkpt>
      <trkpt lat="47.33889" lon="-2.32195">
        <ele>6</ele>
        <time>2020-11-29T09:31:50.000Z</time>
      </trkpt>
      <trkpt lat="47.339" lon="-2.32198">
        <ele>-0.40000000596046</ele>
        <time>2020-11-29T09:31:52.000Z</time>
      </trkpt>
      <trkpt lat="47.33906" lon="-2.32198">
        <ele>-0.80000001192093</ele>
        <time>2020-11-29T09:31:53.000Z</time>
      </trkpt>
      <trkpt lat="47.33911" lon="-2.32197">
        <ele>-1.2000000476837</ele>
        <time>2020-11-29T09:31:54.000Z</time>
      </trkpt>
      <trkpt lat="47.33917" lon="-2.32197">
        <ele>-1.7999999523163</ele>
        <time>2020-11-29T09:31:55.000Z</time>
      </trkpt>
      <trkpt lat="47.33922" lon="-2.32197">
        <ele>-2.2000000476837</ele>
        <time>2020-11-29T09:31:56.000Z</time>
      </trkpt>
      <trkpt lat="47.33935" lon="-2.32197">
        <ele>-2.2000000476837</ele>
        <time>2020-11-29T09:31:59.000Z</time>
      </trkpt>
      <trkpt lat="47.33939" lon="-2.32198">
        <ele>-2.2000000476837</ele>
        <time>2020-11-29T09:32:00.000Z</time>
      </trkpt>
      <trkpt lat="47.33944" lon="-2.32199">
        <ele>-2.2000000476837</ele>
        <time>2020-11-29T09:32:04.000Z</time>
      </trkpt>
      <trkpt lat="47.33946" lon="-2.32201">
        <ele>-2.2000000476837</ele>
        <time>2020-11-29T09:32:06.000Z</time>
      </trkpt>
      <trkpt lat="47.33951" lon="-2.32207">
        <ele>-2.2000000476837</ele>
        <time>2020-11-29T09:32:09.000Z</time>
      </trkpt>
      <trkpt lat="47.33965" lon="-2.32215">
        <ele>-2.2000000476837</ele>
        <time>2020-11-29T09:32:15.000Z</time>
      </trkpt>
      <trkpt lat="47.33978" lon="-2.32214">
        <ele>-2.2000000476837</ele>
        <time>2020-11-29T09:32:21.000Z</time>
      </trkpt>
      <trkpt lat="47.3399" lon="-2.32213">
        <ele>-2.2000000476837</ele>
        <time>2020-11-29T09:32:28.000Z</time>
      </trkpt>
      <trkpt lat="47.34009" lon="-2.32214">
        <ele>-2.2000000476837</ele>
        <time>2020-11-29T09:32:36.000Z</time>
      </trkpt>
      <trkpt lat="47.34028" lon="-2.32214">
        <ele>-2.2000000476837</ele>
        <time>2020-11-29T09:32:43.000Z</time>
      </trkpt>
      <trkpt lat="47.34056" lon="-2.32216">
        <ele>-2.2000000476837</ele>
        <time>2020-11-29T09:32:51.000Z</time>
      </trkpt>
      <trkpt lat="47.34073" lon="-2.32225">
        <ele>-2.2000000476837</ele>
        <time>2020-11-29T09:32:56.000Z</time>
      </trkpt>
      <trkpt lat="47.3409" lon="-2.32249">
        <ele>-2.2000000476837</ele>
        <time>2020-11-29T09:33:02.000Z</time>
      </trkpt>
      <trkpt lat="47.34092" lon="-2.32259">
        <ele>-1.7999999523163</ele>
        <time>2020-11-29T09:33:04.000Z</time>
      </trkpt>
      <trkpt lat="47.34093" lon="-2.32264">
        <ele>-1.3999999761581</ele>
        <time>2020-11-29T09:33:05.000Z</time>
      </trkpt>
      <trkpt lat="47.34094" lon="-2.32269">
        <ele>-0.60000002384186</ele>
        <time>2020-11-29T09:33:06.000Z</time>
      </trkpt>
      <trkpt lat="47.34095" lon="-2.32274">
        <ele>-0.20000000298023</ele>
        <time>2020-11-29T09:33:07.000Z</time>
      </trkpt>
      <trkpt lat="47.34103" lon="-2.32313">
        <ele>-0.20000000298023</ele>
        <time>2020-11-29T09:33:14.000Z</time>
      </trkpt>
      <trkpt lat="47.34108" lon="-2.32328">
        <ele>0.20000000298023</ele>
        <time>2020-11-29T09:33:17.000Z</time>
      </trkpt>
      <trkpt lat="47.34109" lon="-2.32333">
        <ele>0.60000002384186</ele>
        <time>2020-11-29T09:33:18.000Z</time>
      </trkpt>
      <trkpt lat="47.3411" lon="-2.32339">
        <ele>1</ele>
        <time>2020-11-29T09:33:19.000Z</time>
      </trkpt>
      <trkpt lat="47.34111" lon="-2.32343">
        <ele>1.3999999761581</ele>
        <time>2020-11-29T09:33:20.000Z</time>
      </trkpt>
      <trkpt lat="47.34112" lon="-2.32348">
        <ele>1.7999999523163</ele>
        <time>2020-11-29T09:33:21.000Z</time>
      </trkpt>
      <trkpt lat="47.34119" lon="-2.32373">
        <ele>1.7999999523163</ele>
        <time>2020-11-29T09:33:26.000Z</time>
      </trkpt>
      <trkpt lat="47.34131" lon="-2.32412">
        <ele>1.7999999523163</ele>
        <time>2020-11-29T09:33:33.000Z</time>
      </trkpt>
      <trkpt lat="47.34132" lon="-2.32418">
        <ele>2.2000000476837</ele>
        <time>2020-11-29T09:33:34.000Z</time>
      </trkpt>
      <trkpt lat="47.34134" lon="-2.32424">
        <ele>2.5999999046326</ele>
        <time>2020-11-29T09:33:35.000Z</time>
      </trkpt>
      <trkpt lat="47.34136" lon="-2.3243">
        <ele>3.2000000476837</ele>
        <time>2020-11-29T09:33:36.000Z</time>
      </trkpt>
      <trkpt lat="47.34137" lon="-2.32435">
        <ele>3.5999999046326</ele>
        <time>2020-11-29T09:33:37.000Z</time>
      </trkpt>
      <trkpt lat="47.34139" lon="-2.32441">
        <ele>4</ele>
        <time>2020-11-29T09:33:38.000Z</time>
      </trkpt>
      <trkpt lat="47.34143" lon="-2.32453">
        <ele>4</ele>
        <time>2020-11-29T09:33:40.000Z</time>
      </trkpt>
      <trkpt lat="47.34153" lon="-2.32502">
        <ele>4</ele>
        <time>2020-11-29T09:33:48.000Z</time>
      </trkpt>
      <trkpt lat="47.34156" lon="-2.32541">
        <ele>4</ele>
        <time>2020-11-29T09:33:55.000Z</time>
      </trkpt>
      <trkpt lat="47.34158" lon="-2.32568">
        <ele>4</ele>
        <time>2020-11-29T09:34:01.000Z</time>
      </trkpt>
      <trkpt lat="47.34164" lon="-2.32577">
        <ele>4</ele>
        <time>2020-11-29T09:34:04.000Z</time>
      </trkpt>
      <trkpt lat="47.34168" lon="-2.32578">
        <ele>4</ele>
        <time>2020-11-29T09:34:05.000Z</time>
      </trkpt>
      <trkpt lat="47.34194" lon="-2.32574">
        <ele>4</ele>
        <time>2020-11-29T09:34:11.000Z</time>
      </trkpt>
      <trkpt lat="47.34202" lon="-2.32573">
        <ele>4</ele>
        <time>2020-11-29T09:34:13.000Z</time>
      </trkpt>
      <trkpt lat="47.34223" lon="-2.32569">
        <ele>4</ele>
        <time>2020-11-29T09:34:18.000Z</time>
      </trkpt>
      <trkpt lat="47.34264" lon="-2.32559">
        <ele>4</ele>
        <time>2020-11-29T09:34:27.000Z</time>
      </trkpt>
      <trkpt lat="47.343" lon="-2.32551">
        <ele>4</ele>
        <time>2020-11-29T09:34:35.000Z</time>
      </trkpt>
      <trkpt lat="47.34328" lon="-2.32539">
        <ele>4</ele>
        <time>2020-11-29T09:34:41.000Z</time>
      </trkpt>
      <trkpt lat="47.34332" lon="-2.32536">
        <ele>4</ele>
        <time>2020-11-29T09:34:42.000Z</time>
      </trkpt>
      <trkpt lat="47.34354" lon="-2.32508">
        <ele>4</ele>
        <time>2020-11-29T09:34:48.000Z</time>
      </trkpt>
      <trkpt lat="47.34366" lon="-2.32485">
        <ele>3.5999999046326</ele>
        <time>2020-11-29T09:34:52.000Z</time>
      </trkpt>
      <trkpt lat="47.34369" lon="-2.32479">
        <ele>3.2000000476837</ele>
        <time>2020-11-29T09:34:53.000Z</time>
      </trkpt>
      <trkpt lat="47.34372" lon="-2.32473">
        <ele>2.7999999523163</ele>
        <time>2020-11-29T09:34:54.000Z</time>
      </trkpt>
      <trkpt lat="47.34375" lon="-2.32467">
        <ele>2.4000000953674</ele>
        <time>2020-11-29T09:34:55.000Z</time>
      </trkpt>
      <trkpt lat="47.34378" lon="-2.32462">
        <ele>2</ele>
        <time>2020-11-29T09:34:56.000Z</time>
      </trkpt>
      <trkpt lat="47.34392" lon="-2.32432">
        <ele>2</ele>
        <time>2020-11-29T09:35:01.000Z</time>
      </trkpt>
      <trkpt lat="47.34395" lon="-2.32427">
        <ele>2</ele>
        <time>2020-11-29T09:35:02.000Z</time>
      </trkpt>
      <trkpt lat="47.34417" lon="-2.32395">
        <ele>2</ele>
        <time>2020-11-29T09:35:08.000Z</time>
      </trkpt>
      <trkpt lat="47.34457" lon="-2.32353">
        <ele>2</ele>
        <time>2020-11-29T09:35:18.000Z</time>
      </trkpt>
      <trkpt lat="47.34484" lon="-2.32326">
        <ele>2</ele>
        <time>2020-11-29T09:35:25.000Z</time>
      </trkpt>
      <trkpt lat="47.34515" lon="-2.32295">
        <ele>2</ele>
        <time>2020-11-29T09:35:33.000Z</time>
      </trkpt>
      <trkpt lat="47.34542" lon="-2.32272">
        <ele>2</ele>
        <time>2020-11-29T09:35:39.000Z</time>
      </trkpt>
      <trkpt lat="47.34575" lon="-2.32244">
        <ele>2</ele>
        <time>2020-11-29T09:35:46.000Z</time>
      </trkpt>
      <trkpt lat="47.34608" lon="-2.32216">
        <ele>2</ele>
        <time>2020-11-29T09:35:53.000Z</time>
      </trkpt>
      <trkpt lat="47.34618" lon="-2.32208">
        <ele>1.3999999761581</ele>
        <time>2020-11-29T09:35:55.000Z</time>
      </trkpt>
      <trkpt lat="47.34622" lon="-2.32204">
        <ele>1</ele>
        <time>2020-11-29T09:35:56.000Z</time>
      </trkpt>
      <trkpt lat="47.34626" lon="-2.322">
        <ele>0.60000002384186</ele>
        <time>2020-11-29T09:35:57.000Z</time>
      </trkpt>
      <trkpt lat="47.3463" lon="-2.32196">
        <ele>0.20000000298023</ele>
        <time>2020-11-29T09:35:58.000Z</time>
      </trkpt>
      <trkpt lat="47.34635" lon="-2.32192">
        <ele>-0.40000000596046</ele>
        <time>2020-11-29T09:35:59.000Z</time>
      </trkpt>
      <trkpt lat="47.34665" lon="-2.32164">
        <ele>-0.80000001192093</ele>
        <time>2020-11-29T09:36:06.000Z</time>
      </trkpt>
      <trkpt lat="47.34669" lon="-2.3216">
        <ele>-1.2000000476837</ele>
        <time>2020-11-29T09:36:07.000Z</time>
      </trkpt>
      <trkpt lat="47.34673" lon="-2.32157">
        <ele>-1.6000000238419</ele>
        <time>2020-11-29T09:36:08.000Z</time>
      </trkpt>
      <trkpt lat="47.34678" lon="-2.32153">
        <ele>-2</ele>
        <time>2020-11-29T09:36:09.000Z</time>
      </trkpt>
      <trkpt lat="47.34682" lon="-2.32149">
        <ele>-2.4000000953674</ele>
        <time>2020-11-29T09:36:10.000Z</time>
      </trkpt>
      <trkpt lat="47.34696" lon="-2.32139">
        <ele>-2.4000000953674</ele>
        <time>2020-11-29T09:36:13.000Z</time>
      </trkpt>
      <trkpt lat="47.34726" lon="-2.32111">
        <ele>-2.4000000953674</ele>
        <time>2020-11-29T09:36:21.000Z</time>
      </trkpt>
      <trkpt lat="47.34731" lon="-2.32107">
        <ele>-2.7999999523163</ele>
        <time>2020-11-29T09:36:23.000Z</time>
      </trkpt>
      <trkpt lat="47.34733" lon="-2.32106">
        <ele>-3.2000000476837</ele>
        <time>2020-11-29T09:36:24.000Z</time>
      </trkpt>
      <trkpt lat="47.34735" lon="-2.32105">
        <ele>-3.5999999046326</ele>
        <time>2020-11-29T09:36:25.000Z</time>
      </trkpt>
      <trkpt lat="47.34736" lon="-2.32104">
        <ele>-4</ele>
        <time>2020-11-29T09:36:26.000Z</time>
      </trkpt>
      <trkpt lat="47.34737" lon="-2.32103">
        <ele>-4.4000000953674</ele>
        <time>2020-11-29T09:36:27.000Z</time>
      </trkpt>
      <trkpt lat="47.34743" lon="-2.32094">
        <ele>-4.4000000953674</ele>
        <time>2020-11-29T09:36:33.000Z</time>
      </trkpt>
      <trkpt lat="47.34749" lon="-2.32089">
        <ele>-4.4000000953674</ele>
        <time>2020-11-29T09:36:38.000Z</time>
      </trkpt>
      <trkpt lat="47.34749" lon="-2.32089">
        <ele>-4.4000000953674</ele>
        <time>2020-11-29T09:36:39.000Z</time>
      </trkpt>
      <trkpt lat="47.34746" lon="-2.32111">
        <ele>-4.4000000953674</ele>
        <time>2020-11-29T09:53:55.000Z</time>
      </trkpt>
      <trkpt lat="47.34748" lon="-2.32119">
        <ele>-4.4000000953674</ele>
        <time>2020-11-29T09:53:57.000Z</time>
      </trkpt>
      <trkpt lat="47.34751" lon="-2.32127">
        <ele>-4.4000000953674</ele>
        <time>2020-11-29T09:53:59.000Z</time>
      </trkpt>
      <trkpt lat="47.34755" lon="-2.32139">
        <ele>-4.4000000953674</ele>
        <time>2020-11-29T09:54:02.000Z</time>
      </trkpt>
      <trkpt lat="47.34765" lon="-2.32164">
        <ele>-4.4000000953674</ele>
        <time>2020-11-29T09:54:07.000Z</time>
      </trkpt>
      <trkpt lat="47.3477" lon="-2.32185">
        <ele>-4.4000000953674</ele>
        <time>2020-11-29T09:54:10.000Z</time>
      </trkpt>
      <trkpt lat="47.34771" lon="-2.322">
        <ele>-4.4000000953674</ele>
        <time>2020-11-29T09:54:12.000Z</time>
      </trkpt>
      <trkpt lat="47.34772" lon="-2.32207">
        <ele>-4</ele>
        <time>2020-11-29T09:54:13.000Z</time>
      </trkpt>
      <trkpt lat="47.34771" lon="-2.32216">
        <ele>-3.5999999046326</ele>
        <time>2020-11-29T09:54:14.000Z</time>
      </trkpt>
      <trkpt lat="47.3477" lon="-2.32225">
        <ele>-3.2000000476837</ele>
        <time>2020-11-29T09:54:15.000Z</time>
      </trkpt>
      <trkpt lat="47.34769" lon="-2.32231">
        <ele>-2.7999999523163</ele>
        <time>2020-11-29T09:54:16.000Z</time>
      </trkpt>
      <trkpt lat="47.34766" lon="-2.32237">
        <ele>-2.4000000953674</ele>
        <time>2020-11-29T09:54:17.000Z</time>
      </trkpt>
      <trkpt lat="47.34747" lon="-2.3228">
        <ele>-2.4000000953674</ele>
        <time>2020-11-29T09:54:24.000Z</time>
      </trkpt>
      <trkpt lat="47.34734" lon="-2.32308">
        <ele>-2</ele>
        <time>2020-11-29T09:54:29.000Z</time>
      </trkpt>
      <trkpt lat="47.34732" lon="-2.32313">
        <ele>-1.3999999761581</ele>
        <time>2020-11-29T09:54:30.000Z</time>
      </trkpt>
      <trkpt lat="47.34729" lon="-2.32317">
        <ele>-1</ele>
        <time>2020-11-29T09:54:31.000Z</time>
      </trkpt>
      <trkpt lat="47.34727" lon="-2.32322">
        <ele>-0.60000002384186</ele>
        <time>2020-11-29T09:54:32.000Z</time>
      </trkpt>
      <trkpt lat="47.34725" lon="-2.32326">
        <ele>-0.20000000298023</ele>
        <time>2020-11-29T09:54:33.000Z</time>
      </trkpt>
      <trkpt lat="47.34715" lon="-2.3235">
        <ele>-0.20000000298023</ele>
        <time>2020-11-29T09:54:38.000Z</time>
      </trkpt>
      <trkpt lat="47.34707" lon="-2.32382">
        <ele>0.20000000298023</ele>
        <time>2020-11-29T09:54:44.000Z</time>
      </trkpt>
      <trkpt lat="47.34705" lon="-2.32388">
        <ele>0.60000002384186</ele>
        <time>2020-11-29T09:54:45.000Z</time>
      </trkpt>
      <trkpt lat="47.34703" lon="-2.32393">
        <ele>1</ele>
        <time>2020-11-29T09:54:46.000Z</time>
      </trkpt>
      <trkpt lat="47.34702" lon="-2.324">
        <ele>1.3999999761581</ele>
        <time>2020-11-29T09:54:47.000Z</time>
      </trkpt>
      <trkpt lat="47.347" lon="-2.32405">
        <ele>1.7999999523163</ele>
        <time>2020-11-29T09:54:48.000Z</time>
      </trkpt>
      <trkpt lat="47.34695" lon="-2.32423">
        <ele>1.7999999523163</ele>
        <time>2020-11-29T09:54:51.000Z</time>
      </trkpt>
      <trkpt lat="47.34684" lon="-2.32469">
        <ele>1.7999999523163</ele>
        <time>2020-11-29T09:54:59.000Z</time>
      </trkpt>
      <trkpt lat="47.34682" lon="-2.32475">
        <ele>1.7999999523163</ele>
        <time>2020-11-29T09:55:00.000Z</time>
      </trkpt>
      <trkpt lat="47.34673" lon="-2.32506">
        <ele>1.7999999523163</ele>
        <time>2020-11-29T09:55:04.000Z</time>
      </trkpt>
      <trkpt lat="47.34657" lon="-2.32554">
        <ele>1.2000000476837</ele>
        <time>2020-11-29T09:55:10.000Z</time>
      </trkpt>
      <trkpt lat="47.34654" lon="-2.32562">
        <ele>0.80000001192093</ele>
        <time>2020-11-29T09:55:11.000Z</time>
      </trkpt>
      <trkpt lat="47.3465" lon="-2.3257">
        <ele>0.40000000596046</ele>
        <time>2020-11-29T09:55:12.000Z</time>
      </trkpt>
      <trkpt lat="47.34646" lon="-2.32578">
        <ele>-0.40000000596046</ele>
        <time>2020-11-29T09:55:13.000Z</time>
      </trkpt>
      <trkpt lat="47.34636" lon="-2.326">
        <ele>-0.40000000596046</ele>
        <time>2020-11-29T09:55:16.000Z</time>
      </trkpt>
      <trkpt lat="47.34611" lon="-2.3264">
        <ele>-0.40000000596046</ele>
        <time>2020-11-29T09:55:22.000Z</time>
      </trkpt>
      <trkpt lat="47.34589" lon="-2.3266">
        <ele>-0.40000000596046</ele>
        <time>2020-11-29T09:55:27.000Z</time>
      </trkpt>
      <trkpt lat="47.34581" lon="-2.32666">
        <ele>7.1</ele>
        <time>2020-11-29T09:55:29.000Z</time>
      </trkpt>
      <trkpt lat="47.34578" lon="-2.3267">
        <ele>0.40000000596046</ele>
        <time>2020-11-29T09:55:30.000Z</time>
      </trkpt>
      <trkpt lat="47.34574" lon="-2.32673">
        <ele>0.80000001192093</ele>
        <time>2020-11-29T09:55:31.000Z</time>
      </trkpt>
      <trkpt lat="47.3457" lon="-2.32676">
        <ele>1.2000000476837</ele>
        <time>2020-11-29T09:55:32.000Z</time>
      </trkpt>
      <trkpt lat="47.34567" lon="-2.32679">
        <ele>1.7999999523163</ele>
        <time>2020-11-29T09:55:33.000Z</time>
      </trkpt>
      <trkpt lat="47.34563" lon="-2.32683">
        <ele>1.7999999523163</ele>
        <time>2020-11-29T09:55:34.000Z</time>
      </trkpt>
      <trkpt lat="47.34545" lon="-2.32697">
        <ele>1.7999999523163</ele>
        <time>2020-11-29T09:55:38.000Z</time>
      </trkpt>
      <trkpt lat="47.34537" lon="-2.32702">
        <ele>2.2000000476837</ele>
        <time>2020-11-29T09:55:40.000Z</time>
      </trkpt>
      <trkpt lat="47.34532" lon="-2.32705">
        <ele>2.5999999046326</ele>
        <time>2020-11-29T09:55:41.000Z</time>
      </trkpt>
      <trkpt lat="47.34528" lon="-2.32708">
        <ele>3</ele>
        <time>2020-11-29T09:55:42.000Z</time>
      </trkpt>
      <trkpt lat="47.34524" lon="-2.3271">
        <ele>3.4000000953674</ele>
        <time>2020-11-29T09:55:43.000Z</time>
      </trkpt>
      <trkpt lat="47.3452" lon="-2.32713">
        <ele>3.7999999523163</ele>
        <time>2020-11-29T09:55:44.000Z</time>
      </trkpt>
      <trkpt lat="47.34504" lon="-2.32725">
        <ele>3.7999999523163</ele>
        <time>2020-11-29T09:55:48.000Z</time>
      </trkpt>
      <trkpt lat="47.34495" lon="-2.32731">
        <ele>3.7999999523163</ele>
        <time>2020-11-29T09:55:50.000Z</time>
      </trkpt>
      <trkpt lat="47.34482" lon="-2.32739">
        <ele>3.7999999523163</ele>
        <time>2020-11-29T09:55:53.000Z</time>
      </trkpt>
      <trkpt lat="47.34463" lon="-2.32751">
        <ele>3.7999999523163</ele>
        <time>2020-11-29T09:55:58.000Z</time>
      </trkpt>
      <trkpt lat="47.34459" lon="-2.32757">
        <ele>3.7999999523163</ele>
        <time>2020-11-29T09:55:59.000Z</time>
      </trkpt>
      <trkpt lat="47.34457" lon="-2.32778">
        <ele>3.7999999523163</ele>
        <time>2020-11-29T09:56:02.000Z</time>
      </trkpt>
      <trkpt lat="47.3446" lon="-2.32803">
        <ele>3.7999999523163</ele>
        <time>2020-11-29T09:56:05.000Z</time>
      </trkpt>
      <trkpt lat="47.34461" lon="-2.3281">
        <ele>3.7999999523163</ele>
        <time>2020-11-29T09:56:06.000Z</time>
      </trkpt>
      <trkpt lat="47.34461" lon="-2.32817">
        <ele>3.4000000953674</ele>
        <time>2020-11-29T09:56:07.000Z</time>
      </trkpt>
      <trkpt lat="47.34459" lon="-2.32824">
        <ele>2.7999999523163</ele>
        <time>2020-11-29T09:56:08.000Z</time>
      </trkpt>
      <trkpt lat="47.34457" lon="-2.3283">
        <ele>2.4000000953674</ele>
        <time>2020-11-29T09:56:09.000Z</time>
      </trkpt>
      <trkpt lat="47.34454" lon="-2.32834">
        <ele>2</ele>
        <time>2020-11-29T09:56:10.000Z</time>
      </trkpt>
      <trkpt lat="47.3445" lon="-2.32837">
        <ele>1.3999999761581</ele>
        <time>2020-11-29T09:56:11.000Z</time>
      </trkpt>
      <trkpt lat="47.34447" lon="-2.3284">
        <ele>1.3999999761581</ele>
        <time>2020-11-29T09:56:12.000Z</time>
      </trkpt>
      <trkpt lat="47.34443" lon="-2.32844">
        <ele>1.3999999761581</ele>
        <time>2020-11-29T09:56:13.000Z</time>
      </trkpt>
      <trkpt lat="47.34427" lon="-2.32852">
        <ele>1.3999999761581</ele>
        <time>2020-11-29T09:56:17.000Z</time>
      </trkpt>
      <trkpt lat="47.34421" lon="-2.32857">
        <ele>1.3999999761581</ele>
        <time>2020-11-29T09:56:18.000Z</time>
      </trkpt>
      <trkpt lat="47.34407" lon="-2.32867">
        <ele>1.3999999761581</ele>
        <time>2020-11-29T09:56:21.000Z</time>
      </trkpt>
      <trkpt lat="47.34374" lon="-2.32895">
        <ele>1.3999999761581</ele>
        <time>2020-11-29T09:56:28.000Z</time>
      </trkpt>
      <trkpt lat="47.34359" lon="-2.32913">
        <ele>1</ele>
        <time>2020-11-29T09:56:33.000Z</time>
      </trkpt>
      <trkpt lat="47.34358" lon="-2.32917">
        <ele>0.60000002384186</ele>
        <time>2020-11-29T09:56:34.000Z</time>
      </trkpt>
      <trkpt lat="47.34359" lon="-2.32922">
        <ele>0.20000000298023</ele>
        <time>2020-11-29T09:56:35.000Z</time>
      </trkpt>
      <trkpt lat="47.3436" lon="-2.32928">
        <ele>-0.20000000298023</ele>
        <time>2020-11-29T09:56:36.000Z</time>
      </trkpt>
      <trkpt lat="47.34361" lon="-2.32934">
        <ele>-0.60000002384186</ele>
        <time>2020-11-29T09:56:37.000Z</time>
      </trkpt>
      <trkpt lat="47.34373" lon="-2.32979">
        <ele>-0.60000002384186</ele>
        <time>2020-11-29T09:56:44.000Z</time>
      </trkpt>
      <trkpt lat="47.34375" lon="-2.32994">
        <ele>-0.60000002384186</ele>
        <time>2020-11-29T09:56:46.000Z</time>
      </trkpt>
      <trkpt lat="47.34376" lon="-2.33012">
        <ele>-0.60000002384186</ele>
        <time>2020-11-29T09:56:49.000Z</time>
      </trkpt>
      <trkpt lat="47.34377" lon="-2.3303">
        <ele>-0.60000002384186</ele>
        <time>2020-11-29T09:56:54.000Z</time>
      </trkpt>
      <trkpt lat="47.34377" lon="-2.33046">
        <ele>-0.60000002384186</ele>
        <time>2020-11-29T09:57:00.000Z</time>
      </trkpt>
      <trkpt lat="47.34378" lon="-2.3306">
        <ele>-0.60000002384186</ele>
        <time>2020-11-29T09:57:07.000Z</time>
      </trkpt>
      <trkpt lat="47.34376" lon="-2.33067">
        <ele>-0.60000002384186</ele>
        <time>2020-11-29T09:57:58.000Z</time>
      </trkpt>
      <trkpt lat="47.34378" lon="-2.33066">
        <ele>-0.60000002384186</ele>
        <time>2020-11-29T09:58:00.000Z</time>
      </trkpt>
      <trkpt lat="47.34379" lon="-2.33064">
        <ele>-0.60000002384186</ele>
        <time>2020-11-29T09:58:03.000Z</time>
      </trkpt>
      <trkpt lat="47.34371" lon="-2.33045">
        <ele>-0.60000002384186</ele>
        <time>2020-11-29T09:58:18.000Z</time>
      </trkpt>
      <trkpt lat="47.34368" lon="-2.33046">
        <ele>-0.60000002384186</ele>
        <time>2020-11-29T09:58:20.000Z</time>
      </trkpt>
      <trkpt lat="47.34354" lon="-2.33048">
        <ele>-0.60000002384186</ele>
        <time>2020-11-29T09:58:27.000Z</time>
      </trkpt>
      <trkpt lat="47.34335" lon="-2.33056">
        <ele>-0.60000002384186</ele>
        <time>2020-11-29T09:58:32.000Z</time>
      </trkpt>
      <trkpt lat="47.34317" lon="-2.33062">
        <ele>-0.60000002384186</ele>
        <time>2020-11-29T09:58:36.000Z</time>
      </trkpt>
      <trkpt lat="47.34306" lon="-2.33063">
        <ele>-0.60000002384186</ele>
        <time>2020-11-29T09:58:38.000Z</time>
      </trkpt>
      <trkpt lat="47.34282" lon="-2.33075">
        <ele>-0.60000002384186</ele>
        <time>2020-11-29T09:58:44.000Z</time>
      </trkpt>
      <trkpt lat="47.34272" lon="-2.33081">
        <ele>-0.60000002384186</ele>
        <time>2020-11-29T09:58:46.000Z</time>
      </trkpt>
      <trkpt lat="47.34265" lon="-2.33089">
        <ele>-0.60000002384186</ele>
        <time>2020-11-29T09:58:48.000Z</time>
      </trkpt>
      <trkpt lat="47.34261" lon="-2.33093">
        <ele>-0.60000002384186</ele>
        <time>2020-11-29T09:58:49.000Z</time>
      </trkpt>
      <trkpt lat="47.34259" lon="-2.33099">
        <ele>-0.60000002384186</ele>
        <time>2020-11-29T09:58:50.000Z</time>
      </trkpt>
      <trkpt lat="47.34247" lon="-2.33134">
        <ele>-0.60000002384186</ele>
        <time>2020-11-29T09:58:55.000Z</time>
      </trkpt>
      <trkpt lat="47.34233" lon="-2.3318">
        <ele>-0.60000002384186</ele>
        <time>2020-11-29T09:59:02.000Z</time>
      </trkpt>
      <trkpt lat="47.34219" lon="-2.33222">
        <ele>-0.60000002384186</ele>
        <time>2020-11-29T09:59:09.000Z</time>
      </trkpt>
      <trkpt lat="47.34205" lon="-2.33266">
        <ele>-0.60000002384186</ele>
        <time>2020-11-29T09:59:16.000Z</time>
      </trkpt>
      <trkpt lat="47.34201" lon="-2.33284">
        <ele>-0.20000000298023</ele>
        <time>2020-11-29T09:59:19.000Z</time>
      </trkpt>
      <trkpt lat="47.34199" lon="-2.33289">
        <ele>0.20000000298023</ele>
        <time>2020-11-29T09:59:20.000Z</time>
      </trkpt>
      <trkpt lat="47.34197" lon="-2.33296">
        <ele>0.60000002384186</ele>
        <time>2020-11-29T09:59:21.000Z</time>
      </trkpt>
      <trkpt lat="47.34194" lon="-2.33303">
        <ele>1</ele>
        <time>2020-11-29T09:59:22.000Z</time>
      </trkpt>
      <trkpt lat="47.34192" lon="-2.33311">
        <ele>1.3999999761581</ele>
        <time>2020-11-29T09:59:23.000Z</time>
      </trkpt>
      <trkpt lat="47.34188" lon="-2.33324">
        <ele>1.3999999761581</ele>
        <time>2020-11-29T09:59:25.000Z</time>
      </trkpt>
      <trkpt lat="47.34172" lon="-2.33376">
        <ele>1.3999999761581</ele>
        <time>2020-11-29T09:59:33.000Z</time>
      </trkpt>
      <trkpt lat="47.34165" lon="-2.33395">
        <ele>1.3999999761581</ele>
        <time>2020-11-29T09:59:36.000Z</time>
      </trkpt>
      <trkpt lat="47.3416" lon="-2.33407">
        <ele>1.3999999761581</ele>
        <time>2020-11-29T09:59:38.000Z</time>
      </trkpt>
      <trkpt lat="47.34153" lon="-2.33419">
        <ele>1.3999999761581</ele>
        <time>2020-11-29T09:59:40.000Z</time>
      </trkpt>
      <trkpt lat="47.34135" lon="-2.33448">
        <ele>1.3999999761581</ele>
        <time>2020-11-29T09:59:46.000Z</time>
      </trkpt>
      <trkpt lat="47.34128" lon="-2.33456">
        <ele>1.7999999523163</ele>
        <time>2020-11-29T09:59:48.000Z</time>
      </trkpt>
      <trkpt lat="47.34126" lon="-2.3346">
        <ele>2.2000000476837</ele>
        <time>2020-11-29T09:59:49.000Z</time>
      </trkpt>
      <trkpt lat="47.34123" lon="-2.33462">
        <ele>2.7999999523163</ele>
        <time>2020-11-29T09:59:50.000Z</time>
      </trkpt>
      <trkpt lat="47.34122" lon="-2.33464">
        <ele>3.2000000476837</ele>
        <time>2020-11-29T09:59:51.000Z</time>
      </trkpt>
      <trkpt lat="47.34121" lon="-2.33465">
        <ele>3.5999999046326</ele>
        <time>2020-11-29T09:59:52.000Z</time>
      </trkpt>
      <trkpt lat="47.34119" lon="-2.33466">
        <ele>3.5999999046326</ele>
        <time>2020-11-29T09:59:54.000Z</time>
      </trkpt>
      <trkpt lat="47.3412" lon="-2.33474">
        <ele>3.5999999046326</ele>
        <time>2020-11-29T10:00:06.000Z</time>
      </trkpt>
      <trkpt lat="47.34119" lon="-2.33476">
        <ele>3.5999999046326</ele>
        <time>2020-11-29T10:00:07.000Z</time>
      </trkpt>
      <trkpt lat="47.34106" lon="-2.33485">
        <ele>3.5999999046326</ele>
        <time>2020-11-29T10:00:11.000Z</time>
      </trkpt>
      <trkpt lat="47.34091" lon="-2.33506">
        <ele>3.5999999046326</ele>
        <time>2020-11-29T10:00:15.000Z</time>
      </trkpt>
      <trkpt lat="47.34087" lon="-2.33512">
        <ele>3.5999999046326</ele>
        <time>2020-11-29T10:00:16.000Z</time>
      </trkpt>
      <trkpt lat="47.34071" lon="-2.33541">
        <ele>3.5999999046326</ele>
        <time>2020-11-29T10:00:21.000Z</time>
      </trkpt>
      <trkpt lat="47.3405" lon="-2.33574">
        <ele>3.5999999046326</ele>
        <time>2020-11-29T10:00:27.000Z</time>
      </trkpt>
      <trkpt lat="47.34047" lon="-2.33579">
        <ele>4</ele>
        <time>2020-11-29T10:00:28.000Z</time>
      </trkpt>
      <trkpt lat="47.34044" lon="-2.33585">
        <ele>4.4000000953674</ele>
        <time>2020-11-29T10:00:29.000Z</time>
      </trkpt>
      <trkpt lat="47.34041" lon="-2.33591">
        <ele>4.8000001907349</ele>
        <time>2020-11-29T10:00:30.000Z</time>
      </trkpt>
      <trkpt lat="47.34037" lon="-2.33597">
        <ele>5.1999998092651</ele>
        <time>2020-11-29T10:00:31.000Z</time>
      </trkpt>
      <trkpt lat="47.34034" lon="-2.33604">
        <ele>5.5999999046326</ele>
        <time>2020-11-29T10:00:32.000Z</time>
      </trkpt>
      <trkpt lat="47.34011" lon="-2.33641">
        <ele>5.5999999046326</ele>
        <time>2020-11-29T10:00:38.000Z</time>
      </trkpt>
      <trkpt lat="47.3399" lon="-2.33677">
        <ele>5.5999999046326</ele>
        <time>2020-11-29T10:00:44.000Z</time>
      </trkpt>
      <trkpt lat="47.33984" lon="-2.33689">
        <ele>5.5999999046326</ele>
        <time>2020-11-29T10:00:46.000Z</time>
      </trkpt>
      <trkpt lat="47.33974" lon="-2.33707">
        <ele>5.5999999046326</ele>
        <time>2020-11-29T10:00:49.000Z</time>
      </trkpt>
      <trkpt lat="47.33956" lon="-2.33747">
        <ele>5.5999999046326</ele>
        <time>2020-11-29T10:00:56.000Z</time>
      </trkpt>
      <trkpt lat="47.33953" lon="-2.33753">
        <ele>6</ele>
        <time>2020-11-29T10:00:57.000Z</time>
      </trkpt>
      <trkpt lat="47.3395" lon="-2.33759">
        <ele>6.4000000953674</ele>
        <time>2020-11-29T10:00:58.000Z</time>
      </trkpt>
      <trkpt lat="47.33947" lon="-2.33765">
        <ele>7.1999998092651</ele>
        <time>2020-11-29T10:00:59.000Z</time>
      </trkpt>
      <trkpt lat="47.33943" lon="-2.33772">
        <ele>7.5999999046326</ele>
        <time>2020-11-29T10:01:00.000Z</time>
      </trkpt>
      <trkpt lat="47.33936" lon="-2.33785">
        <ele>7.5999999046326</ele>
        <time>2020-11-29T10:01:02.000Z</time>
      </trkpt>
      <trkpt lat="47.33911" lon="-2.33831">
        <ele>7.5999999046326</ele>
        <time>2020-11-29T10:01:09.000Z</time>
      </trkpt>
      <trkpt lat="47.33886" lon="-2.33867">
        <ele>7.5999999046326</ele>
        <time>2020-11-29T10:01:16.000Z</time>
      </trkpt>
      <trkpt lat="47.3387" lon="-2.3389">
        <ele>7.5999999046326</ele>
        <time>2020-11-29T10:01:21.000Z</time>
      </trkpt>
      <trkpt lat="47.33866" lon="-2.33895">
        <ele>8</ele>
        <time>2020-11-29T10:01:22.000Z</time>
      </trkpt>
      <trkpt lat="47.33861" lon="-2.33898">
        <ele>9</ele>
        <time>2020-11-29T10:01:23.000Z</time>
      </trkpt>
      <trkpt lat="47.33857" lon="-2.33901">
        <ele>9.3999996185303</ele>
        <time>2020-11-29T10:01:24.000Z</time>
      </trkpt>
      <trkpt lat="47.33852" lon="-2.33904">
        <ele>9.8000001907349</ele>
        <time>2020-11-29T10:01:25.000Z</time>
      </trkpt>
      <trkpt lat="47.33842" lon="-2.33911">
        <ele>9.8000001907349</ele>
        <time>2020-11-29T10:01:27.000Z</time>
      </trkpt>
      <trkpt lat="47.33811" lon="-2.33938">
        <ele>9.8000001907349</ele>
        <time>2020-11-29T10:01:34.000Z</time>
      </trkpt>
      <trkpt lat="47.33786" lon="-2.33957">
        <ele>9.8000001907349</ele>
        <time>2020-11-29T10:01:39.000Z</time>
      </trkpt>
      <trkpt lat="47.33781" lon="-2.3396">
        <ele>9.8000001907349</ele>
        <time>2020-11-29T10:01:40.000Z</time>
      </trkpt>
      <trkpt lat="47.33749" lon="-2.33986">
        <ele>9.8000001907349</ele>
        <time>2020-11-29T10:01:46.000Z</time>
      </trkpt>
      <trkpt lat="47.33713" lon="-2.34015">
        <ele>10.199999809265</ele>
        <time>2020-11-29T10:01:52.000Z</time>
      </trkpt>
      <trkpt lat="47.33707" lon="-2.3402">
        <ele>10.60000038147</ele>
        <time>2020-11-29T10:01:53.000Z</time>
      </trkpt>
      <trkpt lat="47.33702" lon="-2.34024">
        <ele>11</ele>
        <time>2020-11-29T10:01:54.000Z</time>
      </trkpt>
      <trkpt lat="47.33696" lon="-2.34028">
        <ele>11.39999961853</ele>
        <time>2020-11-29T10:01:55.000Z</time>
      </trkpt>
      <trkpt lat="47.33691" lon="-2.34032">
        <ele>11.800000190735</ele>
        <time>2020-11-29T10:01:56.000Z</time>
      </trkpt>
      <trkpt lat="47.33676" lon="-2.34045">
        <ele>11.800000190735</ele>
        <time>2020-11-29T10:01:59.000Z</time>
      </trkpt>
      <trkpt lat="47.33638" lon="-2.34076">
        <ele>11.800000190735</ele>
        <time>2020-11-29T10:02:07.000Z</time>
      </trkpt>
      <trkpt lat="47.33612" lon="-2.34094">
        <ele>11.800000190735</ele>
        <time>2020-11-29T10:02:14.000Z</time>
      </trkpt>
      <trkpt lat="47.33591" lon="-2.34111">
        <ele>11.800000190735</ele>
        <time>2020-11-29T10:02:20.000Z</time>
      </trkpt>
      <trkpt lat="47.33584" lon="-2.34117">
        <ele>12.199999809265</ele>
        <time>2020-11-29T10:02:22.000Z</time>
      </trkpt>
      <trkpt lat="47.3358" lon="-2.3412">
        <ele>12.60000038147</ele>
        <time>2020-11-29T10:02:23.000Z</time>
      </trkpt>
      <trkpt lat="47.33576" lon="-2.34123">
        <ele>13</ele>
        <time>2020-11-29T10:02:24.000Z</time>
      </trkpt>
      <trkpt lat="47.33572" lon="-2.34125">
        <ele>13.60000038147</ele>
        <time>2020-11-29T10:02:25.000Z</time>
      </trkpt>
      <trkpt lat="47.33567" lon="-2.34128">
        <ele>14</ele>
        <time>2020-11-29T10:02:26.000Z</time>
      </trkpt>
      <trkpt lat="47.33563" lon="-2.34131">
        <ele>14</ele>
        <time>2020-11-29T10:02:27.000Z</time>
      </trkpt>
      <trkpt lat="47.3354" lon="-2.34147">
        <ele>14</ele>
        <time>2020-11-29T10:02:33.000Z</time>
      </trkpt>
      <trkpt lat="47.33514" lon="-2.34167">
        <ele>14</ele>
        <time>2020-11-29T10:02:39.000Z</time>
      </trkpt>
      <trkpt lat="47.33486" lon="-2.34186">
        <ele>14</ele>
        <time>2020-11-29T10:02:45.000Z</time>
      </trkpt>
      <trkpt lat="47.33473" lon="-2.34196">
        <ele>14</ele>
        <time>2020-11-29T10:02:48.000Z</time>
      </trkpt>
      <trkpt lat="47.33466" lon="-2.34205">
        <ele>14</ele>
        <time>2020-11-29T10:02:50.000Z</time>
      </trkpt>
      <trkpt lat="47.33447" lon="-2.34236">
        <ele>14</ele>
        <time>2020-11-29T10:02:56.000Z</time>
      </trkpt>
      <trkpt lat="47.33441" lon="-2.34246">
        <ele>14</ele>
        <time>2020-11-29T10:02:58.000Z</time>
      </trkpt>
      <trkpt lat="47.33432" lon="-2.34269">
        <ele>14.800000190735</ele>
        <time>2020-11-29T10:03:02.000Z</time>
      </trkpt>
      <trkpt lat="47.3343" lon="-2.34275">
        <ele>15.199999809265</ele>
        <time>2020-11-29T10:03:03.000Z</time>
      </trkpt>
      <trkpt lat="47.33428" lon="-2.34283">
        <ele>15.60000038147</ele>
        <time>2020-11-29T10:03:04.000Z</time>
      </trkpt>
      <trkpt lat="47.33425" lon="-2.3429">
        <ele>16</ele>
        <time>2020-11-29T10:03:05.000Z</time>
      </trkpt>
      <trkpt lat="47.33419" lon="-2.34311">
        <ele>16</ele>
        <time>2020-11-29T10:03:08.000Z</time>
      </trkpt>
      <trkpt lat="47.33401" lon="-2.34361">
        <ele>16</ele>
        <time>2020-11-29T10:03:15.000Z</time>
      </trkpt>
      <trkpt lat="47.33384" lon="-2.34407">
        <ele>16</ele>
        <time>2020-11-29T10:03:22.000Z</time>
      </trkpt>
      <trkpt lat="47.33371" lon="-2.34445">
        <ele>16</ele>
        <time>2020-11-29T10:03:28.000Z</time>
      </trkpt>
      <trkpt lat="47.33369" lon="-2.34451">
        <ele>16</ele>
        <time>2020-11-29T10:03:29.000Z</time>
      </trkpt>
      <trkpt lat="47.33356" lon="-2.34488">
        <ele>16</ele>
        <time>2020-11-29T10:03:36.000Z</time>
      </trkpt>
      <trkpt lat="47.33345" lon="-2.34513">
        <ele>16</ele>
        <time>2020-11-29T10:03:42.000Z</time>
      </trkpt>
      <trkpt lat="47.33341" lon="-2.34529">
        <ele>16</ele>
        <time>2020-11-29T10:03:46.000Z</time>
      </trkpt>
      <trkpt lat="47.33339" lon="-2.34535">
        <ele>16</ele>
        <time>2020-11-29T10:03:49.000Z</time>
      </trkpt>
      <trkpt lat="47.33339" lon="-2.34539">
        <ele>16</ele>
        <time>2020-11-29T10:03:51.000Z</time>
      </trkpt>
      <trkpt lat="47.33337" lon="-2.34544">
        <ele>16</ele>
        <time>2020-11-29T10:03:56.000Z</time>
      </trkpt>
      <trkpt lat="47.33335" lon="-2.34549">
        <ele>16</ele>
        <time>2020-11-29T10:04:03.000Z</time>
      </trkpt>
      <trkpt lat="47.33333" lon="-2.34552">
        <ele>16</ele>
        <time>2020-11-29T10:04:05.000Z</time>
      </trkpt>
      <trkpt lat="47.33331" lon="-2.34555">
        <ele>16</ele>
        <time>2020-11-29T10:04:08.000Z</time>
      </trkpt>
      <trkpt lat="47.3333" lon="-2.34562">
        <ele>16</ele>
        <time>2020-11-29T10:04:12.000Z</time>
      </trkpt>
      <trkpt lat="47.33329" lon="-2.34565">
        <ele>16</ele>
        <time>2020-11-29T10:04:14.000Z</time>
      </trkpt>
      <trkpt lat="47.33325" lon="-2.34582">
        <ele>16</ele>
        <time>2020-11-29T10:04:21.000Z</time>
      </trkpt>
      <trkpt lat="47.33316" lon="-2.34608">
        <ele>16</ele>
        <time>2020-11-29T10:04:27.000Z</time>
      </trkpt>
      <trkpt lat="47.33305" lon="-2.34636">
        <ele>16</ele>
        <time>2020-11-29T10:04:33.000Z</time>
      </trkpt>
      <trkpt lat="47.333" lon="-2.34652">
        <ele>16</ele>
        <time>2020-11-29T10:04:38.000Z</time>
      </trkpt>
      <trkpt lat="47.3329" lon="-2.34668">
        <ele>16</ele>
        <time>2020-11-29T10:04:44.000Z</time>
      </trkpt>
      <trkpt lat="47.33287" lon="-2.34675">
        <ele>16</ele>
        <time>2020-11-29T10:04:49.000Z</time>
      </trkpt>
      <trkpt lat="47.33283" lon="-2.34685">
        <ele>16</ele>
        <time>2020-11-29T10:04:56.000Z</time>
      </trkpt>
      <trkpt lat="47.33278" lon="-2.34696">
        <ele>16</ele>
        <time>2020-11-29T10:05:00.000Z</time>
      </trkpt>
      <trkpt lat="47.33272" lon="-2.34717">
        <ele>16</ele>
        <time>2020-11-29T10:05:04.000Z</time>
      </trkpt>
      <trkpt lat="47.33264" lon="-2.34739">
        <ele>16</ele>
        <time>2020-11-29T10:05:09.000Z</time>
      </trkpt>
      <trkpt lat="47.33257" lon="-2.3476">
        <ele>16</ele>
        <time>2020-11-29T10:05:13.000Z</time>
      </trkpt>
      <trkpt lat="47.33248" lon="-2.34783">
        <ele>16</ele>
        <time>2020-11-29T10:05:18.000Z</time>
      </trkpt>
      <trkpt lat="47.3324" lon="-2.34805">
        <ele>16</ele>
        <time>2020-11-29T10:05:23.000Z</time>
      </trkpt>
      <trkpt lat="47.33229" lon="-2.34831">
        <ele>16</ele>
        <time>2020-11-29T10:05:29.000Z</time>
      </trkpt>
      <trkpt lat="47.3322" lon="-2.34851">
        <ele>16</ele>
        <time>2020-11-29T10:05:34.000Z</time>
      </trkpt>
      <trkpt lat="47.33211" lon="-2.34875">
        <ele>16</ele>
        <time>2020-11-29T10:05:40.000Z</time>
      </trkpt>
      <trkpt lat="47.33201" lon="-2.34901">
        <ele>16.39999961853</ele>
        <time>2020-11-29T10:05:46.000Z</time>
      </trkpt>
      <trkpt lat="47.33199" lon="-2.34905">
        <ele>16.799999237061</ele>
        <time>2020-11-29T10:05:47.000Z</time>
      </trkpt>
      <trkpt lat="47.33197" lon="-2.34909">
        <ele>17.200000762939</ele>
        <time>2020-11-29T10:05:48.000Z</time>
      </trkpt>
      <trkpt lat="47.33195" lon="-2.34914">
        <ele>17.799999237061</ele>
        <time>2020-11-29T10:05:49.000Z</time>
      </trkpt>
      <trkpt lat="47.33193" lon="-2.34918">
        <ele>18.200000762939</ele>
        <time>2020-11-29T10:05:50.000Z</time>
      </trkpt>
      <trkpt lat="47.33188" lon="-2.34928">
        <ele>18.200000762939</ele>
        <time>2020-11-29T10:05:52.000Z</time>
      </trkpt>
      <trkpt lat="47.33181" lon="-2.34947">
        <ele>18.200000762939</ele>
        <time>2020-11-29T10:05:58.000Z</time>
      </trkpt>
      <trkpt lat="47.33175" lon="-2.34961">
        <ele>18.200000762939</ele>
        <time>2020-11-29T10:06:04.000Z</time>
      </trkpt>
      <trkpt lat="47.33164" lon="-2.34976">
        <ele>18.200000762939</ele>
        <time>2020-11-29T10:06:10.000Z</time>
      </trkpt>
      <trkpt lat="47.33159" lon="-2.34994">
        <ele>18.200000762939</ele>
        <time>2020-11-29T10:06:15.000Z</time>
      </trkpt>
      <trkpt lat="47.33155" lon="-2.35003">
        <ele>18.60000038147</ele>
        <time>2020-11-29T10:06:17.000Z</time>
      </trkpt>
      <trkpt lat="47.33152" lon="-2.35007">
        <ele>19.39999961853</ele>
        <time>2020-11-29T10:06:18.000Z</time>
      </trkpt>
      <trkpt lat="47.3315" lon="-2.35011">
        <ele>19.799999237061</ele>
        <time>2020-11-29T10:06:19.000Z</time>
      </trkpt>
      <trkpt lat="47.33148" lon="-2.35015">
        <ele>20.200000762939</ele>
        <time>2020-11-29T10:06:20.000Z</time>
      </trkpt>
      <trkpt lat="47.33142" lon="-2.35024">
        <ele>20.200000762939</ele>
        <time>2020-11-29T10:06:22.000Z</time>
      </trkpt>
      <trkpt lat="47.33121" lon="-2.35051">
        <ele>20.200000762939</ele>
        <time>2020-11-29T10:06:29.000Z</time>
      </trkpt>
      <trkpt lat="47.33107" lon="-2.35071">
        <ele>20.200000762939</ele>
        <time>2020-11-29T10:06:35.000Z</time>
      </trkpt>
      <trkpt lat="47.33089" lon="-2.35096">
        <ele>20.200000762939</ele>
        <time>2020-11-29T10:06:41.000Z</time>
      </trkpt>
      <trkpt lat="47.3308" lon="-2.35107">
        <ele>20.60000038147</ele>
        <time>2020-11-29T10:06:44.000Z</time>
      </trkpt>
      <trkpt lat="47.33078" lon="-2.35111">
        <ele>21</ele>
        <time>2020-11-29T10:06:45.000Z</time>
      </trkpt>
      <trkpt lat="47.33075" lon="-2.35115">
        <ele>21.39999961853</ele>
        <time>2020-11-29T10:06:46.000Z</time>
      </trkpt>
      <trkpt lat="47.33072" lon="-2.35119">
        <ele>21.799999237061</ele>
        <time>2020-11-29T10:06:47.000Z</time>
      </trkpt>
      <trkpt lat="47.3307" lon="-2.35123">
        <ele>22.200000762939</ele>
        <time>2020-11-29T10:06:48.000Z</time>
      </trkpt>
      <trkpt lat="47.33061" lon="-2.3514">
        <ele>22.200000762939</ele>
        <time>2020-11-29T10:06:52.000Z</time>
      </trkpt>
      <trkpt lat="47.3305" lon="-2.35163">
        <ele>22.200000762939</ele>
        <time>2020-11-29T10:06:57.000Z</time>
      </trkpt>
      <trkpt lat="47.33038" lon="-2.35186">
        <ele>22.200000762939</ele>
        <time>2020-11-29T10:07:02.000Z</time>
      </trkpt>
      <trkpt lat="47.33028" lon="-2.35209">
        <ele>22.200000762939</ele>
        <time>2020-11-29T10:07:07.000Z</time>
      </trkpt>
      <trkpt lat="47.33027" lon="-2.35228">
        <ele>22.200000762939</ele>
        <time>2020-11-29T10:07:11.000Z</time>
      </trkpt>
      <trkpt lat="47.33029" lon="-2.35252">
        <ele>22.200000762939</ele>
        <time>2020-11-29T10:07:15.000Z</time>
      </trkpt>
      <trkpt lat="47.33028" lon="-2.35259">
        <ele>22.200000762939</ele>
        <time>2020-11-29T10:07:16.000Z</time>
      </trkpt>
      <trkpt lat="47.33026" lon="-2.35287">
        <ele>22.200000762939</ele>
        <time>2020-11-29T10:07:20.000Z</time>
      </trkpt>
      <trkpt lat="47.33026" lon="-2.35294">
        <ele>22.200000762939</ele>
        <time>2020-11-29T10:07:21.000Z</time>
      </trkpt>
      <trkpt lat="47.33026" lon="-2.35315">
        <ele>22.60000038147</ele>
        <time>2020-11-29T10:07:24.000Z</time>
      </trkpt>
      <trkpt lat="47.33027" lon="-2.35322">
        <ele>23</ele>
        <time>2020-11-29T10:07:25.000Z</time>
      </trkpt>
      <trkpt lat="47.33027" lon="-2.3533">
        <ele>23.39999961853</ele>
        <time>2020-11-29T10:07:26.000Z</time>
      </trkpt>
      <trkpt lat="47.33027" lon="-2.35337">
        <ele>23.799999237061</ele>
        <time>2020-11-29T10:07:27.000Z</time>
      </trkpt>
      <trkpt lat="47.33027" lon="-2.35345">
        <ele>24.39999961853</ele>
        <time>2020-11-29T10:07:28.000Z</time>
      </trkpt>
      <trkpt lat="47.3303" lon="-2.35369">
        <ele>24.39999961853</ele>
        <time>2020-11-29T10:07:31.000Z</time>
      </trkpt>
      <trkpt lat="47.33033" lon="-2.35393">
        <ele>24.39999961853</ele>
        <time>2020-11-29T10:07:34.000Z</time>
      </trkpt>
      <trkpt lat="47.33034" lon="-2.35402">
        <ele>24.39999961853</ele>
        <time>2020-11-29T10:07:35.000Z</time>
      </trkpt>
      <trkpt lat="47.33033" lon="-2.35424">
        <ele>24.39999961853</ele>
        <time>2020-11-29T10:07:38.000Z</time>
      </trkpt>
      <trkpt lat="47.33032" lon="-2.35432">
        <ele>24.39999961853</ele>
        <time>2020-11-29T10:07:39.000Z</time>
      </trkpt>
      <trkpt lat="47.33033" lon="-2.35438">
        <ele>24.39999961853</ele>
        <time>2020-11-29T10:07:40.000Z</time>
      </trkpt>
      <trkpt lat="47.33034" lon="-2.35452">
        <ele>23.799999237061</ele>
        <time>2020-11-29T10:07:42.000Z</time>
      </trkpt>
      <trkpt lat="47.33034" lon="-2.35458">
        <ele>23.39999961853</ele>
        <time>2020-11-29T10:07:43.000Z</time>
      </trkpt>
      <trkpt lat="47.33034" lon="-2.35464">
        <ele>23</ele>
        <time>2020-11-29T10:07:44.000Z</time>
      </trkpt>
      <trkpt lat="47.33034" lon="-2.35471">
        <ele>22.60000038147</ele>
        <time>2020-11-29T10:07:45.000Z</time>
      </trkpt>
      <trkpt lat="47.33033" lon="-2.35479">
        <ele>22.200000762939</ele>
        <time>2020-11-29T10:07:46.000Z</time>
      </trkpt>
      <trkpt lat="47.33032" lon="-2.35488">
        <ele>22.200000762939</ele>
        <time>2020-11-29T10:07:47.000Z</time>
      </trkpt>
      <trkpt lat="47.33028" lon="-2.35526">
        <ele>22.200000762939</ele>
        <time>2020-11-29T10:07:52.000Z</time>
      </trkpt>
      <trkpt lat="47.33027" lon="-2.35533">
        <ele>22.200000762939</ele>
        <time>2020-11-29T10:07:53.000Z</time>
      </trkpt>
      <trkpt lat="47.33028" lon="-2.35541">
        <ele>21.799999237061</ele>
        <time>2020-11-29T10:07:54.000Z</time>
      </trkpt>
      <trkpt lat="47.33028" lon="-2.35548">
        <ele>21.39999961853</ele>
        <time>2020-11-29T10:07:55.000Z</time>
      </trkpt>
      <trkpt lat="47.33029" lon="-2.35555">
        <ele>21</ele>
        <time>2020-11-29T10:07:56.000Z</time>
      </trkpt>
      <trkpt lat="47.33029" lon="-2.35562">
        <ele>20.60000038147</ele>
        <time>2020-11-29T10:07:57.000Z</time>
      </trkpt>
      <trkpt lat="47.33029" lon="-2.35569">
        <ele>20.200000762939</ele>
        <time>2020-11-29T10:07:58.000Z</time>
      </trkpt>
      <trkpt lat="47.33029" lon="-2.35576">
        <ele>20.200000762939</ele>
        <time>2020-11-29T10:07:59.000Z</time>
      </trkpt>
      <trkpt lat="47.33023" lon="-2.35615">
        <ele>20.200000762939</ele>
        <time>2020-11-29T10:08:04.000Z</time>
      </trkpt>
      <trkpt lat="47.3302" lon="-2.3564">
        <ele>19.799999237061</ele>
        <time>2020-11-29T10:08:07.000Z</time>
      </trkpt>
      <trkpt lat="47.33019" lon="-2.35648">
        <ele>19.200000762939</ele>
        <time>2020-11-29T10:08:08.000Z</time>
      </trkpt>
      <trkpt lat="47.33019" lon="-2.35657">
        <ele>18.799999237061</ele>
        <time>2020-11-29T10:08:09.000Z</time>
      </trkpt>
      <trkpt lat="47.33017" lon="-2.35665">
        <ele>18.39999961853</ele>
        <time>2020-11-29T10:08:10.000Z</time>
      </trkpt>
      <trkpt lat="47.33016" lon="-2.35673">
        <ele>18</ele>
        <time>2020-11-29T10:08:11.000Z</time>
      </trkpt>
      <trkpt lat="47.33011" lon="-2.35716">
        <ele>18</ele>
        <time>2020-11-29T10:08:16.000Z</time>
      </trkpt>
      <trkpt lat="47.33011" lon="-2.35751">
        <ele>18</ele>
        <time>2020-11-29T10:08:20.000Z</time>
      </trkpt>
      <trkpt lat="47.33014" lon="-2.35767">
        <ele>18</ele>
        <time>2020-11-29T10:08:22.000Z</time>
      </trkpt>
      <trkpt lat="47.33019" lon="-2.3578">
        <ele>18</ele>
        <time>2020-11-29T10:08:24.000Z</time>
      </trkpt>
      <trkpt lat="47.33022" lon="-2.35785">
        <ele>18</ele>
        <time>2020-11-29T10:08:25.000Z</time>
      </trkpt>
      <trkpt lat="47.33026" lon="-2.3579">
        <ele>18</ele>
        <time>2020-11-29T10:08:26.000Z</time>
      </trkpt>
      <trkpt lat="47.3304" lon="-2.35799">
        <ele>18</ele>
        <time>2020-11-29T10:08:29.000Z</time>
      </trkpt>
      <trkpt lat="47.33045" lon="-2.35801">
        <ele>18</ele>
        <time>2020-11-29T10:08:30.000Z</time>
      </trkpt>
      <trkpt lat="47.33055" lon="-2.35804">
        <ele>18</ele>
        <time>2020-11-29T10:08:32.000Z</time>
      </trkpt>
      <trkpt lat="47.33071" lon="-2.35805">
        <ele>18</ele>
        <time>2020-11-29T10:08:35.000Z</time>
      </trkpt>
      <trkpt lat="47.33083" lon="-2.35804">
        <ele>18.39999961853</ele>
        <time>2020-11-29T10:08:37.000Z</time>
      </trkpt>
      <trkpt lat="47.33088" lon="-2.35805">
        <ele>18.799999237061</ele>
        <time>2020-11-29T10:08:38.000Z</time>
      </trkpt>
      <trkpt lat="47.33094" lon="-2.35804">
        <ele>19.200000762939</ele>
        <time>2020-11-29T10:08:39.000Z</time>
      </trkpt>
      <trkpt lat="47.331" lon="-2.35804">
        <ele>19.60000038147</ele>
        <time>2020-11-29T10:08:40.000Z</time>
      </trkpt>
      <trkpt lat="47.33105" lon="-2.35803">
        <ele>20</ele>
        <time>2020-11-29T10:08:41.000Z</time>
      </trkpt>
      <trkpt lat="47.33139" lon="-2.35804">
        <ele>20</ele>
        <time>2020-11-29T10:08:48.000Z</time>
      </trkpt>
      <trkpt lat="47.33144" lon="-2.35805">
        <ele>20</ele>
        <time>2020-11-29T10:08:49.000Z</time>
      </trkpt>
      <trkpt lat="47.33167" lon="-2.3581">
        <ele>20</ele>
        <time>2020-11-29T10:08:54.000Z</time>
      </trkpt>
      <trkpt lat="47.33172" lon="-2.35811">
        <ele>20.39999961853</ele>
        <time>2020-11-29T10:08:55.000Z</time>
      </trkpt>
      <trkpt lat="47.33177" lon="-2.35812">
        <ele>20.799999237061</ele>
        <time>2020-11-29T10:08:56.000Z</time>
      </trkpt>
      <trkpt lat="47.33182" lon="-2.35813">
        <ele>21.200000762939</ele>
        <time>2020-11-29T10:08:57.000Z</time>
      </trkpt>
      <trkpt lat="47.33186" lon="-2.35814">
        <ele>21.60000038147</ele>
        <time>2020-11-29T10:08:58.000Z</time>
      </trkpt>
      <trkpt lat="47.33191" lon="-2.35815">
        <ele>22.200000762939</ele>
        <time>2020-11-29T10:08:59.000Z</time>
      </trkpt>
      <trkpt lat="47.33201" lon="-2.35817">
        <ele>22.200000762939</ele>
        <time>2020-11-29T10:09:01.000Z</time>
      </trkpt>
      <trkpt lat="47.3322" lon="-2.35822">
        <ele>22.200000762939</ele>
        <time>2020-11-29T10:09:05.000Z</time>
      </trkpt>
      <trkpt lat="47.33232" lon="-2.35831">
        <ele>22.200000762939</ele>
        <time>2020-11-29T10:09:08.000Z</time>
      </trkpt>
      <trkpt lat="47.3325" lon="-2.35842">
        <ele>22.60000038147</ele>
        <time>2020-11-29T10:09:13.000Z</time>
      </trkpt>
      <trkpt lat="47.33253" lon="-2.35845">
        <ele>23</ele>
        <time>2020-11-29T10:09:14.000Z</time>
      </trkpt>
      <trkpt lat="47.33256" lon="-2.35849">
        <ele>23.39999961853</ele>
        <time>2020-11-29T10:09:15.000Z</time>
      </trkpt>
      <trkpt lat="47.33258" lon="-2.35852">
        <ele>23.799999237061</ele>
        <time>2020-11-29T10:09:16.000Z</time>
      </trkpt>
      <trkpt lat="47.33261" lon="-2.35855">
        <ele>24.200000762939</ele>
        <time>2020-11-29T10:09:17.000Z</time>
      </trkpt>
      <trkpt lat="47.33272" lon="-2.35869">
        <ele>24.60000038147</ele>
        <time>2020-11-29T10:09:21.000Z</time>
      </trkpt>
      <trkpt lat="47.33275" lon="-2.35872">
        <ele>25</ele>
        <time>2020-11-29T10:09:22.000Z</time>
      </trkpt>
      <trkpt lat="47.33279" lon="-2.35875">
        <ele>25.39999961853</ele>
        <time>2020-11-29T10:09:23.000Z</time>
      </trkpt>
      <trkpt lat="47.33283" lon="-2.35877">
        <ele>25.799999237061</ele>
        <time>2020-11-29T10:09:24.000Z</time>
      </trkpt>
      <trkpt lat="47.33287" lon="-2.3588">
        <ele>26.200000762939</ele>
        <time>2020-11-29T10:09:25.000Z</time>
      </trkpt>
      <trkpt lat="47.33291" lon="-2.35883">
        <ele>26.200000762939</ele>
        <time>2020-11-29T10:09:26.000Z</time>
      </trkpt>
      <trkpt lat="47.33302" lon="-2.35891">
        <ele>26.200000762939</ele>
        <time>2020-11-29T10:09:29.000Z</time>
      </trkpt>
      <trkpt lat="47.33311" lon="-2.35904">
        <ele>26.200000762939</ele>
        <time>2020-11-29T10:09:32.000Z</time>
      </trkpt>
      <trkpt lat="47.33316" lon="-2.35915">
        <ele>26.60000038147</ele>
        <time>2020-11-29T10:09:34.000Z</time>
      </trkpt>
      <trkpt lat="47.33318" lon="-2.3592">
        <ele>27</ele>
        <time>2020-11-29T10:09:35.000Z</time>
      </trkpt>
      <trkpt lat="47.33319" lon="-2.35926">
        <ele>27.39999961853</ele>
        <time>2020-11-29T10:09:36.000Z</time>
      </trkpt>
      <trkpt lat="47.33321" lon="-2.35933">
        <ele>28.200000762939</ele>
        <time>2020-11-29T10:09:37.000Z</time>
      </trkpt>
      <trkpt lat="47.33321" lon="-2.35939">
        <ele>28.200000762939</ele>
        <time>2020-11-29T10:09:38.000Z</time>
      </trkpt>
      <trkpt lat="47.33322" lon="-2.35959">
        <ele>28.200000762939</ele>
        <time>2020-11-29T10:09:41.000Z</time>
      </trkpt>
      <trkpt lat="47.3332" lon="-2.35973">
        <ele>28.200000762939</ele>
        <time>2020-11-29T10:09:43.000Z</time>
      </trkpt>
      <trkpt lat="47.33316" lon="-2.35993">
        <ele>28.200000762939</ele>
        <time>2020-11-29T10:09:46.000Z</time>
      </trkpt>
      <trkpt lat="47.33315" lon="-2.36009">
        <ele>28.200000762939</ele>
        <time>2020-11-29T10:09:48.000Z</time>
      </trkpt>
      <trkpt lat="47.33312" lon="-2.36046">
        <ele>28.200000762939</ele>
        <time>2020-11-29T10:09:53.000Z</time>
      </trkpt>
      <trkpt lat="47.3331" lon="-2.36102">
        <ele>28.200000762939</ele>
        <time>2020-11-29T10:10:00.000Z</time>
      </trkpt>
      <trkpt lat="47.3331" lon="-2.36173">
        <ele>28.200000762939</ele>
        <time>2020-11-29T10:10:08.000Z</time>
      </trkpt>
      <trkpt lat="47.3331" lon="-2.36206">
        <ele>28.200000762939</ele>
        <time>2020-11-29T10:10:12.000Z</time>
      </trkpt>
      <trkpt lat="47.33312" lon="-2.36213">
        <ele>28.200000762939</ele>
        <time>2020-11-29T10:10:13.000Z</time>
      </trkpt>
      <trkpt lat="47.3332" lon="-2.36215">
        <ele>28.200000762939</ele>
        <time>2020-11-29T10:10:15.000Z</time>
      </trkpt>
      <trkpt lat="47.33335" lon="-2.36202">
        <ele>28.200000762939</ele>
        <time>2020-11-29T10:10:19.000Z</time>
      </trkpt>
      <trkpt lat="47.33371" lon="-2.36179">
        <ele>28.200000762939</ele>
        <time>2020-11-29T10:10:27.000Z</time>
      </trkpt>
      <trkpt lat="47.33381" lon="-2.36174">
        <ele>28.60000038147</ele>
        <time>2020-11-29T10:10:29.000Z</time>
      </trkpt>
      <trkpt lat="47.33385" lon="-2.36171">
        <ele>29</ele>
        <time>2020-11-29T10:10:30.000Z</time>
      </trkpt>
      <trkpt lat="47.3339" lon="-2.36168">
        <ele>29.39999961853</ele>
        <time>2020-11-29T10:10:31.000Z</time>
      </trkpt>
      <trkpt lat="47.33394" lon="-2.36165">
        <ele>30</ele>
        <time>2020-11-29T10:10:32.000Z</time>
      </trkpt>
      <trkpt lat="47.33399" lon="-2.36162">
        <ele>30.39999961853</ele>
        <time>2020-11-29T10:10:33.000Z</time>
      </trkpt>
      <trkpt lat="47.33404" lon="-2.3616">
        <ele>30.39999961853</ele>
        <time>2020-11-29T10:10:34.000Z</time>
      </trkpt>
      <trkpt lat="47.33414" lon="-2.36171">
        <ele>30.39999961853</ele>
        <time>2020-11-29T10:10:37.000Z</time>
      </trkpt>
      <trkpt lat="47.33415" lon="-2.36185">
        <ele>30.39999961853</ele>
        <time>2020-11-29T10:10:39.000Z</time>
      </trkpt>
      <trkpt lat="47.33416" lon="-2.36193">
        <ele>30.39999961853</ele>
        <time>2020-11-29T10:10:40.000Z</time>
      </trkpt>
      <trkpt lat="47.33416" lon="-2.3621">
        <ele>30.39999961853</ele>
        <time>2020-11-29T10:10:42.000Z</time>
      </trkpt>
      <trkpt lat="47.33415" lon="-2.36218">
        <ele>30</ele>
        <time>2020-11-29T10:10:43.000Z</time>
      </trkpt>
      <trkpt lat="47.33413" lon="-2.36227">
        <ele>29.60000038147</ele>
        <time>2020-11-29T10:10:44.000Z</time>
      </trkpt>
      <trkpt lat="47.33413" lon="-2.36237">
        <ele>29.200000762939</ele>
        <time>2020-11-29T10:10:45.000Z</time>
      </trkpt>
      <trkpt lat="47.33412" lon="-2.36246">
        <ele>28.799999237061</ele>
        <time>2020-11-29T10:10:46.000Z</time>
      </trkpt>
      <trkpt lat="47.33413" lon="-2.36256">
        <ele>28.39999961853</ele>
        <time>2020-11-29T10:10:47.000Z</time>
      </trkpt>
      <trkpt lat="47.33413" lon="-2.36275">
        <ele>28.39999961853</ele>
        <time>2020-11-29T10:10:49.000Z</time>
      </trkpt>
      <trkpt lat="47.33414" lon="-2.36284">
        <ele>28.39999961853</ele>
        <time>2020-11-29T10:10:50.000Z</time>
      </trkpt>
      <trkpt lat="47.3342" lon="-2.36308">
        <ele>28.39999961853</ele>
        <time>2020-11-29T10:10:53.000Z</time>
      </trkpt>
      <trkpt lat="47.3343" lon="-2.36341">
        <ele>28</ele>
        <time>2020-11-29T10:10:58.000Z</time>
      </trkpt>
      <trkpt lat="47.33432" lon="-2.36347">
        <ele>27.60000038147</ele>
        <time>2020-11-29T10:10:59.000Z</time>
      </trkpt>
      <trkpt lat="47.33434" lon="-2.36353">
        <ele>27</ele>
        <time>2020-11-29T10:11:00.000Z</time>
      </trkpt>
      <trkpt lat="47.33436" lon="-2.36359">
        <ele>26.60000038147</ele>
        <time>2020-11-29T10:11:01.000Z</time>
      </trkpt>
      <trkpt lat="47.33438" lon="-2.36364">
        <ele>26.200000762939</ele>
        <time>2020-11-29T10:11:02.000Z</time>
      </trkpt>
      <trkpt lat="47.33441" lon="-2.36373">
        <ele>26.200000762939</ele>
        <time>2020-11-29T10:11:04.000Z</time>
      </trkpt>
      <trkpt lat="47.33446" lon="-2.36387">
        <ele>25.799999237061</ele>
        <time>2020-11-29T10:11:08.000Z</time>
      </trkpt>
      <trkpt lat="47.33447" lon="-2.3639">
        <ele>25.39999961853</ele>
        <time>2020-11-29T10:11:09.000Z</time>
      </trkpt>
      <trkpt lat="47.33448" lon="-2.36394">
        <ele>25</ele>
        <time>2020-11-29T10:11:10.000Z</time>
      </trkpt>
      <trkpt lat="47.33449" lon="-2.36397">
        <ele>24.60000038147</ele>
        <time>2020-11-29T10:11:11.000Z</time>
      </trkpt>
      <trkpt lat="47.3345" lon="-2.36399">
        <ele>24.200000762939</ele>
        <time>2020-11-29T10:11:12.000Z</time>
      </trkpt>
      <trkpt lat="47.33452" lon="-2.36402">
        <ele>24.200000762939</ele>
        <time>2020-11-29T10:11:13.000Z</time>
      </trkpt>
      <trkpt lat="47.33456" lon="-2.36406">
        <ele>24.200000762939</ele>
        <time>2020-11-29T10:11:18.000Z</time>
      </trkpt>
      <trkpt lat="47.33459" lon="-2.36406">
        <ele>24.200000762939</ele>
        <time>2020-11-29T10:11:21.000Z</time>
      </trkpt>
      <trkpt lat="47.33466" lon="-2.36409">
        <ele>24.200000762939</ele>
        <time>2020-11-29T10:11:25.000Z</time>
      </trkpt>
      <trkpt lat="47.33471" lon="-2.36414">
        <ele>24.200000762939</ele>
        <time>2020-11-29T10:11:28.000Z</time>
      </trkpt>
      <trkpt lat="47.33472" lon="-2.3642">
        <ele>24.200000762939</ele>
        <time>2020-11-29T10:11:30.000Z</time>
      </trkpt>
      <trkpt lat="47.33472" lon="-2.36426">
        <ele>24.200000762939</ele>
        <time>2020-11-29T10:11:32.000Z</time>
      </trkpt>
      <trkpt lat="47.33471" lon="-2.36441">
        <ele>24.200000762939</ele>
        <time>2020-11-29T10:11:35.000Z</time>
      </trkpt>
      <trkpt lat="47.33472" lon="-2.36487">
        <ele>24.200000762939</ele>
        <time>2020-11-29T10:11:42.000Z</time>
      </trkpt>
      <trkpt lat="47.33471" lon="-2.36542">
        <ele>24.200000762939</ele>
        <time>2020-11-29T10:11:49.000Z</time>
      </trkpt>
      <trkpt lat="47.33471" lon="-2.36559">
        <ele>23.799999237061</ele>
        <time>2020-11-29T10:11:51.000Z</time>
      </trkpt>
      <trkpt lat="47.3347" lon="-2.36566">
        <ele>23.39999961853</ele>
        <time>2020-11-29T10:11:52.000Z</time>
      </trkpt>
      <trkpt lat="47.3347" lon="-2.36573">
        <ele>23</ele>
        <time>2020-11-29T10:11:53.000Z</time>
      </trkpt>
      <trkpt lat="47.33471" lon="-2.36579">
        <ele>22.60000038147</ele>
        <time>2020-11-29T10:11:54.000Z</time>
      </trkpt>
      <trkpt lat="47.33472" lon="-2.36582">
        <ele>22.200000762939</ele>
        <time>2020-11-29T10:11:55.000Z</time>
      </trkpt>
      <trkpt lat="47.33479" lon="-2.36585">
        <ele>22.200000762939</ele>
        <time>2020-11-29T10:11:57.000Z</time>
      </trkpt>
      <trkpt lat="47.33498" lon="-2.36592">
        <ele>22.200000762939</ele>
        <time>2020-11-29T10:12:02.000Z</time>
      </trkpt>
      <trkpt lat="47.33514" lon="-2.36604">
        <ele>22.200000762939</ele>
        <time>2020-11-29T10:12:06.000Z</time>
      </trkpt>
      <trkpt lat="47.33518" lon="-2.36606">
        <ele>22.200000762939</ele>
        <time>2020-11-29T10:12:07.000Z</time>
      </trkpt>
      <trkpt lat="47.33525" lon="-2.36613">
        <ele>21.799999237061</ele>
        <time>2020-11-29T10:12:09.000Z</time>
      </trkpt>
      <trkpt lat="47.33528" lon="-2.36617">
        <ele>21.200000762939</ele>
        <time>2020-11-29T10:12:10.000Z</time>
      </trkpt>
      <trkpt lat="47.3353" lon="-2.3662">
        <ele>20.799999237061</ele>
        <time>2020-11-29T10:12:11.000Z</time>
      </trkpt>
      <trkpt lat="47.33533" lon="-2.36623">
        <ele>20.39999961853</ele>
        <time>2020-11-29T10:12:12.000Z</time>
      </trkpt>
      <trkpt lat="47.33536" lon="-2.36627">
        <ele>20</ele>
        <time>2020-11-29T10:12:13.000Z</time>
      </trkpt>
      <trkpt lat="47.33538" lon="-2.3663">
        <ele>19.39999961853</ele>
        <time>2020-11-29T10:12:14.000Z</time>
      </trkpt>
      <trkpt lat="47.33539" lon="-2.36635">
        <ele>18.799999237061</ele>
        <time>2020-11-29T10:12:15.000Z</time>
      </trkpt>
      <trkpt lat="47.33537" lon="-2.3664">
        <ele>18.200000762939</ele>
        <time>2020-11-29T10:12:16.000Z</time>
      </trkpt>
      <trkpt lat="47.33536" lon="-2.36646">
        <ele>17.39999961853</ele>
        <time>2020-11-29T10:12:17.000Z</time>
      </trkpt>
      <trkpt lat="47.33533" lon="-2.36651">
        <ele>16.799999237061</ele>
        <time>2020-11-29T10:12:18.000Z</time>
      </trkpt>
      <trkpt lat="47.33531" lon="-2.36656">
        <ele>16.200000762939</ele>
        <time>2020-11-29T10:12:19.000Z</time>
      </trkpt>
      <trkpt lat="47.33528" lon="-2.3666">
        <ele>15.39999961853</ele>
        <time>2020-11-29T10:12:20.000Z</time>
      </trkpt>
      <trkpt lat="47.33521" lon="-2.36665">
        <ele>15.39999961853</ele>
        <time>2020-11-29T10:12:22.000Z</time>
      </trkpt>
      <trkpt lat="47.3351" lon="-2.36685">
        <ele>15.39999961853</ele>
        <time>2020-11-29T10:12:27.000Z</time>
      </trkpt>
      <trkpt lat="47.33501" lon="-2.36703">
        <ele>15.39999961853</ele>
        <time>2020-11-29T10:12:32.000Z</time>
      </trkpt>
      <trkpt lat="47.33497" lon="-2.3671">
        <ele>15.39999961853</ele>
        <time>2020-11-29T10:12:35.000Z</time>
      </trkpt>
      <trkpt lat="47.33491" lon="-2.3673">
        <ele>15.39999961853</ele>
        <time>2020-11-29T10:12:41.000Z</time>
      </trkpt>
      <trkpt lat="47.33485" lon="-2.36748">
        <ele>15.39999961853</ele>
        <time>2020-11-29T10:12:47.000Z</time>
      </trkpt>
      <trkpt lat="47.33477" lon="-2.36767">
        <ele>15.39999961853</ele>
        <time>2020-11-29T10:12:52.000Z</time>
      </trkpt>
      <trkpt lat="47.33471" lon="-2.36795">
        <ele>15.39999961853</ele>
        <time>2020-11-29T10:12:57.000Z</time>
      </trkpt>
      <trkpt lat="47.33467" lon="-2.36823">
        <ele>15.39999961853</ele>
        <time>2020-11-29T10:13:03.000Z</time>
      </trkpt>
      <trkpt lat="47.33462" lon="-2.36845">
        <ele>15.39999961853</ele>
        <time>2020-11-29T10:13:08.000Z</time>
      </trkpt>
      <trkpt lat="47.33451" lon="-2.36865">
        <ele>15.39999961853</ele>
        <time>2020-11-29T10:13:14.000Z</time>
      </trkpt>
      <trkpt lat="47.33446" lon="-2.36884">
        <ele>15.39999961853</ele>
        <time>2020-11-29T10:13:20.000Z</time>
      </trkpt>
      <trkpt lat="47.33449" lon="-2.36903">
        <ele>15.39999961853</ele>
        <time>2020-11-29T10:13:24.000Z</time>
      </trkpt>
      <trkpt lat="47.33455" lon="-2.36936">
        <ele>15.39999961853</ele>
        <time>2020-11-29T10:13:30.000Z</time>
      </trkpt>
      <trkpt lat="47.33455" lon="-2.36958">
        <ele>15.39999961853</ele>
        <time>2020-11-29T10:13:34.000Z</time>
      </trkpt>
      <trkpt lat="47.33464" lon="-2.36979">
        <ele>15.39999961853</ele>
        <time>2020-11-29T10:13:39.000Z</time>
      </trkpt>
      <trkpt lat="47.33472" lon="-2.3699">
        <ele>15.39999961853</ele>
        <time>2020-11-29T10:13:42.000Z</time>
      </trkpt>
      <trkpt lat="47.33473" lon="-2.36995">
        <ele>15.39999961853</ele>
        <time>2020-11-29T10:13:43.000Z</time>
      </trkpt>
      <trkpt lat="47.33473" lon="-2.37008">
        <ele>15.800000190735</ele>
        <time>2020-11-29T10:13:45.000Z</time>
      </trkpt>
      <trkpt lat="47.33472" lon="-2.37015">
        <ele>16.200000762939</ele>
        <time>2020-11-29T10:13:46.000Z</time>
      </trkpt>
      <trkpt lat="47.33472" lon="-2.37022">
        <ele>16.60000038147</ele>
        <time>2020-11-29T10:13:47.000Z</time>
      </trkpt>
      <trkpt lat="47.33471" lon="-2.3703">
        <ele>17</ele>
        <time>2020-11-29T10:13:48.000Z</time>
      </trkpt>
      <trkpt lat="47.33471" lon="-2.37038">
        <ele>17.39999961853</ele>
        <time>2020-11-29T10:13:49.000Z</time>
      </trkpt>
      <trkpt lat="47.33472" lon="-2.37069">
        <ele>17.39999961853</ele>
        <time>2020-11-29T10:13:53.000Z</time>
      </trkpt>
      <trkpt lat="47.33478" lon="-2.37121">
        <ele>17.39999961853</ele>
        <time>2020-11-29T10:14:01.000Z</time>
      </trkpt>
      <trkpt lat="47.33478" lon="-2.37126">
        <ele>17.799999237061</ele>
        <time>2020-11-29T10:14:02.000Z</time>
      </trkpt>
      <trkpt lat="47.33479" lon="-2.37132">
        <ele>18.200000762939</ele>
        <time>2020-11-29T10:14:03.000Z</time>
      </trkpt>
      <trkpt lat="47.3348" lon="-2.37138">
        <ele>18.799999237061</ele>
        <time>2020-11-29T10:14:04.000Z</time>
      </trkpt>
      <trkpt lat="47.3348" lon="-2.37144">
        <ele>19.200000762939</ele>
        <time>2020-11-29T10:14:05.000Z</time>
      </trkpt>
      <trkpt lat="47.33481" lon="-2.37149">
        <ele>19.60000038147</ele>
        <time>2020-11-29T10:14:06.000Z</time>
      </trkpt>
      <trkpt lat="47.33482" lon="-2.3716">
        <ele>19.60000038147</ele>
        <time>2020-11-29T10:14:08.000Z</time>
      </trkpt>
      <trkpt lat="47.33487" lon="-2.37193">
        <ele>19.60000038147</ele>
        <time>2020-11-29T10:14:14.000Z</time>
      </trkpt>
      <trkpt lat="47.33496" lon="-2.37231">
        <ele>20</ele>
        <time>2020-11-29T10:14:20.000Z</time>
      </trkpt>
      <trkpt lat="47.33498" lon="-2.37237">
        <ele>20.39999961853</ele>
        <time>2020-11-29T10:14:21.000Z</time>
      </trkpt>
      <trkpt lat="47.33501" lon="-2.37243">
        <ele>20.799999237061</ele>
        <time>2020-11-29T10:14:22.000Z</time>
      </trkpt>
      <trkpt lat="47.33502" lon="-2.37249">
        <ele>21.200000762939</ele>
        <time>2020-11-29T10:14:23.000Z</time>
      </trkpt>
      <trkpt lat="47.33504" lon="-2.37254">
        <ele>21.60000038147</ele>
        <time>2020-11-29T10:14:24.000Z</time>
      </trkpt>
      <trkpt lat="47.33506" lon="-2.3726">
        <ele>21.60000038147</ele>
        <time>2020-11-29T10:14:25.000Z</time>
      </trkpt>
      <trkpt lat="47.33513" lon="-2.37279">
        <ele>22</ele>
        <time>2020-11-29T10:14:28.000Z</time>
      </trkpt>
      <trkpt lat="47.33514" lon="-2.37285">
        <ele>22.39999961853</ele>
        <time>2020-11-29T10:14:29.000Z</time>
      </trkpt>
      <trkpt lat="47.33516" lon="-2.37292">
        <ele>22.799999237061</ele>
        <time>2020-11-29T10:14:30.000Z</time>
      </trkpt>
      <trkpt lat="47.33518" lon="-2.37298">
        <ele>23.200000762939</ele>
        <time>2020-11-29T10:14:31.000Z</time>
      </trkpt>
      <trkpt lat="47.33519" lon="-2.37304">
        <ele>23.60000038147</ele>
        <time>2020-11-29T10:14:32.000Z</time>
      </trkpt>
      <trkpt lat="47.33529" lon="-2.37341">
        <ele>23.60000038147</ele>
        <time>2020-11-29T10:14:38.000Z</time>
      </trkpt>
      <trkpt lat="47.33532" lon="-2.37352">
        <ele>24</ele>
        <time>2020-11-29T10:14:40.000Z</time>
      </trkpt>
      <trkpt lat="47.33534" lon="-2.37357">
        <ele>24.60000038147</ele>
        <time>2020-11-29T10:14:41.000Z</time>
      </trkpt>
      <trkpt lat="47.33535" lon="-2.37363">
        <ele>25</ele>
        <time>2020-11-29T10:14:42.000Z</time>
      </trkpt>
      <trkpt lat="47.33536" lon="-2.37369">
        <ele>25.39999961853</ele>
        <time>2020-11-29T10:14:43.000Z</time>
      </trkpt>
      <trkpt lat="47.33537" lon="-2.37375">
        <ele>25.799999237061</ele>
        <time>2020-11-29T10:14:44.000Z</time>
      </trkpt>
      <trkpt lat="47.33539" lon="-2.37394">
        <ele>25.799999237061</ele>
        <time>2020-11-29T10:14:47.000Z</time>
      </trkpt>
      <trkpt lat="47.33539" lon="-2.37413">
        <ele>26.200000762939</ele>
        <time>2020-11-29T10:14:50.000Z</time>
      </trkpt>
      <trkpt lat="47.33539" lon="-2.37418">
        <ele>26.60000038147</ele>
        <time>2020-11-29T10:14:51.000Z</time>
      </trkpt>
      <trkpt lat="47.33538" lon="-2.37424">
        <ele>27</ele>
        <time>2020-11-29T10:14:52.000Z</time>
      </trkpt>
      <trkpt lat="47.33538" lon="-2.3743">
        <ele>27.39999961853</ele>
        <time>2020-11-29T10:14:53.000Z</time>
      </trkpt>
      <trkpt lat="47.33537" lon="-2.37436">
        <ele>27.799999237061</ele>
        <time>2020-11-29T10:14:54.000Z</time>
      </trkpt>
      <trkpt lat="47.33535" lon="-2.37454">
        <ele>27.799999237061</ele>
        <time>2020-11-29T10:14:57.000Z</time>
      </trkpt>
      <trkpt lat="47.33533" lon="-2.3746">
        <ele>27.799999237061</ele>
        <time>2020-11-29T10:14:58.000Z</time>
      </trkpt>
      <trkpt lat="47.33524" lon="-2.37488">
        <ele>27.799999237061</ele>
        <time>2020-11-29T10:15:03.000Z</time>
      </trkpt>
      <trkpt lat="47.33514" lon="-2.37509">
        <ele>28.200000762939</ele>
        <time>2020-11-29T10:15:07.000Z</time>
      </trkpt>
      <trkpt lat="47.33511" lon="-2.37513">
        <ele>28.60000038147</ele>
        <time>2020-11-29T10:15:08.000Z</time>
      </trkpt>
      <trkpt lat="47.33509" lon="-2.37518">
        <ele>29</ele>
        <time>2020-11-29T10:15:09.000Z</time>
      </trkpt>
      <trkpt lat="47.33506" lon="-2.37523">
        <ele>29.39999961853</ele>
        <time>2020-11-29T10:15:10.000Z</time>
      </trkpt>
      <trkpt lat="47.33503" lon="-2.37528">
        <ele>29.799999237061</ele>
        <time>2020-11-29T10:15:11.000Z</time>
      </trkpt>
      <trkpt lat="47.33488" lon="-2.37551">
        <ele>29.799999237061</ele>
        <time>2020-11-29T10:15:16.000Z</time>
      </trkpt>
      <trkpt lat="47.33468" lon="-2.37576">
        <ele>30.200000762939</ele>
        <time>2020-11-29T10:15:21.000Z</time>
      </trkpt>
      <trkpt lat="47.33464" lon="-2.37581">
        <ele>31</ele>
        <time>2020-11-29T10:15:22.000Z</time>
      </trkpt>
      <trkpt lat="47.3346" lon="-2.37585">
        <ele>31.39999961853</ele>
        <time>2020-11-29T10:15:23.000Z</time>
      </trkpt>
      <trkpt lat="47.33455" lon="-2.37589">
        <ele>31.799999237061</ele>
        <time>2020-11-29T10:15:24.000Z</time>
      </trkpt>
      <trkpt lat="47.33435" lon="-2.3761">
        <ele>31.799999237061</ele>
        <time>2020-11-29T10:15:29.000Z</time>
      </trkpt>
      <trkpt lat="47.33426" lon="-2.37618">
        <ele>31.799999237061</ele>
        <time>2020-11-29T10:15:31.000Z</time>
      </trkpt>
      <trkpt lat="47.33405" lon="-2.37638">
        <ele>31.799999237061</ele>
        <time>2020-11-29T10:15:36.000Z</time>
      </trkpt>
      <trkpt lat="47.33397" lon="-2.37648">
        <ele>31.799999237061</ele>
        <time>2020-11-29T10:15:38.000Z</time>
      </trkpt>
      <trkpt lat="47.33394" lon="-2.37654">
        <ele>31.799999237061</ele>
        <time>2020-11-29T10:15:39.000Z</time>
      </trkpt>
      <trkpt lat="47.33392" lon="-2.37661">
        <ele>31.799999237061</ele>
        <time>2020-11-29T10:15:40.000Z</time>
      </trkpt>
      <trkpt lat="47.33389" lon="-2.37681">
        <ele>32.200000762939</ele>
        <time>2020-11-29T10:15:43.000Z</time>
      </trkpt>
      <trkpt lat="47.33388" lon="-2.37687">
        <ele>32.799999237061</ele>
        <time>2020-11-29T10:15:44.000Z</time>
      </trkpt>
      <trkpt lat="47.33388" lon="-2.37695">
        <ele>33.200000762939</ele>
        <time>2020-11-29T10:15:45.000Z</time>
      </trkpt>
      <trkpt lat="47.33388" lon="-2.37701">
        <ele>33.599998474121</ele>
        <time>2020-11-29T10:15:46.000Z</time>
      </trkpt>
      <trkpt lat="47.33388" lon="-2.37708">
        <ele>34</ele>
        <time>2020-11-29T10:15:47.000Z</time>
      </trkpt>
      <trkpt lat="47.33388" lon="-2.37735">
        <ele>34</ele>
        <time>2020-11-29T10:15:51.000Z</time>
      </trkpt>
      <trkpt lat="47.33387" lon="-2.37787">
        <ele>34</ele>
        <time>2020-11-29T10:15:58.000Z</time>
      </trkpt>
      <trkpt lat="47.33383" lon="-2.37812">
        <ele>34</ele>
        <time>2020-11-29T10:16:01.000Z</time>
      </trkpt>
      <trkpt lat="47.33377" lon="-2.37828">
        <ele>34</ele>
        <time>2020-11-29T10:16:03.000Z</time>
      </trkpt>
      <trkpt lat="47.33369" lon="-2.37842">
        <ele>33.599998474121</ele>
        <time>2020-11-29T10:16:05.000Z</time>
      </trkpt>
      <trkpt lat="47.33367" lon="-2.37848">
        <ele>33.200000762939</ele>
        <time>2020-11-29T10:16:06.000Z</time>
      </trkpt>
      <trkpt lat="47.33366" lon="-2.37852">
        <ele>32.599998474121</ele>
        <time>2020-11-29T10:16:07.000Z</time>
      </trkpt>
      <trkpt lat="47.33364" lon="-2.37856">
        <ele>32.200000762939</ele>
        <time>2020-11-29T10:16:08.000Z</time>
      </trkpt>
      <trkpt lat="47.33362" lon="-2.37858">
        <ele>31.799999237061</ele>
        <time>2020-11-29T10:16:09.000Z</time>
      </trkpt>
      <trkpt lat="47.33361" lon="-2.37858">
        <ele>31.799999237061</ele>
        <time>2020-11-29T10:16:10.000Z</time>
      </trkpt>
      <trkpt lat="47.3336" lon="-2.37858">
        <ele>31.799999237061</ele>
        <time>2020-11-29T10:16:11.000Z</time>
      </trkpt>
      <trkpt lat="47.3336" lon="-2.37857">
        <ele>31.799999237061</ele>
        <time>2020-11-29T10:16:12.000Z</time>
      </trkpt>
      <trkpt lat="47.33359" lon="-2.37856">
        <ele>31.799999237061</ele>
        <time>2020-11-29T10:16:38.000Z</time>
      </trkpt>
      <trkpt lat="47.33354" lon="-2.37855">
        <ele>31.799999237061</ele>
        <time>2020-11-29T10:16:40.000Z</time>
      </trkpt>
      <trkpt lat="47.33348" lon="-2.37855">
        <ele>31.799999237061</ele>
        <time>2020-11-29T10:16:42.000Z</time>
      </trkpt>
      <trkpt lat="47.33341" lon="-2.37856">
        <ele>31.799999237061</ele>
        <time>2020-11-29T10:16:44.000Z</time>
      </trkpt>
      <trkpt lat="47.33315" lon="-2.37865">
        <ele>31.799999237061</ele>
        <time>2020-11-29T10:16:49.000Z</time>
      </trkpt>
      <trkpt lat="47.33278" lon="-2.37875">
        <ele>31.39999961853</ele>
        <time>2020-11-29T10:16:56.000Z</time>
      </trkpt>
      <trkpt lat="47.33272" lon="-2.37876">
        <ele>31</ele>
        <time>2020-11-29T10:16:57.000Z</time>
      </trkpt>
      <trkpt lat="47.33268" lon="-2.37878">
        <ele>30.60000038147</ele>
        <time>2020-11-29T10:16:58.000Z</time>
      </trkpt>
      <trkpt lat="47.33265" lon="-2.3788">
        <ele>29.799999237061</ele>
        <time>2020-11-29T10:16:59.000Z</time>
      </trkpt>
      <trkpt lat="47.33262" lon="-2.37882">
        <ele>29.200000762939</ele>
        <time>2020-11-29T10:17:00.000Z</time>
      </trkpt>
      <trkpt lat="47.33259" lon="-2.37882">
        <ele>28.60000038147</ele>
        <time>2020-11-29T10:17:01.000Z</time>
      </trkpt>
      <trkpt lat="47.33256" lon="-2.37881">
        <ele>27.39999961853</ele>
        <time>2020-11-29T10:17:02.000Z</time>
      </trkpt>
      <trkpt lat="47.33252" lon="-2.37879">
        <ele>27.39999961853</ele>
        <time>2020-11-29T10:17:03.000Z</time>
      </trkpt>
      <trkpt lat="47.33239" lon="-2.37871">
        <ele>27.39999961853</ele>
        <time>2020-11-29T10:17:06.000Z</time>
      </trkpt>
      <trkpt lat="47.33235" lon="-2.37868">
        <ele>27.39999961853</ele>
        <time>2020-11-29T10:17:07.000Z</time>
      </trkpt>
      <trkpt lat="47.3323" lon="-2.37865">
        <ele>27.39999961853</ele>
        <time>2020-11-29T10:17:08.000Z</time>
      </trkpt>
      <trkpt lat="47.33225" lon="-2.3786">
        <ele>27.39999961853</ele>
        <time>2020-11-29T10:17:09.000Z</time>
      </trkpt>
      <trkpt lat="47.33219" lon="-2.37854">
        <ele>27</ele>
        <time>2020-11-29T10:17:10.000Z</time>
      </trkpt>
      <trkpt lat="47.33215" lon="-2.37848">
        <ele>26.60000038147</ele>
        <time>2020-11-29T10:17:11.000Z</time>
      </trkpt>
      <trkpt lat="47.3321" lon="-2.3784">
        <ele>26.200000762939</ele>
        <time>2020-11-29T10:17:12.000Z</time>
      </trkpt>
      <trkpt lat="47.33205" lon="-2.37832">
        <ele>25.799999237061</ele>
        <time>2020-11-29T10:17:13.000Z</time>
      </trkpt>
      <trkpt lat="47.33201" lon="-2.37824">
        <ele>25.39999961853</ele>
        <time>2020-11-29T10:17:14.000Z</time>
      </trkpt>
      <trkpt lat="47.33176" lon="-2.37781">
        <ele>25.39999961853</ele>
        <time>2020-11-29T10:17:19.000Z</time>
      </trkpt>
      <trkpt lat="47.33152" lon="-2.3774">
        <ele>24.799999237061</ele>
        <time>2020-11-29T10:17:24.000Z</time>
      </trkpt>
      <trkpt lat="47.33146" lon="-2.37737">
        <ele>24.200000762939</ele>
        <time>2020-11-29T10:17:25.000Z</time>
      </trkpt>
      <trkpt lat="47.3314" lon="-2.37737">
        <ele>23.200000762939</ele>
        <time>2020-11-29T10:17:26.000Z</time>
      </trkpt>
      <trkpt lat="47.33134" lon="-2.37738">
        <ele>22.799999237061</ele>
        <time>2020-11-29T10:17:27.000Z</time>
      </trkpt>
      <trkpt lat="47.33114" lon="-2.37753">
        <ele>22.799999237061</ele>
        <time>2020-11-29T10:17:31.000Z</time>
      </trkpt>
      <trkpt lat="47.3311" lon="-2.37758">
        <ele>22.799999237061</ele>
        <time>2020-11-29T10:17:32.000Z</time>
      </trkpt>
      <trkpt lat="47.33093" lon="-2.37777">
        <ele>22.799999237061</ele>
        <time>2020-11-29T10:17:36.000Z</time>
      </trkpt>
      <trkpt lat="47.33065" lon="-2.37804">
        <ele>22.799999237061</ele>
        <time>2020-11-29T10:17:42.000Z</time>
      </trkpt>
      <trkpt lat="47.33044" lon="-2.37825">
        <ele>22.799999237061</ele>
        <time>2020-11-29T10:17:47.000Z</time>
      </trkpt>
      <trkpt lat="47.33021" lon="-2.37857">
        <ele>22.799999237061</ele>
        <time>2020-11-29T10:17:53.000Z</time>
      </trkpt>
      <trkpt lat="47.33017" lon="-2.3787">
        <ele>23.200000762939</ele>
        <time>2020-11-29T10:17:55.000Z</time>
      </trkpt>
      <trkpt lat="47.33014" lon="-2.37877">
        <ele>23.60000038147</ele>
        <time>2020-11-29T10:17:56.000Z</time>
      </trkpt>
      <trkpt lat="47.33011" lon="-2.37883">
        <ele>24</ele>
        <time>2020-11-29T10:17:57.000Z</time>
      </trkpt>
      <trkpt lat="47.33008" lon="-2.3789">
        <ele>24.39999961853</ele>
        <time>2020-11-29T10:17:58.000Z</time>
      </trkpt>
      <trkpt lat="47.33004" lon="-2.37896">
        <ele>24.799999237061</ele>
        <time>2020-11-29T10:17:59.000Z</time>
      </trkpt>
      <trkpt lat="47.32986" lon="-2.37928">
        <ele>24.799999237061</ele>
        <time>2020-11-29T10:18:04.000Z</time>
      </trkpt>
      <trkpt lat="47.32964" lon="-2.37961">
        <ele>24.799999237061</ele>
        <time>2020-11-29T10:18:10.000Z</time>
      </trkpt>
      <trkpt lat="47.3294" lon="-2.37995">
        <ele>24.799999237061</ele>
        <time>2020-11-29T10:18:16.000Z</time>
      </trkpt>
      <trkpt lat="47.32935" lon="-2.38">
        <ele>24.799999237061</ele>
        <time>2020-11-29T10:18:17.000Z</time>
      </trkpt>
      <trkpt lat="47.32914" lon="-2.38029">
        <ele>24.799999237061</ele>
        <time>2020-11-29T10:18:22.000Z</time>
      </trkpt>
      <trkpt lat="47.32899" lon="-2.38055">
        <ele>25.200000762939</ele>
        <time>2020-11-29T10:18:26.000Z</time>
      </trkpt>
      <trkpt lat="47.32896" lon="-2.38062">
        <ele>25.60000038147</ele>
        <time>2020-11-29T10:18:27.000Z</time>
      </trkpt>
      <trkpt lat="47.32893" lon="-2.38068">
        <ele>26</ele>
        <time>2020-11-29T10:18:28.000Z</time>
      </trkpt>
      <trkpt lat="47.32889" lon="-2.38075">
        <ele>26.60000038147</ele>
        <time>2020-11-29T10:18:29.000Z</time>
      </trkpt>
      <trkpt lat="47.32885" lon="-2.38081">
        <ele>27</ele>
        <time>2020-11-29T10:18:30.000Z</time>
      </trkpt>
      <trkpt lat="47.32871" lon="-2.38107">
        <ele>27</ele>
        <time>2020-11-29T10:18:34.000Z</time>
      </trkpt>
      <trkpt lat="47.32846" lon="-2.38149">
        <ele>27</ele>
        <time>2020-11-29T10:18:41.000Z</time>
      </trkpt>
      <trkpt lat="47.32838" lon="-2.38168">
        <ele>27</ele>
        <time>2020-11-29T10:18:44.000Z</time>
      </trkpt>
      <trkpt lat="47.32832" lon="-2.38181">
        <ele>27.39999961853</ele>
        <time>2020-11-29T10:18:46.000Z</time>
      </trkpt>
      <trkpt lat="47.3283" lon="-2.38187">
        <ele>27.799999237061</ele>
        <time>2020-11-29T10:18:47.000Z</time>
      </trkpt>
      <trkpt lat="47.32827" lon="-2.38194">
        <ele>28.200000762939</ele>
        <time>2020-11-29T10:18:48.000Z</time>
      </trkpt>
      <trkpt lat="47.32825" lon="-2.38201">
        <ele>28.60000038147</ele>
        <time>2020-11-29T10:18:49.000Z</time>
      </trkpt>
      <trkpt lat="47.32823" lon="-2.38208">
        <ele>29</ele>
        <time>2020-11-29T10:18:50.000Z</time>
      </trkpt>
      <trkpt lat="47.32814" lon="-2.38232">
        <ele>29</ele>
        <time>2020-11-29T10:18:54.000Z</time>
      </trkpt>
      <trkpt lat="47.32811" lon="-2.38243">
        <ele>29.39999961853</ele>
        <time>2020-11-29T10:18:56.000Z</time>
      </trkpt>
      <trkpt lat="47.32809" lon="-2.38249">
        <ele>29.799999237061</ele>
        <time>2020-11-29T10:18:57.000Z</time>
      </trkpt>
      <trkpt lat="47.32808" lon="-2.38254">
        <ele>30.200000762939</ele>
        <time>2020-11-29T10:18:58.000Z</time>
      </trkpt>
      <trkpt lat="47.32807" lon="-2.38259">
        <ele>30.60000038147</ele>
        <time>2020-11-29T10:18:59.000Z</time>
      </trkpt>
      <trkpt lat="47.32805" lon="-2.38265">
        <ele>31</ele>
        <time>2020-11-29T10:19:00.000Z</time>
      </trkpt>
      <trkpt lat="47.32801" lon="-2.38282">
        <ele>31.39999961853</ele>
        <time>2020-11-29T10:19:03.000Z</time>
      </trkpt>
      <trkpt lat="47.328" lon="-2.38288">
        <ele>32.200000762939</ele>
        <time>2020-11-29T10:19:04.000Z</time>
      </trkpt>
      <trkpt lat="47.32799" lon="-2.38293">
        <ele>32.599998474121</ele>
        <time>2020-11-29T10:19:05.000Z</time>
      </trkpt>
      <trkpt lat="47.32798" lon="-2.38298">
        <ele>33</ele>
        <time>2020-11-29T10:19:06.000Z</time>
      </trkpt>
      <trkpt lat="47.32794" lon="-2.38309">
        <ele>33</ele>
        <time>2020-11-29T10:19:08.000Z</time>
      </trkpt>
      <trkpt lat="47.3279" lon="-2.38324">
        <ele>33.400001525879</ele>
        <time>2020-11-29T10:19:11.000Z</time>
      </trkpt>
      <trkpt lat="47.32789" lon="-2.38329">
        <ele>33.799999237061</ele>
        <time>2020-11-29T10:19:12.000Z</time>
      </trkpt>
      <trkpt lat="47.32789" lon="-2.38335">
        <ele>34.200000762939</ele>
        <time>2020-11-29T10:19:13.000Z</time>
      </trkpt>
      <trkpt lat="47.32788" lon="-2.38341">
        <ele>34.599998474121</ele>
        <time>2020-11-29T10:19:14.000Z</time>
      </trkpt>
      <trkpt lat="47.32788" lon="-2.38346">
        <ele>35</ele>
        <time>2020-11-29T10:19:15.000Z</time>
      </trkpt>
      <trkpt lat="47.32786" lon="-2.38362">
        <ele>35</ele>
        <time>2020-11-29T10:19:18.000Z</time>
      </trkpt>
      <trkpt lat="47.32784" lon="-2.38376">
        <ele>35.400001525879</ele>
        <time>2020-11-29T10:19:21.000Z</time>
      </trkpt>
      <trkpt lat="47.32783" lon="-2.3838">
        <ele>36</ele>
        <time>2020-11-29T10:19:22.000Z</time>
      </trkpt>
      <trkpt lat="47.32783" lon="-2.38384">
        <ele>36.400001525879</ele>
        <time>2020-11-29T10:19:23.000Z</time>
      </trkpt>
      <trkpt lat="47.32781" lon="-2.38387">
        <ele>36.799999237061</ele>
        <time>2020-11-29T10:19:24.000Z</time>
      </trkpt>
      <trkpt lat="47.32779" lon="-2.3839">
        <ele>37.200000762939</ele>
        <time>2020-11-29T10:19:25.000Z</time>
      </trkpt>
      <trkpt lat="47.3277" lon="-2.38394">
        <ele>37.200000762939</ele>
        <time>2020-11-29T10:19:28.000Z</time>
      </trkpt>
      <trkpt lat="47.32747" lon="-2.38398">
        <ele>37.200000762939</ele>
        <time>2020-11-29T10:19:34.000Z</time>
      </trkpt>
      <trkpt lat="47.32719" lon="-2.38403">
        <ele>37.200000762939</ele>
        <time>2020-11-29T10:19:40.000Z</time>
      </trkpt>
      <trkpt lat="47.32699" lon="-2.38403">
        <ele>37.200000762939</ele>
        <time>2020-11-29T10:19:44.000Z</time>
      </trkpt>
      <trkpt lat="47.32694" lon="-2.384">
        <ele>37.200000762939</ele>
        <time>2020-11-29T10:19:45.000Z</time>
      </trkpt>
      <trkpt lat="47.32679" lon="-2.38383">
        <ele>37.200000762939</ele>
        <time>2020-11-29T10:19:48.000Z</time>
      </trkpt>
      <trkpt lat="47.32673" lon="-2.38376">
        <ele>37.200000762939</ele>
        <time>2020-11-29T10:19:49.000Z</time>
      </trkpt>
      <trkpt lat="47.32645" lon="-2.38338">
        <ele>36.799999237061</ele>
        <time>2020-11-29T10:19:54.000Z</time>
      </trkpt>
      <trkpt lat="47.32639" lon="-2.38331">
        <ele>36.400001525879</ele>
        <time>2020-11-29T10:19:55.000Z</time>
      </trkpt>
      <trkpt lat="47.32632" lon="-2.38323">
        <ele>35.799999237061</ele>
        <time>2020-11-29T10:19:56.000Z</time>
      </trkpt>
      <trkpt lat="47.32626" lon="-2.38315">
        <ele>35.400001525879</ele>
        <time>2020-11-29T10:19:57.000Z</time>
      </trkpt>
      <trkpt lat="47.3262" lon="-2.38308">
        <ele>35</ele>
        <time>2020-11-29T10:19:58.000Z</time>
      </trkpt>
      <trkpt lat="47.32613" lon="-2.38301">
        <ele>35</ele>
        <time>2020-11-29T10:19:59.000Z</time>
      </trkpt>
      <trkpt lat="47.32605" lon="-2.38296">
        <ele>34.599998474121</ele>
        <time>2020-11-29T10:20:00.000Z</time>
      </trkpt>
      <trkpt lat="47.32597" lon="-2.38294">
        <ele>34</ele>
        <time>2020-11-29T10:20:01.000Z</time>
      </trkpt>
      <trkpt lat="47.32589" lon="-2.38295">
        <ele>33.599998474121</ele>
        <time>2020-11-29T10:20:02.000Z</time>
      </trkpt>
      <trkpt lat="47.32582" lon="-2.38297">
        <ele>33</ele>
        <time>2020-11-29T10:20:03.000Z</time>
      </trkpt>
      <trkpt lat="47.32575" lon="-2.38299">
        <ele>32.599998474121</ele>
        <time>2020-11-29T10:20:04.000Z</time>
      </trkpt>
      <trkpt lat="47.32568" lon="-2.38301">
        <ele>32.200000762939</ele>
        <time>2020-11-29T10:20:05.000Z</time>
      </trkpt>
      <trkpt lat="47.32561" lon="-2.38303">
        <ele>31.799999237061</ele>
        <time>2020-11-29T10:20:06.000Z</time>
      </trkpt>
      <trkpt lat="47.32554" lon="-2.38305">
        <ele>31.200000762939</ele>
        <time>2020-11-29T10:20:07.000Z</time>
      </trkpt>
      <trkpt lat="47.32549" lon="-2.38307">
        <ele>30.799999237061</ele>
        <time>2020-11-29T10:20:08.000Z</time>
      </trkpt>
      <trkpt lat="47.32544" lon="-2.38309">
        <ele>30.39999961853</ele>
        <time>2020-11-29T10:20:09.000Z</time>
      </trkpt>
      <trkpt lat="47.32531" lon="-2.38313">
        <ele>30.39999961853</ele>
        <time>2020-11-29T10:20:13.000Z</time>
      </trkpt>
      <trkpt lat="47.32531" lon="-2.38319">
        <ele>30.39999961853</ele>
        <time>2020-11-29T10:20:16.000Z</time>
      </trkpt>
      <trkpt lat="47.32529" lon="-2.38335">
        <ele>30.39999961853</ele>
        <time>2020-11-29T10:20:21.000Z</time>
      </trkpt>
      <trkpt lat="47.32527" lon="-2.38343">
        <ele>30.39999961853</ele>
        <time>2020-11-29T10:20:23.000Z</time>
      </trkpt>
      <trkpt lat="47.32525" lon="-2.38351">
        <ele>30.39999961853</ele>
        <time>2020-11-29T10:20:25.000Z</time>
      </trkpt>
      <trkpt lat="47.32524" lon="-2.38374">
        <ele>30.39999961853</ele>
        <time>2020-11-29T10:20:31.000Z</time>
      </trkpt>
      <trkpt lat="47.32519" lon="-2.38384">
        <ele>30.39999961853</ele>
        <time>2020-11-29T10:20:36.000Z</time>
      </trkpt>
      <trkpt lat="47.32514" lon="-2.38387">
        <ele>30.39999961853</ele>
        <time>2020-11-29T10:20:39.000Z</time>
      </trkpt>
      <trkpt lat="47.32509" lon="-2.38385">
        <ele>30.39999961853</ele>
        <time>2020-11-29T10:20:42.000Z</time>
      </trkpt>
      <trkpt lat="47.32506" lon="-2.38384">
        <ele>30.39999961853</ele>
        <time>2020-11-29T10:20:46.000Z</time>
      </trkpt>
      <trkpt lat="47.32505" lon="-2.38384">
        <ele>30.39999961853</ele>
        <time>2020-11-29T10:20:47.000Z</time>
      </trkpt>
      <trkpt lat="47.32493" lon="-2.38381">
        <ele>30.39999961853</ele>
        <time>2020-11-29T10:20:54.000Z</time>
      </trkpt>
      <trkpt lat="47.32492" lon="-2.3838">
        <ele>30.39999961853</ele>
        <time>2020-11-29T10:20:55.000Z</time>
      </trkpt>
      <trkpt lat="47.32478" lon="-2.38374">
        <ele>30.39999961853</ele>
        <time>2020-11-29T10:21:03.000Z</time>
      </trkpt>
      <trkpt lat="47.32472" lon="-2.38371">
        <ele>30.799999237061</ele>
        <time>2020-11-29T10:21:06.000Z</time>
      </trkpt>
      <trkpt lat="47.3247" lon="-2.3837">
        <ele>31.60000038147</ele>
        <time>2020-11-29T10:21:07.000Z</time>
      </trkpt>
      <trkpt lat="47.32468" lon="-2.38369">
        <ele>32</ele>
        <time>2020-11-29T10:21:08.000Z</time>
      </trkpt>
      <trkpt lat="47.32465" lon="-2.38368">
        <ele>32.400001525879</ele>
        <time>2020-11-29T10:21:09.000Z</time>
      </trkpt>
      <trkpt lat="47.3246" lon="-2.38366">
        <ele>32.400001525879</ele>
        <time>2020-11-29T10:21:11.000Z</time>
      </trkpt>
      <trkpt lat="47.32447" lon="-2.38361">
        <ele>32.400001525879</ele>
        <time>2020-11-29T10:21:16.000Z</time>
      </trkpt>
      <trkpt lat="47.32426" lon="-2.38356">
        <ele>32.400001525879</ele>
        <time>2020-11-29T10:21:24.000Z</time>
      </trkpt>
      <trkpt lat="47.32418" lon="-2.38351">
        <ele>32.400001525879</ele>
        <time>2020-11-29T10:21:28.000Z</time>
      </trkpt>
      <trkpt lat="47.32408" lon="-2.38345">
        <ele>32.400001525879</ele>
        <time>2020-11-29T10:21:48.000Z</time>
      </trkpt>
      <trkpt lat="47.32395" lon="-2.38338">
        <ele>32.400001525879</ele>
        <time>2020-11-29T10:21:52.000Z</time>
      </trkpt>
      <trkpt lat="47.32368" lon="-2.38328">
        <ele>32.400001525879</ele>
        <time>2020-11-29T10:21:58.000Z</time>
      </trkpt>
      <trkpt lat="47.32357" lon="-2.38325">
        <ele>32.400001525879</ele>
        <time>2020-11-29T10:22:00.000Z</time>
      </trkpt>
      <trkpt lat="47.32336" lon="-2.38318">
        <ele>32.400001525879</ele>
        <time>2020-11-29T10:22:04.000Z</time>
      </trkpt>
      <trkpt lat="47.32301" lon="-2.38306">
        <ele>32</ele>
        <time>2020-11-29T10:22:10.000Z</time>
      </trkpt>
      <trkpt lat="47.32295" lon="-2.38305">
        <ele>31.60000038147</ele>
        <time>2020-11-29T10:22:11.000Z</time>
      </trkpt>
      <trkpt lat="47.32288" lon="-2.38303">
        <ele>31.200000762939</ele>
        <time>2020-11-29T10:22:12.000Z</time>
      </trkpt>
      <trkpt lat="47.32282" lon="-2.38302">
        <ele>30.799999237061</ele>
        <time>2020-11-29T10:22:13.000Z</time>
      </trkpt>
      <trkpt lat="47.32275" lon="-2.38301">
        <ele>30.39999961853</ele>
        <time>2020-11-29T10:22:14.000Z</time>
      </trkpt>
      <trkpt lat="47.32254" lon="-2.38303">
        <ele>30.39999961853</ele>
        <time>2020-11-29T10:22:17.000Z</time>
      </trkpt>
      <trkpt lat="47.32219" lon="-2.38302">
        <ele>30.39999961853</ele>
        <time>2020-11-29T10:22:23.000Z</time>
      </trkpt>
      <trkpt lat="47.32215" lon="-2.38304">
        <ele>30.39999961853</ele>
        <time>2020-11-29T10:22:24.000Z</time>
      </trkpt>
      <trkpt lat="47.32208" lon="-2.3831">
        <ele>30</ele>
        <time>2020-11-29T10:22:26.000Z</time>
      </trkpt>
      <trkpt lat="47.32205" lon="-2.38314">
        <ele>29.60000038147</ele>
        <time>2020-11-29T10:22:27.000Z</time>
      </trkpt>
      <trkpt lat="47.32201" lon="-2.38317">
        <ele>29.200000762939</ele>
        <time>2020-11-29T10:22:28.000Z</time>
      </trkpt>
      <trkpt lat="47.32198" lon="-2.38322">
        <ele>28.799999237061</ele>
        <time>2020-11-29T10:22:29.000Z</time>
      </trkpt>
      <trkpt lat="47.32194" lon="-2.38326">
        <ele>28.39999961853</ele>
        <time>2020-11-29T10:22:30.000Z</time>
      </trkpt>
      <trkpt lat="47.32191" lon="-2.3833">
        <ele>28.39999961853</ele>
        <time>2020-11-29T10:22:31.000Z</time>
      </trkpt>
      <trkpt lat="47.32183" lon="-2.38339">
        <ele>28.39999961853</ele>
        <time>2020-11-29T10:22:33.000Z</time>
      </trkpt>
      <trkpt lat="47.3217" lon="-2.38358">
        <ele>28.39999961853</ele>
        <time>2020-11-29T10:22:37.000Z</time>
      </trkpt>
      <trkpt lat="47.3215" lon="-2.38387">
        <ele>28.39999961853</ele>
        <time>2020-11-29T10:22:43.000Z</time>
      </trkpt>
      <trkpt lat="47.32133" lon="-2.38408">
        <ele>28.39999961853</ele>
        <time>2020-11-29T10:22:48.000Z</time>
      </trkpt>
      <trkpt lat="47.32125" lon="-2.38414">
        <ele>28.39999961853</ele>
        <time>2020-11-29T10:22:50.000Z</time>
      </trkpt>
      <trkpt lat="47.32116" lon="-2.38418">
        <ele>28.799999237061</ele>
        <time>2020-11-29T10:22:52.000Z</time>
      </trkpt>
      <trkpt lat="47.32112" lon="-2.3842">
        <ele>29.200000762939</ele>
        <time>2020-11-29T10:22:53.000Z</time>
      </trkpt>
      <trkpt lat="47.32108" lon="-2.38422">
        <ele>29.60000038147</ele>
        <time>2020-11-29T10:22:54.000Z</time>
      </trkpt>
      <trkpt lat="47.32104" lon="-2.38424">
        <ele>30</ele>
        <time>2020-11-29T10:22:55.000Z</time>
      </trkpt>
      <trkpt lat="47.321" lon="-2.38425">
        <ele>30.60000038147</ele>
        <time>2020-11-29T10:22:56.000Z</time>
      </trkpt>
      <trkpt lat="47.32078" lon="-2.38435">
        <ele>30.60000038147</ele>
        <time>2020-11-29T10:23:01.000Z</time>
      </trkpt>
      <trkpt lat="47.32051" lon="-2.38447">
        <ele>30.60000038147</ele>
        <time>2020-11-29T10:23:08.000Z</time>
      </trkpt>
      <trkpt lat="47.32025" lon="-2.38453">
        <ele>30.60000038147</ele>
        <time>2020-11-29T10:23:15.000Z</time>
      </trkpt>
      <trkpt lat="47.32022" lon="-2.38455">
        <ele>31</ele>
        <time>2020-11-29T10:23:16.000Z</time>
      </trkpt>
      <trkpt lat="47.32019" lon="-2.38456">
        <ele>31.39999961853</ele>
        <time>2020-11-29T10:23:17.000Z</time>
      </trkpt>
      <trkpt lat="47.32016" lon="-2.38458">
        <ele>31.799999237061</ele>
        <time>2020-11-29T10:23:18.000Z</time>
      </trkpt>
      <trkpt lat="47.32014" lon="-2.38459">
        <ele>32.200000762939</ele>
        <time>2020-11-29T10:23:19.000Z</time>
      </trkpt>
      <trkpt lat="47.32011" lon="-2.3846">
        <ele>32.599998474121</ele>
        <time>2020-11-29T10:23:20.000Z</time>
      </trkpt>
      <trkpt lat="47.32006" lon="-2.38462">
        <ele>32.599998474121</ele>
        <time>2020-11-29T10:23:22.000Z</time>
      </trkpt>
      <trkpt lat="47.31993" lon="-2.38468">
        <ele>32.599998474121</ele>
        <time>2020-11-29T10:23:25.000Z</time>
      </trkpt>
      <trkpt lat="47.31985" lon="-2.38472">
        <ele>32.599998474121</ele>
        <time>2020-11-29T10:23:27.000Z</time>
      </trkpt>
      <trkpt lat="47.31963" lon="-2.38482">
        <ele>32.599998474121</ele>
        <time>2020-11-29T10:23:33.000Z</time>
      </trkpt>
      <trkpt lat="47.3195" lon="-2.38486">
        <ele>33</ele>
        <time>2020-11-29T10:23:36.000Z</time>
      </trkpt>
      <trkpt lat="47.31946" lon="-2.38487">
        <ele>33.400001525879</ele>
        <time>2020-11-29T10:23:37.000Z</time>
      </trkpt>
      <trkpt lat="47.31942" lon="-2.38488">
        <ele>33.799999237061</ele>
        <time>2020-11-29T10:23:38.000Z</time>
      </trkpt>
      <trkpt lat="47.31938" lon="-2.38489">
        <ele>34.200000762939</ele>
        <time>2020-11-29T10:23:39.000Z</time>
      </trkpt>
      <trkpt lat="47.31933" lon="-2.38489">
        <ele>34.599998474121</ele>
        <time>2020-11-29T10:23:40.000Z</time>
      </trkpt>
      <trkpt lat="47.31929" lon="-2.38489">
        <ele>34.599998474121</ele>
        <time>2020-11-29T10:23:41.000Z</time>
      </trkpt>
      <trkpt lat="47.3191" lon="-2.38499">
        <ele>34.599998474121</ele>
        <time>2020-11-29T10:23:46.000Z</time>
      </trkpt>
      <trkpt lat="47.31906" lon="-2.38502">
        <ele>34.599998474121</ele>
        <time>2020-11-29T10:23:47.000Z</time>
      </trkpt>
      <trkpt lat="47.31896" lon="-2.38509">
        <ele>35</ele>
        <time>2020-11-29T10:23:50.000Z</time>
      </trkpt>
      <trkpt lat="47.31892" lon="-2.3851">
        <ele>35.400001525879</ele>
        <time>2020-11-29T10:23:51.000Z</time>
      </trkpt>
      <trkpt lat="47.31888" lon="-2.38512">
        <ele>35.799999237061</ele>
        <time>2020-11-29T10:23:52.000Z</time>
      </trkpt>
      <trkpt lat="47.31885" lon="-2.38513">
        <ele>36.200000762939</ele>
        <time>2020-11-29T10:23:53.000Z</time>
      </trkpt>
      <trkpt lat="47.31881" lon="-2.38515">
        <ele>36.599998474121</ele>
        <time>2020-11-29T10:23:54.000Z</time>
      </trkpt>
      <trkpt lat="47.31861" lon="-2.38522">
        <ele>37.200000762939</ele>
        <time>2020-11-29T10:24:00.000Z</time>
      </trkpt>
      <trkpt lat="47.31861" lon="-2.38522">
        <ele>37.599998474121</ele>
        <time>2020-11-29T10:24:01.000Z</time>
      </trkpt>
      <trkpt lat="47.31861" lon="-2.38521">
        <ele>38</ele>
        <time>2020-11-29T10:24:02.000Z</time>
      </trkpt>
      <trkpt lat="47.31856" lon="-2.38525">
        <ele>39</ele>
        <time>2020-11-29T10:26:46.000Z</time>
      </trkpt>
      <trkpt lat="47.31854" lon="-2.38526">
        <ele>39</ele>
        <time>2020-11-29T10:26:47.000Z</time>
      </trkpt>
      <trkpt lat="47.31842" lon="-2.38527">
        <ele>39</ele>
        <time>2020-11-29T10:26:52.000Z</time>
      </trkpt>
      <trkpt lat="47.31822" lon="-2.38533">
        <ele>39.400001525879</ele>
        <time>2020-11-29T10:26:58.000Z</time>
      </trkpt>
      <trkpt lat="47.31819" lon="-2.38533">
        <ele>39.799999237061</ele>
        <time>2020-11-29T10:26:59.000Z</time>
      </trkpt>
      <trkpt lat="47.31817" lon="-2.38534">
        <ele>40.200000762939</ele>
        <time>2020-11-29T10:27:00.000Z</time>
      </trkpt>
      <trkpt lat="47.31815" lon="-2.38534">
        <ele>40.599998474121</ele>
        <time>2020-11-29T10:27:01.000Z</time>
      </trkpt>
      <trkpt lat="47.31813" lon="-2.38533">
        <ele>41</ele>
        <time>2020-11-29T10:27:02.000Z</time>
      </trkpt>
      <trkpt lat="47.3181" lon="-2.38531">
        <ele>41</ele>
        <time>2020-11-29T10:27:04.000Z</time>
      </trkpt>
      <trkpt lat="47.31808" lon="-2.38526">
        <ele>41</ele>
        <time>2020-11-29T10:27:07.000Z</time>
      </trkpt>
      <trkpt lat="47.31809" lon="-2.38521">
        <ele>41</ele>
        <time>2020-11-29T10:27:09.000Z</time>
      </trkpt>
      <trkpt lat="47.3181" lon="-2.38506">
        <ele>41</ele>
        <time>2020-11-29T10:27:15.000Z</time>
      </trkpt>
      <trkpt lat="47.31811" lon="-2.38479">
        <ele>41</ele>
        <time>2020-11-29T10:27:21.000Z</time>
      </trkpt>
      <trkpt lat="47.31811" lon="-2.38473">
        <ele>41</ele>
        <time>2020-11-29T10:27:22.000Z</time>
      </trkpt>
      <trkpt lat="47.31811" lon="-2.38437">
        <ele>41</ele>
        <time>2020-11-29T10:27:28.000Z</time>
      </trkpt>
      <trkpt lat="47.3181" lon="-2.38381">
        <ele>41</ele>
        <time>2020-11-29T10:27:36.000Z</time>
      </trkpt>
      <trkpt lat="47.31809" lon="-2.38313">
        <ele>41</ele>
        <time>2020-11-29T10:27:44.000Z</time>
      </trkpt>
      <trkpt lat="47.31808" lon="-2.38262">
        <ele>41</ele>
        <time>2020-11-29T10:27:49.000Z</time>
      </trkpt>
      <trkpt lat="47.31806" lon="-2.38227">
        <ele>40.599998474121</ele>
        <time>2020-11-29T10:27:52.000Z</time>
      </trkpt>
      <trkpt lat="47.31806" lon="-2.38215">
        <ele>40.200000762939</ele>
        <time>2020-11-29T10:27:53.000Z</time>
      </trkpt>
      <trkpt lat="47.31805" lon="-2.38203">
        <ele>39.799999237061</ele>
        <time>2020-11-29T10:27:54.000Z</time>
      </trkpt>
      <trkpt lat="47.31805" lon="-2.3819">
        <ele>39.400001525879</ele>
        <time>2020-11-29T10:27:55.000Z</time>
      </trkpt>
      <trkpt lat="47.31804" lon="-2.38178">
        <ele>39</ele>
        <time>2020-11-29T10:27:56.000Z</time>
      </trkpt>
      <trkpt lat="47.31802" lon="-2.38105">
        <ele>38.599998474121</ele>
        <time>2020-11-29T10:28:02.000Z</time>
      </trkpt>
      <trkpt lat="47.31802" lon="-2.38093">
        <ele>38</ele>
        <time>2020-11-29T10:28:03.000Z</time>
      </trkpt>
      <trkpt lat="47.31801" lon="-2.38081">
        <ele>37.599998474121</ele>
        <time>2020-11-29T10:28:04.000Z</time>
      </trkpt>
      <trkpt lat="47.31801" lon="-2.38068">
        <ele>37.200000762939</ele>
        <time>2020-11-29T10:28:05.000Z</time>
      </trkpt>
      <trkpt lat="47.318" lon="-2.38057">
        <ele>36.799999237061</ele>
        <time>2020-11-29T10:28:06.000Z</time>
      </trkpt>
      <trkpt lat="47.31796" lon="-2.37974">
        <ele>36.799999237061</ele>
        <time>2020-11-29T10:28:13.000Z</time>
      </trkpt>
      <trkpt lat="47.31797" lon="-2.37964">
        <ele>36.799999237061</ele>
        <time>2020-11-29T10:28:14.000Z</time>
      </trkpt>
      <trkpt lat="47.31797" lon="-2.37953">
        <ele>36.400001525879</ele>
        <time>2020-11-29T10:28:15.000Z</time>
      </trkpt>
      <trkpt lat="47.31798" lon="-2.37942">
        <ele>36</ele>
        <time>2020-11-29T10:28:16.000Z</time>
      </trkpt>
      <trkpt lat="47.31799" lon="-2.37932">
        <ele>35.599998474121</ele>
        <time>2020-11-29T10:28:17.000Z</time>
      </trkpt>
      <trkpt lat="47.31799" lon="-2.37922">
        <ele>35.200000762939</ele>
        <time>2020-11-29T10:28:18.000Z</time>
      </trkpt>
      <trkpt lat="47.318" lon="-2.37912">
        <ele>34.799999237061</ele>
        <time>2020-11-29T10:28:19.000Z</time>
      </trkpt>
      <trkpt lat="47.31801" lon="-2.37903">
        <ele>35.200000762939</ele>
        <time>2020-11-29T10:28:20.000Z</time>
      </trkpt>
      <trkpt lat="47.31802" lon="-2.37895">
        <ele>35.599998474121</ele>
        <time>2020-11-29T10:28:21.000Z</time>
      </trkpt>
      <trkpt lat="47.31803" lon="-2.37887">
        <ele>36</ele>
        <time>2020-11-29T10:28:22.000Z</time>
      </trkpt>
      <trkpt lat="47.31804" lon="-2.37879">
        <ele>36.400001525879</ele>
        <time>2020-11-29T10:28:23.000Z</time>
      </trkpt>
      <trkpt lat="47.31805" lon="-2.37871">
        <ele>36.799999237061</ele>
        <time>2020-11-29T10:28:24.000Z</time>
      </trkpt>
      <trkpt lat="47.31808" lon="-2.37833">
        <ele>36.799999237061</ele>
        <time>2020-11-29T10:28:29.000Z</time>
      </trkpt>
      <trkpt lat="47.31814" lon="-2.37783">
        <ele>37.200000762939</ele>
        <time>2020-11-29T10:28:36.000Z</time>
      </trkpt>
      <trkpt lat="47.31815" lon="-2.37776">
        <ele>37.599998474121</ele>
        <time>2020-11-29T10:28:37.000Z</time>
      </trkpt>
      <trkpt lat="47.31816" lon="-2.3777">
        <ele>38</ele>
        <time>2020-11-29T10:28:38.000Z</time>
      </trkpt>
      <trkpt lat="47.31816" lon="-2.37763">
        <ele>38.400001525879</ele>
        <time>2020-11-29T10:28:39.000Z</time>
      </trkpt>
      <trkpt lat="47.31816" lon="-2.37756">
        <ele>39</ele>
        <time>2020-11-29T10:28:40.000Z</time>
      </trkpt>
      <trkpt lat="47.31818" lon="-2.37731">
        <ele>39</ele>
        <time>2020-11-29T10:28:44.000Z</time>
      </trkpt>
      <trkpt lat="47.31823" lon="-2.37692">
        <ele>39</ele>
        <time>2020-11-29T10:28:51.000Z</time>
      </trkpt>
      <trkpt lat="47.31825" lon="-2.37655">
        <ele>39</ele>
        <time>2020-11-29T10:28:59.000Z</time>
      </trkpt>
      <trkpt lat="47.31817" lon="-2.37649">
        <ele>39</ele>
        <time>2020-11-29T10:29:02.000Z</time>
      </trkpt>
      <trkpt lat="47.31813" lon="-2.3765">
        <ele>39</ele>
        <time>2020-11-29T10:29:03.000Z</time>
      </trkpt>
      <trkpt lat="47.31797" lon="-2.3766">
        <ele>39</ele>
        <time>2020-11-29T10:29:08.000Z</time>
      </trkpt>
      <trkpt lat="47.31794" lon="-2.37662">
        <ele>39</ele>
        <time>2020-11-29T10:29:09.000Z</time>
      </trkpt>
      <trkpt lat="47.31779" lon="-2.37676">
        <ele>39</ele>
        <time>2020-11-29T10:29:15.000Z</time>
      </trkpt>
      <trkpt lat="47.31762" lon="-2.37693">
        <ele>39</ele>
        <time>2020-11-29T10:29:21.000Z</time>
      </trkpt>
      <trkpt lat="47.31741" lon="-2.37709">
        <ele>39</ele>
        <time>2020-11-29T10:29:27.000Z</time>
      </trkpt>
      <trkpt lat="47.31725" lon="-2.37715">
        <ele>39</ele>
        <time>2020-11-29T10:29:31.000Z</time>
      </trkpt>
      <trkpt lat="47.31714" lon="-2.37716">
        <ele>39</ele>
        <time>2020-11-29T10:29:34.000Z</time>
      </trkpt>
      <trkpt lat="47.31685" lon="-2.37706">
        <ele>39</ele>
        <time>2020-11-29T10:29:41.000Z</time>
      </trkpt>
      <trkpt lat="47.31682" lon="-2.37702">
        <ele>39</ele>
        <time>2020-11-29T10:29:42.000Z</time>
      </trkpt>
      <trkpt lat="47.31665" lon="-2.37682">
        <ele>39</ele>
        <time>2020-11-29T10:29:47.000Z</time>
      </trkpt>
      <trkpt lat="47.31655" lon="-2.37671">
        <ele>39</ele>
        <time>2020-11-29T10:29:50.000Z</time>
      </trkpt>
      <trkpt lat="47.31646" lon="-2.37666">
        <ele>39</ele>
        <time>2020-11-29T10:29:52.000Z</time>
      </trkpt>
      <trkpt lat="47.31642" lon="-2.37664">
        <ele>39</ele>
        <time>2020-11-29T10:29:53.000Z</time>
      </trkpt>
      <trkpt lat="47.31619" lon="-2.37651">
        <ele>39</ele>
        <time>2020-11-29T10:29:59.000Z</time>
      </trkpt>
      <trkpt lat="47.31616" lon="-2.37646">
        <ele>39</ele>
        <time>2020-11-29T10:30:00.000Z</time>
      </trkpt>
      <trkpt lat="47.31612" lon="-2.37622">
        <ele>39</ele>
        <time>2020-11-29T10:30:04.000Z</time>
      </trkpt>
      <trkpt lat="47.31612" lon="-2.37597">
        <ele>39</ele>
        <time>2020-11-29T10:30:08.000Z</time>
      </trkpt>
      <trkpt lat="47.31612" lon="-2.37584">
        <ele>39</ele>
        <time>2020-11-29T10:30:10.000Z</time>
      </trkpt>
      <trkpt lat="47.31613" lon="-2.3757">
        <ele>39.400001525879</ele>
        <time>2020-11-29T10:30:12.000Z</time>
      </trkpt>
      <trkpt lat="47.31614" lon="-2.37564">
        <ele>39.799999237061</ele>
        <time>2020-11-29T10:30:13.000Z</time>
      </trkpt>
      <trkpt lat="47.31615" lon="-2.37557">
        <ele>40.200000762939</ele>
        <time>2020-11-29T10:30:14.000Z</time>
      </trkpt>
      <trkpt lat="47.31617" lon="-2.37551">
        <ele>40.599998474121</ele>
        <time>2020-11-29T10:30:15.000Z</time>
      </trkpt>
      <trkpt lat="47.31618" lon="-2.37545">
        <ele>41</ele>
        <time>2020-11-29T10:30:16.000Z</time>
      </trkpt>
      <trkpt lat="47.3162" lon="-2.3754">
        <ele>41</ele>
        <time>2020-11-29T10:30:17.000Z</time>
      </trkpt>
      <trkpt lat="47.31632" lon="-2.3751">
        <ele>41</ele>
        <time>2020-11-29T10:30:22.000Z</time>
      </trkpt>
      <trkpt lat="47.31636" lon="-2.3749">
        <ele>41</ele>
        <time>2020-11-29T10:30:25.000Z</time>
      </trkpt>
      <trkpt lat="47.31637" lon="-2.3747">
        <ele>41</ele>
        <time>2020-11-29T10:30:28.000Z</time>
      </trkpt>
      <trkpt lat="47.31634" lon="-2.37411">
        <ele>41</ele>
        <time>2020-11-29T10:30:36.000Z</time>
      </trkpt>
      <trkpt lat="47.31628" lon="-2.37369">
        <ele>41</ele>
        <time>2020-11-29T10:30:42.000Z</time>
      </trkpt>
      <trkpt lat="47.31626" lon="-2.37362">
        <ele>41</ele>
        <time>2020-11-29T10:30:43.000Z</time>
      </trkpt>
      <trkpt lat="47.31619" lon="-2.37326">
        <ele>41</ele>
        <time>2020-11-29T10:30:48.000Z</time>
      </trkpt>
      <trkpt lat="47.31618" lon="-2.37311">
        <ele>41</ele>
        <time>2020-11-29T10:30:50.000Z</time>
      </trkpt>
      <trkpt lat="47.31622" lon="-2.3729">
        <ele>41</ele>
        <time>2020-11-29T10:30:53.000Z</time>
      </trkpt>
      <trkpt lat="47.31637" lon="-2.37269">
        <ele>41.400001525879</ele>
        <time>2020-11-29T10:30:57.000Z</time>
      </trkpt>
      <trkpt lat="47.31641" lon="-2.37265">
        <ele>41.799999237061</ele>
        <time>2020-11-29T10:30:58.000Z</time>
      </trkpt>
      <trkpt lat="47.31646" lon="-2.37262">
        <ele>42.599998474121</ele>
        <time>2020-11-29T10:30:59.000Z</time>
      </trkpt>
      <trkpt lat="47.3165" lon="-2.37258">
        <ele>43</ele>
        <time>2020-11-29T10:31:00.000Z</time>
      </trkpt>
      <trkpt lat="47.31664" lon="-2.37247">
        <ele>43</ele>
        <time>2020-11-29T10:31:03.000Z</time>
      </trkpt>
      <trkpt lat="47.31684" lon="-2.37228">
        <ele>43</ele>
        <time>2020-11-29T10:31:08.000Z</time>
      </trkpt>
      <trkpt lat="47.31687" lon="-2.37222">
        <ele>43</ele>
        <time>2020-11-29T10:31:09.000Z</time>
      </trkpt>
      <trkpt lat="47.31691" lon="-2.37201">
        <ele>43</ele>
        <time>2020-11-29T10:31:12.000Z</time>
      </trkpt>
      <trkpt lat="47.31685" lon="-2.37171">
        <ele>43</ele>
        <time>2020-11-29T10:31:16.000Z</time>
      </trkpt>
      <trkpt lat="47.31676" lon="-2.37154">
        <ele>43</ele>
        <time>2020-11-29T10:31:19.000Z</time>
      </trkpt>
      <trkpt lat="47.31667" lon="-2.37138">
        <ele>43</ele>
        <time>2020-11-29T10:31:22.000Z</time>
      </trkpt>
      <trkpt lat="47.31649" lon="-2.37103">
        <ele>43</ele>
        <time>2020-11-29T10:31:28.000Z</time>
      </trkpt>
      <trkpt lat="47.31626" lon="-2.37057">
        <ele>43</ele>
        <time>2020-11-29T10:31:35.000Z</time>
      </trkpt>
      <trkpt lat="47.31609" lon="-2.37006">
        <ele>43</ele>
        <time>2020-11-29T10:31:41.000Z</time>
      </trkpt>
      <trkpt lat="47.31593" lon="-2.36955">
        <ele>42.599998474121</ele>
        <time>2020-11-29T10:31:47.000Z</time>
      </trkpt>
      <trkpt lat="47.3159" lon="-2.36946">
        <ele>42.200000762939</ele>
        <time>2020-11-29T10:31:48.000Z</time>
      </trkpt>
      <trkpt lat="47.31587" lon="-2.36937">
        <ele>41.200000762939</ele>
        <time>2020-11-29T10:31:49.000Z</time>
      </trkpt>
      <trkpt lat="47.31585" lon="-2.36929">
        <ele>40.799999237061</ele>
        <time>2020-11-29T10:31:50.000Z</time>
      </trkpt>
      <trkpt lat="47.31564" lon="-2.36863">
        <ele>40.799999237061</ele>
        <time>2020-11-29T10:31:57.000Z</time>
      </trkpt>
      <trkpt lat="47.31556" lon="-2.36835">
        <ele>40.400001525879</ele>
        <time>2020-11-29T10:32:00.000Z</time>
      </trkpt>
      <trkpt lat="47.31554" lon="-2.36827">
        <ele>39.799999237061</ele>
        <time>2020-11-29T10:32:01.000Z</time>
      </trkpt>
      <trkpt lat="47.31553" lon="-2.36821">
        <ele>39.400001525879</ele>
        <time>2020-11-29T10:32:02.000Z</time>
      </trkpt>
      <trkpt lat="47.31551" lon="-2.36816">
        <ele>38.599998474121</ele>
        <time>2020-11-29T10:32:03.000Z</time>
      </trkpt>
      <trkpt lat="47.3155" lon="-2.36812">
        <ele>38</ele>
        <time>2020-11-29T10:32:04.000Z</time>
      </trkpt>
      <trkpt lat="47.31549" lon="-2.36807">
        <ele>37.400001525879</ele>
        <time>2020-11-29T10:32:05.000Z</time>
      </trkpt>
      <trkpt lat="47.31548" lon="-2.36803">
        <ele>36.799999237061</ele>
        <time>2020-11-29T10:32:06.000Z</time>
      </trkpt>
      <trkpt lat="47.31546" lon="-2.36798">
        <ele>36.200000762939</ele>
        <time>2020-11-29T10:32:07.000Z</time>
      </trkpt>
      <trkpt lat="47.31539" lon="-2.36769">
        <ele>35.799999237061</ele>
        <time>2020-11-29T10:32:12.000Z</time>
      </trkpt>
      <trkpt lat="47.31538" lon="-2.36763">
        <ele>34.799999237061</ele>
        <time>2020-11-29T10:32:13.000Z</time>
      </trkpt>
      <trkpt lat="47.31536" lon="-2.36757">
        <ele>34.400001525879</ele>
        <time>2020-11-29T10:32:14.000Z</time>
      </trkpt>
      <trkpt lat="47.31534" lon="-2.36751">
        <ele>34</ele>
        <time>2020-11-29T10:32:15.000Z</time>
      </trkpt>
      <trkpt lat="47.3153" lon="-2.36732">
        <ele>34</ele>
        <time>2020-11-29T10:32:18.000Z</time>
      </trkpt>
      <trkpt lat="47.3152" lon="-2.36688">
        <ele>33.599998474121</ele>
        <time>2020-11-29T10:32:24.000Z</time>
      </trkpt>
      <trkpt lat="47.31518" lon="-2.36681">
        <ele>33.200000762939</ele>
        <time>2020-11-29T10:32:25.000Z</time>
      </trkpt>
      <trkpt lat="47.31515" lon="-2.36674">
        <ele>32.799999237061</ele>
        <time>2020-11-29T10:32:26.000Z</time>
      </trkpt>
      <trkpt lat="47.31513" lon="-2.36668">
        <ele>32.400001525879</ele>
        <time>2020-11-29T10:32:27.000Z</time>
      </trkpt>
      <trkpt lat="47.31512" lon="-2.36661">
        <ele>32</ele>
        <time>2020-11-29T10:32:28.000Z</time>
      </trkpt>
      <trkpt lat="47.31506" lon="-2.36636">
        <ele>32</ele>
        <time>2020-11-29T10:32:32.000Z</time>
      </trkpt>
      <trkpt lat="47.31502" lon="-2.36612">
        <ele>32</ele>
        <time>2020-11-29T10:32:37.000Z</time>
      </trkpt>
      <trkpt lat="47.31499" lon="-2.36595">
        <ele>31.60000038147</ele>
        <time>2020-11-29T10:32:41.000Z</time>
      </trkpt>
      <trkpt lat="47.31498" lon="-2.36591">
        <ele>31.200000762939</ele>
        <time>2020-11-29T10:32:42.000Z</time>
      </trkpt>
      <trkpt lat="47.31498" lon="-2.36587">
        <ele>30.799999237061</ele>
        <time>2020-11-29T10:32:43.000Z</time>
      </trkpt>
      <trkpt lat="47.31499" lon="-2.36583">
        <ele>30.39999961853</ele>
        <time>2020-11-29T10:32:44.000Z</time>
      </trkpt>
      <trkpt lat="47.31501" lon="-2.36579">
        <ele>29.799999237061</ele>
        <time>2020-11-29T10:32:45.000Z</time>
      </trkpt>
      <trkpt lat="47.31504" lon="-2.36572">
        <ele>29.799999237061</ele>
        <time>2020-11-29T10:32:47.000Z</time>
      </trkpt>
      <trkpt lat="47.31503" lon="-2.36568">
        <ele>29.799999237061</ele>
        <time>2020-11-29T10:32:48.000Z</time>
      </trkpt>
      <trkpt lat="47.315" lon="-2.3656">
        <ele>29.799999237061</ele>
        <time>2020-11-29T10:32:50.000Z</time>
      </trkpt>
      <trkpt lat="47.315" lon="-2.36544">
        <ele>29.799999237061</ele>
        <time>2020-11-29T10:32:54.000Z</time>
      </trkpt>
      <trkpt lat="47.31501" lon="-2.36527">
        <ele>29.799999237061</ele>
        <time>2020-11-29T10:32:59.000Z</time>
      </trkpt>
      <trkpt lat="47.31498" lon="-2.36508">
        <ele>29.799999237061</ele>
        <time>2020-11-29T10:33:04.000Z</time>
      </trkpt>
      <trkpt lat="47.315" lon="-2.36485">
        <ele>29.799999237061</ele>
        <time>2020-11-29T10:33:09.000Z</time>
      </trkpt>
      <trkpt lat="47.31497" lon="-2.36458">
        <ele>29.799999237061</ele>
        <time>2020-11-29T10:33:15.000Z</time>
      </trkpt>
      <trkpt lat="47.31495" lon="-2.36436">
        <ele>29.799999237061</ele>
        <time>2020-11-29T10:33:21.000Z</time>
      </trkpt>
      <trkpt lat="47.31495" lon="-2.36432">
        <ele>30.39999961853</ele>
        <time>2020-11-29T10:33:22.000Z</time>
      </trkpt>
      <trkpt lat="47.31495" lon="-2.36427">
        <ele>30.799999237061</ele>
        <time>2020-11-29T10:33:23.000Z</time>
      </trkpt>
      <trkpt lat="47.31494" lon="-2.36423">
        <ele>31.200000762939</ele>
        <time>2020-11-29T10:33:24.000Z</time>
      </trkpt>
      <trkpt lat="47.31494" lon="-2.36419">
        <ele>31.60000038147</ele>
        <time>2020-11-29T10:33:25.000Z</time>
      </trkpt>
      <trkpt lat="47.31494" lon="-2.36415">
        <ele>32</ele>
        <time>2020-11-29T10:33:26.000Z</time>
      </trkpt>
      <trkpt lat="47.31494" lon="-2.36412">
        <ele>32</ele>
        <time>2020-11-29T10:33:27.000Z</time>
      </trkpt>
      <trkpt lat="47.31492" lon="-2.3639">
        <ele>32</ele>
        <time>2020-11-29T10:33:33.000Z</time>
      </trkpt>
      <trkpt lat="47.31492" lon="-2.36372">
        <ele>32.400001525879</ele>
        <time>2020-11-29T10:33:38.000Z</time>
      </trkpt>
      <trkpt lat="47.31491" lon="-2.36368">
        <ele>33</ele>
        <time>2020-11-29T10:33:39.000Z</time>
      </trkpt>
      <trkpt lat="47.31491" lon="-2.36364">
        <ele>33.400001525879</ele>
        <time>2020-11-29T10:33:40.000Z</time>
      </trkpt>
      <trkpt lat="47.31491" lon="-2.3636">
        <ele>33.799999237061</ele>
        <time>2020-11-29T10:33:41.000Z</time>
      </trkpt>
      <trkpt lat="47.31491" lon="-2.36357">
        <ele>34.200000762939</ele>
        <time>2020-11-29T10:33:42.000Z</time>
      </trkpt>
      <trkpt lat="47.31492" lon="-2.36338">
        <ele>34.200000762939</ele>
        <time>2020-11-29T10:33:47.000Z</time>
      </trkpt>
      <trkpt lat="47.31491" lon="-2.36323">
        <ele>34.200000762939</ele>
        <time>2020-11-29T10:33:53.000Z</time>
      </trkpt>
      <trkpt lat="47.31489" lon="-2.36302">
        <ele>34.200000762939</ele>
        <time>2020-11-29T10:33:59.000Z</time>
      </trkpt>
      <trkpt lat="47.31487" lon="-2.36293">
        <ele>34.599998474121</ele>
        <time>2020-11-29T10:34:01.000Z</time>
      </trkpt>
      <trkpt lat="47.31487" lon="-2.36289">
        <ele>35</ele>
        <time>2020-11-29T10:34:02.000Z</time>
      </trkpt>
      <trkpt lat="47.31486" lon="-2.36284">
        <ele>35.400001525879</ele>
        <time>2020-11-29T10:34:03.000Z</time>
      </trkpt>
      <trkpt lat="47.31484" lon="-2.36279">
        <ele>35.799999237061</ele>
        <time>2020-11-29T10:34:04.000Z</time>
      </trkpt>
      <trkpt lat="47.31483" lon="-2.36274">
        <ele>36.200000762939</ele>
        <time>2020-11-29T10:34:05.000Z</time>
      </trkpt>
      <trkpt lat="47.31474" lon="-2.36242">
        <ele>36.200000762939</ele>
        <time>2020-11-29T10:34:12.000Z</time>
      </trkpt>
      <trkpt lat="47.31467" lon="-2.36214">
        <ele>36.200000762939</ele>
        <time>2020-11-29T10:34:18.000Z</time>
      </trkpt>
      <trkpt lat="47.31465" lon="-2.36206">
        <ele>36.599998474121</ele>
        <time>2020-11-29T10:34:20.000Z</time>
      </trkpt>
      <trkpt lat="47.31464" lon="-2.36202">
        <ele>37</ele>
        <time>2020-11-29T10:34:21.000Z</time>
      </trkpt>
      <trkpt lat="47.31463" lon="-2.36197">
        <ele>37.400001525879</ele>
        <time>2020-11-29T10:34:22.000Z</time>
      </trkpt>
      <trkpt lat="47.31463" lon="-2.36193">
        <ele>37.799999237061</ele>
        <time>2020-11-29T10:34:23.000Z</time>
      </trkpt>
      <trkpt lat="47.31462" lon="-2.3619">
        <ele>38.200000762939</ele>
        <time>2020-11-29T10:34:24.000Z</time>
      </trkpt>
      <trkpt lat="47.31461" lon="-2.36187">
        <ele>38.200000762939</ele>
        <time>2020-11-29T10:34:25.000Z</time>
      </trkpt>
      <trkpt lat="47.31458" lon="-2.36183">
        <ele>38.200000762939</ele>
        <time>2020-11-29T10:34:29.000Z</time>
      </trkpt>
      <trkpt lat="47.31455" lon="-2.36186">
        <ele>38.200000762939</ele>
        <time>2020-11-29T10:35:44.000Z</time>
      </trkpt>
      <trkpt lat="47.31451" lon="-2.3619">
        <ele>38.200000762939</ele>
        <time>2020-11-29T10:35:47.000Z</time>
      </trkpt>
      <trkpt lat="47.31435" lon="-2.36202">
        <ele>38.200000762939</ele>
        <time>2020-11-29T10:35:53.000Z</time>
      </trkpt>
      <trkpt lat="47.31416" lon="-2.36213">
        <ele>38.200000762939</ele>
        <time>2020-11-29T10:35:58.000Z</time>
      </trkpt>
      <trkpt lat="47.31408" lon="-2.36217">
        <ele>38.200000762939</ele>
        <time>2020-11-29T10:36:00.000Z</time>
      </trkpt>
      <trkpt lat="47.31377" lon="-2.36233">
        <ele>38.200000762939</ele>
        <time>2020-11-29T10:36:07.000Z</time>
      </trkpt>
      <trkpt lat="47.31373" lon="-2.36236">
        <ele>38.599998474121</ele>
        <time>2020-11-29T10:36:08.000Z</time>
      </trkpt>
      <trkpt lat="47.31369" lon="-2.36239">
        <ele>39</ele>
        <time>2020-11-29T10:36:09.000Z</time>
      </trkpt>
      <trkpt lat="47.31364" lon="-2.36241">
        <ele>39.400001525879</ele>
        <time>2020-11-29T10:36:10.000Z</time>
      </trkpt>
      <trkpt lat="47.3136" lon="-2.36244">
        <ele>40</ele>
        <time>2020-11-29T10:36:11.000Z</time>
      </trkpt>
      <trkpt lat="47.31356" lon="-2.36248">
        <ele>40.400001525879</ele>
        <time>2020-11-29T10:36:12.000Z</time>
      </trkpt>
      <trkpt lat="47.31347" lon="-2.36256">
        <ele>40.400001525879</ele>
        <time>2020-11-29T10:36:14.000Z</time>
      </trkpt>
      <trkpt lat="47.31318" lon="-2.36284">
        <ele>40.400001525879</ele>
        <time>2020-11-29T10:36:21.000Z</time>
      </trkpt>
      <trkpt lat="47.31298" lon="-2.36296">
        <ele>40.400001525879</ele>
        <time>2020-11-29T10:36:25.000Z</time>
      </trkpt>
      <trkpt lat="47.31293" lon="-2.36298">
        <ele>40.400001525879</ele>
        <time>2020-11-29T10:36:26.000Z</time>
      </trkpt>
      <trkpt lat="47.31258" lon="-2.36316">
        <ele>40.400001525879</ele>
        <time>2020-11-29T10:36:32.000Z</time>
      </trkpt>
      <trkpt lat="47.31219" lon="-2.36342">
        <ele>40.400001525879</ele>
        <time>2020-11-29T10:36:38.000Z</time>
      </trkpt>
      <trkpt lat="47.31183" lon="-2.36361">
        <ele>40.400001525879</ele>
        <time>2020-11-29T10:36:43.000Z</time>
      </trkpt>
      <trkpt lat="47.31144" lon="-2.36389">
        <ele>39.799999237061</ele>
        <time>2020-11-29T10:36:49.000Z</time>
      </trkpt>
      <trkpt lat="47.31137" lon="-2.36393">
        <ele>39.400001525879</ele>
        <time>2020-11-29T10:36:50.000Z</time>
      </trkpt>
      <trkpt lat="47.31131" lon="-2.36397">
        <ele>39</ele>
        <time>2020-11-29T10:36:51.000Z</time>
      </trkpt>
      <trkpt lat="47.31124" lon="-2.364">
        <ele>38.599998474121</ele>
        <time>2020-11-29T10:36:52.000Z</time>
      </trkpt>
      <trkpt lat="47.31118" lon="-2.36404">
        <ele>38.200000762939</ele>
        <time>2020-11-29T10:36:53.000Z</time>
      </trkpt>
      <trkpt lat="47.31095" lon="-2.36416">
        <ele>38.200000762939</ele>
        <time>2020-11-29T10:36:57.000Z</time>
      </trkpt>
      <trkpt lat="47.31061" lon="-2.36419">
        <ele>38.200000762939</ele>
        <time>2020-11-29T10:37:04.000Z</time>
      </trkpt>
      <trkpt lat="47.31027" lon="-2.36423">
        <ele>38.200000762939</ele>
        <time>2020-11-29T10:37:10.000Z</time>
      </trkpt>
      <trkpt lat="47.30993" lon="-2.36438">
        <ele>38.200000762939</ele>
        <time>2020-11-29T10:37:16.000Z</time>
      </trkpt>
      <trkpt lat="47.30966" lon="-2.36451">
        <ele>38.200000762939</ele>
        <time>2020-11-29T10:37:21.000Z</time>
      </trkpt>
      <trkpt lat="47.30956" lon="-2.36456">
        <ele>38.200000762939</ele>
        <time>2020-11-29T10:37:23.000Z</time>
      </trkpt>
      <trkpt lat="47.3094" lon="-2.36461">
        <ele>38.200000762939</ele>
        <time>2020-11-29T10:37:26.000Z</time>
      </trkpt>
      <trkpt lat="47.30898" lon="-2.36473">
        <ele>38.200000762939</ele>
        <time>2020-11-29T10:37:34.000Z</time>
      </trkpt>
      <trkpt lat="47.30888" lon="-2.36476">
        <ele>38.200000762939</ele>
        <time>2020-11-29T10:37:36.000Z</time>
      </trkpt>
      <trkpt lat="47.30878" lon="-2.3648">
        <ele>38.200000762939</ele>
        <time>2020-11-29T10:37:38.000Z</time>
      </trkpt>
      <trkpt lat="47.30873" lon="-2.3648">
        <ele>38.599998474121</ele>
        <time>2020-11-29T10:37:39.000Z</time>
      </trkpt>
      <trkpt lat="47.30869" lon="-2.36481">
        <ele>39</ele>
        <time>2020-11-29T10:37:40.000Z</time>
      </trkpt>
      <trkpt lat="47.30864" lon="-2.36482">
        <ele>39.400001525879</ele>
        <time>2020-11-29T10:37:41.000Z</time>
      </trkpt>
      <trkpt lat="47.30858" lon="-2.36482">
        <ele>39.799999237061</ele>
        <time>2020-11-29T10:37:42.000Z</time>
      </trkpt>
      <trkpt lat="47.30853" lon="-2.36483">
        <ele>40.400001525879</ele>
        <time>2020-11-29T10:37:43.000Z</time>
      </trkpt>
      <trkpt lat="47.30844" lon="-2.36485">
        <ele>40.400001525879</ele>
        <time>2020-11-29T10:37:45.000Z</time>
      </trkpt>
      <trkpt lat="47.30834" lon="-2.36486">
        <ele>40.400001525879</ele>
        <time>2020-11-29T10:37:47.000Z</time>
      </trkpt>
      <trkpt lat="47.30826" lon="-2.36482">
        <ele>40.400001525879</ele>
        <time>2020-11-29T10:37:49.000Z</time>
      </trkpt>
      <trkpt lat="47.30818" lon="-2.36475">
        <ele>40.400001525879</ele>
        <time>2020-11-29T10:37:51.000Z</time>
      </trkpt>
      <trkpt lat="47.30813" lon="-2.36472">
        <ele>40.400001525879</ele>
        <time>2020-11-29T10:37:52.000Z</time>
      </trkpt>
      <trkpt lat="47.30809" lon="-2.36471">
        <ele>40.400001525879</ele>
        <time>2020-11-29T10:37:53.000Z</time>
      </trkpt>
      <trkpt lat="47.30788" lon="-2.36477">
        <ele>40.400001525879</ele>
        <time>2020-11-29T10:37:57.000Z</time>
      </trkpt>
      <trkpt lat="47.30748" lon="-2.36492">
        <ele>40.400001525879</ele>
        <time>2020-11-29T10:38:05.000Z</time>
      </trkpt>
      <trkpt lat="47.30718" lon="-2.36507">
        <ele>40.799999237061</ele>
        <time>2020-11-29T10:38:11.000Z</time>
      </trkpt>
      <trkpt lat="47.30714" lon="-2.36511">
        <ele>41.200000762939</ele>
        <time>2020-11-29T10:38:12.000Z</time>
      </trkpt>
      <trkpt lat="47.3071" lon="-2.36515">
        <ele>41.599998474121</ele>
        <time>2020-11-29T10:38:13.000Z</time>
      </trkpt>
      <trkpt lat="47.30707" lon="-2.36519">
        <ele>42</ele>
        <time>2020-11-29T10:38:14.000Z</time>
      </trkpt>
      <trkpt lat="47.30703" lon="-2.36521">
        <ele>42.400001525879</ele>
        <time>2020-11-29T10:38:15.000Z</time>
      </trkpt>
      <trkpt lat="47.307" lon="-2.3652">
        <ele>42.400001525879</ele>
        <time>2020-11-29T10:38:16.000Z</time>
      </trkpt>
      <trkpt lat="47.30687" lon="-2.36514">
        <ele>42.400001525879</ele>
        <time>2020-11-29T10:38:20.000Z</time>
      </trkpt>
      <trkpt lat="47.30679" lon="-2.36516">
        <ele>42.400001525879</ele>
        <time>2020-11-29T10:38:22.000Z</time>
      </trkpt>
      <trkpt lat="47.30662" lon="-2.36523">
        <ele>42.400001525879</ele>
        <time>2020-11-29T10:38:26.000Z</time>
      </trkpt>
      <trkpt lat="47.30645" lon="-2.36532">
        <ele>42.799999237061</ele>
        <time>2020-11-29T10:38:30.000Z</time>
      </trkpt>
      <trkpt lat="47.30641" lon="-2.36534">
        <ele>43.200000762939</ele>
        <time>2020-11-29T10:38:31.000Z</time>
      </trkpt>
      <trkpt lat="47.30636" lon="-2.36536">
        <ele>43.599998474121</ele>
        <time>2020-11-29T10:38:32.000Z</time>
      </trkpt>
      <trkpt lat="47.30632" lon="-2.36538">
        <ele>44</ele>
        <time>2020-11-29T10:38:33.000Z</time>
      </trkpt>
      <trkpt lat="47.30627" lon="-2.3654">
        <ele>44.400001525879</ele>
        <time>2020-11-29T10:38:34.000Z</time>
      </trkpt>
      <trkpt lat="47.30594" lon="-2.36549">
        <ele>44.400001525879</ele>
        <time>2020-11-29T10:38:41.000Z</time>
      </trkpt>
      <trkpt lat="47.30569" lon="-2.36558">
        <ele>44.400001525879</ele>
        <time>2020-11-29T10:38:46.000Z</time>
      </trkpt>
      <trkpt lat="47.3056" lon="-2.36565">
        <ele>44.400001525879</ele>
        <time>2020-11-29T10:38:48.000Z</time>
      </trkpt>
      <trkpt lat="47.30546" lon="-2.36578">
        <ele>44.400001525879</ele>
        <time>2020-11-29T10:38:51.000Z</time>
      </trkpt>
      <trkpt lat="47.30537" lon="-2.36584">
        <ele>44.400001525879</ele>
        <time>2020-11-29T10:38:53.000Z</time>
      </trkpt>
      <trkpt lat="47.30525" lon="-2.36591">
        <ele>44.400001525879</ele>
        <time>2020-11-29T10:38:56.000Z</time>
      </trkpt>
      <trkpt lat="47.30498" lon="-2.366">
        <ele>44.400001525879</ele>
        <time>2020-11-29T10:39:02.000Z</time>
      </trkpt>
      <trkpt lat="47.30479" lon="-2.36608">
        <ele>44.400001525879</ele>
        <time>2020-11-29T10:39:07.000Z</time>
      </trkpt>
      <trkpt lat="47.30455" lon="-2.36625">
        <ele>44.400001525879</ele>
        <time>2020-11-29T10:39:13.000Z</time>
      </trkpt>
      <trkpt lat="47.30432" lon="-2.36646">
        <ele>44.400001525879</ele>
        <time>2020-11-29T10:39:19.000Z</time>
      </trkpt>
      <trkpt lat="47.30411" lon="-2.36655">
        <ele>44.400001525879</ele>
        <time>2020-11-29T10:39:24.000Z</time>
      </trkpt>
      <trkpt lat="47.30406" lon="-2.36655">
        <ele>44.400001525879</ele>
        <time>2020-11-29T10:39:25.000Z</time>
      </trkpt>
      <trkpt lat="47.30383" lon="-2.36657">
        <ele>44.400001525879</ele>
        <time>2020-11-29T10:39:30.000Z</time>
      </trkpt>
      <trkpt lat="47.30356" lon="-2.36655">
        <ele>44.400001525879</ele>
        <time>2020-11-29T10:39:35.000Z</time>
      </trkpt>
      <trkpt lat="47.30323" lon="-2.36647">
        <ele>44.400001525879</ele>
        <time>2020-11-29T10:39:41.000Z</time>
      </trkpt>
      <trkpt lat="47.30318" lon="-2.36647">
        <ele>44.400001525879</ele>
        <time>2020-11-29T10:39:42.000Z</time>
      </trkpt>
      <trkpt lat="47.30307" lon="-2.36647">
        <ele>44.400001525879</ele>
        <time>2020-11-29T10:39:44.000Z</time>
      </trkpt>
      <trkpt lat="47.30296" lon="-2.36651">
        <ele>44.400001525879</ele>
        <time>2020-11-29T10:39:46.000Z</time>
      </trkpt>
      <trkpt lat="47.30261" lon="-2.36664">
        <ele>44.400001525879</ele>
        <time>2020-11-29T10:39:53.000Z</time>
      </trkpt>
      <trkpt lat="47.30224" lon="-2.36669">
        <ele>44.400001525879</ele>
        <time>2020-11-29T10:40:00.000Z</time>
      </trkpt>
      <trkpt lat="47.30195" lon="-2.36673">
        <ele>44.400001525879</ele>
        <time>2020-11-29T10:40:07.000Z</time>
      </trkpt>
      <trkpt lat="47.30191" lon="-2.36674">
        <ele>44</ele>
        <time>2020-11-29T10:40:09.000Z</time>
      </trkpt>
      <trkpt lat="47.3019" lon="-2.36675">
        <ele>43.599998474121</ele>
        <time>2020-11-29T10:40:10.000Z</time>
      </trkpt>
      <trkpt lat="47.30188" lon="-2.36676">
        <ele>43.200000762939</ele>
        <time>2020-11-29T10:40:11.000Z</time>
      </trkpt>
      <trkpt lat="47.30187" lon="-2.36676">
        <ele>42.799999237061</ele>
        <time>2020-11-29T10:40:12.000Z</time>
      </trkpt>
      <trkpt lat="47.30186" lon="-2.36677">
        <ele>42.200000762939</ele>
        <time>2020-11-29T10:40:13.000Z</time>
      </trkpt>
      <trkpt lat="47.30181" lon="-2.3668">
        <ele>42.200000762939</ele>
        <time>2020-11-29T10:40:18.000Z</time>
      </trkpt>
      <trkpt lat="47.30175" lon="-2.3668">
        <ele>42.200000762939</ele>
        <time>2020-11-29T10:47:17.000Z</time>
      </trkpt>
      <trkpt lat="47.30169" lon="-2.36682">
        <ele>42.200000762939</ele>
        <time>2020-11-29T10:47:20.000Z</time>
      </trkpt>
      <trkpt lat="47.30155" lon="-2.36682">
        <ele>42.200000762939</ele>
        <time>2020-11-29T10:47:24.000Z</time>
      </trkpt>
      <trkpt lat="47.3015" lon="-2.36685">
        <ele>42.200000762939</ele>
        <time>2020-11-29T10:47:25.000Z</time>
      </trkpt>
      <trkpt lat="47.30139" lon="-2.36693">
        <ele>41.400001525879</ele>
        <time>2020-11-29T10:47:27.000Z</time>
      </trkpt>
      <trkpt lat="47.30133" lon="-2.36697">
        <ele>41</ele>
        <time>2020-11-29T10:47:28.000Z</time>
      </trkpt>
      <trkpt lat="47.30127" lon="-2.36701">
        <ele>40.599998474121</ele>
        <time>2020-11-29T10:47:29.000Z</time>
      </trkpt>
      <trkpt lat="47.30122" lon="-2.36705">
        <ele>40.200000762939</ele>
        <time>2020-11-29T10:47:30.000Z</time>
      </trkpt>
      <trkpt lat="47.30112" lon="-2.36714">
        <ele>40.200000762939</ele>
        <time>2020-11-29T10:47:32.000Z</time>
      </trkpt>
      <trkpt lat="47.30089" lon="-2.36733">
        <ele>40.200000762939</ele>
        <time>2020-11-29T10:47:38.000Z</time>
      </trkpt>
      <trkpt lat="47.30071" lon="-2.36755">
        <ele>40.599998474121</ele>
        <time>2020-11-29T10:47:44.000Z</time>
      </trkpt>
      <trkpt lat="47.30067" lon="-2.36758">
        <ele>41</ele>
        <time>2020-11-29T10:47:45.000Z</time>
      </trkpt>
      <trkpt lat="47.30064" lon="-2.36762">
        <ele>41.400001525879</ele>
        <time>2020-11-29T10:47:46.000Z</time>
      </trkpt>
      <trkpt lat="47.3006" lon="-2.36766">
        <ele>41.799999237061</ele>
        <time>2020-11-29T10:47:47.000Z</time>
      </trkpt>
      <trkpt lat="47.30057" lon="-2.3677">
        <ele>42.200000762939</ele>
        <time>2020-11-29T10:47:48.000Z</time>
      </trkpt>
      <trkpt lat="47.30036" lon="-2.36795">
        <ele>42.200000762939</ele>
        <time>2020-11-29T10:47:54.000Z</time>
      </trkpt>
      <trkpt lat="47.30005" lon="-2.36832">
        <ele>42.200000762939</ele>
        <time>2020-11-29T10:48:02.000Z</time>
      </trkpt>
      <trkpt lat="47.29965" lon="-2.36878">
        <ele>42.200000762939</ele>
        <time>2020-11-29T10:48:11.000Z</time>
      </trkpt>
      <trkpt lat="47.29934" lon="-2.36916">
        <ele>42.200000762939</ele>
        <time>2020-11-29T10:48:18.000Z</time>
      </trkpt>
      <trkpt lat="47.29909" lon="-2.36949">
        <ele>42.200000762939</ele>
        <time>2020-11-29T10:48:25.000Z</time>
      </trkpt>
      <trkpt lat="47.29901" lon="-2.36968">
        <ele>42.200000762939</ele>
        <time>2020-11-29T10:48:29.000Z</time>
      </trkpt>
      <trkpt lat="47.29891" lon="-2.36971">
        <ele>42.200000762939</ele>
        <time>2020-11-29T10:48:33.000Z</time>
      </trkpt>
      <trkpt lat="47.29885" lon="-2.36971">
        <ele>42.200000762939</ele>
        <time>2020-11-29T10:48:35.000Z</time>
      </trkpt>
      <trkpt lat="47.29875" lon="-2.36975">
        <ele>42.200000762939</ele>
        <time>2020-11-29T10:48:38.000Z</time>
      </trkpt>
      <trkpt lat="47.29864" lon="-2.36989">
        <ele>42.200000762939</ele>
        <time>2020-11-29T10:48:42.000Z</time>
      </trkpt>
      <trkpt lat="47.29861" lon="-2.36993">
        <ele>42.200000762939</ele>
        <time>2020-11-29T10:48:43.000Z</time>
      </trkpt>
      <trkpt lat="47.29857" lon="-2.36998">
        <ele>42.200000762939</ele>
        <time>2020-11-29T10:48:44.000Z</time>
      </trkpt>
      <trkpt lat="47.29849" lon="-2.37007">
        <ele>42.200000762939</ele>
        <time>2020-11-29T10:48:46.000Z</time>
      </trkpt>
      <trkpt lat="47.2982" lon="-2.37047">
        <ele>42.200000762939</ele>
        <time>2020-11-29T10:48:53.000Z</time>
      </trkpt>
      <trkpt lat="47.29811" lon="-2.37067">
        <ele>42.599998474121</ele>
        <time>2020-11-29T10:48:56.000Z</time>
      </trkpt>
      <trkpt lat="47.29809" lon="-2.37074">
        <ele>43</ele>
        <time>2020-11-29T10:48:57.000Z</time>
      </trkpt>
      <trkpt lat="47.29808" lon="-2.37081">
        <ele>43.400001525879</ele>
        <time>2020-11-29T10:48:58.000Z</time>
      </trkpt>
      <trkpt lat="47.29807" lon="-2.37089">
        <ele>43.799999237061</ele>
        <time>2020-11-29T10:48:59.000Z</time>
      </trkpt>
      <trkpt lat="47.29805" lon="-2.37097">
        <ele>44.200000762939</ele>
        <time>2020-11-29T10:49:00.000Z</time>
      </trkpt>
      <trkpt lat="47.298" lon="-2.37129">
        <ele>44.200000762939</ele>
        <time>2020-11-29T10:49:04.000Z</time>
      </trkpt>
      <trkpt lat="47.29785" lon="-2.37162">
        <ele>44.200000762939</ele>
        <time>2020-11-29T10:49:09.000Z</time>
      </trkpt>
      <trkpt lat="47.2976" lon="-2.37183">
        <ele>44.200000762939</ele>
        <time>2020-11-29T10:49:14.000Z</time>
      </trkpt>
      <trkpt lat="47.29736" lon="-2.37186">
        <ele>44.200000762939</ele>
        <time>2020-11-29T10:49:18.000Z</time>
      </trkpt>
      <trkpt lat="47.29729" lon="-2.37186">
        <ele>44.200000762939</ele>
        <time>2020-11-29T10:49:19.000Z</time>
      </trkpt>
      <trkpt lat="47.29723" lon="-2.37186">
        <ele>44.200000762939</ele>
        <time>2020-11-29T10:49:20.000Z</time>
      </trkpt>
      <trkpt lat="47.29703" lon="-2.37192">
        <ele>44.200000762939</ele>
        <time>2020-11-29T10:49:23.000Z</time>
      </trkpt>
      <trkpt lat="47.29646" lon="-2.37214">
        <ele>44.200000762939</ele>
        <time>2020-11-29T10:49:32.000Z</time>
      </trkpt>
      <trkpt lat="47.29633" lon="-2.3722">
        <ele>43.799999237061</ele>
        <time>2020-11-29T10:49:34.000Z</time>
      </trkpt>
      <trkpt lat="47.29627" lon="-2.37223">
        <ele>43.400001525879</ele>
        <time>2020-11-29T10:49:35.000Z</time>
      </trkpt>
      <trkpt lat="47.29621" lon="-2.37226">
        <ele>43</ele>
        <time>2020-11-29T10:49:36.000Z</time>
      </trkpt>
      <trkpt lat="47.29614" lon="-2.3723">
        <ele>42.599998474121</ele>
        <time>2020-11-29T10:49:37.000Z</time>
      </trkpt>
      <trkpt lat="47.29608" lon="-2.37234">
        <ele>42.200000762939</ele>
        <time>2020-11-29T10:49:38.000Z</time>
      </trkpt>
      <trkpt lat="47.29601" lon="-2.37237">
        <ele>42.200000762939</ele>
        <time>2020-11-29T10:49:39.000Z</time>
      </trkpt>
      <trkpt lat="47.29568" lon="-2.37257">
        <ele>41.799999237061</ele>
        <time>2020-11-29T10:49:44.000Z</time>
      </trkpt>
      <trkpt lat="47.29561" lon="-2.3726">
        <ele>41.400001525879</ele>
        <time>2020-11-29T10:49:45.000Z</time>
      </trkpt>
      <trkpt lat="47.29555" lon="-2.37264">
        <ele>41</ele>
        <time>2020-11-29T10:49:46.000Z</time>
      </trkpt>
      <trkpt lat="47.29548" lon="-2.37268">
        <ele>40.599998474121</ele>
        <time>2020-11-29T10:49:47.000Z</time>
      </trkpt>
      <trkpt lat="47.29541" lon="-2.37272">
        <ele>40</ele>
        <time>2020-11-29T10:49:48.000Z</time>
      </trkpt>
      <trkpt lat="47.2951" lon="-2.37283">
        <ele>40</ele>
        <time>2020-11-29T10:49:52.000Z</time>
      </trkpt>
      <trkpt lat="47.29501" lon="-2.37284">
        <ele>40</ele>
        <time>2020-11-29T10:49:53.000Z</time>
      </trkpt>
      <trkpt lat="47.29488" lon="-2.37285">
        <ele>40</ele>
        <time>2020-11-29T10:49:55.000Z</time>
      </trkpt>
      <trkpt lat="47.29482" lon="-2.37287">
        <ele>39</ele>
        <time>2020-11-29T10:49:56.000Z</time>
      </trkpt>
      <trkpt lat="47.2948" lon="-2.37292">
        <ele>38.599998474121</ele>
        <time>2020-11-29T10:49:57.000Z</time>
      </trkpt>
      <trkpt lat="47.29478" lon="-2.37296">
        <ele>37.799999237061</ele>
        <time>2020-11-29T10:49:58.000Z</time>
      </trkpt>
      <trkpt lat="47.29478" lon="-2.37301">
        <ele>37.200000762939</ele>
        <time>2020-11-29T10:49:59.000Z</time>
      </trkpt>
      <trkpt lat="47.29478" lon="-2.37306">
        <ele>36.400001525879</ele>
        <time>2020-11-29T10:50:00.000Z</time>
      </trkpt>
      <trkpt lat="47.29479" lon="-2.37309">
        <ele>35.799999237061</ele>
        <time>2020-11-29T10:50:01.000Z</time>
      </trkpt>
      <trkpt lat="47.29481" lon="-2.37313">
        <ele>35</ele>
        <time>2020-11-29T10:50:02.000Z</time>
      </trkpt>
      <trkpt lat="47.29483" lon="-2.37317">
        <ele>35</ele>
        <time>2020-11-29T10:50:03.000Z</time>
      </trkpt>
      <trkpt lat="47.29485" lon="-2.37322">
        <ele>35</ele>
        <time>2020-11-29T10:50:04.000Z</time>
      </trkpt>
      <trkpt lat="47.29498" lon="-2.37336">
        <ele>35</ele>
        <time>2020-11-29T10:50:07.000Z</time>
      </trkpt>
      <trkpt lat="47.29504" lon="-2.37342">
        <ele>35</ele>
        <time>2020-11-29T10:50:08.000Z</time>
      </trkpt>
      <trkpt lat="47.2954" lon="-2.37376">
        <ele>35</ele>
        <time>2020-11-29T10:50:15.000Z</time>
      </trkpt>
      <trkpt lat="47.29545" lon="-2.37381">
        <ele>35.400001525879</ele>
        <time>2020-11-29T10:50:16.000Z</time>
      </trkpt>
      <trkpt lat="47.29549" lon="-2.37386">
        <ele>36</ele>
        <time>2020-11-29T10:50:17.000Z</time>
      </trkpt>
      <trkpt lat="47.29553" lon="-2.37392">
        <ele>36.400001525879</ele>
        <time>2020-11-29T10:50:18.000Z</time>
      </trkpt>
      <trkpt lat="47.29557" lon="-2.37399">
        <ele>36.799999237061</ele>
        <time>2020-11-29T10:50:19.000Z</time>
      </trkpt>
      <trkpt lat="47.29561" lon="-2.37405">
        <ele>37.200000762939</ele>
        <time>2020-11-29T10:50:20.000Z</time>
      </trkpt>
      <trkpt lat="47.29596" lon="-2.37466">
        <ele>37.200000762939</ele>
        <time>2020-11-29T10:50:29.000Z</time>
      </trkpt>
      <trkpt lat="47.29611" lon="-2.37486">
        <ele>37.200000762939</ele>
        <time>2020-11-29T10:50:32.000Z</time>
      </trkpt>
      <trkpt lat="47.29622" lon="-2.37496">
        <ele>37.200000762939</ele>
        <time>2020-11-29T10:50:34.000Z</time>
      </trkpt>
      <trkpt lat="47.29669" lon="-2.37528">
        <ele>37.200000762939</ele>
        <time>2020-11-29T10:50:41.000Z</time>
      </trkpt>
      <trkpt lat="47.29674" lon="-2.37532">
        <ele>36.799999237061</ele>
        <time>2020-11-29T10:50:42.000Z</time>
      </trkpt>
      <trkpt lat="47.2968" lon="-2.37537">
        <ele>36.400001525879</ele>
        <time>2020-11-29T10:50:43.000Z</time>
      </trkpt>
      <trkpt lat="47.29685" lon="-2.37541">
        <ele>36</ele>
        <time>2020-11-29T10:50:44.000Z</time>
      </trkpt>
      <trkpt lat="47.2969" lon="-2.37545">
        <ele>35</ele>
        <time>2020-11-29T10:50:45.000Z</time>
      </trkpt>
      <trkpt lat="47.29694" lon="-2.37549">
        <ele>35</ele>
        <time>2020-11-29T10:50:46.000Z</time>
      </trkpt>
      <trkpt lat="47.29717" lon="-2.37573">
        <ele>35</ele>
        <time>2020-11-29T10:50:52.000Z</time>
      </trkpt>
      <trkpt lat="47.2972" lon="-2.37576">
        <ele>35</ele>
        <time>2020-11-29T10:50:53.000Z</time>
      </trkpt>
      <trkpt lat="47.29738" lon="-2.37601">
        <ele>35</ele>
        <time>2020-11-29T10:50:59.000Z</time>
      </trkpt>
      <trkpt lat="47.29757" lon="-2.37627">
        <ele>35</ele>
        <time>2020-11-29T10:51:06.000Z</time>
      </trkpt>
      <trkpt lat="47.29772" lon="-2.37649">
        <ele>35.400001525879</ele>
        <time>2020-11-29T10:51:12.000Z</time>
      </trkpt>
      <trkpt lat="47.29775" lon="-2.37653">
        <ele>35.799999237061</ele>
        <time>2020-11-29T10:51:13.000Z</time>
      </trkpt>
      <trkpt lat="47.29777" lon="-2.37656">
        <ele>36.200000762939</ele>
        <time>2020-11-29T10:51:14.000Z</time>
      </trkpt>
      <trkpt lat="47.2978" lon="-2.3766">
        <ele>36.599998474121</ele>
        <time>2020-11-29T10:51:15.000Z</time>
      </trkpt>
      <trkpt lat="47.29783" lon="-2.37664">
        <ele>37</ele>
        <time>2020-11-29T10:51:16.000Z</time>
      </trkpt>
      <trkpt lat="47.29793" lon="-2.3768">
        <ele>37</ele>
        <time>2020-11-29T10:51:20.000Z</time>
      </trkpt>
      <trkpt lat="47.29816" lon="-2.37717">
        <ele>37</ele>
        <time>2020-11-29T10:51:28.000Z</time>
      </trkpt>
      <trkpt lat="47.29846" lon="-2.37764">
        <ele>37</ele>
        <time>2020-11-29T10:51:37.000Z</time>
      </trkpt>
      <trkpt lat="47.29867" lon="-2.378">
        <ele>37</ele>
        <time>2020-11-29T10:51:43.000Z</time>
      </trkpt>
      <trkpt lat="47.29869" lon="-2.37805">
        <ele>36.599998474121</ele>
        <time>2020-11-29T10:51:44.000Z</time>
      </trkpt>
      <trkpt lat="47.2987" lon="-2.3781">
        <ele>36.200000762939</ele>
        <time>2020-11-29T10:51:45.000Z</time>
      </trkpt>
      <trkpt lat="47.2987" lon="-2.37816">
        <ele>35.799999237061</ele>
        <time>2020-11-29T10:51:46.000Z</time>
      </trkpt>
      <trkpt lat="47.29868" lon="-2.3782">
        <ele>35.400001525879</ele>
        <time>2020-11-29T10:51:47.000Z</time>
      </trkpt>
      <trkpt lat="47.29867" lon="-2.37824">
        <ele>35</ele>
        <time>2020-11-29T10:51:48.000Z</time>
      </trkpt>
      <trkpt lat="47.29864" lon="-2.37829">
        <ele>35</ele>
        <time>2020-11-29T10:51:49.000Z</time>
      </trkpt>
      <trkpt lat="47.29862" lon="-2.37834">
        <ele>35</ele>
        <time>2020-11-29T10:51:50.000Z</time>
      </trkpt>
      <trkpt lat="47.29849" lon="-2.37861">
        <ele>35</ele>
        <time>2020-11-29T10:51:55.000Z</time>
      </trkpt>
      <trkpt lat="47.29839" lon="-2.37874">
        <ele>35</ele>
        <time>2020-11-29T10:51:58.000Z</time>
      </trkpt>
      <trkpt lat="47.29828" lon="-2.37884">
        <ele>35</ele>
        <time>2020-11-29T10:52:01.000Z</time>
      </trkpt>
      <trkpt lat="47.29804" lon="-2.379">
        <ele>35</ele>
        <time>2020-11-29T10:52:07.000Z</time>
      </trkpt>
      <trkpt lat="47.29782" lon="-2.37913">
        <ele>35</ele>
        <time>2020-11-29T10:52:13.000Z</time>
      </trkpt>
      <trkpt lat="47.29753" lon="-2.37939">
        <ele>35</ele>
        <time>2020-11-29T10:52:20.000Z</time>
      </trkpt>
      <trkpt lat="47.2975" lon="-2.37944">
        <ele>35</ele>
        <time>2020-11-29T10:52:21.000Z</time>
      </trkpt>
      <trkpt lat="47.29739" lon="-2.37967">
        <ele>34.599998474121</ele>
        <time>2020-11-29T10:52:25.000Z</time>
      </trkpt>
      <trkpt lat="47.29737" lon="-2.37973">
        <ele>34.200000762939</ele>
        <time>2020-11-29T10:52:26.000Z</time>
      </trkpt>
      <trkpt lat="47.29735" lon="-2.37979">
        <ele>33.599998474121</ele>
        <time>2020-11-29T10:52:27.000Z</time>
      </trkpt>
      <trkpt lat="47.29733" lon="-2.37985">
        <ele>33.200000762939</ele>
        <time>2020-11-29T10:52:28.000Z</time>
      </trkpt>
      <trkpt lat="47.29731" lon="-2.37991">
        <ele>32.799999237061</ele>
        <time>2020-11-29T10:52:29.000Z</time>
      </trkpt>
      <trkpt lat="47.2973" lon="-2.37999">
        <ele>32.200000762939</ele>
        <time>2020-11-29T10:52:30.000Z</time>
      </trkpt>
      <trkpt lat="47.2973" lon="-2.38006">
        <ele>31.799999237061</ele>
        <time>2020-11-29T10:52:31.000Z</time>
      </trkpt>
      <trkpt lat="47.29731" lon="-2.38014">
        <ele>31.200000762939</ele>
        <time>2020-11-29T10:52:32.000Z</time>
      </trkpt>
      <trkpt lat="47.29733" lon="-2.38022">
        <ele>30.39999961853</ele>
        <time>2020-11-29T10:52:33.000Z</time>
      </trkpt>
      <trkpt lat="47.29733" lon="-2.3803">
        <ele>29.60000038147</ele>
        <time>2020-11-29T10:52:34.000Z</time>
      </trkpt>
      <trkpt lat="47.29732" lon="-2.38035">
        <ele>28.799999237061</ele>
        <time>2020-11-29T10:52:35.000Z</time>
      </trkpt>
      <trkpt lat="47.29729" lon="-2.38039">
        <ele>28</ele>
        <time>2020-11-29T10:52:36.000Z</time>
      </trkpt>
      <trkpt lat="47.29725" lon="-2.38042">
        <ele>27.200000762939</ele>
        <time>2020-11-29T10:52:37.000Z</time>
      </trkpt>
      <trkpt lat="47.2972" lon="-2.38046">
        <ele>26.39999961853</ele>
        <time>2020-11-29T10:52:38.000Z</time>
      </trkpt>
      <trkpt lat="47.29714" lon="-2.3805">
        <ele>25.60000038147</ele>
        <time>2020-11-29T10:52:39.000Z</time>
      </trkpt>
      <trkpt lat="47.29708" lon="-2.38055">
        <ele>25</ele>
        <time>2020-11-29T10:52:40.000Z</time>
      </trkpt>
      <trkpt lat="47.29701" lon="-2.3806">
        <ele>24.39999961853</ele>
        <time>2020-11-29T10:52:41.000Z</time>
      </trkpt>
      <trkpt lat="47.29693" lon="-2.38066">
        <ele>23.799999237061</ele>
        <time>2020-11-29T10:52:42.000Z</time>
      </trkpt>
      <trkpt lat="47.29686" lon="-2.38072">
        <ele>23.200000762939</ele>
        <time>2020-11-29T10:52:43.000Z</time>
      </trkpt>
      <trkpt lat="47.29678" lon="-2.38078">
        <ele>22.60000038147</ele>
        <time>2020-11-29T10:52:44.000Z</time>
      </trkpt>
      <trkpt lat="47.29669" lon="-2.38084">
        <ele>22.200000762939</ele>
        <time>2020-11-29T10:52:45.000Z</time>
      </trkpt>
      <trkpt lat="47.2966" lon="-2.38089">
        <ele>21.799999237061</ele>
        <time>2020-11-29T10:52:46.000Z</time>
      </trkpt>
      <trkpt lat="47.29651" lon="-2.38093">
        <ele>21.39999961853</ele>
        <time>2020-11-29T10:52:47.000Z</time>
      </trkpt>
      <trkpt lat="47.29643" lon="-2.38098">
        <ele>20.799999237061</ele>
        <time>2020-11-29T10:52:48.000Z</time>
      </trkpt>
      <trkpt lat="47.29635" lon="-2.38102">
        <ele>19.60000038147</ele>
        <time>2020-11-29T10:52:49.000Z</time>
      </trkpt>
      <trkpt lat="47.29627" lon="-2.38105">
        <ele>18.799999237061</ele>
        <time>2020-11-29T10:52:50.000Z</time>
      </trkpt>
      <trkpt lat="47.29618" lon="-2.38108">
        <ele>18.200000762939</ele>
        <time>2020-11-29T10:52:51.000Z</time>
      </trkpt>
      <trkpt lat="47.2961" lon="-2.38111">
        <ele>17.39999961853</ele>
        <time>2020-11-29T10:52:52.000Z</time>
      </trkpt>
      <trkpt lat="47.29602" lon="-2.38114">
        <ele>16.60000038147</ele>
        <time>2020-11-29T10:52:53.000Z</time>
      </trkpt>
      <trkpt lat="47.29592" lon="-2.38116">
        <ele>16</ele>
        <time>2020-11-29T10:52:54.000Z</time>
      </trkpt>
      <trkpt lat="47.29583" lon="-2.38118">
        <ele>15.199999809265</ele>
        <time>2020-11-29T10:52:55.000Z</time>
      </trkpt>
      <trkpt lat="47.29574" lon="-2.3812">
        <ele>14.39999961853</ele>
        <time>2020-11-29T10:52:56.000Z</time>
      </trkpt>
      <trkpt lat="47.29566" lon="-2.38122">
        <ele>13.800000190735</ele>
        <time>2020-11-29T10:52:57.000Z</time>
      </trkpt>
      <trkpt lat="47.2954" lon="-2.38125">
        <ele>13.39999961853</ele>
        <time>2020-11-29T10:53:00.000Z</time>
      </trkpt>
      <trkpt lat="47.29531" lon="-2.38125">
        <ele>13</ele>
        <time>2020-11-29T10:53:01.000Z</time>
      </trkpt>
      <trkpt lat="47.29523" lon="-2.38124">
        <ele>12.60000038147</ele>
        <time>2020-11-29T10:53:02.000Z</time>
      </trkpt>
      <trkpt lat="47.29514" lon="-2.38124">
        <ele>12.199999809265</ele>
        <time>2020-11-29T10:53:03.000Z</time>
      </trkpt>
      <trkpt lat="47.29505" lon="-2.38122">
        <ele>11.60000038147</ele>
        <time>2020-11-29T10:53:04.000Z</time>
      </trkpt>
      <trkpt lat="47.29497" lon="-2.38123">
        <ele>11</ele>
        <time>2020-11-29T10:53:05.000Z</time>
      </trkpt>
      <trkpt lat="47.29488" lon="-2.38125">
        <ele>10.60000038147</ele>
        <time>2020-11-29T10:53:06.000Z</time>
      </trkpt>
      <trkpt lat="47.2948" lon="-2.38129">
        <ele>10</ele>
        <time>2020-11-29T10:53:07.000Z</time>
      </trkpt>
      <trkpt lat="47.29474" lon="-2.38134">
        <ele>9.3999996185303</ele>
        <time>2020-11-29T10:53:08.000Z</time>
      </trkpt>
      <trkpt lat="47.29461" lon="-2.38145">
        <ele>9.3999996185303</ele>
        <time>2020-11-29T10:53:10.000Z</time>
      </trkpt>
      <trkpt lat="47.29455" lon="-2.38149">
        <ele>9</ele>
        <time>2020-11-29T10:53:11.000Z</time>
      </trkpt>
      <trkpt lat="47.2945" lon="-2.3815">
        <ele>8.6000003814697</ele>
        <time>2020-11-29T10:53:12.000Z</time>
      </trkpt>
      <trkpt lat="47.29447" lon="-2.3815">
        <ele>7.8000001907349</ele>
        <time>2020-11-29T10:53:13.000Z</time>
      </trkpt>
      <trkpt lat="47.29444" lon="-2.38148">
        <ele>7.4000000953674</ele>
        <time>2020-11-29T10:53:14.000Z</time>
      </trkpt>
      <trkpt lat="47.2944" lon="-2.38142">
        <ele>6.8000001907349</ele>
        <time>2020-11-29T10:53:15.000Z</time>
      </trkpt>
      <trkpt lat="47.29437" lon="-2.38136">
        <ele>6.4000000953674</ele>
        <time>2020-11-29T10:53:16.000Z</time>
      </trkpt>
      <trkpt lat="47.29435" lon="-2.38128">
        <ele>5.8000001907349</ele>
        <time>2020-11-29T10:53:17.000Z</time>
      </trkpt>
      <trkpt lat="47.29432" lon="-2.3812">
        <ele>5.1999998092651</ele>
        <time>2020-11-29T10:53:18.000Z</time>
      </trkpt>
      <trkpt lat="47.2943" lon="-2.38111">
        <ele>5.1999998092651</ele>
        <time>2020-11-29T10:53:19.000Z</time>
      </trkpt>
      <trkpt lat="47.29426" lon="-2.38102">
        <ele>5.1999998092651</ele>
        <time>2020-11-29T10:53:20.000Z</time>
      </trkpt>
      <trkpt lat="47.29414" lon="-2.38064">
        <ele>5.1999998092651</ele>
        <time>2020-11-29T10:53:24.000Z</time>
      </trkpt>
      <trkpt lat="47.29391" lon="-2.37999">
        <ele>5.1999998092651</ele>
        <time>2020-11-29T10:53:31.000Z</time>
      </trkpt>
      <trkpt lat="47.29378" lon="-2.37958">
        <ele>5.5999999046326</ele>
        <time>2020-11-29T10:53:36.000Z</time>
      </trkpt>
      <trkpt lat="47.29374" lon="-2.37951">
        <ele>6.5999999046326</ele>
        <time>2020-11-29T10:53:37.000Z</time>
      </trkpt>
      <trkpt lat="47.29371" lon="-2.37944">
        <ele>7</ele>
        <time>2020-11-29T10:53:38.000Z</time>
      </trkpt>
      <trkpt lat="47.29368" lon="-2.37936">
        <ele>7.4000000953674</ele>
        <time>2020-11-29T10:53:39.000Z</time>
      </trkpt>
      <trkpt lat="47.29358" lon="-2.37905">
        <ele>7.4000000953674</ele>
        <time>2020-11-29T10:53:43.000Z</time>
      </trkpt>
      <trkpt lat="47.29348" lon="-2.37876">
        <ele>7.8000001907349</ele>
        <time>2020-11-29T10:53:47.000Z</time>
      </trkpt>
      <trkpt lat="47.29345" lon="-2.37869">
        <ele>8.1999998092651</ele>
        <time>2020-11-29T10:53:48.000Z</time>
      </trkpt>
      <trkpt lat="47.29343" lon="-2.37862">
        <ele>8.6000003814697</ele>
        <time>2020-11-29T10:53:49.000Z</time>
      </trkpt>
      <trkpt lat="47.29341" lon="-2.37855">
        <ele>9</ele>
        <time>2020-11-29T10:53:50.000Z</time>
      </trkpt>
      <trkpt lat="47.29339" lon="-2.37848">
        <ele>9.3999996185303</ele>
        <time>2020-11-29T10:53:51.000Z</time>
      </trkpt>
      <trkpt lat="47.29334" lon="-2.37803">
        <ele>9.3999996185303</ele>
        <time>2020-11-29T10:53:57.000Z</time>
      </trkpt>
      <trkpt lat="47.29332" lon="-2.37781">
        <ele>9.3999996185303</ele>
        <time>2020-11-29T10:54:00.000Z</time>
      </trkpt>
      <trkpt lat="47.29332" lon="-2.37774">
        <ele>9.8000001907349</ele>
        <time>2020-11-29T10:54:01.000Z</time>
      </trkpt>
      <trkpt lat="47.29332" lon="-2.37768">
        <ele>10.60000038147</ele>
        <time>2020-11-29T10:54:02.000Z</time>
      </trkpt>
      <trkpt lat="47.29331" lon="-2.37761">
        <ele>11</ele>
        <time>2020-11-29T10:54:03.000Z</time>
      </trkpt>
      <trkpt lat="47.29331" lon="-2.37754">
        <ele>11.39999961853</ele>
        <time>2020-11-29T10:54:04.000Z</time>
      </trkpt>
      <trkpt lat="47.29331" lon="-2.37728">
        <ele>11.800000190735</ele>
        <time>2020-11-29T10:54:08.000Z</time>
      </trkpt>
      <trkpt lat="47.2933" lon="-2.37723">
        <ele>12.199999809265</ele>
        <time>2020-11-29T10:54:09.000Z</time>
      </trkpt>
      <trkpt lat="47.2933" lon="-2.37716">
        <ele>12.60000038147</ele>
        <time>2020-11-29T10:54:10.000Z</time>
      </trkpt>
      <trkpt lat="47.2933" lon="-2.37711">
        <ele>13</ele>
        <time>2020-11-29T10:54:11.000Z</time>
      </trkpt>
      <trkpt lat="47.2933" lon="-2.37705">
        <ele>13.60000038147</ele>
        <time>2020-11-29T10:54:12.000Z</time>
      </trkpt>
      <trkpt lat="47.29329" lon="-2.37693">
        <ele>13.60000038147</ele>
        <time>2020-11-29T10:54:14.000Z</time>
      </trkpt>
      <trkpt lat="47.2933" lon="-2.37676">
        <ele>14</ele>
        <time>2020-11-29T10:54:17.000Z</time>
      </trkpt>
      <trkpt lat="47.2933" lon="-2.3767">
        <ele>14.39999961853</ele>
        <time>2020-11-29T10:54:18.000Z</time>
      </trkpt>
      <trkpt lat="47.2933" lon="-2.37664">
        <ele>14.800000190735</ele>
        <time>2020-11-29T10:54:19.000Z</time>
      </trkpt>
      <trkpt lat="47.29329" lon="-2.37659">
        <ele>15.39999961853</ele>
        <time>2020-11-29T10:54:20.000Z</time>
      </trkpt>
      <trkpt lat="47.29328" lon="-2.37653">
        <ele>15.800000190735</ele>
        <time>2020-11-29T10:54:21.000Z</time>
      </trkpt>
      <trkpt lat="47.29321" lon="-2.37624">
        <ele>15.800000190735</ele>
        <time>2020-11-29T10:54:26.000Z</time>
      </trkpt>
      <trkpt lat="47.29319" lon="-2.37618">
        <ele>15.800000190735</ele>
        <time>2020-11-29T10:54:27.000Z</time>
      </trkpt>
      <trkpt lat="47.29306" lon="-2.37597">
        <ele>15.800000190735</ele>
        <time>2020-11-29T10:54:31.000Z</time>
      </trkpt>
      <trkpt lat="47.29284" lon="-2.37563">
        <ele>15.800000190735</ele>
        <time>2020-11-29T10:54:37.000Z</time>
      </trkpt>
      <trkpt lat="47.29273" lon="-2.37543">
        <ele>15.800000190735</ele>
        <time>2020-11-29T10:54:40.000Z</time>
      </trkpt>
      <trkpt lat="47.29263" lon="-2.37525">
        <ele>15.800000190735</ele>
        <time>2020-11-29T10:54:43.000Z</time>
      </trkpt>
      <trkpt lat="47.29256" lon="-2.37515">
        <ele>15.800000190735</ele>
        <time>2020-11-29T10:54:45.000Z</time>
      </trkpt>
      <trkpt lat="47.29242" lon="-2.37495">
        <ele>15.800000190735</ele>
        <time>2020-11-29T10:54:49.000Z</time>
      </trkpt>
      <trkpt lat="47.29239" lon="-2.3749">
        <ele>16.200000762939</ele>
        <time>2020-11-29T10:54:50.000Z</time>
      </trkpt>
      <trkpt lat="47.29236" lon="-2.37484">
        <ele>17</ele>
        <time>2020-11-29T10:54:51.000Z</time>
      </trkpt>
      <trkpt lat="47.29233" lon="-2.37479">
        <ele>17.39999961853</ele>
        <time>2020-11-29T10:54:52.000Z</time>
      </trkpt>
      <trkpt lat="47.2923" lon="-2.37474">
        <ele>17.799999237061</ele>
        <time>2020-11-29T10:54:53.000Z</time>
      </trkpt>
      <trkpt lat="47.2922" lon="-2.37459">
        <ele>17.799999237061</ele>
        <time>2020-11-29T10:54:56.000Z</time>
      </trkpt>
      <trkpt lat="47.29198" lon="-2.37426">
        <ele>18.200000762939</ele>
        <time>2020-11-29T10:55:03.000Z</time>
      </trkpt>
      <trkpt lat="47.29195" lon="-2.37421">
        <ele>18.60000038147</ele>
        <time>2020-11-29T10:55:04.000Z</time>
      </trkpt>
      <trkpt lat="47.29193" lon="-2.37416">
        <ele>19.200000762939</ele>
        <time>2020-11-29T10:55:05.000Z</time>
      </trkpt>
      <trkpt lat="47.2919" lon="-2.37411">
        <ele>19.60000038147</ele>
        <time>2020-11-29T10:55:06.000Z</time>
      </trkpt>
      <trkpt lat="47.29187" lon="-2.37407">
        <ele>20</ele>
        <time>2020-11-29T10:55:07.000Z</time>
      </trkpt>
      <trkpt lat="47.29176" lon="-2.37387">
        <ele>20</ele>
        <time>2020-11-29T10:55:11.000Z</time>
      </trkpt>
      <trkpt lat="47.29161" lon="-2.37363">
        <ele>20.39999961853</ele>
        <time>2020-11-29T10:55:17.000Z</time>
      </trkpt>
      <trkpt lat="47.29159" lon="-2.37358">
        <ele>20.799999237061</ele>
        <time>2020-11-29T10:55:18.000Z</time>
      </trkpt>
      <trkpt lat="47.29156" lon="-2.37351">
        <ele>21.39999961853</ele>
        <time>2020-11-29T10:55:19.000Z</time>
      </trkpt>
      <trkpt lat="47.29154" lon="-2.37345">
        <ele>21.799999237061</ele>
        <time>2020-11-29T10:55:20.000Z</time>
      </trkpt>
      <trkpt lat="47.29151" lon="-2.37339">
        <ele>22.200000762939</ele>
        <time>2020-11-29T10:55:21.000Z</time>
      </trkpt>
      <trkpt lat="47.29146" lon="-2.37328">
        <ele>22.200000762939</ele>
        <time>2020-11-29T10:55:23.000Z</time>
      </trkpt>
      <trkpt lat="47.29139" lon="-2.37317">
        <ele>22.200000762939</ele>
        <time>2020-11-29T10:55:25.000Z</time>
      </trkpt>
      <trkpt lat="47.2913" lon="-2.37307">
        <ele>22.200000762939</ele>
        <time>2020-11-29T10:55:27.000Z</time>
      </trkpt>
      <trkpt lat="47.29112" lon="-2.37288">
        <ele>22.200000762939</ele>
        <time>2020-11-29T10:55:31.000Z</time>
      </trkpt>
      <trkpt lat="47.29075" lon="-2.37252">
        <ele>22.200000762939</ele>
        <time>2020-11-29T10:55:38.000Z</time>
      </trkpt>
      <trkpt lat="47.29037" lon="-2.37213">
        <ele>22.200000762939</ele>
        <time>2020-11-29T10:55:45.000Z</time>
      </trkpt>
      <trkpt lat="47.2901" lon="-2.37184">
        <ele>21.799999237061</ele>
        <time>2020-11-29T10:55:50.000Z</time>
      </trkpt>
      <trkpt lat="47.29007" lon="-2.37178">
        <ele>21.39999961853</ele>
        <time>2020-11-29T10:55:51.000Z</time>
      </trkpt>
      <trkpt lat="47.29006" lon="-2.37171">
        <ele>21</ele>
        <time>2020-11-29T10:55:52.000Z</time>
      </trkpt>
      <trkpt lat="47.29005" lon="-2.37164">
        <ele>20.39999961853</ele>
        <time>2020-11-29T10:55:53.000Z</time>
      </trkpt>
      <trkpt lat="47.29005" lon="-2.37157">
        <ele>19.799999237061</ele>
        <time>2020-11-29T10:55:54.000Z</time>
      </trkpt>
      <trkpt lat="47.29004" lon="-2.37151">
        <ele>19.200000762939</ele>
        <time>2020-11-29T10:55:55.000Z</time>
      </trkpt>
      <trkpt lat="47.29002" lon="-2.37145">
        <ele>18.60000038147</ele>
        <time>2020-11-29T10:55:56.000Z</time>
      </trkpt>
      <trkpt lat="47.29" lon="-2.3714">
        <ele>18</ele>
        <time>2020-11-29T10:55:57.000Z</time>
      </trkpt>
      <trkpt lat="47.28995" lon="-2.3713">
        <ele>18</ele>
        <time>2020-11-29T10:55:59.000Z</time>
      </trkpt>
      <trkpt lat="47.2898" lon="-2.37097">
        <ele>18.39999961853</ele>
        <time>2020-11-29T10:56:05.000Z</time>
      </trkpt>
      <trkpt lat="47.28978" lon="-2.37091">
        <ele>18.799999237061</ele>
        <time>2020-11-29T10:56:06.000Z</time>
      </trkpt>
      <trkpt lat="47.28976" lon="-2.37085">
        <ele>19.799999237061</ele>
        <time>2020-11-29T10:56:07.000Z</time>
      </trkpt>
      <trkpt lat="47.28974" lon="-2.3708">
        <ele>20.200000762939</ele>
        <time>2020-11-29T10:56:08.000Z</time>
      </trkpt>
      <trkpt lat="47.28968" lon="-2.37062">
        <ele>20.60000038147</ele>
        <time>2020-11-29T10:56:11.000Z</time>
      </trkpt>
      <trkpt lat="47.28966" lon="-2.37057">
        <ele>21</ele>
        <time>2020-11-29T10:56:12.000Z</time>
      </trkpt>
      <trkpt lat="47.28964" lon="-2.37051">
        <ele>21.39999961853</ele>
        <time>2020-11-29T10:56:13.000Z</time>
      </trkpt>
      <trkpt lat="47.28962" lon="-2.37045">
        <ele>21.799999237061</ele>
        <time>2020-11-29T10:56:14.000Z</time>
      </trkpt>
      <trkpt lat="47.2896" lon="-2.3704">
        <ele>22.200000762939</ele>
        <time>2020-11-29T10:56:15.000Z</time>
      </trkpt>
      <trkpt lat="47.28957" lon="-2.37034">
        <ele>22.200000762939</ele>
        <time>2020-11-29T10:56:16.000Z</time>
      </trkpt>
      <trkpt lat="47.28952" lon="-2.37023">
        <ele>22.200000762939</ele>
        <time>2020-11-29T10:56:18.000Z</time>
      </trkpt>
      <trkpt lat="47.28937" lon="-2.36995">
        <ele>22.200000762939</ele>
        <time>2020-11-29T10:56:23.000Z</time>
      </trkpt>
      <trkpt lat="47.28933" lon="-2.3699">
        <ele>22.60000038147</ele>
        <time>2020-11-29T10:56:24.000Z</time>
      </trkpt>
      <trkpt lat="47.2893" lon="-2.36984">
        <ele>23</ele>
        <time>2020-11-29T10:56:25.000Z</time>
      </trkpt>
      <trkpt lat="47.28926" lon="-2.36979">
        <ele>23.39999961853</ele>
        <time>2020-11-29T10:56:26.000Z</time>
      </trkpt>
      <trkpt lat="47.28923" lon="-2.36973">
        <ele>23.799999237061</ele>
        <time>2020-11-29T10:56:27.000Z</time>
      </trkpt>
      <trkpt lat="47.2892" lon="-2.36968">
        <ele>24.200000762939</ele>
        <time>2020-11-29T10:56:28.000Z</time>
      </trkpt>
      <trkpt lat="47.28902" lon="-2.36941">
        <ele>24.200000762939</ele>
        <time>2020-11-29T10:56:33.000Z</time>
      </trkpt>
      <trkpt lat="47.28875" lon="-2.36912">
        <ele>24.200000762939</ele>
        <time>2020-11-29T10:56:40.000Z</time>
      </trkpt>
      <trkpt lat="47.28863" lon="-2.36903">
        <ele>23.799999237061</ele>
        <time>2020-11-29T10:56:43.000Z</time>
      </trkpt>
      <trkpt lat="47.2886" lon="-2.36901">
        <ele>23.39999961853</ele>
        <time>2020-11-29T10:56:44.000Z</time>
      </trkpt>
      <trkpt lat="47.28856" lon="-2.36898">
        <ele>23</ele>
        <time>2020-11-29T10:56:45.000Z</time>
      </trkpt>
      <trkpt lat="47.28854" lon="-2.36896">
        <ele>22.60000038147</ele>
        <time>2020-11-29T10:56:46.000Z</time>
      </trkpt>
      <trkpt lat="47.28853" lon="-2.36895">
        <ele>22.200000762939</ele>
        <time>2020-11-29T10:56:47.000Z</time>
      </trkpt>
      <trkpt lat="47.28847" lon="-2.3689">
        <ele>22.200000762939</ele>
        <time>2020-11-29T10:56:50.000Z</time>
      </trkpt>
      <trkpt lat="47.28844" lon="-2.36887">
        <ele>22.200000762939</ele>
        <time>2020-11-29T10:56:53.000Z</time>
      </trkpt>
      <trkpt lat="47.28842" lon="-2.36884">
        <ele>20.200000762939</ele>
        <time>2020-11-29T10:57:39.000Z</time>
      </trkpt>
      <trkpt lat="47.28836" lon="-2.36876">
        <ele>20.200000762939</ele>
        <time>2020-11-29T10:57:41.000Z</time>
      </trkpt>
      <trkpt lat="47.28833" lon="-2.36871">
        <ele>20.200000762939</ele>
        <time>2020-11-29T10:57:42.000Z</time>
      </trkpt>
      <trkpt lat="47.2883" lon="-2.36865">
        <ele>20.200000762939</ele>
        <time>2020-11-29T10:57:43.000Z</time>
      </trkpt>
      <trkpt lat="47.28828" lon="-2.36859">
        <ele>19.799999237061</ele>
        <time>2020-11-29T10:57:44.000Z</time>
      </trkpt>
      <trkpt lat="47.28827" lon="-2.36852">
        <ele>19.39999961853</ele>
        <time>2020-11-29T10:57:45.000Z</time>
      </trkpt>
      <trkpt lat="47.28825" lon="-2.36846">
        <ele>18.200000762939</ele>
        <time>2020-11-29T10:57:46.000Z</time>
      </trkpt>
      <trkpt lat="47.28822" lon="-2.3684">
        <ele>17.60000038147</ele>
        <time>2020-11-29T10:57:47.000Z</time>
      </trkpt>
      <trkpt lat="47.28818" lon="-2.36834">
        <ele>17</ele>
        <time>2020-11-29T10:57:48.000Z</time>
      </trkpt>
      <trkpt lat="47.28815" lon="-2.36829">
        <ele>16.200000762939</ele>
        <time>2020-11-29T10:57:49.000Z</time>
      </trkpt>
      <trkpt lat="47.28812" lon="-2.36827">
        <ele>15.39999961853</ele>
        <time>2020-11-29T10:57:50.000Z</time>
      </trkpt>
      <trkpt lat="47.28807" lon="-2.36827">
        <ele>14.60000038147</ele>
        <time>2020-11-29T10:57:51.000Z</time>
      </trkpt>
      <trkpt lat="47.28804" lon="-2.36828">
        <ele>14</ele>
        <time>2020-11-29T10:57:52.000Z</time>
      </trkpt>
      <trkpt lat="47.28801" lon="-2.36832">
        <ele>13.199999809265</ele>
        <time>2020-11-29T10:57:53.000Z</time>
      </trkpt>
      <trkpt lat="47.28798" lon="-2.36837">
        <ele>13.199999809265</ele>
        <time>2020-11-29T10:57:54.000Z</time>
      </trkpt>
      <trkpt lat="47.28787" lon="-2.3686">
        <ele>13.199999809265</ele>
        <time>2020-11-29T10:57:58.000Z</time>
      </trkpt>
      <trkpt lat="47.28786" lon="-2.36867">
        <ele>13.199999809265</ele>
        <time>2020-11-29T10:57:59.000Z</time>
      </trkpt>
      <trkpt lat="47.28781" lon="-2.36892">
        <ele>13.199999809265</ele>
        <time>2020-11-29T10:58:03.000Z</time>
      </trkpt>
      <trkpt lat="47.2878" lon="-2.36903">
        <ele>13.199999809265</ele>
        <time>2020-11-29T10:58:05.000Z</time>
      </trkpt>
      <trkpt lat="47.28779" lon="-2.3691">
        <ele>12.800000190735</ele>
        <time>2020-11-29T10:58:07.000Z</time>
      </trkpt>
      <trkpt lat="47.28778" lon="-2.36912">
        <ele>12.39999961853</ele>
        <time>2020-11-29T10:58:08.000Z</time>
      </trkpt>
      <trkpt lat="47.28777" lon="-2.36913">
        <ele>12</ele>
        <time>2020-11-29T10:58:09.000Z</time>
      </trkpt>
      <trkpt lat="47.28775" lon="-2.36912">
        <ele>11.199999809265</ele>
        <time>2020-11-29T10:58:10.000Z</time>
      </trkpt>
      <trkpt lat="47.28771" lon="-2.36911">
        <ele>11.199999809265</ele>
        <time>2020-11-29T10:58:12.000Z</time>
      </trkpt>
      <trkpt lat="47.2876" lon="-2.36906">
        <ele>11.199999809265</ele>
        <time>2020-11-29T10:58:18.000Z</time>
      </trkpt>
      <trkpt lat="47.28755" lon="-2.36906">
        <ele>11.60000038147</ele>
        <time>2020-11-29T10:58:20.000Z</time>
      </trkpt>
      <trkpt lat="47.28753" lon="-2.36907">
        <ele>12</ele>
        <time>2020-11-29T10:58:21.000Z</time>
      </trkpt>
      <trkpt lat="47.2875" lon="-2.36908">
        <ele>12.60000038147</ele>
        <time>2020-11-29T10:58:22.000Z</time>
      </trkpt>
      <trkpt lat="47.28747" lon="-2.3691">
        <ele>13</ele>
        <time>2020-11-29T10:58:23.000Z</time>
      </trkpt>
      <trkpt lat="47.28744" lon="-2.3691">
        <ele>13.39999961853</ele>
        <time>2020-11-29T10:58:24.000Z</time>
      </trkpt>
      <trkpt lat="47.28733" lon="-2.36912">
        <ele>13.800000190735</ele>
        <time>2020-11-29T10:58:28.000Z</time>
      </trkpt>
      <trkpt lat="47.2873" lon="-2.36912">
        <ele>14.39999961853</ele>
        <time>2020-11-29T10:58:29.000Z</time>
      </trkpt>
      <trkpt lat="47.28727" lon="-2.36911">
        <ele>14.800000190735</ele>
        <time>2020-11-29T10:58:30.000Z</time>
      </trkpt>
      <trkpt lat="47.28725" lon="-2.3691">
        <ele>15.199999809265</ele>
        <time>2020-11-29T10:58:31.000Z</time>
      </trkpt>
      <trkpt lat="47.28723" lon="-2.36908">
        <ele>15.60000038147</ele>
        <time>2020-11-29T10:58:32.000Z</time>
      </trkpt>
      <trkpt lat="47.28718" lon="-2.36905">
        <ele>16.200000762939</ele>
        <time>2020-11-29T10:58:34.000Z</time>
      </trkpt>
      <trkpt lat="47.28716" lon="-2.36902">
        <ele>17</ele>
        <time>2020-11-29T10:58:35.000Z</time>
      </trkpt>
      <trkpt lat="47.28715" lon="-2.36898">
        <ele>17.39999961853</ele>
        <time>2020-11-29T10:58:36.000Z</time>
      </trkpt>
      <trkpt lat="47.28713" lon="-2.36895">
        <ele>17.799999237061</ele>
        <time>2020-11-29T10:58:37.000Z</time>
      </trkpt>
      <trkpt lat="47.28708" lon="-2.36885">
        <ele>17.799999237061</ele>
        <time>2020-11-29T10:58:41.000Z</time>
      </trkpt>
      <trkpt lat="47.28706" lon="-2.36881">
        <ele>17.799999237061</ele>
        <time>2020-11-29T10:58:43.000Z</time>
      </trkpt>
      <trkpt lat="47.28705" lon="-2.36879">
        <ele>18.200000762939</ele>
        <time>2020-11-29T10:58:44.000Z</time>
      </trkpt>
      <trkpt lat="47.28704" lon="-2.36878">
        <ele>18.60000038147</ele>
        <time>2020-11-29T10:58:45.000Z</time>
      </trkpt>
      <trkpt lat="47.28703" lon="-2.36875">
        <ele>19</ele>
        <time>2020-11-29T10:58:46.000Z</time>
      </trkpt>
      <trkpt lat="47.28702" lon="-2.36872">
        <ele>19.39999961853</ele>
        <time>2020-11-29T10:58:47.000Z</time>
      </trkpt>
      <trkpt lat="47.28699" lon="-2.36867">
        <ele>19.799999237061</ele>
        <time>2020-11-29T10:58:48.000Z</time>
      </trkpt>
      <trkpt lat="47.28687" lon="-2.36844">
        <ele>19.799999237061</ele>
        <time>2020-11-29T10:58:53.000Z</time>
      </trkpt>
      <trkpt lat="47.28676" lon="-2.36818">
        <ele>19.799999237061</ele>
        <time>2020-11-29T10:58:59.000Z</time>
      </trkpt>
      <trkpt lat="47.28675" lon="-2.36815">
        <ele>20.799999237061</ele>
        <time>2020-11-29T10:59:00.000Z</time>
      </trkpt>
      <trkpt lat="47.28673" lon="-2.36811">
        <ele>21.200000762939</ele>
        <time>2020-11-29T10:59:01.000Z</time>
      </trkpt>
      <trkpt lat="47.28671" lon="-2.36806">
        <ele>21.60000038147</ele>
        <time>2020-11-29T10:59:02.000Z</time>
      </trkpt>
      <trkpt lat="47.28668" lon="-2.36801">
        <ele>22</ele>
        <time>2020-11-29T10:59:03.000Z</time>
      </trkpt>
      <trkpt lat="47.28665" lon="-2.36799">
        <ele>22</ele>
        <time>2020-11-29T10:59:04.000Z</time>
      </trkpt>
      <trkpt lat="47.2866" lon="-2.36798">
        <ele>22</ele>
        <time>2020-11-29T10:59:05.000Z</time>
      </trkpt>
      <trkpt lat="47.28649" lon="-2.36798">
        <ele>22</ele>
        <time>2020-11-29T10:59:09.000Z</time>
      </trkpt>
      <trkpt lat="47.28646" lon="-2.368">
        <ele>22</ele>
        <time>2020-11-29T10:59:11.000Z</time>
      </trkpt>
      <trkpt lat="47.28644" lon="-2.368">
        <ele>22</ele>
        <time>2020-11-29T10:59:14.000Z</time>
      </trkpt>
      <trkpt lat="47.28642" lon="-2.36804">
        <ele>22</ele>
        <time>2020-11-29T10:59:16.000Z</time>
      </trkpt>
      <trkpt lat="47.28639" lon="-2.3681">
        <ele>22</ele>
        <time>2020-11-29T10:59:19.000Z</time>
      </trkpt>
      <trkpt lat="47.28641" lon="-2.36809">
        <ele>22</ele>
        <time>2020-11-29T10:59:23.000Z</time>
      </trkpt>
      <trkpt lat="47.2864" lon="-2.36803">
        <ele>22</ele>
        <time>2020-11-29T10:59:26.000Z</time>
      </trkpt>
      <trkpt lat="47.28638" lon="-2.36804">
        <ele>22</ele>
        <time>2020-11-29T10:59:27.000Z</time>
      </trkpt>
      <trkpt lat="47.28631" lon="-2.36815">
        <ele>22</ele>
        <time>2020-11-29T10:59:30.000Z</time>
      </trkpt>
      <trkpt lat="47.28627" lon="-2.36822">
        <ele>22</ele>
        <time>2020-11-29T10:59:31.000Z</time>
      </trkpt>
      <trkpt lat="47.28622" lon="-2.36828">
        <ele>22</ele>
        <time>2020-11-29T10:59:32.000Z</time>
      </trkpt>
      <trkpt lat="47.28617" lon="-2.36832">
        <ele>22</ele>
        <time>2020-11-29T10:59:33.000Z</time>
      </trkpt>
      <trkpt lat="47.28599" lon="-2.36833">
        <ele>22</ele>
        <time>2020-11-29T10:59:36.000Z</time>
      </trkpt>
      <trkpt lat="47.28585" lon="-2.36818">
        <ele>22</ele>
        <time>2020-11-29T10:59:39.000Z</time>
      </trkpt>
      <trkpt lat="47.28581" lon="-2.36811">
        <ele>22</ele>
        <time>2020-11-29T10:59:40.000Z</time>
      </trkpt>
      <trkpt lat="47.28564" lon="-2.36779">
        <ele>22</ele>
        <time>2020-11-29T10:59:45.000Z</time>
      </trkpt>
      <trkpt lat="47.2856" lon="-2.36773">
        <ele>22</ele>
        <time>2020-11-29T10:59:46.000Z</time>
      </trkpt>
      <trkpt lat="47.28545" lon="-2.3675">
        <ele>22</ele>
        <time>2020-11-29T10:59:50.000Z</time>
      </trkpt>
      <trkpt lat="47.28529" lon="-2.36721">
        <ele>22</ele>
        <time>2020-11-29T10:59:55.000Z</time>
      </trkpt>
      <trkpt lat="47.28524" lon="-2.3671">
        <ele>22.39999961853</ele>
        <time>2020-11-29T10:59:57.000Z</time>
      </trkpt>
      <trkpt lat="47.28521" lon="-2.36705">
        <ele>22.799999237061</ele>
        <time>2020-11-29T10:59:58.000Z</time>
      </trkpt>
      <trkpt lat="47.28519" lon="-2.36701">
        <ele>23.200000762939</ele>
        <time>2020-11-29T10:59:59.000Z</time>
      </trkpt>
      <trkpt lat="47.28516" lon="-2.36696">
        <ele>23.60000038147</ele>
        <time>2020-11-29T11:00:00.000Z</time>
      </trkpt>
      <trkpt lat="47.28514" lon="-2.36692">
        <ele>24</ele>
        <time>2020-11-29T11:00:01.000Z</time>
      </trkpt>
      <trkpt lat="47.28507" lon="-2.36682">
        <ele>24.39999961853</ele>
        <time>2020-11-29T11:00:05.000Z</time>
      </trkpt>
      <trkpt lat="47.28505" lon="-2.3668">
        <ele>24.799999237061</ele>
        <time>2020-11-29T11:00:06.000Z</time>
      </trkpt>
      <trkpt lat="47.28502" lon="-2.36678">
        <ele>25.200000762939</ele>
        <time>2020-11-29T11:00:07.000Z</time>
      </trkpt>
      <trkpt lat="47.285" lon="-2.36675">
        <ele>25.60000038147</ele>
        <time>2020-11-29T11:00:08.000Z</time>
      </trkpt>
      <trkpt lat="47.28497" lon="-2.36672">
        <ele>26</ele>
        <time>2020-11-29T11:00:09.000Z</time>
      </trkpt>
      <trkpt lat="47.28495" lon="-2.36667">
        <ele>26</ele>
        <time>2020-11-29T11:00:10.000Z</time>
      </trkpt>
      <trkpt lat="47.28489" lon="-2.3665">
        <ele>26</ele>
        <time>2020-11-29T11:00:13.000Z</time>
      </trkpt>
      <trkpt lat="47.28486" lon="-2.36637">
        <ele>26</ele>
        <time>2020-11-29T11:00:15.000Z</time>
      </trkpt>
      <trkpt lat="47.2847" lon="-2.36582">
        <ele>26</ele>
        <time>2020-11-29T11:00:23.000Z</time>
      </trkpt>
      <trkpt lat="47.28469" lon="-2.36575">
        <ele>26</ele>
        <time>2020-11-29T11:00:24.000Z</time>
      </trkpt>
      <trkpt lat="47.28472" lon="-2.36561">
        <ele>26</ele>
        <time>2020-11-29T11:00:26.000Z</time>
      </trkpt>
      <trkpt lat="47.28487" lon="-2.36538">
        <ele>26</ele>
        <time>2020-11-29T11:00:30.000Z</time>
      </trkpt>
      <trkpt lat="47.28491" lon="-2.36533">
        <ele>26</ele>
        <time>2020-11-29T11:00:31.000Z</time>
      </trkpt>
      <trkpt lat="47.28503" lon="-2.36519">
        <ele>26.60000038147</ele>
        <time>2020-11-29T11:00:34.000Z</time>
      </trkpt>
      <trkpt lat="47.28507" lon="-2.36515">
        <ele>27</ele>
        <time>2020-11-29T11:00:35.000Z</time>
      </trkpt>
      <trkpt lat="47.2851" lon="-2.36511">
        <ele>27.39999961853</ele>
        <time>2020-11-29T11:00:36.000Z</time>
      </trkpt>
      <trkpt lat="47.28513" lon="-2.36507">
        <ele>27.799999237061</ele>
        <time>2020-11-29T11:00:37.000Z</time>
      </trkpt>
      <trkpt lat="47.28516" lon="-2.36503">
        <ele>28.200000762939</ele>
        <time>2020-11-29T11:00:38.000Z</time>
      </trkpt>
      <trkpt lat="47.28519" lon="-2.36495">
        <ele>28.200000762939</ele>
        <time>2020-11-29T11:00:40.000Z</time>
      </trkpt>
      <trkpt lat="47.28518" lon="-2.3649">
        <ele>28.200000762939</ele>
        <time>2020-11-29T11:00:41.000Z</time>
      </trkpt>
      <trkpt lat="47.28517" lon="-2.36485">
        <ele>28.60000038147</ele>
        <time>2020-11-29T11:00:42.000Z</time>
      </trkpt>
      <trkpt lat="47.28516" lon="-2.36479">
        <ele>29</ele>
        <time>2020-11-29T11:00:43.000Z</time>
      </trkpt>
      <trkpt lat="47.28516" lon="-2.36474">
        <ele>29.39999961853</ele>
        <time>2020-11-29T11:00:44.000Z</time>
      </trkpt>
      <trkpt lat="47.28516" lon="-2.3647">
        <ele>29.799999237061</ele>
        <time>2020-11-29T11:00:45.000Z</time>
      </trkpt>
      <trkpt lat="47.28516" lon="-2.36466">
        <ele>30.200000762939</ele>
        <time>2020-11-29T11:00:46.000Z</time>
      </trkpt>
      <trkpt lat="47.28512" lon="-2.36456">
        <ele>30.200000762939</ele>
        <time>2020-11-29T11:00:48.000Z</time>
      </trkpt>
      <trkpt lat="47.28509" lon="-2.36451">
        <ele>30.200000762939</ele>
        <time>2020-11-29T11:00:49.000Z</time>
      </trkpt>
      <trkpt lat="47.28492" lon="-2.36438">
        <ele>30.200000762939</ele>
        <time>2020-11-29T11:00:53.000Z</time>
      </trkpt>
      <trkpt lat="47.28476" lon="-2.36424">
        <ele>30.200000762939</ele>
        <time>2020-11-29T11:00:58.000Z</time>
      </trkpt>
      <trkpt lat="47.2847" lon="-2.36417">
        <ele>30.60000038147</ele>
        <time>2020-11-29T11:01:01.000Z</time>
      </trkpt>
      <trkpt lat="47.28468" lon="-2.36414">
        <ele>31</ele>
        <time>2020-11-29T11:01:02.000Z</time>
      </trkpt>
      <trkpt lat="47.28467" lon="-2.36412">
        <ele>31.39999961853</ele>
        <time>2020-11-29T11:01:03.000Z</time>
      </trkpt>
      <trkpt lat="47.28467" lon="-2.36411">
        <ele>32.200000762939</ele>
        <time>2020-11-29T11:01:04.000Z</time>
      </trkpt>
      <trkpt lat="47.28458" lon="-2.36404">
        <ele>32.200000762939</ele>
        <time>2020-11-29T11:01:07.000Z</time>
      </trkpt>
      <trkpt lat="47.28436" lon="-2.36387">
        <ele>32.200000762939</ele>
        <time>2020-11-29T11:01:12.000Z</time>
      </trkpt>
      <trkpt lat="47.28432" lon="-2.36384">
        <ele>31.799999237061</ele>
        <time>2020-11-29T11:01:13.000Z</time>
      </trkpt>
      <trkpt lat="47.28429" lon="-2.36382">
        <ele>31.39999961853</ele>
        <time>2020-11-29T11:01:14.000Z</time>
      </trkpt>
      <trkpt lat="47.28426" lon="-2.3638">
        <ele>31</ele>
        <time>2020-11-29T11:01:15.000Z</time>
      </trkpt>
      <trkpt lat="47.28422" lon="-2.36376">
        <ele>30.60000038147</ele>
        <time>2020-11-29T11:01:16.000Z</time>
      </trkpt>
      <trkpt lat="47.2842" lon="-2.36373">
        <ele>30.200000762939</ele>
        <time>2020-11-29T11:01:17.000Z</time>
      </trkpt>
      <trkpt lat="47.28411" lon="-2.36355">
        <ele>30.200000762939</ele>
        <time>2020-11-29T11:01:22.000Z</time>
      </trkpt>
      <trkpt lat="47.28392" lon="-2.36338">
        <ele>30.200000762939</ele>
        <time>2020-11-29T11:01:28.000Z</time>
      </trkpt>
      <trkpt lat="47.28387" lon="-2.36335">
        <ele>29.799999237061</ele>
        <time>2020-11-29T11:01:29.000Z</time>
      </trkpt>
      <trkpt lat="47.28383" lon="-2.36333">
        <ele>29.39999961853</ele>
        <time>2020-11-29T11:01:30.000Z</time>
      </trkpt>
      <trkpt lat="47.28378" lon="-2.36331">
        <ele>29</ele>
        <time>2020-11-29T11:01:31.000Z</time>
      </trkpt>
      <trkpt lat="47.28374" lon="-2.36329">
        <ele>28.60000038147</ele>
        <time>2020-11-29T11:01:32.000Z</time>
      </trkpt>
      <trkpt lat="47.28372" lon="-2.36325">
        <ele>28.200000762939</ele>
        <time>2020-11-29T11:01:33.000Z</time>
      </trkpt>
      <trkpt lat="47.28365" lon="-2.36308">
        <ele>28.200000762939</ele>
        <time>2020-11-29T11:01:36.000Z</time>
      </trkpt>
      <trkpt lat="47.28364" lon="-2.363">
        <ele>27.799999237061</ele>
        <time>2020-11-29T11:01:37.000Z</time>
      </trkpt>
      <trkpt lat="47.28363" lon="-2.36291">
        <ele>27.39999961853</ele>
        <time>2020-11-29T11:01:38.000Z</time>
      </trkpt>
      <trkpt lat="47.28363" lon="-2.36283">
        <ele>27</ele>
        <time>2020-11-29T11:01:39.000Z</time>
      </trkpt>
      <trkpt lat="47.28362" lon="-2.36278">
        <ele>26.60000038147</ele>
        <time>2020-11-29T11:01:40.000Z</time>
      </trkpt>
      <trkpt lat="47.2836" lon="-2.36274">
        <ele>26.200000762939</ele>
        <time>2020-11-29T11:01:41.000Z</time>
      </trkpt>
      <trkpt lat="47.28358" lon="-2.36271">
        <ele>26.200000762939</ele>
        <time>2020-11-29T11:01:42.000Z</time>
      </trkpt>
      <trkpt lat="47.28357" lon="-2.36269">
        <ele>26.200000762939</ele>
        <time>2020-11-29T11:01:44.000Z</time>
      </trkpt>
      <trkpt lat="47.28362" lon="-2.36261">
        <ele>26.200000762939</ele>
        <time>2020-11-29T11:01:49.000Z</time>
      </trkpt>
      <trkpt lat="47.28363" lon="-2.36258">
        <ele>26.200000762939</ele>
        <time>2020-11-29T11:01:50.000Z</time>
      </trkpt>
      <trkpt lat="47.28376" lon="-2.36243">
        <ele>26.200000762939</ele>
        <time>2020-11-29T11:01:55.000Z</time>
      </trkpt>
      <trkpt lat="47.28385" lon="-2.36236">
        <ele>26.60000038147</ele>
        <time>2020-11-29T11:01:58.000Z</time>
      </trkpt>
      <trkpt lat="47.28388" lon="-2.36232">
        <ele>27</ele>
        <time>2020-11-29T11:01:59.000Z</time>
      </trkpt>
      <trkpt lat="47.2839" lon="-2.36229">
        <ele>27.39999961853</ele>
        <time>2020-11-29T11:02:00.000Z</time>
      </trkpt>
      <trkpt lat="47.28392" lon="-2.36226">
        <ele>27.799999237061</ele>
        <time>2020-11-29T11:02:01.000Z</time>
      </trkpt>
      <trkpt lat="47.28395" lon="-2.36224">
        <ele>28.200000762939</ele>
        <time>2020-11-29T11:02:02.000Z</time>
      </trkpt>
      <trkpt lat="47.28402" lon="-2.36219">
        <ele>28.60000038147</ele>
        <time>2020-11-29T11:02:05.000Z</time>
      </trkpt>
      <trkpt lat="47.28403" lon="-2.36217">
        <ele>29.200000762939</ele>
        <time>2020-11-29T11:02:06.000Z</time>
      </trkpt>
      <trkpt lat="47.28406" lon="-2.36215">
        <ele>29.60000038147</ele>
        <time>2020-11-29T11:02:07.000Z</time>
      </trkpt>
      <trkpt lat="47.28408" lon="-2.36212">
        <ele>30</ele>
        <time>2020-11-29T11:02:08.000Z</time>
      </trkpt>
      <trkpt lat="47.28409" lon="-2.36211">
        <ele>30.39999961853</ele>
        <time>2020-11-29T11:02:09.000Z</time>
      </trkpt>
      <trkpt lat="47.28412" lon="-2.3621">
        <ele>30.39999961853</ele>
        <time>2020-11-29T11:02:10.000Z</time>
      </trkpt>
      <trkpt lat="47.28415" lon="-2.36211">
        <ele>30.39999961853</ele>
        <time>2020-11-29T11:02:11.000Z</time>
      </trkpt>
      <trkpt lat="47.28424" lon="-2.3621">
        <ele>30.799999237061</ele>
        <time>2020-11-29T11:02:14.000Z</time>
      </trkpt>
      <trkpt lat="47.28426" lon="-2.3621">
        <ele>31.200000762939</ele>
        <time>2020-11-29T11:02:15.000Z</time>
      </trkpt>
      <trkpt lat="47.28429" lon="-2.36209">
        <ele>31.60000038147</ele>
        <time>2020-11-29T11:02:16.000Z</time>
      </trkpt>
      <trkpt lat="47.28431" lon="-2.36207">
        <ele>32</ele>
        <time>2020-11-29T11:02:17.000Z</time>
      </trkpt>
      <trkpt lat="47.28435" lon="-2.36206">
        <ele>32.400001525879</ele>
        <time>2020-11-29T11:02:18.000Z</time>
      </trkpt>
      <trkpt lat="47.28439" lon="-2.36203">
        <ele>32.400001525879</ele>
        <time>2020-11-29T11:02:22.000Z</time>
      </trkpt>
      <trkpt lat="47.28441" lon="-2.36204">
        <ele>32.400001525879</ele>
        <time>2020-11-29T11:02:24.000Z</time>
      </trkpt>
      <trkpt lat="47.28449" lon="-2.36177">
        <ele>32.799999237061</ele>
        <time>2020-11-29T11:02:53.000Z</time>
      </trkpt>
      <trkpt lat="47.28448" lon="-2.36175">
        <ele>33.200000762939</ele>
        <time>2020-11-29T11:02:54.000Z</time>
      </trkpt>
      <trkpt lat="47.28448" lon="-2.36173">
        <ele>33.599998474121</ele>
        <time>2020-11-29T11:02:55.000Z</time>
      </trkpt>
      <trkpt lat="47.28448" lon="-2.3617">
        <ele>34</ele>
        <time>2020-11-29T11:02:56.000Z</time>
      </trkpt>
      <trkpt lat="47.28449" lon="-2.36167">
        <ele>34.599998474121</ele>
        <time>2020-11-29T11:02:57.000Z</time>
      </trkpt>
      <trkpt lat="47.28447" lon="-2.36155">
        <ele>34.599998474121</ele>
        <time>2020-11-29T11:03:00.000Z</time>
      </trkpt>
      <trkpt lat="47.28446" lon="-2.36153">
        <ele>35</ele>
        <time>2020-11-29T11:03:01.000Z</time>
      </trkpt>
      <trkpt lat="47.28444" lon="-2.36149">
        <ele>35.400001525879</ele>
        <time>2020-11-29T11:03:02.000Z</time>
      </trkpt>
      <trkpt lat="47.28443" lon="-2.36145">
        <ele>35.799999237061</ele>
        <time>2020-11-29T11:03:03.000Z</time>
      </trkpt>
      <trkpt lat="47.28442" lon="-2.3614">
        <ele>36.400001525879</ele>
        <time>2020-11-29T11:03:04.000Z</time>
      </trkpt>
      <trkpt lat="47.28442" lon="-2.36135">
        <ele>36.799999237061</ele>
        <time>2020-11-29T11:03:05.000Z</time>
      </trkpt>
      <trkpt lat="47.28439" lon="-2.36116">
        <ele>37.200000762939</ele>
        <time>2020-11-29T11:03:09.000Z</time>
      </trkpt>
      <trkpt lat="47.28438" lon="-2.36111">
        <ele>37.599998474121</ele>
        <time>2020-11-29T11:03:10.000Z</time>
      </trkpt>
      <trkpt lat="47.28437" lon="-2.36107">
        <ele>38.200000762939</ele>
        <time>2020-11-29T11:03:11.000Z</time>
      </trkpt>
      <trkpt lat="47.28437" lon="-2.36102">
        <ele>38.599998474121</ele>
        <time>2020-11-29T11:03:12.000Z</time>
      </trkpt>
      <trkpt lat="47.28436" lon="-2.36098">
        <ele>39</ele>
        <time>2020-11-29T11:03:13.000Z</time>
      </trkpt>
      <trkpt lat="47.28437" lon="-2.36082">
        <ele>39</ele>
        <time>2020-11-29T11:03:16.000Z</time>
      </trkpt>
      <trkpt lat="47.28437" lon="-2.36077">
        <ele>39.400001525879</ele>
        <time>2020-11-29T11:03:17.000Z</time>
      </trkpt>
      <trkpt lat="47.28437" lon="-2.36073">
        <ele>39.799999237061</ele>
        <time>2020-11-29T11:03:18.000Z</time>
      </trkpt>
      <trkpt lat="47.28437" lon="-2.36069">
        <ele>40.400001525879</ele>
        <time>2020-11-29T11:03:19.000Z</time>
      </trkpt>
      <trkpt lat="47.28436" lon="-2.36064">
        <ele>40.799999237061</ele>
        <time>2020-11-29T11:03:20.000Z</time>
      </trkpt>
      <trkpt lat="47.28436" lon="-2.3606">
        <ele>41.200000762939</ele>
        <time>2020-11-29T11:03:21.000Z</time>
      </trkpt>
      <trkpt lat="47.28437" lon="-2.36051">
        <ele>41.200000762939</ele>
        <time>2020-11-29T11:03:23.000Z</time>
      </trkpt>
      <trkpt lat="47.28439" lon="-2.36035">
        <ele>41.599998474121</ele>
        <time>2020-11-29T11:03:27.000Z</time>
      </trkpt>
      <trkpt lat="47.28439" lon="-2.36032">
        <ele>42</ele>
        <time>2020-11-29T11:03:28.000Z</time>
      </trkpt>
      <trkpt lat="47.28439" lon="-2.36029">
        <ele>42.400001525879</ele>
        <time>2020-11-29T11:03:29.000Z</time>
      </trkpt>
      <trkpt lat="47.28439" lon="-2.36027">
        <ele>43</ele>
        <time>2020-11-29T11:03:30.000Z</time>
      </trkpt>
      <trkpt lat="47.2844" lon="-2.36024">
        <ele>43.400001525879</ele>
        <time>2020-11-29T11:03:31.000Z</time>
      </trkpt>
      <trkpt lat="47.28442" lon="-2.36019">
        <ele>43.400001525879</ele>
        <time>2020-11-29T11:03:35.000Z</time>
      </trkpt>
      <trkpt lat="47.28445" lon="-2.36012">
        <ele>43.400001525879</ele>
        <time>2020-11-29T11:03:40.000Z</time>
      </trkpt>
      <trkpt lat="47.28449" lon="-2.35999">
        <ele>43.400001525879</ele>
        <time>2020-11-29T11:03:44.000Z</time>
      </trkpt>
      <trkpt lat="47.28447" lon="-2.35991">
        <ele>43.400001525879</ele>
        <time>2020-11-29T11:03:46.000Z</time>
      </trkpt>
      <trkpt lat="47.28445" lon="-2.35989">
        <ele>43.400001525879</ele>
        <time>2020-11-29T11:03:47.000Z</time>
      </trkpt>
      <trkpt lat="47.28438" lon="-2.35989">
        <ele>43.400001525879</ele>
        <time>2020-11-29T11:03:50.000Z</time>
      </trkpt>
      <trkpt lat="47.28434" lon="-2.35992">
        <ele>43.400001525879</ele>
        <time>2020-11-29T11:03:51.000Z</time>
      </trkpt>
      <trkpt lat="47.28417" lon="-2.36008">
        <ele>43.400001525879</ele>
        <time>2020-11-29T11:03:56.000Z</time>
      </trkpt>
      <trkpt lat="47.284" lon="-2.36021">
        <ele>43.400001525879</ele>
        <time>2020-11-29T11:04:01.000Z</time>
      </trkpt>
      <trkpt lat="47.2839" lon="-2.36025">
        <ele>43.400001525879</ele>
        <time>2020-11-29T11:04:03.000Z</time>
      </trkpt>
      <trkpt lat="47.28376" lon="-2.36024">
        <ele>43.400001525879</ele>
        <time>2020-11-29T11:04:05.000Z</time>
      </trkpt>
      <trkpt lat="47.28369" lon="-2.36025">
        <ele>42.799999237061</ele>
        <time>2020-11-29T11:04:06.000Z</time>
      </trkpt>
      <trkpt lat="47.28361" lon="-2.36027">
        <ele>42.400001525879</ele>
        <time>2020-11-29T11:04:07.000Z</time>
      </trkpt>
      <trkpt lat="47.28354" lon="-2.36029">
        <ele>42</ele>
        <time>2020-11-29T11:04:08.000Z</time>
      </trkpt>
      <trkpt lat="47.28347" lon="-2.36033">
        <ele>41.200000762939</ele>
        <time>2020-11-29T11:04:09.000Z</time>
      </trkpt>
      <trkpt lat="47.28342" lon="-2.36038">
        <ele>40.599998474121</ele>
        <time>2020-11-29T11:04:10.000Z</time>
      </trkpt>
      <trkpt lat="47.28336" lon="-2.36044">
        <ele>39.799999237061</ele>
        <time>2020-11-29T11:04:11.000Z</time>
      </trkpt>
      <trkpt lat="47.2833" lon="-2.36049">
        <ele>39</ele>
        <time>2020-11-29T11:04:12.000Z</time>
      </trkpt>
      <trkpt lat="47.28324" lon="-2.36053">
        <ele>38.200000762939</ele>
        <time>2020-11-29T11:04:13.000Z</time>
      </trkpt>
      <trkpt lat="47.28318" lon="-2.36053">
        <ele>37.599998474121</ele>
        <time>2020-11-29T11:04:14.000Z</time>
      </trkpt>
      <trkpt lat="47.28315" lon="-2.36051">
        <ele>36.799999237061</ele>
        <time>2020-11-29T11:04:15.000Z</time>
      </trkpt>
      <trkpt lat="47.28311" lon="-2.3605">
        <ele>36</ele>
        <time>2020-11-29T11:04:16.000Z</time>
      </trkpt>
      <trkpt lat="47.28306" lon="-2.36049">
        <ele>36</ele>
        <time>2020-11-29T11:04:17.000Z</time>
      </trkpt>
      <trkpt lat="47.28291" lon="-2.36044">
        <ele>35.599998474121</ele>
        <time>2020-11-29T11:04:21.000Z</time>
      </trkpt>
      <trkpt lat="47.28289" lon="-2.3604">
        <ele>34.599998474121</ele>
        <time>2020-11-29T11:04:22.000Z</time>
      </trkpt>
      <trkpt lat="47.28286" lon="-2.36037">
        <ele>34</ele>
        <time>2020-11-29T11:04:23.000Z</time>
      </trkpt>
      <trkpt lat="47.28284" lon="-2.36032">
        <ele>33.400001525879</ele>
        <time>2020-11-29T11:04:24.000Z</time>
      </trkpt>
      <trkpt lat="47.28283" lon="-2.36027">
        <ele>32.799999237061</ele>
        <time>2020-11-29T11:04:25.000Z</time>
      </trkpt>
      <trkpt lat="47.28281" lon="-2.36022">
        <ele>32.200000762939</ele>
        <time>2020-11-29T11:04:26.000Z</time>
      </trkpt>
      <trkpt lat="47.28281" lon="-2.36016">
        <ele>31.39999961853</ele>
        <time>2020-11-29T11:04:27.000Z</time>
      </trkpt>
      <trkpt lat="47.28281" lon="-2.36009">
        <ele>30.60000038147</ele>
        <time>2020-11-29T11:04:28.000Z</time>
      </trkpt>
      <trkpt lat="47.28282" lon="-2.36003">
        <ele>30</ele>
        <time>2020-11-29T11:04:29.000Z</time>
      </trkpt>
      <trkpt lat="47.28283" lon="-2.35997">
        <ele>29.200000762939</ele>
        <time>2020-11-29T11:04:30.000Z</time>
      </trkpt>
      <trkpt lat="47.28283" lon="-2.3599">
        <ele>28.39999961853</ele>
        <time>2020-11-29T11:04:31.000Z</time>
      </trkpt>
      <trkpt lat="47.28282" lon="-2.35984">
        <ele>27.799999237061</ele>
        <time>2020-11-29T11:04:32.000Z</time>
      </trkpt>
      <trkpt lat="47.28281" lon="-2.3598">
        <ele>27</ele>
        <time>2020-11-29T11:04:33.000Z</time>
      </trkpt>
      <trkpt lat="47.2828" lon="-2.35975">
        <ele>27</ele>
        <time>2020-11-29T11:04:34.000Z</time>
      </trkpt>
      <trkpt lat="47.28275" lon="-2.35961">
        <ele>27</ele>
        <time>2020-11-29T11:04:39.000Z</time>
      </trkpt>
      <trkpt lat="47.28269" lon="-2.35946">
        <ele>27</ele>
        <time>2020-11-29T11:04:45.000Z</time>
      </trkpt>
      <trkpt lat="47.28259" lon="-2.35927">
        <ele>27.39999961853</ele>
        <time>2020-11-29T11:04:51.000Z</time>
      </trkpt>
      <trkpt lat="47.28257" lon="-2.35924">
        <ele>27.799999237061</ele>
        <time>2020-11-29T11:04:52.000Z</time>
      </trkpt>
      <trkpt lat="47.28255" lon="-2.35921">
        <ele>28.39999961853</ele>
        <time>2020-11-29T11:04:53.000Z</time>
      </trkpt>
      <trkpt lat="47.28253" lon="-2.35918">
        <ele>28.799999237061</ele>
        <time>2020-11-29T11:04:54.000Z</time>
      </trkpt>
      <trkpt lat="47.28251" lon="-2.35916">
        <ele>29.200000762939</ele>
        <time>2020-11-29T11:04:55.000Z</time>
      </trkpt>
      <trkpt lat="47.28241" lon="-2.35914">
        <ele>29.200000762939</ele>
        <time>2020-11-29T11:04:58.000Z</time>
      </trkpt>
      <trkpt lat="47.28219" lon="-2.35912">
        <ele>29.200000762939</ele>
        <time>2020-11-29T11:05:03.000Z</time>
      </trkpt>
      <trkpt lat="47.28211" lon="-2.35907">
        <ele>29.200000762939</ele>
        <time>2020-11-29T11:05:05.000Z</time>
      </trkpt>
      <trkpt lat="47.28204" lon="-2.35897">
        <ele>29.200000762939</ele>
        <time>2020-11-29T11:05:07.000Z</time>
      </trkpt>
      <trkpt lat="47.28195" lon="-2.35864">
        <ele>29.200000762939</ele>
        <time>2020-11-29T11:05:13.000Z</time>
      </trkpt>
      <trkpt lat="47.28182" lon="-2.35834">
        <ele>29.200000762939</ele>
        <time>2020-11-29T11:05:17.000Z</time>
      </trkpt>
      <trkpt lat="47.28179" lon="-2.35827">
        <ele>29.200000762939</ele>
        <time>2020-11-29T11:05:18.000Z</time>
      </trkpt>
      <trkpt lat="47.28178" lon="-2.3582">
        <ele>29.200000762939</ele>
        <time>2020-11-29T11:05:19.000Z</time>
      </trkpt>
      <trkpt lat="47.28165" lon="-2.35791">
        <ele>29.200000762939</ele>
        <time>2020-11-29T11:05:25.000Z</time>
      </trkpt>
      <trkpt lat="47.28158" lon="-2.35773">
        <ele>29.200000762939</ele>
        <time>2020-11-29T11:05:30.000Z</time>
      </trkpt>
      <trkpt lat="47.28147" lon="-2.35759">
        <ele>28.799999237061</ele>
        <time>2020-11-29T11:05:34.000Z</time>
      </trkpt>
      <trkpt lat="47.28144" lon="-2.35755">
        <ele>28.39999961853</ele>
        <time>2020-11-29T11:05:35.000Z</time>
      </trkpt>
      <trkpt lat="47.28141" lon="-2.35752">
        <ele>27.799999237061</ele>
        <time>2020-11-29T11:05:36.000Z</time>
      </trkpt>
      <trkpt lat="47.28138" lon="-2.35749">
        <ele>27</ele>
        <time>2020-11-29T11:05:37.000Z</time>
      </trkpt>
      <trkpt lat="47.28126" lon="-2.35745">
        <ele>27</ele>
        <time>2020-11-29T11:05:41.000Z</time>
      </trkpt>
      <trkpt lat="47.28108" lon="-2.35764">
        <ele>27</ele>
        <time>2020-11-29T11:05:46.000Z</time>
      </trkpt>
      <trkpt lat="47.281" lon="-2.35783">
        <ele>27</ele>
        <time>2020-11-29T11:05:50.000Z</time>
      </trkpt>
      <trkpt lat="47.28099" lon="-2.35787">
        <ele>27</ele>
        <time>2020-11-29T11:05:51.000Z</time>
      </trkpt>
      <trkpt lat="47.28086" lon="-2.35805">
        <ele>27</ele>
        <time>2020-11-29T11:05:56.000Z</time>
      </trkpt>
      <trkpt lat="47.28082" lon="-2.35805">
        <ele>27</ele>
        <time>2020-11-29T11:05:57.000Z</time>
      </trkpt>
      <trkpt lat="47.28077" lon="-2.35797">
        <ele>27</ele>
        <time>2020-11-29T11:06:00.000Z</time>
      </trkpt>
      <trkpt lat="47.28082" lon="-2.35779">
        <ele>27</ele>
        <time>2020-11-29T11:06:05.000Z</time>
      </trkpt>
      <trkpt lat="47.28083" lon="-2.35775">
        <ele>27.39999961853</ele>
        <time>2020-11-29T11:06:06.000Z</time>
      </trkpt>
      <trkpt lat="47.28084" lon="-2.35771">
        <ele>27.799999237061</ele>
        <time>2020-11-29T11:06:07.000Z</time>
      </trkpt>
      <trkpt lat="47.28085" lon="-2.35766">
        <ele>28.39999961853</ele>
        <time>2020-11-29T11:06:08.000Z</time>
      </trkpt>
      <trkpt lat="47.28086" lon="-2.35761">
        <ele>28.799999237061</ele>
        <time>2020-11-29T11:06:09.000Z</time>
      </trkpt>
      <trkpt lat="47.28086" lon="-2.35756">
        <ele>29.200000762939</ele>
        <time>2020-11-29T11:06:10.000Z</time>
      </trkpt>
      <trkpt lat="47.28087" lon="-2.35745">
        <ele>29.200000762939</ele>
        <time>2020-11-29T11:06:12.000Z</time>
      </trkpt>
      <trkpt lat="47.28091" lon="-2.35725">
        <ele>29.60000038147</ele>
        <time>2020-11-29T11:06:16.000Z</time>
      </trkpt>
      <trkpt lat="47.28092" lon="-2.3572">
        <ele>30</ele>
        <time>2020-11-29T11:06:17.000Z</time>
      </trkpt>
      <trkpt lat="47.28093" lon="-2.35715">
        <ele>30.39999961853</ele>
        <time>2020-11-29T11:06:18.000Z</time>
      </trkpt>
      <trkpt lat="47.28094" lon="-2.35711">
        <ele>31</ele>
        <time>2020-11-29T11:06:19.000Z</time>
      </trkpt>
      <trkpt lat="47.28095" lon="-2.35706">
        <ele>31.39999961853</ele>
        <time>2020-11-29T11:06:20.000Z</time>
      </trkpt>
      <trkpt lat="47.28094" lon="-2.35692">
        <ele>31.39999961853</ele>
        <time>2020-11-29T11:06:23.000Z</time>
      </trkpt>
      <trkpt lat="47.28085" lon="-2.35663">
        <ele>31.39999961853</ele>
        <time>2020-11-29T11:06:28.000Z</time>
      </trkpt>
      <trkpt lat="47.28081" lon="-2.35646">
        <ele>31</ele>
        <time>2020-11-29T11:06:31.000Z</time>
      </trkpt>
      <trkpt lat="47.28078" lon="-2.35634">
        <ele>30.39999961853</ele>
        <time>2020-11-29T11:06:32.000Z</time>
      </trkpt>
      <trkpt lat="47.28077" lon="-2.35627">
        <ele>30</ele>
        <time>2020-11-29T11:06:33.000Z</time>
      </trkpt>
      <trkpt lat="47.28075" lon="-2.35619">
        <ele>29.200000762939</ele>
        <time>2020-11-29T11:06:34.000Z</time>
      </trkpt>
      <trkpt lat="47.28073" lon="-2.35615">
        <ele>28.60000038147</ele>
        <time>2020-11-29T11:06:35.000Z</time>
      </trkpt>
      <trkpt lat="47.2807" lon="-2.35614">
        <ele>27.799999237061</ele>
        <time>2020-11-29T11:06:36.000Z</time>
      </trkpt>
      <trkpt lat="47.28068" lon="-2.35613">
        <ele>27.200000762939</ele>
        <time>2020-11-29T11:06:37.000Z</time>
      </trkpt>
      <trkpt lat="47.28066" lon="-2.35612">
        <ele>26.39999961853</ele>
        <time>2020-11-29T11:06:38.000Z</time>
      </trkpt>
      <trkpt lat="47.28063" lon="-2.3561">
        <ele>26.39999961853</ele>
        <time>2020-11-29T11:06:39.000Z</time>
      </trkpt>
      <trkpt lat="47.28059" lon="-2.35606">
        <ele>26.39999961853</ele>
        <time>2020-11-29T11:06:41.000Z</time>
      </trkpt>
      <trkpt lat="47.28056" lon="-2.35594">
        <ele>26.39999961853</ele>
        <time>2020-11-29T11:06:46.000Z</time>
      </trkpt>
      <trkpt lat="47.28056" lon="-2.35586">
        <ele>26.39999961853</ele>
        <time>2020-11-29T11:06:49.000Z</time>
      </trkpt>
      <trkpt lat="47.28055" lon="-2.3558">
        <ele>26.39999961853</ele>
        <time>2020-11-29T11:06:51.000Z</time>
      </trkpt>
      <trkpt lat="47.28051" lon="-2.35577">
        <ele>26</ele>
        <time>2020-11-29T11:06:54.000Z</time>
      </trkpt>
      <trkpt lat="47.28051" lon="-2.35577">
        <ele>25.60000038147</ele>
        <time>2020-11-29T11:06:55.000Z</time>
      </trkpt>
      <trkpt lat="47.2805" lon="-2.35577">
        <ele>28.799999237061</ele>
        <time>2020-11-29T11:18:19.000Z</time>
      </trkpt>
      <trkpt lat="47.28048" lon="-2.35576">
        <ele>29.200000762939</ele>
        <time>2020-11-29T11:18:20.000Z</time>
      </trkpt>
      <trkpt lat="47.28047" lon="-2.35576">
        <ele>29.60000038147</ele>
        <time>2020-11-29T11:18:21.000Z</time>
      </trkpt>
      <trkpt lat="47.28045" lon="-2.35575">
        <ele>30</ele>
        <time>2020-11-29T11:18:22.000Z</time>
      </trkpt>
      <trkpt lat="47.28042" lon="-2.35576">
        <ele>30.39999961853</ele>
        <time>2020-11-29T11:18:23.000Z</time>
      </trkpt>
      <trkpt lat="47.28033" lon="-2.35577">
        <ele>30.39999961853</ele>
        <time>2020-11-29T11:18:26.000Z</time>
      </trkpt>
      <trkpt lat="47.28002" lon="-2.35582">
        <ele>30.39999961853</ele>
        <time>2020-11-29T11:18:34.000Z</time>
      </trkpt>
      <trkpt lat="47.27979" lon="-2.3559">
        <ele>30.39999961853</ele>
        <time>2020-11-29T11:18:40.000Z</time>
      </trkpt>
      <trkpt lat="47.27954" lon="-2.35583">
        <ele>30.39999961853</ele>
        <time>2020-11-29T11:18:46.000Z</time>
      </trkpt>
      <trkpt lat="47.27918" lon="-2.3559">
        <ele>30.39999961853</ele>
        <time>2020-11-29T11:18:53.000Z</time>
      </trkpt>
      <trkpt lat="47.27906" lon="-2.35594">
        <ele>30</ele>
        <time>2020-11-29T11:18:55.000Z</time>
      </trkpt>
      <trkpt lat="47.279" lon="-2.35595">
        <ele>29.60000038147</ele>
        <time>2020-11-29T11:18:56.000Z</time>
      </trkpt>
      <trkpt lat="47.27894" lon="-2.35596">
        <ele>29.200000762939</ele>
        <time>2020-11-29T11:18:57.000Z</time>
      </trkpt>
      <trkpt lat="47.27887" lon="-2.35597">
        <ele>28.799999237061</ele>
        <time>2020-11-29T11:18:58.000Z</time>
      </trkpt>
      <trkpt lat="47.27881" lon="-2.35599">
        <ele>28.39999961853</ele>
        <time>2020-11-29T11:18:59.000Z</time>
      </trkpt>
      <trkpt lat="47.27841" lon="-2.3561">
        <ele>28.39999961853</ele>
        <time>2020-11-29T11:19:05.000Z</time>
      </trkpt>
      <trkpt lat="47.2782" lon="-2.35616">
        <ele>28</ele>
        <time>2020-11-29T11:19:08.000Z</time>
      </trkpt>
      <trkpt lat="47.27813" lon="-2.35618">
        <ele>27.39999961853</ele>
        <time>2020-11-29T11:19:09.000Z</time>
      </trkpt>
      <trkpt lat="47.27806" lon="-2.3562">
        <ele>27</ele>
        <time>2020-11-29T11:19:10.000Z</time>
      </trkpt>
      <trkpt lat="47.27799" lon="-2.35622">
        <ele>26.39999961853</ele>
        <time>2020-11-29T11:19:11.000Z</time>
      </trkpt>
      <trkpt lat="47.27792" lon="-2.35626">
        <ele>26</ele>
        <time>2020-11-29T11:19:12.000Z</time>
      </trkpt>
      <trkpt lat="47.27785" lon="-2.3563">
        <ele>26</ele>
        <time>2020-11-29T11:19:13.000Z</time>
      </trkpt>
      <trkpt lat="47.2776" lon="-2.35652">
        <ele>26</ele>
        <time>2020-11-29T11:19:17.000Z</time>
      </trkpt>
      <trkpt lat="47.27755" lon="-2.35659">
        <ele>26</ele>
        <time>2020-11-29T11:19:18.000Z</time>
      </trkpt>
      <trkpt lat="47.27735" lon="-2.35689">
        <ele>25.60000038147</ele>
        <time>2020-11-29T11:19:22.000Z</time>
      </trkpt>
      <trkpt lat="47.27731" lon="-2.35696">
        <ele>25.200000762939</ele>
        <time>2020-11-29T11:19:23.000Z</time>
      </trkpt>
      <trkpt lat="47.27725" lon="-2.35704">
        <ele>24.60000038147</ele>
        <time>2020-11-29T11:19:24.000Z</time>
      </trkpt>
      <trkpt lat="47.2772" lon="-2.35711">
        <ele>24.200000762939</ele>
        <time>2020-11-29T11:19:25.000Z</time>
      </trkpt>
      <trkpt lat="47.27714" lon="-2.35717">
        <ele>23.799999237061</ele>
        <time>2020-11-29T11:19:26.000Z</time>
      </trkpt>
      <trkpt lat="47.27701" lon="-2.35728">
        <ele>23.799999237061</ele>
        <time>2020-11-29T11:19:28.000Z</time>
      </trkpt>
      <trkpt lat="47.27677" lon="-2.35747">
        <ele>23.799999237061</ele>
        <time>2020-11-29T11:19:32.000Z</time>
      </trkpt>
      <trkpt lat="47.27672" lon="-2.35749">
        <ele>23.39999961853</ele>
        <time>2020-11-29T11:19:33.000Z</time>
      </trkpt>
      <trkpt lat="47.27668" lon="-2.35748">
        <ele>23</ele>
        <time>2020-11-29T11:19:34.000Z</time>
      </trkpt>
      <trkpt lat="47.27666" lon="-2.35745">
        <ele>22.60000038147</ele>
        <time>2020-11-29T11:19:35.000Z</time>
      </trkpt>
      <trkpt lat="47.27662" lon="-2.3574">
        <ele>21.60000038147</ele>
        <time>2020-11-29T11:19:36.000Z</time>
      </trkpt>
      <trkpt lat="47.27638" lon="-2.35724">
        <ele>21.60000038147</ele>
        <time>2020-11-29T11:19:40.000Z</time>
      </trkpt>
      <trkpt lat="47.27624" lon="-2.3572">
        <ele>21.60000038147</ele>
        <time>2020-11-29T11:19:42.000Z</time>
      </trkpt>
      <trkpt lat="47.27595" lon="-2.35712">
        <ele>21.60000038147</ele>
        <time>2020-11-29T11:19:46.000Z</time>
      </trkpt>
      <trkpt lat="47.27558" lon="-2.35703">
        <ele>21.200000762939</ele>
        <time>2020-11-29T11:19:51.000Z</time>
      </trkpt>
      <trkpt lat="47.27551" lon="-2.35701">
        <ele>20.799999237061</ele>
        <time>2020-11-29T11:19:52.000Z</time>
      </trkpt>
      <trkpt lat="47.27544" lon="-2.35699">
        <ele>20.39999961853</ele>
        <time>2020-11-29T11:19:53.000Z</time>
      </trkpt>
      <trkpt lat="47.27537" lon="-2.35698">
        <ele>20</ele>
        <time>2020-11-29T11:19:54.000Z</time>
      </trkpt>
      <trkpt lat="47.27531" lon="-2.35696">
        <ele>19.60000038147</ele>
        <time>2020-11-29T11:19:55.000Z</time>
      </trkpt>
      <trkpt lat="47.27502" lon="-2.35689">
        <ele>19.60000038147</ele>
        <time>2020-11-29T11:19:59.000Z</time>
      </trkpt>
      <trkpt lat="47.27495" lon="-2.35686">
        <ele>19.60000038147</ele>
        <time>2020-11-29T11:20:00.000Z</time>
      </trkpt>
      <trkpt lat="47.27488" lon="-2.35684">
        <ele>19</ele>
        <time>2020-11-29T11:20:01.000Z</time>
      </trkpt>
      <trkpt lat="47.27481" lon="-2.35683">
        <ele>18.200000762939</ele>
        <time>2020-11-29T11:20:02.000Z</time>
      </trkpt>
      <trkpt lat="47.27473" lon="-2.35681">
        <ele>17.799999237061</ele>
        <time>2020-11-29T11:20:03.000Z</time>
      </trkpt>
      <trkpt lat="47.27466" lon="-2.35679">
        <ele>17.39999961853</ele>
        <time>2020-11-29T11:20:04.000Z</time>
      </trkpt>
      <trkpt lat="47.2744" lon="-2.35672">
        <ele>17</ele>
        <time>2020-11-29T11:20:08.000Z</time>
      </trkpt>
      <trkpt lat="47.27434" lon="-2.35671">
        <ele>16.60000038147</ele>
        <time>2020-11-29T11:20:09.000Z</time>
      </trkpt>
      <trkpt lat="47.27428" lon="-2.35669">
        <ele>16.200000762939</ele>
        <time>2020-11-29T11:20:10.000Z</time>
      </trkpt>
      <trkpt lat="47.2742" lon="-2.35668">
        <ele>15.800000190735</ele>
        <time>2020-11-29T11:20:11.000Z</time>
      </trkpt>
      <trkpt lat="47.27413" lon="-2.35668">
        <ele>15.39999961853</ele>
        <time>2020-11-29T11:20:12.000Z</time>
      </trkpt>
      <trkpt lat="47.27407" lon="-2.3567">
        <ele>15.39999961853</ele>
        <time>2020-11-29T11:20:13.000Z</time>
      </trkpt>
      <trkpt lat="47.27375" lon="-2.35687">
        <ele>15.39999961853</ele>
        <time>2020-11-29T11:20:18.000Z</time>
      </trkpt>
      <trkpt lat="47.27333" lon="-2.35718">
        <ele>15</ele>
        <time>2020-11-29T11:20:25.000Z</time>
      </trkpt>
      <trkpt lat="47.27329" lon="-2.35723">
        <ele>14.60000038147</ele>
        <time>2020-11-29T11:20:26.000Z</time>
      </trkpt>
      <trkpt lat="47.27326" lon="-2.35728">
        <ele>13.60000038147</ele>
        <time>2020-11-29T11:20:27.000Z</time>
      </trkpt>
      <trkpt lat="47.27324" lon="-2.35733">
        <ele>13.199999809265</ele>
        <time>2020-11-29T11:20:28.000Z</time>
      </trkpt>
      <trkpt lat="47.27316" lon="-2.35743">
        <ele>13.199999809265</ele>
        <time>2020-11-29T11:20:31.000Z</time>
      </trkpt>
      <trkpt lat="47.27312" lon="-2.35742">
        <ele>13.199999809265</ele>
        <time>2020-11-29T11:20:32.000Z</time>
      </trkpt>
      <trkpt lat="47.27309" lon="-2.35739">
        <ele>13.60000038147</ele>
        <time>2020-11-29T11:20:33.000Z</time>
      </trkpt>
      <trkpt lat="47.27306" lon="-2.35733">
        <ele>14</ele>
        <time>2020-11-29T11:20:34.000Z</time>
      </trkpt>
      <trkpt lat="47.27303" lon="-2.35726">
        <ele>14.39999961853</ele>
        <time>2020-11-29T11:20:35.000Z</time>
      </trkpt>
      <trkpt lat="47.27301" lon="-2.35719">
        <ele>15</ele>
        <time>2020-11-29T11:20:36.000Z</time>
      </trkpt>
      <trkpt lat="47.27299" lon="-2.35711">
        <ele>15.39999961853</ele>
        <time>2020-11-29T11:20:37.000Z</time>
      </trkpt>
      <trkpt lat="47.27297" lon="-2.35704">
        <ele>15.39999961853</ele>
        <time>2020-11-29T11:20:38.000Z</time>
      </trkpt>
      <trkpt lat="47.27289" lon="-2.3569">
        <ele>15.39999961853</ele>
        <time>2020-11-29T11:20:40.000Z</time>
      </trkpt>
      <trkpt lat="47.27266" lon="-2.35641">
        <ele>15.39999961853</ele>
        <time>2020-11-29T11:20:47.000Z</time>
      </trkpt>
      <trkpt lat="47.27251" lon="-2.35607">
        <ele>15.39999961853</ele>
        <time>2020-11-29T11:20:52.000Z</time>
      </trkpt>
      <trkpt lat="47.27242" lon="-2.35587">
        <ele>15.39999961853</ele>
        <time>2020-11-29T11:20:55.000Z</time>
      </trkpt>
      <trkpt lat="47.27211" lon="-2.3552">
        <ele>15.39999961853</ele>
        <time>2020-11-29T11:21:05.000Z</time>
      </trkpt>
      <trkpt lat="47.27205" lon="-2.35508">
        <ele>15.800000190735</ele>
        <time>2020-11-29T11:21:07.000Z</time>
      </trkpt>
      <trkpt lat="47.27202" lon="-2.35501">
        <ele>16.200000762939</ele>
        <time>2020-11-29T11:21:08.000Z</time>
      </trkpt>
      <trkpt lat="47.27199" lon="-2.35495">
        <ele>16.60000038147</ele>
        <time>2020-11-29T11:21:09.000Z</time>
      </trkpt>
      <trkpt lat="47.27196" lon="-2.35489">
        <ele>17</ele>
        <time>2020-11-29T11:21:10.000Z</time>
      </trkpt>
      <trkpt lat="47.27193" lon="-2.35483">
        <ele>17.39999961853</ele>
        <time>2020-11-29T11:21:11.000Z</time>
      </trkpt>
      <trkpt lat="47.27187" lon="-2.35471">
        <ele>17.39999961853</ele>
        <time>2020-11-29T11:21:13.000Z</time>
      </trkpt>
      <trkpt lat="47.27158" lon="-2.35416">
        <ele>17.39999961853</ele>
        <time>2020-11-29T11:21:22.000Z</time>
      </trkpt>
      <trkpt lat="47.27125" lon="-2.35355">
        <ele>17.39999961853</ele>
        <time>2020-11-29T11:21:32.000Z</time>
      </trkpt>
      <trkpt lat="47.27092" lon="-2.35302">
        <ele>17.39999961853</ele>
        <time>2020-11-29T11:21:41.000Z</time>
      </trkpt>
      <trkpt lat="47.27054" lon="-2.35244">
        <ele>17.39999961853</ele>
        <time>2020-11-29T11:21:51.000Z</time>
      </trkpt>
      <trkpt lat="47.27024" lon="-2.35199">
        <ele>17.39999961853</ele>
        <time>2020-11-29T11:21:59.000Z</time>
      </trkpt>
      <trkpt lat="47.26998" lon="-2.35159">
        <ele>17.39999961853</ele>
        <time>2020-11-29T11:22:06.000Z</time>
      </trkpt>
      <trkpt lat="47.26994" lon="-2.35153">
        <ele>17.39999961853</ele>
        <time>2020-11-29T11:22:07.000Z</time>
      </trkpt>
      <trkpt lat="47.26965" lon="-2.35107">
        <ele>17.39999961853</ele>
        <time>2020-11-29T11:22:15.000Z</time>
      </trkpt>
      <trkpt lat="47.26926" lon="-2.35048">
        <ele>17.39999961853</ele>
        <time>2020-11-29T11:22:25.000Z</time>
      </trkpt>
      <trkpt lat="47.26902" lon="-2.35012">
        <ele>17</ele>
        <time>2020-11-29T11:22:31.000Z</time>
      </trkpt>
      <trkpt lat="47.26898" lon="-2.35006">
        <ele>16.60000038147</ele>
        <time>2020-11-29T11:22:32.000Z</time>
      </trkpt>
      <trkpt lat="47.26894" lon="-2.35">
        <ele>16</ele>
        <time>2020-11-29T11:22:33.000Z</time>
      </trkpt>
      <trkpt lat="47.2689" lon="-2.34993">
        <ele>15.60000038147</ele>
        <time>2020-11-29T11:22:34.000Z</time>
      </trkpt>
      <trkpt lat="47.26886" lon="-2.34987">
        <ele>15.199999809265</ele>
        <time>2020-11-29T11:22:35.000Z</time>
      </trkpt>
      <trkpt lat="47.26846" lon="-2.34925">
        <ele>15.199999809265</ele>
        <time>2020-11-29T11:22:45.000Z</time>
      </trkpt>
      <trkpt lat="47.26842" lon="-2.34919">
        <ele>15.199999809265</ele>
        <time>2020-11-29T11:22:46.000Z</time>
      </trkpt>
      <trkpt lat="47.26811" lon="-2.34873">
        <ele>15.199999809265</ele>
        <time>2020-11-29T11:22:54.000Z</time>
      </trkpt>
      <trkpt lat="47.26772" lon="-2.34819">
        <ele>15.199999809265</ele>
        <time>2020-11-29T11:23:04.000Z</time>
      </trkpt>
      <trkpt lat="47.26746" lon="-2.34785">
        <ele>15.199999809265</ele>
        <time>2020-11-29T11:23:10.000Z</time>
      </trkpt>
      <trkpt lat="47.2671" lon="-2.34739">
        <ele>15.199999809265</ele>
        <time>2020-11-29T11:23:18.000Z</time>
      </trkpt>
      <trkpt lat="47.26671" lon="-2.34694">
        <ele>15.199999809265</ele>
        <time>2020-11-29T11:23:26.000Z</time>
      </trkpt>
      <trkpt lat="47.26642" lon="-2.34657">
        <ele>15.199999809265</ele>
        <time>2020-11-29T11:23:32.000Z</time>
      </trkpt>
      <trkpt lat="47.26617" lon="-2.34628">
        <ele>14.800000190735</ele>
        <time>2020-11-29T11:23:37.000Z</time>
      </trkpt>
      <trkpt lat="47.26613" lon="-2.34622">
        <ele>14.39999961853</ele>
        <time>2020-11-29T11:23:38.000Z</time>
      </trkpt>
      <trkpt lat="47.26608" lon="-2.34616">
        <ele>14</ele>
        <time>2020-11-29T11:23:39.000Z</time>
      </trkpt>
      <trkpt lat="47.26603" lon="-2.3461">
        <ele>13.60000038147</ele>
        <time>2020-11-29T11:23:40.000Z</time>
      </trkpt>
      <trkpt lat="47.26598" lon="-2.34605">
        <ele>13.199999809265</ele>
        <time>2020-11-29T11:23:41.000Z</time>
      </trkpt>
      <trkpt lat="47.2656" lon="-2.34563">
        <ele>13.199999809265</ele>
        <time>2020-11-29T11:23:49.000Z</time>
      </trkpt>
      <trkpt lat="47.26516" lon="-2.34521">
        <ele>13.199999809265</ele>
        <time>2020-11-29T11:23:58.000Z</time>
      </trkpt>
      <trkpt lat="47.26466" lon="-2.34485">
        <ele>13.199999809265</ele>
        <time>2020-11-29T11:24:07.000Z</time>
      </trkpt>
      <trkpt lat="47.26421" lon="-2.34451">
        <ele>13.199999809265</ele>
        <time>2020-11-29T11:24:15.000Z</time>
      </trkpt>
      <trkpt lat="47.26378" lon="-2.34416">
        <ele>13.199999809265</ele>
        <time>2020-11-29T11:24:23.000Z</time>
      </trkpt>
      <trkpt lat="47.26338" lon="-2.34379">
        <ele>13.199999809265</ele>
        <time>2020-11-29T11:24:31.000Z</time>
      </trkpt>
      <trkpt lat="47.26332" lon="-2.34376">
        <ele>13.199999809265</ele>
        <time>2020-11-29T11:24:32.000Z</time>
      </trkpt>
      <trkpt lat="47.26327" lon="-2.34376">
        <ele>13.199999809265</ele>
        <time>2020-11-29T11:24:33.000Z</time>
      </trkpt>
      <trkpt lat="47.26318" lon="-2.34368">
        <ele>13.199999809265</ele>
        <time>2020-11-29T11:24:35.000Z</time>
      </trkpt>
      <trkpt lat="47.26303" lon="-2.34345">
        <ele>13.199999809265</ele>
        <time>2020-11-29T11:24:39.000Z</time>
      </trkpt>
      <trkpt lat="47.26298" lon="-2.3434">
        <ele>13.199999809265</ele>
        <time>2020-11-29T11:24:40.000Z</time>
      </trkpt>
      <trkpt lat="47.26265" lon="-2.34305">
        <ele>13.199999809265</ele>
        <time>2020-11-29T11:24:47.000Z</time>
      </trkpt>
      <trkpt lat="47.26222" lon="-2.34258">
        <ele>13.199999809265</ele>
        <time>2020-11-29T11:24:56.000Z</time>
      </trkpt>
      <trkpt lat="47.26179" lon="-2.34215">
        <ele>13.199999809265</ele>
        <time>2020-11-29T11:25:05.000Z</time>
      </trkpt>
      <trkpt lat="47.26148" lon="-2.34185">
        <ele>13.199999809265</ele>
        <time>2020-11-29T11:25:12.000Z</time>
      </trkpt>
      <trkpt lat="47.26142" lon="-2.34183">
        <ele>13.199999809265</ele>
        <time>2020-11-29T11:25:13.000Z</time>
      </trkpt>
      <trkpt lat="47.26131" lon="-2.34179">
        <ele>13.199999809265</ele>
        <time>2020-11-29T11:25:15.000Z</time>
      </trkpt>
      <trkpt lat="47.26123" lon="-2.34168">
        <ele>13.199999809265</ele>
        <time>2020-11-29T11:25:17.000Z</time>
      </trkpt>
      <trkpt lat="47.26103" lon="-2.34152">
        <ele>13.199999809265</ele>
        <time>2020-11-29T11:25:21.000Z</time>
      </trkpt>
      <trkpt lat="47.26098" lon="-2.3415">
        <ele>13.199999809265</ele>
        <time>2020-11-29T11:25:22.000Z</time>
      </trkpt>
      <trkpt lat="47.26058" lon="-2.34129">
        <ele>13.199999809265</ele>
        <time>2020-11-29T11:25:29.000Z</time>
      </trkpt>
      <trkpt lat="47.26009" lon="-2.34104">
        <ele>13.199999809265</ele>
        <time>2020-11-29T11:25:38.000Z</time>
      </trkpt>
      <trkpt lat="47.25967" lon="-2.34085">
        <ele>13.199999809265</ele>
        <time>2020-11-29T11:25:46.000Z</time>
      </trkpt>
      <trkpt lat="47.25924" lon="-2.34069">
        <ele>13.199999809265</ele>
        <time>2020-11-29T11:25:54.000Z</time>
      </trkpt>
      <trkpt lat="47.25913" lon="-2.34067">
        <ele>13.199999809265</ele>
        <time>2020-11-29T11:25:56.000Z</time>
      </trkpt>
      <trkpt lat="47.25903" lon="-2.34058">
        <ele>13.199999809265</ele>
        <time>2020-11-29T11:25:58.000Z</time>
      </trkpt>
      <trkpt lat="47.259" lon="-2.34034">
        <ele>13.199999809265</ele>
        <time>2020-11-29T11:26:01.000Z</time>
      </trkpt>
      <trkpt lat="47.25907" lon="-2.34003">
        <ele>13.199999809265</ele>
        <time>2020-11-29T11:26:05.000Z</time>
      </trkpt>
      <trkpt lat="47.25911" lon="-2.33987">
        <ele>13.199999809265</ele>
        <time>2020-11-29T11:26:07.000Z</time>
      </trkpt>
      <trkpt lat="47.25922" lon="-2.33958">
        <ele>12.800000190735</ele>
        <time>2020-11-29T11:26:11.000Z</time>
      </trkpt>
      <trkpt lat="47.25925" lon="-2.33951">
        <ele>12</ele>
        <time>2020-11-29T11:26:12.000Z</time>
      </trkpt>
      <trkpt lat="47.25928" lon="-2.33944">
        <ele>11.60000038147</ele>
        <time>2020-11-29T11:26:13.000Z</time>
      </trkpt>
      <trkpt lat="47.25931" lon="-2.33938">
        <ele>11.199999809265</ele>
        <time>2020-11-29T11:26:14.000Z</time>
      </trkpt>
      <trkpt lat="47.25941" lon="-2.33923">
        <ele>11.199999809265</ele>
        <time>2020-11-29T11:26:17.000Z</time>
      </trkpt>
      <trkpt lat="47.25944" lon="-2.33918">
        <ele>11.199999809265</ele>
        <time>2020-11-29T11:26:18.000Z</time>
      </trkpt>
      <trkpt lat="47.25947" lon="-2.33902">
        <ele>11.199999809265</ele>
        <time>2020-11-29T11:26:21.000Z</time>
      </trkpt>
      <trkpt lat="47.25949" lon="-2.33896">
        <ele>11.199999809265</ele>
        <time>2020-11-29T11:26:22.000Z</time>
      </trkpt>
      <trkpt lat="47.25956" lon="-2.33879">
        <ele>11.199999809265</ele>
        <time>2020-11-29T11:26:25.000Z</time>
      </trkpt>
      <trkpt lat="47.25971" lon="-2.33833">
        <ele>11.199999809265</ele>
        <time>2020-11-29T11:26:31.000Z</time>
      </trkpt>
      <trkpt lat="47.25989" lon="-2.33779">
        <ele>11.199999809265</ele>
        <time>2020-11-29T11:26:38.000Z</time>
      </trkpt>
      <trkpt lat="47.26008" lon="-2.33723">
        <ele>11.199999809265</ele>
        <time>2020-11-29T11:26:46.000Z</time>
      </trkpt>
      <trkpt lat="47.26022" lon="-2.33676">
        <ele>11.199999809265</ele>
        <time>2020-11-29T11:26:53.000Z</time>
      </trkpt>
      <trkpt lat="47.26028" lon="-2.33664">
        <ele>11.199999809265</ele>
        <time>2020-11-29T11:26:56.000Z</time>
      </trkpt>
      <trkpt lat="47.26031" lon="-2.33663">
        <ele>10.800000190735</ele>
        <time>2020-11-29T11:26:57.000Z</time>
      </trkpt>
      <trkpt lat="47.26034" lon="-2.33664">
        <ele>10.199999809265</ele>
        <time>2020-11-29T11:26:58.000Z</time>
      </trkpt>
      <trkpt lat="47.26037" lon="-2.33664">
        <ele>9.8000001907349</ele>
        <time>2020-11-29T11:26:59.000Z</time>
      </trkpt>
      <trkpt lat="47.2604" lon="-2.33665">
        <ele>9.3999996185303</ele>
        <time>2020-11-29T11:27:00.000Z</time>
      </trkpt>
      <trkpt lat="47.26044" lon="-2.33665">
        <ele>9</ele>
        <time>2020-11-29T11:27:01.000Z</time>
      </trkpt>
      <trkpt lat="47.26057" lon="-2.33664">
        <ele>9</ele>
        <time>2020-11-29T11:27:05.000Z</time>
      </trkpt>
      <trkpt lat="47.2606" lon="-2.33651">
        <ele>9</ele>
        <time>2020-11-29T11:27:08.000Z</time>
      </trkpt>
      <trkpt lat="47.26066" lon="-2.33633">
        <ele>9</ele>
        <time>2020-11-29T11:27:12.000Z</time>
      </trkpt>
      <trkpt lat="47.26068" lon="-2.33628">
        <ele>9</ele>
        <time>2020-11-29T11:27:13.000Z</time>
      </trkpt>
      <trkpt lat="47.26082" lon="-2.33585">
        <ele>9</ele>
        <time>2020-11-29T11:27:21.000Z</time>
      </trkpt>
      <trkpt lat="47.26094" lon="-2.33553">
        <ele>9</ele>
        <time>2020-11-29T11:27:27.000Z</time>
      </trkpt>
      <trkpt lat="47.26097" lon="-2.33543">
        <ele>9</ele>
        <time>2020-11-29T11:27:29.000Z</time>
      </trkpt>
      <trkpt lat="47.26116" lon="-2.33491">
        <ele>9</ele>
        <time>2020-11-29T11:27:38.000Z</time>
      </trkpt>
      <trkpt lat="47.2613" lon="-2.33454">
        <ele>9</ele>
        <time>2020-11-29T11:27:45.000Z</time>
      </trkpt>
      <trkpt lat="47.26138" lon="-2.33433">
        <ele>9</ele>
        <time>2020-11-29T11:27:49.000Z</time>
      </trkpt>
      <trkpt lat="47.26138" lon="-2.33421">
        <ele>9</ele>
        <time>2020-11-29T11:27:51.000Z</time>
      </trkpt>
      <trkpt lat="47.26127" lon="-2.33409">
        <ele>9</ele>
        <time>2020-11-29T11:27:54.000Z</time>
      </trkpt>
      <trkpt lat="47.26122" lon="-2.33406">
        <ele>9</ele>
        <time>2020-11-29T11:27:55.000Z</time>
      </trkpt>
      <trkpt lat="47.26112" lon="-2.33399">
        <ele>9</ele>
        <time>2020-11-29T11:27:57.000Z</time>
      </trkpt>
      <trkpt lat="47.26108" lon="-2.33393">
        <ele>9</ele>
        <time>2020-11-29T11:27:58.000Z</time>
      </trkpt>
      <trkpt lat="47.26096" lon="-2.33374">
        <ele>9</ele>
        <time>2020-11-29T11:28:01.000Z</time>
      </trkpt>
      <trkpt lat="47.26087" lon="-2.33363">
        <ele>9</ele>
        <time>2020-11-29T11:28:03.000Z</time>
      </trkpt>
      <trkpt lat="47.26072" lon="-2.33336">
        <ele>9</ele>
        <time>2020-11-29T11:28:07.000Z</time>
      </trkpt>
      <trkpt lat="47.26069" lon="-2.33329">
        <ele>9</ele>
        <time>2020-11-29T11:28:08.000Z</time>
      </trkpt>
      <trkpt lat="47.26051" lon="-2.33276">
        <ele>9</ele>
        <time>2020-11-29T11:28:15.000Z</time>
      </trkpt>
      <trkpt lat="47.26028" lon="-2.33213">
        <ele>9</ele>
        <time>2020-11-29T11:28:23.000Z</time>
      </trkpt>
      <trkpt lat="47.26006" lon="-2.33149">
        <ele>9</ele>
        <time>2020-11-29T11:28:31.000Z</time>
      </trkpt>
      <trkpt lat="47.25981" lon="-2.33077">
        <ele>9</ele>
        <time>2020-11-29T11:28:40.000Z</time>
      </trkpt>
      <trkpt lat="47.25958" lon="-2.33013">
        <ele>9</ele>
        <time>2020-11-29T11:28:48.000Z</time>
      </trkpt>
      <trkpt lat="47.25933" lon="-2.32942">
        <ele>9</ele>
        <time>2020-11-29T11:28:57.000Z</time>
      </trkpt>
      <trkpt lat="47.25908" lon="-2.3287">
        <ele>9</ele>
        <time>2020-11-29T11:29:06.000Z</time>
      </trkpt>
      <trkpt lat="47.25905" lon="-2.32862">
        <ele>9</ele>
        <time>2020-11-29T11:29:07.000Z</time>
      </trkpt>
      <trkpt lat="47.25878" lon="-2.32785">
        <ele>9</ele>
        <time>2020-11-29T11:29:17.000Z</time>
      </trkpt>
      <trkpt lat="47.25857" lon="-2.32714">
        <ele>9</ele>
        <time>2020-11-29T11:29:26.000Z</time>
      </trkpt>
      <trkpt lat="47.25843" lon="-2.32662">
        <ele>9</ele>
        <time>2020-11-29T11:29:33.000Z</time>
      </trkpt>
      <trkpt lat="47.25824" lon="-2.32591">
        <ele>9</ele>
        <time>2020-11-29T11:29:42.000Z</time>
      </trkpt>
      <trkpt lat="47.25807" lon="-2.32522">
        <ele>9</ele>
        <time>2020-11-29T11:29:51.000Z</time>
      </trkpt>
      <trkpt lat="47.258" lon="-2.3249">
        <ele>9</ele>
        <time>2020-11-29T11:29:56.000Z</time>
      </trkpt>
      <trkpt lat="47.25798" lon="-2.32481">
        <ele>9</ele>
        <time>2020-11-29T11:30:00.000Z</time>
      </trkpt>
      <trkpt lat="47.25797" lon="-2.32482">
        <ele>9</ele>
        <time>2020-11-29T11:33:18.000Z</time>
      </trkpt>
      <trkpt lat="47.25798" lon="-2.3248">
        <ele>9</ele>
        <time>2020-11-29T11:33:20.000Z</time>
      </trkpt>
      <trkpt lat="47.258" lon="-2.32479">
        <ele>9</ele>
        <time>2020-11-29T11:33:21.000Z</time>
      </trkpt>
      <trkpt lat="47.25802" lon="-2.32477">
        <ele>9</ele>
        <time>2020-11-29T11:33:23.000Z</time>
      </trkpt>
      <trkpt lat="47.25808" lon="-2.32472">
        <ele>9</ele>
        <time>2020-11-29T11:33:26.000Z</time>
      </trkpt>
      <trkpt lat="47.25823" lon="-2.32476">
        <ele>9</ele>
        <time>2020-11-29T11:33:30.000Z</time>
      </trkpt>
      <trkpt lat="47.25839" lon="-2.32485">
        <ele>9</ele>
        <time>2020-11-29T11:33:34.000Z</time>
      </trkpt>
      <trkpt lat="47.25848" lon="-2.32485">
        <ele>9</ele>
        <time>2020-11-29T11:33:36.000Z</time>
      </trkpt>
      <trkpt lat="47.25867" lon="-2.32486">
        <ele>9</ele>
        <time>2020-11-29T11:33:41.000Z</time>
      </trkpt>
      <trkpt lat="47.25882" lon="-2.32485">
        <ele>9</ele>
        <time>2020-11-29T11:33:44.000Z</time>
      </trkpt>
      <trkpt lat="47.2589" lon="-2.32477">
        <ele>9</ele>
        <time>2020-11-29T11:33:46.000Z</time>
      </trkpt>
      <trkpt lat="47.25895" lon="-2.32462">
        <ele>9</ele>
        <time>2020-11-29T11:33:49.000Z</time>
      </trkpt>
      <trkpt lat="47.25906" lon="-2.32447">
        <ele>9</ele>
        <time>2020-11-29T11:33:52.000Z</time>
      </trkpt>
      <trkpt lat="47.25914" lon="-2.32438">
        <ele>9</ele>
        <time>2020-11-29T11:33:54.000Z</time>
      </trkpt>
      <trkpt lat="47.25946" lon="-2.32396">
        <ele>9</ele>
        <time>2020-11-29T11:34:02.000Z</time>
      </trkpt>
      <trkpt lat="47.25981" lon="-2.32349">
        <ele>9</ele>
        <time>2020-11-29T11:34:11.000Z</time>
      </trkpt>
      <trkpt lat="47.26015" lon="-2.32308">
        <ele>9</ele>
        <time>2020-11-29T11:34:19.000Z</time>
      </trkpt>
      <trkpt lat="47.2605" lon="-2.32269">
        <ele>9</ele>
        <time>2020-11-29T11:34:27.000Z</time>
      </trkpt>
      <trkpt lat="47.26078" lon="-2.32233">
        <ele>9</ele>
        <time>2020-11-29T11:34:34.000Z</time>
      </trkpt>
      <trkpt lat="47.26097" lon="-2.32207">
        <ele>9</ele>
        <time>2020-11-29T11:34:39.000Z</time>
      </trkpt>
      <trkpt lat="47.26106" lon="-2.32188">
        <ele>9</ele>
        <time>2020-11-29T11:34:42.000Z</time>
      </trkpt>
      <trkpt lat="47.26123" lon="-2.32142">
        <ele>9</ele>
        <time>2020-11-29T11:34:49.000Z</time>
      </trkpt>
      <trkpt lat="47.26131" lon="-2.32114">
        <ele>9</ele>
        <time>2020-11-29T11:34:53.000Z</time>
      </trkpt>
      <trkpt lat="47.26135" lon="-2.32101">
        <ele>9</ele>
        <time>2020-11-29T11:34:55.000Z</time>
      </trkpt>
      <trkpt lat="47.26152" lon="-2.32052">
        <ele>9</ele>
        <time>2020-11-29T11:35:02.000Z</time>
      </trkpt>
      <trkpt lat="47.26162" lon="-2.32027">
        <ele>9</ele>
        <time>2020-11-29T11:35:06.000Z</time>
      </trkpt>
      <trkpt lat="47.2617" lon="-2.32021">
        <ele>9</ele>
        <time>2020-11-29T11:35:08.000Z</time>
      </trkpt>
      <trkpt lat="47.26182" lon="-2.3202">
        <ele>9</ele>
        <time>2020-11-29T11:35:11.000Z</time>
      </trkpt>
      <trkpt lat="47.26186" lon="-2.32021">
        <ele>9</ele>
        <time>2020-11-29T11:35:12.000Z</time>
      </trkpt>
      <trkpt lat="47.26197" lon="-2.32023">
        <ele>9</ele>
        <time>2020-11-29T11:35:16.000Z</time>
      </trkpt>
      <trkpt lat="47.26198" lon="-2.32021">
        <ele>8.6000003814697</ele>
        <time>2020-11-29T11:35:17.000Z</time>
      </trkpt>
      <trkpt lat="47.26199" lon="-2.32018">
        <ele>8.1999998092651</ele>
        <time>2020-11-29T11:35:18.000Z</time>
      </trkpt>
      <trkpt lat="47.26199" lon="-2.32014">
        <ele>7.5999999046326</ele>
        <time>2020-11-29T11:35:19.000Z</time>
      </trkpt>
      <trkpt lat="47.26199" lon="-2.32011">
        <ele>7.1999998092651</ele>
        <time>2020-11-29T11:35:20.000Z</time>
      </trkpt>
      <trkpt lat="47.262" lon="-2.32007">
        <ele>6.8000001907349</ele>
        <time>2020-11-29T11:35:21.000Z</time>
      </trkpt>
      <trkpt lat="47.26206" lon="-2.31995">
        <ele>6.8000001907349</ele>
        <time>2020-11-29T11:35:25.000Z</time>
      </trkpt>
      <trkpt lat="47.26219" lon="-2.31974">
        <ele>6.8000001907349</ele>
        <time>2020-11-29T11:35:31.000Z</time>
      </trkpt>
      <trkpt lat="47.26238" lon="-2.31956">
        <ele>6.8000001907349</ele>
        <time>2020-11-29T11:35:36.000Z</time>
      </trkpt>
      <trkpt lat="47.26249" lon="-2.31938">
        <ele>6.8000001907349</ele>
        <time>2020-11-29T11:35:41.000Z</time>
      </trkpt>
      <trkpt lat="47.2626" lon="-2.31916">
        <ele>6.8000001907349</ele>
        <time>2020-11-29T11:35:47.000Z</time>
      </trkpt>
      <trkpt lat="47.26279" lon="-2.31896">
        <ele>6.8000001907349</ele>
        <time>2020-11-29T11:35:53.000Z</time>
      </trkpt>
      <trkpt lat="47.26293" lon="-2.31881">
        <ele>6.8000001907349</ele>
        <time>2020-11-29T11:35:58.000Z</time>
      </trkpt>
      <trkpt lat="47.26293" lon="-2.31876">
        <ele>6.8000001907349</ele>
        <time>2020-11-29T11:35:59.000Z</time>
      </trkpt>
      <trkpt lat="47.26293" lon="-2.31866">
        <ele>6.8000001907349</ele>
        <time>2020-11-29T11:36:01.000Z</time>
      </trkpt>
      <trkpt lat="47.26298" lon="-2.31846">
        <ele>6.8000001907349</ele>
        <time>2020-11-29T11:36:05.000Z</time>
      </trkpt>
      <trkpt lat="47.26301" lon="-2.31807">
        <ele>6.8000001907349</ele>
        <time>2020-11-29T11:36:11.000Z</time>
      </trkpt>
      <trkpt lat="47.263" lon="-2.31767">
        <ele>6.8000001907349</ele>
        <time>2020-11-29T11:36:18.000Z</time>
      </trkpt>
      <trkpt lat="47.26298" lon="-2.31734">
        <ele>6.8000001907349</ele>
        <time>2020-11-29T11:36:23.000Z</time>
      </trkpt>
      <trkpt lat="47.26303" lon="-2.31719">
        <ele>6.8000001907349</ele>
        <time>2020-11-29T11:36:26.000Z</time>
      </trkpt>
      <trkpt lat="47.26307" lon="-2.31716">
        <ele>6.8000001907349</ele>
        <time>2020-11-29T11:36:27.000Z</time>
      </trkpt>
      <trkpt lat="47.26324" lon="-2.31706">
        <ele>7.1999998092651</ele>
        <time>2020-11-29T11:36:32.000Z</time>
      </trkpt>
      <trkpt lat="47.26326" lon="-2.31704">
        <ele>7.5999999046326</ele>
        <time>2020-11-29T11:36:33.000Z</time>
      </trkpt>
      <trkpt lat="47.26329" lon="-2.31701">
        <ele>8.1999998092651</ele>
        <time>2020-11-29T11:36:34.000Z</time>
      </trkpt>
      <trkpt lat="47.26331" lon="-2.31698">
        <ele>8.6000003814697</ele>
        <time>2020-11-29T11:36:35.000Z</time>
      </trkpt>
      <trkpt lat="47.26332" lon="-2.31694">
        <ele>9</ele>
        <time>2020-11-29T11:36:36.000Z</time>
      </trkpt>
      <trkpt lat="47.26334" lon="-2.3169">
        <ele>9</ele>
        <time>2020-11-29T11:36:37.000Z</time>
      </trkpt>
      <trkpt lat="47.26337" lon="-2.31689">
        <ele>9</ele>
        <time>2020-11-29T11:36:38.000Z</time>
      </trkpt>
      <trkpt lat="47.26343" lon="-2.31684">
        <ele>9</ele>
        <time>2020-11-29T11:36:40.000Z</time>
      </trkpt>
      <trkpt lat="47.26358" lon="-2.31676">
        <ele>9.3999996185303</ele>
        <time>2020-11-29T11:36:45.000Z</time>
      </trkpt>
      <trkpt lat="47.2636" lon="-2.31674">
        <ele>9.8000001907349</ele>
        <time>2020-11-29T11:36:46.000Z</time>
      </trkpt>
      <trkpt lat="47.26363" lon="-2.31672">
        <ele>10.199999809265</ele>
        <time>2020-11-29T11:36:47.000Z</time>
      </trkpt>
      <trkpt lat="47.26366" lon="-2.31671">
        <ele>10.60000038147</ele>
        <time>2020-11-29T11:36:48.000Z</time>
      </trkpt>
      <trkpt lat="47.2637" lon="-2.31669">
        <ele>11</ele>
        <time>2020-11-29T11:36:49.000Z</time>
      </trkpt>
      <trkpt lat="47.26382" lon="-2.31663">
        <ele>11</ele>
        <time>2020-11-29T11:36:53.000Z</time>
      </trkpt>
      <trkpt lat="47.26397" lon="-2.31654">
        <ele>11</ele>
        <time>2020-11-29T11:36:58.000Z</time>
      </trkpt>
      <trkpt lat="47.2641" lon="-2.31639">
        <ele>11</ele>
        <time>2020-11-29T11:37:03.000Z</time>
      </trkpt>
      <trkpt lat="47.2641" lon="-2.31611">
        <ele>11</ele>
        <time>2020-11-29T11:37:09.000Z</time>
      </trkpt>
      <trkpt lat="47.2641" lon="-2.31607">
        <ele>11.39999961853</ele>
        <time>2020-11-29T11:37:10.000Z</time>
      </trkpt>
      <trkpt lat="47.2641" lon="-2.31603">
        <ele>11.800000190735</ele>
        <time>2020-11-29T11:37:11.000Z</time>
      </trkpt>
      <trkpt lat="47.2641" lon="-2.31598">
        <ele>12.199999809265</ele>
        <time>2020-11-29T11:37:12.000Z</time>
      </trkpt>
      <trkpt lat="47.2641" lon="-2.31593">
        <ele>12.60000038147</ele>
        <time>2020-11-29T11:37:13.000Z</time>
      </trkpt>
      <trkpt lat="47.2641" lon="-2.31589">
        <ele>13</ele>
        <time>2020-11-29T11:37:14.000Z</time>
      </trkpt>
      <trkpt lat="47.26411" lon="-2.31579">
        <ele>13</ele>
        <time>2020-11-29T11:37:16.000Z</time>
      </trkpt>
      <trkpt lat="47.26411" lon="-2.31553">
        <ele>13</ele>
        <time>2020-11-29T11:37:22.000Z</time>
      </trkpt>
      <trkpt lat="47.26412" lon="-2.31551">
        <ele>13</ele>
        <time>2020-11-29T11:37:23.000Z</time>
      </trkpt>
      <trkpt lat="47.26416" lon="-2.31552">
        <ele>13</ele>
        <time>2020-11-29T11:37:25.000Z</time>
      </trkpt>
      <trkpt lat="47.26417" lon="-2.31552">
        <ele>13</ele>
        <time>2020-11-29T11:37:28.000Z</time>
      </trkpt>
    </trkseg>
  </trk>
</gpx>